<?xml version="1.0" encoding="UTF-8" standalone="no" ?>
<gpx xmlns="http://www.topografix.com/GPX/1/1" xmlns:xsi="http://www.w3.org/2001/XMLSchema-instance" xsi:schemaLocation="http://www.topografix.com/GPX/1/1 http://www.topografix.com/GPX/1/1/gpx.xsd" version="1.1" creator="VisuGPX - https://www.visugpx.com">
  <metadata>
    <name>2012-04-07 monts d\\\'or</name>
    <desc><![CDATA[Rando vélo de route dans les monts d\'or]]></desc>
  </metadata>
  <trk>
    <name><![CDATA[2012-04-07 monts d\\\'or_1]]></name>
    <trkseg>
      <trkpt lat="45.78649" lon="4.86017">
        <ele>191</ele>
        <time>2012-04-07T12:31:23Z</time>
      </trkpt>
      <trkpt lat="45.78679" lon="4.86022">
        <ele>188</ele>
        <time>2012-04-07T12:31:29Z</time>
      </trkpt>
      <trkpt lat="45.7869" lon="4.86025">
        <ele>186</ele>
        <time>2012-04-07T12:31:32Z</time>
      </trkpt>
      <trkpt lat="45.78702" lon="4.86027">
        <ele>186</ele>
        <time>2012-04-07T12:31:35Z</time>
      </trkpt>
      <trkpt lat="45.78713" lon="4.86028">
        <ele>186</ele>
        <time>2012-04-07T12:31:38Z</time>
      </trkpt>
      <trkpt lat="45.78723" lon="4.86028">
        <ele>186</ele>
        <time>2012-04-07T12:31:41Z</time>
      </trkpt>
      <trkpt lat="45.78744" lon="4.86027">
        <ele>188</ele>
        <time>2012-04-07T12:31:45Z</time>
      </trkpt>
      <trkpt lat="45.78754" lon="4.86029">
        <ele>190</ele>
        <time>2012-04-07T12:31:48Z</time>
      </trkpt>
      <trkpt lat="45.78765" lon="4.86031">
        <ele>192</ele>
        <time>2012-04-07T12:31:51Z</time>
      </trkpt>
      <trkpt lat="45.78776" lon="4.8603">
        <ele>193</ele>
        <time>2012-04-07T12:31:54Z</time>
      </trkpt>
      <trkpt lat="45.78786" lon="4.8603">
        <ele>196</ele>
        <time>2012-04-07T12:31:57Z</time>
      </trkpt>
      <trkpt lat="45.78797" lon="4.8603">
        <ele>197</ele>
        <time>2012-04-07T12:32:00Z</time>
      </trkpt>
      <trkpt lat="45.78808" lon="4.8603">
        <ele>197</ele>
        <time>2012-04-07T12:32:03Z</time>
      </trkpt>
      <trkpt lat="45.78818" lon="4.86029">
        <ele>197</ele>
        <time>2012-04-07T12:32:06Z</time>
      </trkpt>
      <trkpt lat="45.78827" lon="4.86027">
        <ele>197</ele>
        <time>2012-04-07T12:32:09Z</time>
      </trkpt>
      <trkpt lat="45.78837" lon="4.86025">
        <ele>197</ele>
        <time>2012-04-07T12:32:12Z</time>
      </trkpt>
      <trkpt lat="45.78849" lon="4.86023">
        <ele>195</ele>
        <time>2012-04-07T12:32:15Z</time>
      </trkpt>
      <trkpt lat="45.7886" lon="4.86022">
        <ele>193</ele>
        <time>2012-04-07T12:32:18Z</time>
      </trkpt>
      <trkpt lat="45.78873" lon="4.86024">
        <ele>193</ele>
        <time>2012-04-07T12:32:21Z</time>
      </trkpt>
      <trkpt lat="45.78884" lon="4.86031">
        <ele>192</ele>
        <time>2012-04-07T12:32:24Z</time>
      </trkpt>
      <trkpt lat="45.78891" lon="4.86042">
        <ele>192</ele>
        <time>2012-04-07T12:32:27Z</time>
      </trkpt>
      <trkpt lat="45.78899" lon="4.86043">
        <ele>192</ele>
        <time>2012-04-07T12:32:30Z</time>
      </trkpt>
      <trkpt lat="45.78909" lon="4.86042">
        <ele>192</ele>
        <time>2012-04-07T12:32:33Z</time>
      </trkpt>
      <trkpt lat="45.78921" lon="4.86042">
        <ele>192</ele>
        <time>2012-04-07T12:32:36Z</time>
      </trkpt>
      <trkpt lat="45.78933" lon="4.86039">
        <ele>192</ele>
        <time>2012-04-07T12:32:39Z</time>
      </trkpt>
      <trkpt lat="45.78944" lon="4.86038">
        <ele>192</ele>
        <time>2012-04-07T12:32:42Z</time>
      </trkpt>
      <trkpt lat="45.78957" lon="4.86034">
        <ele>192</ele>
        <time>2012-04-07T12:32:45Z</time>
      </trkpt>
      <trkpt lat="45.7897" lon="4.86032">
        <ele>192</ele>
        <time>2012-04-07T12:32:48Z</time>
      </trkpt>
      <trkpt lat="45.78983" lon="4.86029">
        <ele>192</ele>
        <time>2012-04-07T12:32:51Z</time>
      </trkpt>
      <trkpt lat="45.78997" lon="4.86026">
        <ele>192</ele>
        <time>2012-04-07T12:32:54Z</time>
      </trkpt>
      <trkpt lat="45.79012" lon="4.86024">
        <ele>192</ele>
        <time>2012-04-07T12:32:57Z</time>
      </trkpt>
      <trkpt lat="45.79026" lon="4.86024">
        <ele>192</ele>
        <time>2012-04-07T12:33:00Z</time>
      </trkpt>
      <trkpt lat="45.7904" lon="4.86021">
        <ele>192</ele>
        <time>2012-04-07T12:33:03Z</time>
      </trkpt>
      <trkpt lat="45.79055" lon="4.8602">
        <ele>192</ele>
        <time>2012-04-07T12:33:06Z</time>
      </trkpt>
      <trkpt lat="45.79069" lon="4.86022">
        <ele>193</ele>
        <time>2012-04-07T12:33:09Z</time>
      </trkpt>
      <trkpt lat="45.79083" lon="4.86023">
        <ele>195</ele>
        <time>2012-04-07T12:33:12Z</time>
      </trkpt>
      <trkpt lat="45.79095" lon="4.86024">
        <ele>195</ele>
        <time>2012-04-07T12:33:15Z</time>
      </trkpt>
      <trkpt lat="45.79106" lon="4.86026">
        <ele>195</ele>
        <time>2012-04-07T12:33:18Z</time>
      </trkpt>
      <trkpt lat="45.79111" lon="4.86025">
        <ele>195</ele>
        <time>2012-04-07T12:33:22Z</time>
      </trkpt>
      <trkpt lat="45.79111" lon="4.86027">
        <ele>195</ele>
        <time>2012-04-07T12:33:25Z</time>
      </trkpt>
      <trkpt lat="45.79112" lon="4.86027">
        <ele>190</ele>
        <time>2012-04-07T12:33:33Z</time>
      </trkpt>
      <trkpt lat="45.79113" lon="4.86029">
        <ele>188</ele>
        <time>2012-04-07T12:33:38Z</time>
      </trkpt>
      <trkpt lat="45.79113" lon="4.86031">
        <ele>188</ele>
        <time>2012-04-07T12:33:41Z</time>
      </trkpt>
      <trkpt lat="45.79114" lon="4.8603">
        <ele>181</ele>
        <time>2012-04-07T12:34:14Z</time>
      </trkpt>
      <trkpt lat="45.79119" lon="4.8603">
        <ele>181</ele>
        <time>2012-04-07T12:34:17Z</time>
      </trkpt>
      <trkpt lat="45.79125" lon="4.86036">
        <ele>181</ele>
        <time>2012-04-07T12:34:20Z</time>
      </trkpt>
      <trkpt lat="45.79128" lon="4.8604">
        <ele>181</ele>
        <time>2012-04-07T12:34:23Z</time>
      </trkpt>
      <trkpt lat="45.79134" lon="4.86043">
        <ele>181</ele>
        <time>2012-04-07T12:34:27Z</time>
      </trkpt>
      <trkpt lat="45.79137" lon="4.86043">
        <ele>181</ele>
        <time>2012-04-07T12:34:31Z</time>
      </trkpt>
      <trkpt lat="45.79137" lon="4.86045">
        <ele>185</ele>
        <time>2012-04-07T12:34:36Z</time>
      </trkpt>
      <trkpt lat="45.79138" lon="4.86052">
        <ele>188</ele>
        <time>2012-04-07T12:34:40Z</time>
      </trkpt>
      <trkpt lat="45.79139" lon="4.86057">
        <ele>188</ele>
        <time>2012-04-07T12:34:43Z</time>
      </trkpt>
      <trkpt lat="45.79142" lon="4.86064">
        <ele>186</ele>
        <time>2012-04-07T12:34:46Z</time>
      </trkpt>
      <trkpt lat="45.79142" lon="4.8607">
        <ele>183</ele>
        <time>2012-04-07T12:34:49Z</time>
      </trkpt>
      <trkpt lat="45.79142" lon="4.86074">
        <ele>179</ele>
        <time>2012-04-07T12:34:53Z</time>
      </trkpt>
      <trkpt lat="45.79142" lon="4.86078">
        <ele>174</ele>
        <time>2012-04-07T12:34:58Z</time>
      </trkpt>
      <trkpt lat="45.79139" lon="4.86085">
        <ele>174</ele>
        <time>2012-04-07T12:35:01Z</time>
      </trkpt>
      <trkpt lat="45.79139" lon="4.8609">
        <ele>176</ele>
        <time>2012-04-07T12:35:09Z</time>
      </trkpt>
      <trkpt lat="45.7914" lon="4.8609">
        <ele>180</ele>
        <time>2012-04-07T12:35:21Z</time>
      </trkpt>
      <trkpt lat="45.79142" lon="4.86092">
        <ele>180</ele>
        <time>2012-04-07T12:35:24Z</time>
      </trkpt>
      <trkpt lat="45.79142" lon="4.86096">
        <ele>176</ele>
        <time>2012-04-07T12:35:28Z</time>
      </trkpt>
      <trkpt lat="45.79142" lon="4.86098">
        <ele>175</ele>
        <time>2012-04-07T12:35:31Z</time>
      </trkpt>
      <trkpt lat="45.7914" lon="4.86102">
        <ele>175</ele>
        <time>2012-04-07T12:35:35Z</time>
      </trkpt>
      <trkpt lat="45.7914" lon="4.86101">
        <ele>177</ele>
        <time>2012-04-07T12:35:39Z</time>
      </trkpt>
      <trkpt lat="45.79141" lon="4.861">
        <ele>177</ele>
        <time>2012-04-07T12:35:49Z</time>
      </trkpt>
      <trkpt lat="45.79142" lon="4.86102">
        <ele>177</ele>
        <time>2012-04-07T12:35:55Z</time>
      </trkpt>
      <trkpt lat="45.79144" lon="4.86109">
        <ele>175</ele>
        <time>2012-04-07T12:35:59Z</time>
      </trkpt>
      <trkpt lat="45.79145" lon="4.86117">
        <ele>172</ele>
        <time>2012-04-07T12:36:02Z</time>
      </trkpt>
      <trkpt lat="45.79145" lon="4.86128">
        <ele>168</ele>
        <time>2012-04-07T12:36:05Z</time>
      </trkpt>
      <trkpt lat="45.79144" lon="4.86139">
        <ele>165</ele>
        <time>2012-04-07T12:36:08Z</time>
      </trkpt>
      <trkpt lat="45.79145" lon="4.8615">
        <ele>163</ele>
        <time>2012-04-07T12:36:11Z</time>
      </trkpt>
      <trkpt lat="45.79151" lon="4.86156">
        <ele>163</ele>
        <time>2012-04-07T12:36:14Z</time>
      </trkpt>
      <trkpt lat="45.79161" lon="4.86154">
        <ele>163</ele>
        <time>2012-04-07T12:36:17Z</time>
      </trkpt>
      <trkpt lat="45.7917" lon="4.86146">
        <ele>164</ele>
        <time>2012-04-07T12:36:20Z</time>
      </trkpt>
      <trkpt lat="45.7918" lon="4.86135">
        <ele>167</ele>
        <time>2012-04-07T12:36:23Z</time>
      </trkpt>
      <trkpt lat="45.79192" lon="4.86124">
        <ele>170</ele>
        <time>2012-04-07T12:36:26Z</time>
      </trkpt>
      <trkpt lat="45.79205" lon="4.86111">
        <ele>173</ele>
        <time>2012-04-07T12:36:29Z</time>
      </trkpt>
      <trkpt lat="45.79215" lon="4.86099">
        <ele>175</ele>
        <time>2012-04-07T12:36:32Z</time>
      </trkpt>
      <trkpt lat="45.79224" lon="4.86088">
        <ele>175</ele>
        <time>2012-04-07T12:36:35Z</time>
      </trkpt>
      <trkpt lat="45.79234" lon="4.86079">
        <ele>175</ele>
        <time>2012-04-07T12:36:38Z</time>
      </trkpt>
      <trkpt lat="45.79242" lon="4.8607">
        <ele>176</ele>
        <time>2012-04-07T12:36:41Z</time>
      </trkpt>
      <trkpt lat="45.7925" lon="4.86062">
        <ele>176</ele>
        <time>2012-04-07T12:36:44Z</time>
      </trkpt>
      <trkpt lat="45.79259" lon="4.86054">
        <ele>177</ele>
        <time>2012-04-07T12:36:47Z</time>
      </trkpt>
      <trkpt lat="45.79268" lon="4.86047">
        <ele>178</ele>
        <time>2012-04-07T12:36:50Z</time>
      </trkpt>
      <trkpt lat="45.79276" lon="4.8604">
        <ele>180</ele>
        <time>2012-04-07T12:36:53Z</time>
      </trkpt>
      <trkpt lat="45.79285" lon="4.86033">
        <ele>182</ele>
        <time>2012-04-07T12:36:56Z</time>
      </trkpt>
      <trkpt lat="45.79293" lon="4.86027">
        <ele>184</ele>
        <time>2012-04-07T12:36:59Z</time>
      </trkpt>
      <trkpt lat="45.79301" lon="4.86021">
        <ele>185</ele>
        <time>2012-04-07T12:37:02Z</time>
      </trkpt>
      <trkpt lat="45.7931" lon="4.86016">
        <ele>187</ele>
        <time>2012-04-07T12:37:05Z</time>
      </trkpt>
      <trkpt lat="45.79321" lon="4.86015">
        <ele>189</ele>
        <time>2012-04-07T12:37:08Z</time>
      </trkpt>
      <trkpt lat="45.79332" lon="4.86015">
        <ele>190</ele>
        <time>2012-04-07T12:37:11Z</time>
      </trkpt>
      <trkpt lat="45.79344" lon="4.86016">
        <ele>190</ele>
        <time>2012-04-07T12:37:14Z</time>
      </trkpt>
      <trkpt lat="45.79356" lon="4.86021">
        <ele>191</ele>
        <time>2012-04-07T12:37:17Z</time>
      </trkpt>
      <trkpt lat="45.79369" lon="4.8603">
        <ele>192</ele>
        <time>2012-04-07T12:37:20Z</time>
      </trkpt>
      <trkpt lat="45.79383" lon="4.86039">
        <ele>193</ele>
        <time>2012-04-07T12:37:23Z</time>
      </trkpt>
      <trkpt lat="45.79396" lon="4.86047">
        <ele>195</ele>
        <time>2012-04-07T12:37:26Z</time>
      </trkpt>
      <trkpt lat="45.79409" lon="4.86057">
        <ele>197</ele>
        <time>2012-04-07T12:37:29Z</time>
      </trkpt>
      <trkpt lat="45.79417" lon="4.86073">
        <ele>197</ele>
        <time>2012-04-07T12:37:32Z</time>
      </trkpt>
      <trkpt lat="45.79412" lon="4.8609">
        <ele>198</ele>
        <time>2012-04-07T12:37:35Z</time>
      </trkpt>
      <trkpt lat="45.79399" lon="4.86102">
        <ele>199</ele>
        <time>2012-04-07T12:37:38Z</time>
      </trkpt>
      <trkpt lat="45.79387" lon="4.86115">
        <ele>199</ele>
        <time>2012-04-07T12:37:41Z</time>
      </trkpt>
      <trkpt lat="45.79377" lon="4.86127">
        <ele>200</ele>
        <time>2012-04-07T12:37:44Z</time>
      </trkpt>
      <trkpt lat="45.79366" lon="4.86139">
        <ele>201</ele>
        <time>2012-04-07T12:37:47Z</time>
      </trkpt>
      <trkpt lat="45.79358" lon="4.86155">
        <ele>201</ele>
        <time>2012-04-07T12:37:50Z</time>
      </trkpt>
      <trkpt lat="45.79353" lon="4.8617">
        <ele>201</ele>
        <time>2012-04-07T12:37:53Z</time>
      </trkpt>
      <trkpt lat="45.79348" lon="4.86184">
        <ele>201</ele>
        <time>2012-04-07T12:37:56Z</time>
      </trkpt>
      <trkpt lat="45.79345" lon="4.862">
        <ele>201</ele>
        <time>2012-04-07T12:37:59Z</time>
      </trkpt>
      <trkpt lat="45.79347" lon="4.86215">
        <ele>201</ele>
        <time>2012-04-07T12:38:02Z</time>
      </trkpt>
      <trkpt lat="45.7935" lon="4.86232">
        <ele>201</ele>
        <time>2012-04-07T12:38:05Z</time>
      </trkpt>
      <trkpt lat="45.79352" lon="4.86248">
        <ele>201</ele>
        <time>2012-04-07T12:38:08Z</time>
      </trkpt>
      <trkpt lat="45.79354" lon="4.86262">
        <ele>201</ele>
        <time>2012-04-07T12:38:11Z</time>
      </trkpt>
      <trkpt lat="45.79345" lon="4.86274">
        <ele>201</ele>
        <time>2012-04-07T12:38:14Z</time>
      </trkpt>
      <trkpt lat="45.79336" lon="4.86283">
        <ele>201</ele>
        <time>2012-04-07T12:38:17Z</time>
      </trkpt>
      <trkpt lat="45.79327" lon="4.86291">
        <ele>201</ele>
        <time>2012-04-07T12:38:20Z</time>
      </trkpt>
      <trkpt lat="45.79319" lon="4.86301">
        <ele>201</ele>
        <time>2012-04-07T12:38:23Z</time>
      </trkpt>
      <trkpt lat="45.79311" lon="4.86311">
        <ele>203</ele>
        <time>2012-04-07T12:38:26Z</time>
      </trkpt>
      <trkpt lat="45.79305" lon="4.86322">
        <ele>206</ele>
        <time>2012-04-07T12:38:29Z</time>
      </trkpt>
      <trkpt lat="45.79301" lon="4.86333">
        <ele>209</ele>
        <time>2012-04-07T12:38:32Z</time>
      </trkpt>
      <trkpt lat="45.79296" lon="4.86343">
        <ele>212</ele>
        <time>2012-04-07T12:38:35Z</time>
      </trkpt>
      <trkpt lat="45.79292" lon="4.86354">
        <ele>215</ele>
        <time>2012-04-07T12:38:38Z</time>
      </trkpt>
      <trkpt lat="45.79285" lon="4.86364">
        <ele>218</ele>
        <time>2012-04-07T12:38:41Z</time>
      </trkpt>
      <trkpt lat="45.79278" lon="4.86374">
        <ele>221</ele>
        <time>2012-04-07T12:38:44Z</time>
      </trkpt>
      <trkpt lat="45.79271" lon="4.86384">
        <ele>221</ele>
        <time>2012-04-07T12:38:47Z</time>
      </trkpt>
      <trkpt lat="45.79267" lon="4.86397">
        <ele>221</ele>
        <time>2012-04-07T12:38:50Z</time>
      </trkpt>
      <trkpt lat="45.79274" lon="4.86405">
        <ele>221</ele>
        <time>2012-04-07T12:38:53Z</time>
      </trkpt>
      <trkpt lat="45.79284" lon="4.86402">
        <ele>221</ele>
        <time>2012-04-07T12:38:56Z</time>
      </trkpt>
      <trkpt lat="45.79292" lon="4.86398">
        <ele>221</ele>
        <time>2012-04-07T12:38:59Z</time>
      </trkpt>
      <trkpt lat="45.793" lon="4.86394">
        <ele>221</ele>
        <time>2012-04-07T12:39:02Z</time>
      </trkpt>
      <trkpt lat="45.79309" lon="4.86389">
        <ele>221</ele>
        <time>2012-04-07T12:39:05Z</time>
      </trkpt>
      <trkpt lat="45.79318" lon="4.86384">
        <ele>221</ele>
        <time>2012-04-07T12:39:08Z</time>
      </trkpt>
      <trkpt lat="45.7933" lon="4.86376">
        <ele>221</ele>
        <time>2012-04-07T12:39:11Z</time>
      </trkpt>
      <trkpt lat="45.79339" lon="4.86368">
        <ele>220</ele>
        <time>2012-04-07T12:39:14Z</time>
      </trkpt>
      <trkpt lat="45.79347" lon="4.8636">
        <ele>218</ele>
        <time>2012-04-07T12:39:17Z</time>
      </trkpt>
      <trkpt lat="45.79353" lon="4.86356">
        <ele>218</ele>
        <time>2012-04-07T12:39:20Z</time>
      </trkpt>
      <trkpt lat="45.79361" lon="4.86354">
        <ele>218</ele>
        <time>2012-04-07T12:39:23Z</time>
      </trkpt>
      <trkpt lat="45.7937" lon="4.86351">
        <ele>218</ele>
        <time>2012-04-07T12:39:26Z</time>
      </trkpt>
      <trkpt lat="45.79379" lon="4.86348">
        <ele>219</ele>
        <time>2012-04-07T12:39:29Z</time>
      </trkpt>
      <trkpt lat="45.79388" lon="4.86341">
        <ele>219</ele>
        <time>2012-04-07T12:39:32Z</time>
      </trkpt>
      <trkpt lat="45.79396" lon="4.86335">
        <ele>219</ele>
        <time>2012-04-07T12:39:35Z</time>
      </trkpt>
      <trkpt lat="45.79403" lon="4.86328">
        <ele>219</ele>
        <time>2012-04-07T12:39:38Z</time>
      </trkpt>
      <trkpt lat="45.7941" lon="4.86319">
        <ele>219</ele>
        <time>2012-04-07T12:39:41Z</time>
      </trkpt>
      <trkpt lat="45.79415" lon="4.86308">
        <ele>219</ele>
        <time>2012-04-07T12:39:44Z</time>
      </trkpt>
      <trkpt lat="45.7942" lon="4.86296">
        <ele>219</ele>
        <time>2012-04-07T12:39:47Z</time>
      </trkpt>
      <trkpt lat="45.79424" lon="4.86283">
        <ele>219</ele>
        <time>2012-04-07T12:39:50Z</time>
      </trkpt>
      <trkpt lat="45.79427" lon="4.86269">
        <ele>219</ele>
        <time>2012-04-07T12:39:53Z</time>
      </trkpt>
      <trkpt lat="45.79432" lon="4.86256">
        <ele>219</ele>
        <time>2012-04-07T12:39:56Z</time>
      </trkpt>
      <trkpt lat="45.79437" lon="4.86243">
        <ele>219</ele>
        <time>2012-04-07T12:39:59Z</time>
      </trkpt>
      <trkpt lat="45.79442" lon="4.86232">
        <ele>219</ele>
        <time>2012-04-07T12:40:02Z</time>
      </trkpt>
      <trkpt lat="45.79447" lon="4.8622">
        <ele>219</ele>
        <time>2012-04-07T12:40:05Z</time>
      </trkpt>
      <trkpt lat="45.79454" lon="4.8621">
        <ele>219</ele>
        <time>2012-04-07T12:40:08Z</time>
      </trkpt>
      <trkpt lat="45.7946" lon="4.86199">
        <ele>219</ele>
        <time>2012-04-07T12:40:11Z</time>
      </trkpt>
      <trkpt lat="45.79467" lon="4.86194">
        <ele>219</ele>
        <time>2012-04-07T12:40:14Z</time>
      </trkpt>
      <trkpt lat="45.79475" lon="4.86191">
        <ele>221</ele>
        <time>2012-04-07T12:40:17Z</time>
      </trkpt>
      <trkpt lat="45.79483" lon="4.86188">
        <ele>223</ele>
        <time>2012-04-07T12:40:20Z</time>
      </trkpt>
      <trkpt lat="45.7949" lon="4.86188">
        <ele>226</ele>
        <time>2012-04-07T12:40:23Z</time>
      </trkpt>
      <trkpt lat="45.79498" lon="4.86187">
        <ele>229</ele>
        <time>2012-04-07T12:40:26Z</time>
      </trkpt>
      <trkpt lat="45.79506" lon="4.86185">
        <ele>231</ele>
        <time>2012-04-07T12:40:29Z</time>
      </trkpt>
      <trkpt lat="45.79513" lon="4.86182">
        <ele>234</ele>
        <time>2012-04-07T12:40:32Z</time>
      </trkpt>
      <trkpt lat="45.79523" lon="4.86183">
        <ele>235</ele>
        <time>2012-04-07T12:40:35Z</time>
      </trkpt>
      <trkpt lat="45.79532" lon="4.86184">
        <ele>236</ele>
        <time>2012-04-07T12:40:38Z</time>
      </trkpt>
      <trkpt lat="45.7954" lon="4.86184">
        <ele>236</ele>
        <time>2012-04-07T12:40:41Z</time>
      </trkpt>
      <trkpt lat="45.79548" lon="4.86186">
        <ele>236</ele>
        <time>2012-04-07T12:40:44Z</time>
      </trkpt>
      <trkpt lat="45.79556" lon="4.86193">
        <ele>237</ele>
        <time>2012-04-07T12:40:47Z</time>
      </trkpt>
      <trkpt lat="45.79564" lon="4.86202">
        <ele>238</ele>
        <time>2012-04-07T12:40:50Z</time>
      </trkpt>
      <trkpt lat="45.79571" lon="4.86211">
        <ele>239</ele>
        <time>2012-04-07T12:40:53Z</time>
      </trkpt>
      <trkpt lat="45.79578" lon="4.86221">
        <ele>240</ele>
        <time>2012-04-07T12:40:56Z</time>
      </trkpt>
      <trkpt lat="45.79584" lon="4.86234">
        <ele>241</ele>
        <time>2012-04-07T12:40:59Z</time>
      </trkpt>
      <trkpt lat="45.79589" lon="4.86247">
        <ele>241</ele>
        <time>2012-04-07T12:41:02Z</time>
      </trkpt>
      <trkpt lat="45.79595" lon="4.8626">
        <ele>241</ele>
        <time>2012-04-07T12:41:05Z</time>
      </trkpt>
      <trkpt lat="45.79599" lon="4.86272">
        <ele>241</ele>
        <time>2012-04-07T12:41:08Z</time>
      </trkpt>
      <trkpt lat="45.79604" lon="4.86284">
        <ele>241</ele>
        <time>2012-04-07T12:41:11Z</time>
      </trkpt>
      <trkpt lat="45.79609" lon="4.86295">
        <ele>241</ele>
        <time>2012-04-07T12:41:14Z</time>
      </trkpt>
      <trkpt lat="45.79614" lon="4.86307">
        <ele>240</ele>
        <time>2012-04-07T12:41:17Z</time>
      </trkpt>
      <trkpt lat="45.79618" lon="4.86319">
        <ele>239</ele>
        <time>2012-04-07T12:41:20Z</time>
      </trkpt>
      <trkpt lat="45.79626" lon="4.86324">
        <ele>238</ele>
        <time>2012-04-07T12:41:23Z</time>
      </trkpt>
      <trkpt lat="45.79634" lon="4.86322">
        <ele>238</ele>
        <time>2012-04-07T12:41:26Z</time>
      </trkpt>
      <trkpt lat="45.79643" lon="4.86322">
        <ele>238</ele>
        <time>2012-04-07T12:41:29Z</time>
      </trkpt>
      <trkpt lat="45.79652" lon="4.86324">
        <ele>238</ele>
        <time>2012-04-07T12:41:32Z</time>
      </trkpt>
      <trkpt lat="45.79662" lon="4.86326">
        <ele>238</ele>
        <time>2012-04-07T12:41:35Z</time>
      </trkpt>
      <trkpt lat="45.7967" lon="4.8633">
        <ele>238</ele>
        <time>2012-04-07T12:41:38Z</time>
      </trkpt>
      <trkpt lat="45.79678" lon="4.86334">
        <ele>239</ele>
        <time>2012-04-07T12:41:41Z</time>
      </trkpt>
      <trkpt lat="45.79685" lon="4.86339">
        <ele>241</ele>
        <time>2012-04-07T12:41:44Z</time>
      </trkpt>
      <trkpt lat="45.79694" lon="4.86344">
        <ele>243</ele>
        <time>2012-04-07T12:41:47Z</time>
      </trkpt>
      <trkpt lat="45.79702" lon="4.86348">
        <ele>243</ele>
        <time>2012-04-07T12:41:50Z</time>
      </trkpt>
      <trkpt lat="45.7971" lon="4.86351">
        <ele>244</ele>
        <time>2012-04-07T12:41:53Z</time>
      </trkpt>
      <trkpt lat="45.79718" lon="4.86356">
        <ele>245</ele>
        <time>2012-04-07T12:41:56Z</time>
      </trkpt>
      <trkpt lat="45.79724" lon="4.86361">
        <ele>245</ele>
        <time>2012-04-07T12:41:59Z</time>
      </trkpt>
      <trkpt lat="45.79732" lon="4.86366">
        <ele>245</ele>
        <time>2012-04-07T12:42:02Z</time>
      </trkpt>
      <trkpt lat="45.7974" lon="4.8637">
        <ele>245</ele>
        <time>2012-04-07T12:42:05Z</time>
      </trkpt>
      <trkpt lat="45.79746" lon="4.86373">
        <ele>245</ele>
        <time>2012-04-07T12:42:08Z</time>
      </trkpt>
      <trkpt lat="45.79751" lon="4.86377">
        <ele>246</ele>
        <time>2012-04-07T12:42:11Z</time>
      </trkpt>
      <trkpt lat="45.79758" lon="4.86377">
        <ele>247</ele>
        <time>2012-04-07T12:42:14Z</time>
      </trkpt>
      <trkpt lat="45.79767" lon="4.86374">
        <ele>248</ele>
        <time>2012-04-07T12:42:17Z</time>
      </trkpt>
      <trkpt lat="45.79775" lon="4.86369">
        <ele>249</ele>
        <time>2012-04-07T12:42:20Z</time>
      </trkpt>
      <trkpt lat="45.79782" lon="4.86367">
        <ele>249</ele>
        <time>2012-04-07T12:42:23Z</time>
      </trkpt>
      <trkpt lat="45.7979" lon="4.86365">
        <ele>249</ele>
        <time>2012-04-07T12:42:26Z</time>
      </trkpt>
      <trkpt lat="45.79799" lon="4.86362">
        <ele>250</ele>
        <time>2012-04-07T12:42:29Z</time>
      </trkpt>
      <trkpt lat="45.79808" lon="4.86359">
        <ele>251</ele>
        <time>2012-04-07T12:42:32Z</time>
      </trkpt>
      <trkpt lat="45.79816" lon="4.86356">
        <ele>252</ele>
        <time>2012-04-07T12:42:35Z</time>
      </trkpt>
      <trkpt lat="45.79826" lon="4.86354">
        <ele>254</ele>
        <time>2012-04-07T12:42:38Z</time>
      </trkpt>
      <trkpt lat="45.79835" lon="4.86353">
        <ele>255</ele>
        <time>2012-04-07T12:42:41Z</time>
      </trkpt>
      <trkpt lat="45.79845" lon="4.86351">
        <ele>255</ele>
        <time>2012-04-07T12:42:44Z</time>
      </trkpt>
      <trkpt lat="45.79855" lon="4.86349">
        <ele>255</ele>
        <time>2012-04-07T12:42:47Z</time>
      </trkpt>
      <trkpt lat="45.79864" lon="4.86348">
        <ele>255</ele>
        <time>2012-04-07T12:42:50Z</time>
      </trkpt>
      <trkpt lat="45.79873" lon="4.86346">
        <ele>255</ele>
        <time>2012-04-07T12:42:53Z</time>
      </trkpt>
      <trkpt lat="45.79882" lon="4.86343">
        <ele>255</ele>
        <time>2012-04-07T12:42:56Z</time>
      </trkpt>
      <trkpt lat="45.79889" lon="4.86338">
        <ele>256</ele>
        <time>2012-04-07T12:42:59Z</time>
      </trkpt>
      <trkpt lat="45.79898" lon="4.86331">
        <ele>256</ele>
        <time>2012-04-07T12:43:02Z</time>
      </trkpt>
      <trkpt lat="45.79906" lon="4.86321">
        <ele>256</ele>
        <time>2012-04-07T12:43:05Z</time>
      </trkpt>
      <trkpt lat="45.79916" lon="4.86313">
        <ele>256</ele>
        <time>2012-04-07T12:43:08Z</time>
      </trkpt>
      <trkpt lat="45.79926" lon="4.86305">
        <ele>256</ele>
        <time>2012-04-07T12:43:11Z</time>
      </trkpt>
      <trkpt lat="45.79938" lon="4.86295">
        <ele>257</ele>
        <time>2012-04-07T12:43:14Z</time>
      </trkpt>
      <trkpt lat="45.7995" lon="4.86285">
        <ele>257</ele>
        <time>2012-04-07T12:43:17Z</time>
      </trkpt>
      <trkpt lat="45.79964" lon="4.86275">
        <ele>258</ele>
        <time>2012-04-07T12:43:20Z</time>
      </trkpt>
      <trkpt lat="45.79978" lon="4.86266">
        <ele>259</ele>
        <time>2012-04-07T12:43:23Z</time>
      </trkpt>
      <trkpt lat="45.7999" lon="4.86252">
        <ele>259</ele>
        <time>2012-04-07T12:43:26Z</time>
      </trkpt>
      <trkpt lat="45.80004" lon="4.86242">
        <ele>259</ele>
        <time>2012-04-07T12:43:29Z</time>
      </trkpt>
      <trkpt lat="45.80017" lon="4.8623">
        <ele>259</ele>
        <time>2012-04-07T12:43:32Z</time>
      </trkpt>
      <trkpt lat="45.8003" lon="4.86219">
        <ele>259</ele>
        <time>2012-04-07T12:43:35Z</time>
      </trkpt>
      <trkpt lat="45.80042" lon="4.86207">
        <ele>261</ele>
        <time>2012-04-07T12:43:38Z</time>
      </trkpt>
      <trkpt lat="45.80054" lon="4.86196">
        <ele>263</ele>
        <time>2012-04-07T12:43:41Z</time>
      </trkpt>
      <trkpt lat="45.80068" lon="4.86184">
        <ele>264</ele>
        <time>2012-04-07T12:43:44Z</time>
      </trkpt>
      <trkpt lat="45.80081" lon="4.86173">
        <ele>264</ele>
        <time>2012-04-07T12:43:47Z</time>
      </trkpt>
      <trkpt lat="45.80096" lon="4.86163">
        <ele>264</ele>
        <time>2012-04-07T12:43:50Z</time>
      </trkpt>
      <trkpt lat="45.80109" lon="4.86153">
        <ele>264</ele>
        <time>2012-04-07T12:43:53Z</time>
      </trkpt>
      <trkpt lat="45.80123" lon="4.86143">
        <ele>262</ele>
        <time>2012-04-07T12:43:56Z</time>
      </trkpt>
      <trkpt lat="45.80134" lon="4.86142">
        <ele>260</ele>
        <time>2012-04-07T12:43:59Z</time>
      </trkpt>
      <trkpt lat="45.80138" lon="4.86152">
        <ele>258</ele>
        <time>2012-04-07T12:44:02Z</time>
      </trkpt>
      <trkpt lat="45.80139" lon="4.86169">
        <ele>257</ele>
        <time>2012-04-07T12:44:05Z</time>
      </trkpt>
      <trkpt lat="45.80142" lon="4.86187">
        <ele>256</ele>
        <time>2012-04-07T12:44:08Z</time>
      </trkpt>
      <trkpt lat="45.80145" lon="4.86202">
        <ele>256</ele>
        <time>2012-04-07T12:44:11Z</time>
      </trkpt>
      <trkpt lat="45.80147" lon="4.86214">
        <ele>256</ele>
        <time>2012-04-07T12:44:14Z</time>
      </trkpt>
      <trkpt lat="45.80147" lon="4.8623">
        <ele>256</ele>
        <time>2012-04-07T12:44:17Z</time>
      </trkpt>
      <trkpt lat="45.8015" lon="4.86244">
        <ele>256</ele>
        <time>2012-04-07T12:44:20Z</time>
      </trkpt>
      <trkpt lat="45.80154" lon="4.86263">
        <ele>256</ele>
        <time>2012-04-07T12:44:23Z</time>
      </trkpt>
      <trkpt lat="45.80164" lon="4.86274">
        <ele>256</ele>
        <time>2012-04-07T12:44:26Z</time>
      </trkpt>
      <trkpt lat="45.80175" lon="4.86265">
        <ele>256</ele>
        <time>2012-04-07T12:44:29Z</time>
      </trkpt>
      <trkpt lat="45.80186" lon="4.86253">
        <ele>256</ele>
        <time>2012-04-07T12:44:32Z</time>
      </trkpt>
      <trkpt lat="45.80198" lon="4.86241">
        <ele>256</ele>
        <time>2012-04-07T12:44:35Z</time>
      </trkpt>
      <trkpt lat="45.80211" lon="4.86228">
        <ele>256</ele>
        <time>2012-04-07T12:44:38Z</time>
      </trkpt>
      <trkpt lat="45.80224" lon="4.86216">
        <ele>256</ele>
        <time>2012-04-07T12:44:41Z</time>
      </trkpt>
      <trkpt lat="45.80237" lon="4.86203">
        <ele>256</ele>
        <time>2012-04-07T12:44:44Z</time>
      </trkpt>
      <trkpt lat="45.80249" lon="4.86191">
        <ele>256</ele>
        <time>2012-04-07T12:44:47Z</time>
      </trkpt>
      <trkpt lat="45.80261" lon="4.86179">
        <ele>256</ele>
        <time>2012-04-07T12:44:50Z</time>
      </trkpt>
      <trkpt lat="45.80273" lon="4.86167">
        <ele>256</ele>
        <time>2012-04-07T12:44:53Z</time>
      </trkpt>
      <trkpt lat="45.80284" lon="4.86156">
        <ele>256</ele>
        <time>2012-04-07T12:44:56Z</time>
      </trkpt>
      <trkpt lat="45.80296" lon="4.86145">
        <ele>256</ele>
        <time>2012-04-07T12:44:59Z</time>
      </trkpt>
      <trkpt lat="45.80308" lon="4.86135">
        <ele>256</ele>
        <time>2012-04-07T12:45:02Z</time>
      </trkpt>
      <trkpt lat="45.8032" lon="4.86124">
        <ele>256</ele>
        <time>2012-04-07T12:45:05Z</time>
      </trkpt>
      <trkpt lat="45.80331" lon="4.86115">
        <ele>256</ele>
        <time>2012-04-07T12:45:08Z</time>
      </trkpt>
      <trkpt lat="45.80343" lon="4.86111">
        <ele>256</ele>
        <time>2012-04-07T12:45:11Z</time>
      </trkpt>
      <trkpt lat="45.80355" lon="4.86114">
        <ele>256</ele>
        <time>2012-04-07T12:45:14Z</time>
      </trkpt>
      <trkpt lat="45.80366" lon="4.8611">
        <ele>256</ele>
        <time>2012-04-07T12:45:17Z</time>
      </trkpt>
      <trkpt lat="45.80371" lon="4.86093">
        <ele>258</ele>
        <time>2012-04-07T12:45:20Z</time>
      </trkpt>
      <trkpt lat="45.80375" lon="4.86074">
        <ele>258</ele>
        <time>2012-04-07T12:45:23Z</time>
      </trkpt>
      <trkpt lat="45.80386" lon="4.8606">
        <ele>258</ele>
        <time>2012-04-07T12:45:26Z</time>
      </trkpt>
      <trkpt lat="45.80399" lon="4.86047">
        <ele>258</ele>
        <time>2012-04-07T12:45:29Z</time>
      </trkpt>
      <trkpt lat="45.80411" lon="4.86036">
        <ele>257</ele>
        <time>2012-04-07T12:45:32Z</time>
      </trkpt>
      <trkpt lat="45.80424" lon="4.86025">
        <ele>255</ele>
        <time>2012-04-07T12:45:35Z</time>
      </trkpt>
      <trkpt lat="45.80437" lon="4.86013">
        <ele>254</ele>
        <time>2012-04-07T12:45:38Z</time>
      </trkpt>
      <trkpt lat="45.80451" lon="4.86">
        <ele>254</ele>
        <time>2012-04-07T12:45:41Z</time>
      </trkpt>
      <trkpt lat="45.80466" lon="4.85986">
        <ele>253</ele>
        <time>2012-04-07T12:45:44Z</time>
      </trkpt>
      <trkpt lat="45.80481" lon="4.85972">
        <ele>251</ele>
        <time>2012-04-07T12:45:47Z</time>
      </trkpt>
      <trkpt lat="45.80496" lon="4.85958">
        <ele>249</ele>
        <time>2012-04-07T12:45:50Z</time>
      </trkpt>
      <trkpt lat="45.8051" lon="4.85945">
        <ele>248</ele>
        <time>2012-04-07T12:45:53Z</time>
      </trkpt>
      <trkpt lat="45.80524" lon="4.85931">
        <ele>248</ele>
        <time>2012-04-07T12:45:56Z</time>
      </trkpt>
      <trkpt lat="45.80539" lon="4.85918">
        <ele>248</ele>
        <time>2012-04-07T12:45:59Z</time>
      </trkpt>
      <trkpt lat="45.80552" lon="4.85905">
        <ele>247</ele>
        <time>2012-04-07T12:46:02Z</time>
      </trkpt>
      <trkpt lat="45.80566" lon="4.85891">
        <ele>247</ele>
        <time>2012-04-07T12:46:05Z</time>
      </trkpt>
      <trkpt lat="45.80581" lon="4.85878">
        <ele>247</ele>
        <time>2012-04-07T12:46:08Z</time>
      </trkpt>
      <trkpt lat="45.80595" lon="4.85864">
        <ele>247</ele>
        <time>2012-04-07T12:46:11Z</time>
      </trkpt>
      <trkpt lat="45.80608" lon="4.85851">
        <ele>247</ele>
        <time>2012-04-07T12:46:14Z</time>
      </trkpt>
      <trkpt lat="45.80623" lon="4.85838">
        <ele>247</ele>
        <time>2012-04-07T12:46:17Z</time>
      </trkpt>
      <trkpt lat="45.80638" lon="4.85824">
        <ele>247</ele>
        <time>2012-04-07T12:46:20Z</time>
      </trkpt>
      <trkpt lat="45.80651" lon="4.85807">
        <ele>247</ele>
        <time>2012-04-07T12:46:23Z</time>
      </trkpt>
      <trkpt lat="45.8066" lon="4.85786">
        <ele>247</ele>
        <time>2012-04-07T12:46:26Z</time>
      </trkpt>
      <trkpt lat="45.80666" lon="4.85766">
        <ele>247</ele>
        <time>2012-04-07T12:46:29Z</time>
      </trkpt>
      <trkpt lat="45.80675" lon="4.85745">
        <ele>247</ele>
        <time>2012-04-07T12:46:32Z</time>
      </trkpt>
      <trkpt lat="45.80684" lon="4.85725">
        <ele>247</ele>
        <time>2012-04-07T12:46:35Z</time>
      </trkpt>
      <trkpt lat="45.80695" lon="4.85709">
        <ele>247</ele>
        <time>2012-04-07T12:46:38Z</time>
      </trkpt>
      <trkpt lat="45.80709" lon="4.85705">
        <ele>247</ele>
        <time>2012-04-07T12:46:41Z</time>
      </trkpt>
      <trkpt lat="45.80723" lon="4.85705">
        <ele>249</ele>
        <time>2012-04-07T12:46:44Z</time>
      </trkpt>
      <trkpt lat="45.8074" lon="4.85705">
        <ele>252</ele>
        <time>2012-04-07T12:46:47Z</time>
      </trkpt>
      <trkpt lat="45.80758" lon="4.85695">
        <ele>255</ele>
        <time>2012-04-07T12:46:50Z</time>
      </trkpt>
      <trkpt lat="45.80769" lon="4.85674">
        <ele>255</ele>
        <time>2012-04-07T12:46:53Z</time>
      </trkpt>
      <trkpt lat="45.80777" lon="4.85655">
        <ele>255</ele>
        <time>2012-04-07T12:46:56Z</time>
      </trkpt>
      <trkpt lat="45.80782" lon="4.85638">
        <ele>255</ele>
        <time>2012-04-07T12:46:59Z</time>
      </trkpt>
      <trkpt lat="45.80787" lon="4.85626">
        <ele>255</ele>
        <time>2012-04-07T12:47:02Z</time>
      </trkpt>
      <trkpt lat="45.80787" lon="4.8562">
        <ele>253</ele>
        <time>2012-04-07T12:47:08Z</time>
      </trkpt>
      <trkpt lat="45.80787" lon="4.85624">
        <ele>248</ele>
        <time>2012-04-07T12:47:12Z</time>
      </trkpt>
      <trkpt lat="45.80787" lon="4.85626">
        <ele>242</ele>
        <time>2012-04-07T12:47:16Z</time>
      </trkpt>
      <trkpt lat="45.80785" lon="4.85629">
        <ele>236</ele>
        <time>2012-04-07T12:47:22Z</time>
      </trkpt>
      <trkpt lat="45.80783" lon="4.8563">
        <ele>233</ele>
        <time>2012-04-07T12:47:27Z</time>
      </trkpt>
      <trkpt lat="45.80782" lon="4.85632">
        <ele>233</ele>
        <time>2012-04-07T12:47:30Z</time>
      </trkpt>
      <trkpt lat="45.80779" lon="4.85632">
        <ele>233</ele>
        <time>2012-04-07T12:47:35Z</time>
      </trkpt>
      <trkpt lat="45.80777" lon="4.85633">
        <ele>235</ele>
        <time>2012-04-07T12:47:38Z</time>
      </trkpt>
      <trkpt lat="45.80774" lon="4.85636">
        <ele>237</ele>
        <time>2012-04-07T12:47:42Z</time>
      </trkpt>
      <trkpt lat="45.80774" lon="4.85634">
        <ele>240</ele>
        <time>2012-04-07T12:47:46Z</time>
      </trkpt>
      <trkpt lat="45.80784" lon="4.85627">
        <ele>243</ele>
        <time>2012-04-07T12:47:49Z</time>
      </trkpt>
      <trkpt lat="45.80795" lon="4.85631">
        <ele>246</ele>
        <time>2012-04-07T12:47:52Z</time>
      </trkpt>
      <trkpt lat="45.80809" lon="4.85639">
        <ele>249</ele>
        <time>2012-04-07T12:47:55Z</time>
      </trkpt>
      <trkpt lat="45.80824" lon="4.85647">
        <ele>252</ele>
        <time>2012-04-07T12:47:58Z</time>
      </trkpt>
      <trkpt lat="45.80838" lon="4.85656">
        <ele>255</ele>
        <time>2012-04-07T12:48:01Z</time>
      </trkpt>
      <trkpt lat="45.80853" lon="4.85665">
        <ele>257</ele>
        <time>2012-04-07T12:48:04Z</time>
      </trkpt>
      <trkpt lat="45.80868" lon="4.85673">
        <ele>258</ele>
        <time>2012-04-07T12:48:07Z</time>
      </trkpt>
      <trkpt lat="45.80881" lon="4.8568">
        <ele>261</ele>
        <time>2012-04-07T12:48:10Z</time>
      </trkpt>
      <trkpt lat="45.80893" lon="4.85687">
        <ele>264</ele>
        <time>2012-04-07T12:48:13Z</time>
      </trkpt>
      <trkpt lat="45.80903" lon="4.85693">
        <ele>265</ele>
        <time>2012-04-07T12:48:16Z</time>
      </trkpt>
      <trkpt lat="45.80912" lon="4.85701">
        <ele>265</ele>
        <time>2012-04-07T12:48:19Z</time>
      </trkpt>
      <trkpt lat="45.80913" lon="4.85716">
        <ele>265</ele>
        <time>2012-04-07T12:48:22Z</time>
      </trkpt>
      <trkpt lat="45.80911" lon="4.85732">
        <ele>265</ele>
        <time>2012-04-07T12:48:25Z</time>
      </trkpt>
      <trkpt lat="45.80918" lon="4.85746">
        <ele>265</ele>
        <time>2012-04-07T12:48:28Z</time>
      </trkpt>
      <trkpt lat="45.80928" lon="4.85759">
        <ele>265</ele>
        <time>2012-04-07T12:48:31Z</time>
      </trkpt>
      <trkpt lat="45.80938" lon="4.85771">
        <ele>266</ele>
        <time>2012-04-07T12:48:34Z</time>
      </trkpt>
      <trkpt lat="45.80948" lon="4.85783">
        <ele>267</ele>
        <time>2012-04-07T12:48:37Z</time>
      </trkpt>
      <trkpt lat="45.80958" lon="4.85794">
        <ele>267</ele>
        <time>2012-04-07T12:48:40Z</time>
      </trkpt>
      <trkpt lat="45.80965" lon="4.85802">
        <ele>267</ele>
        <time>2012-04-07T12:48:43Z</time>
      </trkpt>
      <trkpt lat="45.8097" lon="4.8581">
        <ele>267</ele>
        <time>2012-04-07T12:48:46Z</time>
      </trkpt>
      <trkpt lat="45.80976" lon="4.85819">
        <ele>267</ele>
        <time>2012-04-07T12:48:49Z</time>
      </trkpt>
      <trkpt lat="45.80983" lon="4.8583">
        <ele>267</ele>
        <time>2012-04-07T12:48:52Z</time>
      </trkpt>
      <trkpt lat="45.80991" lon="4.85841">
        <ele>267</ele>
        <time>2012-04-07T12:48:55Z</time>
      </trkpt>
      <trkpt lat="45.80998" lon="4.85852">
        <ele>267</ele>
        <time>2012-04-07T12:48:58Z</time>
      </trkpt>
      <trkpt lat="45.81005" lon="4.85864">
        <ele>267</ele>
        <time>2012-04-07T12:49:01Z</time>
      </trkpt>
      <trkpt lat="45.81013" lon="4.85874">
        <ele>267</ele>
        <time>2012-04-07T12:49:04Z</time>
      </trkpt>
      <trkpt lat="45.81018" lon="4.85885">
        <ele>267</ele>
        <time>2012-04-07T12:49:07Z</time>
      </trkpt>
      <trkpt lat="45.81023" lon="4.85895">
        <ele>268</ele>
        <time>2012-04-07T12:49:10Z</time>
      </trkpt>
      <trkpt lat="45.81031" lon="4.85905">
        <ele>268</ele>
        <time>2012-04-07T12:49:13Z</time>
      </trkpt>
      <trkpt lat="45.81039" lon="4.85914">
        <ele>268</ele>
        <time>2012-04-07T12:49:16Z</time>
      </trkpt>
      <trkpt lat="45.81045" lon="4.85927">
        <ele>268</ele>
        <time>2012-04-07T12:49:19Z</time>
      </trkpt>
      <trkpt lat="45.81052" lon="4.85941">
        <ele>268</ele>
        <time>2012-04-07T12:49:22Z</time>
      </trkpt>
      <trkpt lat="45.8106" lon="4.85956">
        <ele>269</ele>
        <time>2012-04-07T12:49:25Z</time>
      </trkpt>
      <trkpt lat="45.81068" lon="4.8597">
        <ele>269</ele>
        <time>2012-04-07T12:49:28Z</time>
      </trkpt>
      <trkpt lat="45.81075" lon="4.85987">
        <ele>269</ele>
        <time>2012-04-07T12:49:31Z</time>
      </trkpt>
      <trkpt lat="45.81084" lon="4.86002">
        <ele>269</ele>
        <time>2012-04-07T12:49:34Z</time>
      </trkpt>
      <trkpt lat="45.81093" lon="4.86017">
        <ele>269</ele>
        <time>2012-04-07T12:49:37Z</time>
      </trkpt>
      <trkpt lat="45.81103" lon="4.86029">
        <ele>269</ele>
        <time>2012-04-07T12:49:40Z</time>
      </trkpt>
      <trkpt lat="45.81113" lon="4.86041">
        <ele>269</ele>
        <time>2012-04-07T12:49:43Z</time>
      </trkpt>
      <trkpt lat="45.81124" lon="4.86049">
        <ele>269</ele>
        <time>2012-04-07T12:49:46Z</time>
      </trkpt>
      <trkpt lat="45.81135" lon="4.86058">
        <ele>270</ele>
        <time>2012-04-07T12:49:49Z</time>
      </trkpt>
      <trkpt lat="45.81146" lon="4.86068">
        <ele>271</ele>
        <time>2012-04-07T12:49:52Z</time>
      </trkpt>
      <trkpt lat="45.81157" lon="4.86078">
        <ele>272</ele>
        <time>2012-04-07T12:49:55Z</time>
      </trkpt>
      <trkpt lat="45.81168" lon="4.86088">
        <ele>272</ele>
        <time>2012-04-07T12:49:58Z</time>
      </trkpt>
      <trkpt lat="45.81179" lon="4.86096">
        <ele>272</ele>
        <time>2012-04-07T12:50:01Z</time>
      </trkpt>
      <trkpt lat="45.81191" lon="4.86106">
        <ele>273</ele>
        <time>2012-04-07T12:50:04Z</time>
      </trkpt>
      <trkpt lat="45.81203" lon="4.86117">
        <ele>273</ele>
        <time>2012-04-07T12:50:07Z</time>
      </trkpt>
      <trkpt lat="45.81217" lon="4.86127">
        <ele>273</ele>
        <time>2012-04-07T12:50:10Z</time>
      </trkpt>
      <trkpt lat="45.81231" lon="4.86138">
        <ele>273</ele>
        <time>2012-04-07T12:50:13Z</time>
      </trkpt>
      <trkpt lat="45.81245" lon="4.86151">
        <ele>273</ele>
        <time>2012-04-07T12:50:16Z</time>
      </trkpt>
      <trkpt lat="45.81257" lon="4.86166">
        <ele>273</ele>
        <time>2012-04-07T12:50:19Z</time>
      </trkpt>
      <trkpt lat="45.81266" lon="4.86182">
        <ele>273</ele>
        <time>2012-04-07T12:50:22Z</time>
      </trkpt>
      <trkpt lat="45.81278" lon="4.86197">
        <ele>273</ele>
        <time>2012-04-07T12:50:25Z</time>
      </trkpt>
      <trkpt lat="45.81292" lon="4.86209">
        <ele>273</ele>
        <time>2012-04-07T12:50:28Z</time>
      </trkpt>
      <trkpt lat="45.81307" lon="4.86219">
        <ele>273</ele>
        <time>2012-04-07T12:50:31Z</time>
      </trkpt>
      <trkpt lat="45.81324" lon="4.86228">
        <ele>273</ele>
        <time>2012-04-07T12:50:34Z</time>
      </trkpt>
      <trkpt lat="45.81343" lon="4.86237">
        <ele>273</ele>
        <time>2012-04-07T12:50:37Z</time>
      </trkpt>
      <trkpt lat="45.81361" lon="4.86243">
        <ele>273</ele>
        <time>2012-04-07T12:50:40Z</time>
      </trkpt>
      <trkpt lat="45.8138" lon="4.8625">
        <ele>273</ele>
        <time>2012-04-07T12:50:43Z</time>
      </trkpt>
      <trkpt lat="45.81397" lon="4.86255">
        <ele>273</ele>
        <time>2012-04-07T12:50:46Z</time>
      </trkpt>
      <trkpt lat="45.81417" lon="4.86252">
        <ele>273</ele>
        <time>2012-04-07T12:50:50Z</time>
      </trkpt>
      <trkpt lat="45.81431" lon="4.86247">
        <ele>273</ele>
        <time>2012-04-07T12:50:53Z</time>
      </trkpt>
      <trkpt lat="45.8144" lon="4.86242">
        <ele>273</ele>
        <time>2012-04-07T12:50:56Z</time>
      </trkpt>
      <trkpt lat="45.81445" lon="4.8624">
        <ele>273</ele>
        <time>2012-04-07T12:50:59Z</time>
      </trkpt>
      <trkpt lat="45.81448" lon="4.8624">
        <ele>272</ele>
        <time>2012-04-07T12:51:02Z</time>
      </trkpt>
      <trkpt lat="45.81452" lon="4.86241">
        <ele>270</ele>
        <time>2012-04-07T12:51:06Z</time>
      </trkpt>
      <trkpt lat="45.81454" lon="4.86242">
        <ele>262</ele>
        <time>2012-04-07T12:51:31Z</time>
      </trkpt>
      <trkpt lat="45.81459" lon="4.86238">
        <ele>262</ele>
        <time>2012-04-07T12:51:34Z</time>
      </trkpt>
      <trkpt lat="45.81466" lon="4.86228">
        <ele>262</ele>
        <time>2012-04-07T12:51:37Z</time>
      </trkpt>
      <trkpt lat="45.8147" lon="4.8621">
        <ele>262</ele>
        <time>2012-04-07T12:51:40Z</time>
      </trkpt>
      <trkpt lat="45.81463" lon="4.86195">
        <ele>261</ele>
        <time>2012-04-07T12:51:43Z</time>
      </trkpt>
      <trkpt lat="45.8145" lon="4.86185">
        <ele>260</ele>
        <time>2012-04-07T12:51:46Z</time>
      </trkpt>
      <trkpt lat="45.81437" lon="4.86173">
        <ele>260</ele>
        <time>2012-04-07T12:51:49Z</time>
      </trkpt>
      <trkpt lat="45.81423" lon="4.8616">
        <ele>260</ele>
        <time>2012-04-07T12:51:52Z</time>
      </trkpt>
      <trkpt lat="45.81408" lon="4.86148">
        <ele>260</ele>
        <time>2012-04-07T12:51:55Z</time>
      </trkpt>
      <trkpt lat="45.81393" lon="4.86133">
        <ele>260</ele>
        <time>2012-04-07T12:51:58Z</time>
      </trkpt>
      <trkpt lat="45.81379" lon="4.86117">
        <ele>260</ele>
        <time>2012-04-07T12:52:01Z</time>
      </trkpt>
      <trkpt lat="45.81361" lon="4.86093">
        <ele>260</ele>
        <time>2012-04-07T12:52:05Z</time>
      </trkpt>
      <trkpt lat="45.81345" lon="4.86075">
        <ele>260</ele>
        <time>2012-04-07T12:52:08Z</time>
      </trkpt>
      <trkpt lat="45.81329" lon="4.86058">
        <ele>260</ele>
        <time>2012-04-07T12:52:11Z</time>
      </trkpt>
      <trkpt lat="45.81314" lon="4.8604">
        <ele>260</ele>
        <time>2012-04-07T12:52:14Z</time>
      </trkpt>
      <trkpt lat="45.81295" lon="4.86017">
        <ele>259</ele>
        <time>2012-04-07T12:52:18Z</time>
      </trkpt>
      <trkpt lat="45.81276" lon="4.85995">
        <ele>259</ele>
        <time>2012-04-07T12:52:22Z</time>
      </trkpt>
      <trkpt lat="45.81262" lon="4.85979">
        <ele>259</ele>
        <time>2012-04-07T12:52:25Z</time>
      </trkpt>
      <trkpt lat="45.81248" lon="4.85965">
        <ele>259</ele>
        <time>2012-04-07T12:52:28Z</time>
      </trkpt>
      <trkpt lat="45.81234" lon="4.85953">
        <ele>259</ele>
        <time>2012-04-07T12:52:31Z</time>
      </trkpt>
      <trkpt lat="45.81213" lon="4.85938">
        <ele>259</ele>
        <time>2012-04-07T12:52:35Z</time>
      </trkpt>
      <trkpt lat="45.81197" lon="4.85926">
        <ele>259</ele>
        <time>2012-04-07T12:52:38Z</time>
      </trkpt>
      <trkpt lat="45.81176" lon="4.85911">
        <ele>259</ele>
        <time>2012-04-07T12:52:42Z</time>
      </trkpt>
      <trkpt lat="45.8116" lon="4.85898">
        <ele>259</ele>
        <time>2012-04-07T12:52:45Z</time>
      </trkpt>
      <trkpt lat="45.81145" lon="4.85883">
        <ele>259</ele>
        <time>2012-04-07T12:52:48Z</time>
      </trkpt>
      <trkpt lat="45.81129" lon="4.85868">
        <ele>259</ele>
        <time>2012-04-07T12:52:51Z</time>
      </trkpt>
      <trkpt lat="45.81114" lon="4.85853">
        <ele>259</ele>
        <time>2012-04-07T12:52:54Z</time>
      </trkpt>
      <trkpt lat="45.81092" lon="4.85832">
        <ele>259</ele>
        <time>2012-04-07T12:52:58Z</time>
      </trkpt>
      <trkpt lat="45.81077" lon="4.85817">
        <ele>259</ele>
        <time>2012-04-07T12:53:01Z</time>
      </trkpt>
      <trkpt lat="45.81062" lon="4.85803">
        <ele>259</ele>
        <time>2012-04-07T12:53:04Z</time>
      </trkpt>
      <trkpt lat="45.81049" lon="4.85789">
        <ele>259</ele>
        <time>2012-04-07T12:53:07Z</time>
      </trkpt>
      <trkpt lat="45.81039" lon="4.85778">
        <ele>259</ele>
        <time>2012-04-07T12:53:10Z</time>
      </trkpt>
      <trkpt lat="45.81035" lon="4.85774">
        <ele>261</ele>
        <time>2012-04-07T12:53:14Z</time>
      </trkpt>
      <trkpt lat="45.81036" lon="4.85775">
        <ele>262</ele>
        <time>2012-04-07T12:53:17Z</time>
      </trkpt>
      <trkpt lat="45.81034" lon="4.85774">
        <ele>262</ele>
        <time>2012-04-07T12:53:25Z</time>
      </trkpt>
      <trkpt lat="45.8103" lon="4.8577">
        <ele>262</ele>
        <time>2012-04-07T12:53:28Z</time>
      </trkpt>
      <trkpt lat="45.81024" lon="4.85763">
        <ele>262</ele>
        <time>2012-04-07T12:53:31Z</time>
      </trkpt>
      <trkpt lat="45.81015" lon="4.85755">
        <ele>262</ele>
        <time>2012-04-07T12:53:34Z</time>
      </trkpt>
      <trkpt lat="45.81005" lon="4.85746">
        <ele>262</ele>
        <time>2012-04-07T12:53:37Z</time>
      </trkpt>
      <trkpt lat="45.80993" lon="4.85739">
        <ele>261</ele>
        <time>2012-04-07T12:53:40Z</time>
      </trkpt>
      <trkpt lat="45.80987" lon="4.8572">
        <ele>261</ele>
        <time>2012-04-07T12:53:43Z</time>
      </trkpt>
      <trkpt lat="45.80985" lon="4.85698">
        <ele>261</ele>
        <time>2012-04-07T12:53:46Z</time>
      </trkpt>
      <trkpt lat="45.80984" lon="4.85672">
        <ele>261</ele>
        <time>2012-04-07T12:53:49Z</time>
      </trkpt>
      <trkpt lat="45.80983" lon="4.85645">
        <ele>261</ele>
        <time>2012-04-07T12:53:52Z</time>
      </trkpt>
      <trkpt lat="45.80982" lon="4.85615">
        <ele>261</ele>
        <time>2012-04-07T12:53:55Z</time>
      </trkpt>
      <trkpt lat="45.80984" lon="4.85586">
        <ele>261</ele>
        <time>2012-04-07T12:53:58Z</time>
      </trkpt>
      <trkpt lat="45.80987" lon="4.8556">
        <ele>260</ele>
        <time>2012-04-07T12:54:01Z</time>
      </trkpt>
      <trkpt lat="45.80992" lon="4.85535">
        <ele>258</ele>
        <time>2012-04-07T12:54:04Z</time>
      </trkpt>
      <trkpt lat="45.80999" lon="4.85511">
        <ele>256</ele>
        <time>2012-04-07T12:54:07Z</time>
      </trkpt>
      <trkpt lat="45.81007" lon="4.85493">
        <ele>253</ele>
        <time>2012-04-07T12:54:10Z</time>
      </trkpt>
      <trkpt lat="45.81013" lon="4.85474">
        <ele>250</ele>
        <time>2012-04-07T12:54:13Z</time>
      </trkpt>
      <trkpt lat="45.8102" lon="4.85457">
        <ele>247</ele>
        <time>2012-04-07T12:54:16Z</time>
      </trkpt>
      <trkpt lat="45.81025" lon="4.85441">
        <ele>245</ele>
        <time>2012-04-07T12:54:19Z</time>
      </trkpt>
      <trkpt lat="45.8103" lon="4.85425">
        <ele>242</ele>
        <time>2012-04-07T12:54:22Z</time>
      </trkpt>
      <trkpt lat="45.81033" lon="4.85405">
        <ele>241</ele>
        <time>2012-04-07T12:54:25Z</time>
      </trkpt>
      <trkpt lat="45.81039" lon="4.85383">
        <ele>235</ele>
        <time>2012-04-07T12:54:28Z</time>
      </trkpt>
      <trkpt lat="45.81051" lon="4.85358">
        <ele>227</ele>
        <time>2012-04-07T12:54:32Z</time>
      </trkpt>
      <trkpt lat="45.81065" lon="4.85342">
        <ele>221</ele>
        <time>2012-04-07T12:54:35Z</time>
      </trkpt>
      <trkpt lat="45.81077" lon="4.85325">
        <ele>217</ele>
        <time>2012-04-07T12:54:38Z</time>
      </trkpt>
      <trkpt lat="45.8109" lon="4.85309">
        <ele>215</ele>
        <time>2012-04-07T12:54:41Z</time>
      </trkpt>
      <trkpt lat="45.81102" lon="4.85293">
        <ele>215</ele>
        <time>2012-04-07T12:54:44Z</time>
      </trkpt>
      <trkpt lat="45.81114" lon="4.85278">
        <ele>215</ele>
        <time>2012-04-07T12:54:47Z</time>
      </trkpt>
      <trkpt lat="45.81125" lon="4.85264">
        <ele>215</ele>
        <time>2012-04-07T12:54:50Z</time>
      </trkpt>
      <trkpt lat="45.81136" lon="4.85254">
        <ele>214</ele>
        <time>2012-04-07T12:54:53Z</time>
      </trkpt>
      <trkpt lat="45.81146" lon="4.85245">
        <ele>211</ele>
        <time>2012-04-07T12:54:56Z</time>
      </trkpt>
      <trkpt lat="45.81151" lon="4.85232">
        <ele>209</ele>
        <time>2012-04-07T12:54:59Z</time>
      </trkpt>
      <trkpt lat="45.81153" lon="4.8522">
        <ele>208</ele>
        <time>2012-04-07T12:55:02Z</time>
      </trkpt>
      <trkpt lat="45.81155" lon="4.85211">
        <ele>208</ele>
        <time>2012-04-07T12:55:05Z</time>
      </trkpt>
      <trkpt lat="45.81159" lon="4.85204">
        <ele>208</ele>
        <time>2012-04-07T12:55:09Z</time>
      </trkpt>
      <trkpt lat="45.8116" lon="4.85196">
        <ele>208</ele>
        <time>2012-04-07T12:55:12Z</time>
      </trkpt>
      <trkpt lat="45.81166" lon="4.85183">
        <ele>208</ele>
        <time>2012-04-07T12:55:15Z</time>
      </trkpt>
      <trkpt lat="45.81173" lon="4.85167">
        <ele>208</ele>
        <time>2012-04-07T12:55:18Z</time>
      </trkpt>
      <trkpt lat="45.81179" lon="4.85148">
        <ele>207</ele>
        <time>2012-04-07T12:55:21Z</time>
      </trkpt>
      <trkpt lat="45.81183" lon="4.85125">
        <ele>204</ele>
        <time>2012-04-07T12:55:24Z</time>
      </trkpt>
      <trkpt lat="45.81189" lon="4.85102">
        <ele>202</ele>
        <time>2012-04-07T12:55:27Z</time>
      </trkpt>
      <trkpt lat="45.81203" lon="4.85078">
        <ele>199</ele>
        <time>2012-04-07T12:55:30Z</time>
      </trkpt>
      <trkpt lat="45.81222" lon="4.8505">
        <ele>198</ele>
        <time>2012-04-07T12:55:34Z</time>
      </trkpt>
      <trkpt lat="45.81239" lon="4.85034">
        <ele>198</ele>
        <time>2012-04-07T12:55:37Z</time>
      </trkpt>
      <trkpt lat="45.81257" lon="4.85021">
        <ele>195</ele>
        <time>2012-04-07T12:55:40Z</time>
      </trkpt>
      <trkpt lat="45.8127" lon="4.85003">
        <ele>192</ele>
        <time>2012-04-07T12:55:43Z</time>
      </trkpt>
      <trkpt lat="45.81283" lon="4.84986">
        <ele>188</ele>
        <time>2012-04-07T12:55:46Z</time>
      </trkpt>
      <trkpt lat="45.81297" lon="4.84972">
        <ele>185</ele>
        <time>2012-04-07T12:55:49Z</time>
      </trkpt>
      <trkpt lat="45.81312" lon="4.84964">
        <ele>182</ele>
        <time>2012-04-07T12:55:52Z</time>
      </trkpt>
      <trkpt lat="45.81329" lon="4.8496">
        <ele>179</ele>
        <time>2012-04-07T12:55:55Z</time>
      </trkpt>
      <trkpt lat="45.81348" lon="4.84955">
        <ele>176</ele>
        <time>2012-04-07T12:55:58Z</time>
      </trkpt>
      <trkpt lat="45.81361" lon="4.84944">
        <ele>174</ele>
        <time>2012-04-07T12:56:01Z</time>
      </trkpt>
      <trkpt lat="45.81375" lon="4.84937">
        <ele>174</ele>
        <time>2012-04-07T12:56:04Z</time>
      </trkpt>
      <trkpt lat="45.81378" lon="4.84929">
        <ele>172</ele>
        <time>2012-04-07T12:56:07Z</time>
      </trkpt>
      <trkpt lat="45.81379" lon="4.84927">
        <ele>170</ele>
        <time>2012-04-07T12:56:12Z</time>
      </trkpt>
      <trkpt lat="45.81383" lon="4.84929">
        <ele>166</ele>
        <time>2012-04-07T12:56:16Z</time>
      </trkpt>
      <trkpt lat="45.81381" lon="4.84928">
        <ele>162</ele>
        <time>2012-04-07T12:56:22Z</time>
      </trkpt>
      <trkpt lat="45.81379" lon="4.84925">
        <ele>163</ele>
        <time>2012-04-07T12:56:30Z</time>
      </trkpt>
      <trkpt lat="45.81384" lon="4.84919">
        <ele>166</ele>
        <time>2012-04-07T12:56:33Z</time>
      </trkpt>
      <trkpt lat="45.8138" lon="4.84906">
        <ele>167</ele>
        <time>2012-04-07T12:56:36Z</time>
      </trkpt>
      <trkpt lat="45.81372" lon="4.84889">
        <ele>167</ele>
        <time>2012-04-07T12:56:39Z</time>
      </trkpt>
      <trkpt lat="45.81362" lon="4.8487">
        <ele>167</ele>
        <time>2012-04-07T12:56:42Z</time>
      </trkpt>
      <trkpt lat="45.8135" lon="4.84848">
        <ele>164</ele>
        <time>2012-04-07T12:56:45Z</time>
      </trkpt>
      <trkpt lat="45.81335" lon="4.84825">
        <ele>163</ele>
        <time>2012-04-07T12:56:48Z</time>
      </trkpt>
      <trkpt lat="45.81323" lon="4.84796">
        <ele>162</ele>
        <time>2012-04-07T12:56:51Z</time>
      </trkpt>
      <trkpt lat="45.81308" lon="4.84773">
        <ele>162</ele>
        <time>2012-04-07T12:56:54Z</time>
      </trkpt>
      <trkpt lat="45.81292" lon="4.84749">
        <ele>162</ele>
        <time>2012-04-07T12:56:58Z</time>
      </trkpt>
      <trkpt lat="45.81295" lon="4.84732">
        <ele>162</ele>
        <time>2012-04-07T12:57:01Z</time>
      </trkpt>
      <trkpt lat="45.81306" lon="4.84725">
        <ele>162</ele>
        <time>2012-04-07T12:57:04Z</time>
      </trkpt>
      <trkpt lat="45.81322" lon="4.84718">
        <ele>163</ele>
        <time>2012-04-07T12:57:08Z</time>
      </trkpt>
      <trkpt lat="45.81338" lon="4.8471">
        <ele>164</ele>
        <time>2012-04-07T12:57:12Z</time>
      </trkpt>
      <trkpt lat="45.8135" lon="4.84702">
        <ele>166</ele>
        <time>2012-04-07T12:57:15Z</time>
      </trkpt>
      <trkpt lat="45.81362" lon="4.84694">
        <ele>167</ele>
        <time>2012-04-07T12:57:18Z</time>
      </trkpt>
      <trkpt lat="45.81375" lon="4.84687">
        <ele>169</ele>
        <time>2012-04-07T12:57:21Z</time>
      </trkpt>
      <trkpt lat="45.81389" lon="4.84679">
        <ele>170</ele>
        <time>2012-04-07T12:57:24Z</time>
      </trkpt>
      <trkpt lat="45.81409" lon="4.84668">
        <ele>171</ele>
        <time>2012-04-07T12:57:28Z</time>
      </trkpt>
      <trkpt lat="45.81424" lon="4.8466">
        <ele>171</ele>
        <time>2012-04-07T12:57:31Z</time>
      </trkpt>
      <trkpt lat="45.8144" lon="4.84651">
        <ele>171</ele>
        <time>2012-04-07T12:57:34Z</time>
      </trkpt>
      <trkpt lat="45.81456" lon="4.84643">
        <ele>171</ele>
        <time>2012-04-07T12:57:37Z</time>
      </trkpt>
      <trkpt lat="45.81469" lon="4.84635">
        <ele>171</ele>
        <time>2012-04-07T12:57:40Z</time>
      </trkpt>
      <trkpt lat="45.81477" lon="4.84634">
        <ele>172</ele>
        <time>2012-04-07T12:57:44Z</time>
      </trkpt>
      <trkpt lat="45.81488" lon="4.84635">
        <ele>173</ele>
        <time>2012-04-07T12:57:47Z</time>
      </trkpt>
      <trkpt lat="45.815" lon="4.84628">
        <ele>173</ele>
        <time>2012-04-07T12:57:50Z</time>
      </trkpt>
      <trkpt lat="45.81514" lon="4.84626">
        <ele>173</ele>
        <time>2012-04-07T12:57:53Z</time>
      </trkpt>
      <trkpt lat="45.81531" lon="4.84626">
        <ele>173</ele>
        <time>2012-04-07T12:57:56Z</time>
      </trkpt>
      <trkpt lat="45.8155" lon="4.84619">
        <ele>173</ele>
        <time>2012-04-07T12:57:59Z</time>
      </trkpt>
      <trkpt lat="45.81566" lon="4.84601">
        <ele>173</ele>
        <time>2012-04-07T12:58:02Z</time>
      </trkpt>
      <trkpt lat="45.81579" lon="4.84578">
        <ele>173</ele>
        <time>2012-04-07T12:58:05Z</time>
      </trkpt>
      <trkpt lat="45.8159" lon="4.84556">
        <ele>170</ele>
        <time>2012-04-07T12:58:08Z</time>
      </trkpt>
      <trkpt lat="45.816" lon="4.84534">
        <ele>169</ele>
        <time>2012-04-07T12:58:11Z</time>
      </trkpt>
      <trkpt lat="45.81609" lon="4.84511">
        <ele>169</ele>
        <time>2012-04-07T12:58:14Z</time>
      </trkpt>
      <trkpt lat="45.81617" lon="4.84488">
        <ele>169</ele>
        <time>2012-04-07T12:58:17Z</time>
      </trkpt>
      <trkpt lat="45.81626" lon="4.84469">
        <ele>169</ele>
        <time>2012-04-07T12:58:20Z</time>
      </trkpt>
      <trkpt lat="45.8164" lon="4.84432">
        <ele>167</ele>
        <time>2012-04-07T12:58:25Z</time>
      </trkpt>
      <trkpt lat="45.81646" lon="4.84417">
        <ele>167</ele>
        <time>2012-04-07T12:58:28Z</time>
      </trkpt>
      <trkpt lat="45.81653" lon="4.84404">
        <ele>167</ele>
        <time>2012-04-07T12:58:31Z</time>
      </trkpt>
      <trkpt lat="45.81659" lon="4.84392">
        <ele>167</ele>
        <time>2012-04-07T12:58:34Z</time>
      </trkpt>
      <trkpt lat="45.81662" lon="4.8438">
        <ele>167</ele>
        <time>2012-04-07T12:58:37Z</time>
      </trkpt>
      <trkpt lat="45.81665" lon="4.84373">
        <ele>167</ele>
        <time>2012-04-07T12:58:40Z</time>
      </trkpt>
      <trkpt lat="45.81671" lon="4.84371">
        <ele>167</ele>
        <time>2012-04-07T12:58:43Z</time>
      </trkpt>
      <trkpt lat="45.8168" lon="4.84373">
        <ele>168</ele>
        <time>2012-04-07T12:58:46Z</time>
      </trkpt>
      <trkpt lat="45.81688" lon="4.84376">
        <ele>171</ele>
        <time>2012-04-07T12:58:49Z</time>
      </trkpt>
      <trkpt lat="45.81695" lon="4.84376">
        <ele>174</ele>
        <time>2012-04-07T12:58:52Z</time>
      </trkpt>
      <trkpt lat="45.81704" lon="4.84381">
        <ele>177</ele>
        <time>2012-04-07T12:58:55Z</time>
      </trkpt>
      <trkpt lat="45.81716" lon="4.84386">
        <ele>180</ele>
        <time>2012-04-07T12:58:58Z</time>
      </trkpt>
      <trkpt lat="45.81727" lon="4.84391">
        <ele>181</ele>
        <time>2012-04-07T12:59:01Z</time>
      </trkpt>
      <trkpt lat="45.81738" lon="4.84394">
        <ele>181</ele>
        <time>2012-04-07T12:59:04Z</time>
      </trkpt>
      <trkpt lat="45.81751" lon="4.84399">
        <ele>181</ele>
        <time>2012-04-07T12:59:07Z</time>
      </trkpt>
      <trkpt lat="45.81762" lon="4.84405">
        <ele>181</ele>
        <time>2012-04-07T12:59:10Z</time>
      </trkpt>
      <trkpt lat="45.81774" lon="4.84411">
        <ele>181</ele>
        <time>2012-04-07T12:59:13Z</time>
      </trkpt>
      <trkpt lat="45.81784" lon="4.84417">
        <ele>181</ele>
        <time>2012-04-07T12:59:16Z</time>
      </trkpt>
      <trkpt lat="45.81793" lon="4.8442">
        <ele>181</ele>
        <time>2012-04-07T12:59:19Z</time>
      </trkpt>
      <trkpt lat="45.81802" lon="4.84412">
        <ele>181</ele>
        <time>2012-04-07T12:59:22Z</time>
      </trkpt>
      <trkpt lat="45.81808" lon="4.844">
        <ele>181</ele>
        <time>2012-04-07T12:59:25Z</time>
      </trkpt>
      <trkpt lat="45.81814" lon="4.84385">
        <ele>181</ele>
        <time>2012-04-07T12:59:28Z</time>
      </trkpt>
      <trkpt lat="45.81819" lon="4.84373">
        <ele>181</ele>
        <time>2012-04-07T12:59:31Z</time>
      </trkpt>
      <trkpt lat="45.81825" lon="4.84359">
        <ele>181</ele>
        <time>2012-04-07T12:59:34Z</time>
      </trkpt>
      <trkpt lat="45.81832" lon="4.84346">
        <ele>181</ele>
        <time>2012-04-07T12:59:37Z</time>
      </trkpt>
      <trkpt lat="45.81839" lon="4.8434">
        <ele>180</ele>
        <time>2012-04-07T12:59:40Z</time>
      </trkpt>
      <trkpt lat="45.81846" lon="4.84336">
        <ele>180</ele>
        <time>2012-04-07T12:59:43Z</time>
      </trkpt>
      <trkpt lat="45.81853" lon="4.84337">
        <ele>180</ele>
        <time>2012-04-07T12:59:46Z</time>
      </trkpt>
      <trkpt lat="45.81859" lon="4.84338">
        <ele>180</ele>
        <time>2012-04-07T12:59:49Z</time>
      </trkpt>
      <trkpt lat="45.81866" lon="4.8434">
        <ele>180</ele>
        <time>2012-04-07T12:59:52Z</time>
      </trkpt>
      <trkpt lat="45.81875" lon="4.84342">
        <ele>180</ele>
        <time>2012-04-07T12:59:55Z</time>
      </trkpt>
      <trkpt lat="45.81883" lon="4.84343">
        <ele>180</ele>
        <time>2012-04-07T12:59:58Z</time>
      </trkpt>
      <trkpt lat="45.81889" lon="4.84347">
        <ele>180</ele>
        <time>2012-04-07T13:00:01Z</time>
      </trkpt>
      <trkpt lat="45.81892" lon="4.8435">
        <ele>181</ele>
        <time>2012-04-07T13:00:05Z</time>
      </trkpt>
      <trkpt lat="45.81898" lon="4.84353">
        <ele>184</ele>
        <time>2012-04-07T13:00:08Z</time>
      </trkpt>
      <trkpt lat="45.81908" lon="4.84354">
        <ele>188</ele>
        <time>2012-04-07T13:00:12Z</time>
      </trkpt>
      <trkpt lat="45.81913" lon="4.84351">
        <ele>190</ele>
        <time>2012-04-07T13:00:15Z</time>
      </trkpt>
      <trkpt lat="45.81925" lon="4.84348">
        <ele>191</ele>
        <time>2012-04-07T13:00:20Z</time>
      </trkpt>
      <trkpt lat="45.81936" lon="4.84347">
        <ele>191</ele>
        <time>2012-04-07T13:00:23Z</time>
      </trkpt>
      <trkpt lat="45.81943" lon="4.84348">
        <ele>191</ele>
        <time>2012-04-07T13:00:26Z</time>
      </trkpt>
      <trkpt lat="45.81948" lon="4.84354">
        <ele>192</ele>
        <time>2012-04-07T13:00:29Z</time>
      </trkpt>
      <trkpt lat="45.81955" lon="4.84358">
        <ele>195</ele>
        <time>2012-04-07T13:00:32Z</time>
      </trkpt>
      <trkpt lat="45.81963" lon="4.8436">
        <ele>195</ele>
        <time>2012-04-07T13:00:35Z</time>
      </trkpt>
      <trkpt lat="45.81972" lon="4.84361">
        <ele>195</ele>
        <time>2012-04-07T13:00:38Z</time>
      </trkpt>
      <trkpt lat="45.81979" lon="4.84359">
        <ele>195</ele>
        <time>2012-04-07T13:00:41Z</time>
      </trkpt>
      <trkpt lat="45.81987" lon="4.84358">
        <ele>195</ele>
        <time>2012-04-07T13:00:44Z</time>
      </trkpt>
      <trkpt lat="45.81998" lon="4.84357">
        <ele>195</ele>
        <time>2012-04-07T13:00:47Z</time>
      </trkpt>
      <trkpt lat="45.82007" lon="4.84355">
        <ele>195</ele>
        <time>2012-04-07T13:00:50Z</time>
      </trkpt>
      <trkpt lat="45.82015" lon="4.8436">
        <ele>195</ele>
        <time>2012-04-07T13:00:53Z</time>
      </trkpt>
      <trkpt lat="45.82024" lon="4.8436">
        <ele>195</ele>
        <time>2012-04-07T13:00:56Z</time>
      </trkpt>
      <trkpt lat="45.82033" lon="4.84358">
        <ele>195</ele>
        <time>2012-04-07T13:00:59Z</time>
      </trkpt>
      <trkpt lat="45.82042" lon="4.84358">
        <ele>195</ele>
        <time>2012-04-07T13:01:02Z</time>
      </trkpt>
      <trkpt lat="45.8205" lon="4.84355">
        <ele>195</ele>
        <time>2012-04-07T13:01:05Z</time>
      </trkpt>
      <trkpt lat="45.8206" lon="4.84355">
        <ele>195</ele>
        <time>2012-04-07T13:01:08Z</time>
      </trkpt>
      <trkpt lat="45.82067" lon="4.84345">
        <ele>195</ele>
        <time>2012-04-07T13:01:11Z</time>
      </trkpt>
      <trkpt lat="45.82067" lon="4.84334">
        <ele>196</ele>
        <time>2012-04-07T13:01:14Z</time>
      </trkpt>
      <trkpt lat="45.82068" lon="4.84325">
        <ele>199</ele>
        <time>2012-04-07T13:01:17Z</time>
      </trkpt>
      <trkpt lat="45.8207" lon="4.84316">
        <ele>201</ele>
        <time>2012-04-07T13:01:20Z</time>
      </trkpt>
      <trkpt lat="45.82074" lon="4.84307">
        <ele>203</ele>
        <time>2012-04-07T13:01:23Z</time>
      </trkpt>
      <trkpt lat="45.82077" lon="4.84298">
        <ele>204</ele>
        <time>2012-04-07T13:01:26Z</time>
      </trkpt>
      <trkpt lat="45.82081" lon="4.8429">
        <ele>207</ele>
        <time>2012-04-07T13:01:29Z</time>
      </trkpt>
      <trkpt lat="45.82084" lon="4.84283">
        <ele>210</ele>
        <time>2012-04-07T13:01:32Z</time>
      </trkpt>
      <trkpt lat="45.82087" lon="4.84275">
        <ele>213</ele>
        <time>2012-04-07T13:01:35Z</time>
      </trkpt>
      <trkpt lat="45.82089" lon="4.84265">
        <ele>214</ele>
        <time>2012-04-07T13:01:38Z</time>
      </trkpt>
      <trkpt lat="45.8209" lon="4.84255">
        <ele>214</ele>
        <time>2012-04-07T13:01:41Z</time>
      </trkpt>
      <trkpt lat="45.82093" lon="4.84246">
        <ele>214</ele>
        <time>2012-04-07T13:01:44Z</time>
      </trkpt>
      <trkpt lat="45.82096" lon="4.84237">
        <ele>214</ele>
        <time>2012-04-07T13:01:47Z</time>
      </trkpt>
      <trkpt lat="45.82098" lon="4.84226">
        <ele>214</ele>
        <time>2012-04-07T13:01:50Z</time>
      </trkpt>
      <trkpt lat="45.82098" lon="4.84214">
        <ele>214</ele>
        <time>2012-04-07T13:01:53Z</time>
      </trkpt>
      <trkpt lat="45.82099" lon="4.84199">
        <ele>214</ele>
        <time>2012-04-07T13:01:57Z</time>
      </trkpt>
      <trkpt lat="45.82103" lon="4.84185">
        <ele>214</ele>
        <time>2012-04-07T13:02:01Z</time>
      </trkpt>
      <trkpt lat="45.82112" lon="4.84181">
        <ele>214</ele>
        <time>2012-04-07T13:02:05Z</time>
      </trkpt>
      <trkpt lat="45.82122" lon="4.84183">
        <ele>215</ele>
        <time>2012-04-07T13:02:08Z</time>
      </trkpt>
      <trkpt lat="45.82132" lon="4.84185">
        <ele>215</ele>
        <time>2012-04-07T13:02:11Z</time>
      </trkpt>
      <trkpt lat="45.8214" lon="4.84189">
        <ele>215</ele>
        <time>2012-04-07T13:02:14Z</time>
      </trkpt>
      <trkpt lat="45.82148" lon="4.84194">
        <ele>215</ele>
        <time>2012-04-07T13:02:17Z</time>
      </trkpt>
      <trkpt lat="45.82157" lon="4.84197">
        <ele>215</ele>
        <time>2012-04-07T13:02:20Z</time>
      </trkpt>
      <trkpt lat="45.82165" lon="4.84199">
        <ele>215</ele>
        <time>2012-04-07T13:02:23Z</time>
      </trkpt>
      <trkpt lat="45.82173" lon="4.84202">
        <ele>215</ele>
        <time>2012-04-07T13:02:26Z</time>
      </trkpt>
      <trkpt lat="45.82182" lon="4.84203">
        <ele>215</ele>
        <time>2012-04-07T13:02:29Z</time>
      </trkpt>
      <trkpt lat="45.8219" lon="4.84203">
        <ele>215</ele>
        <time>2012-04-07T13:02:32Z</time>
      </trkpt>
      <trkpt lat="45.82199" lon="4.84205">
        <ele>215</ele>
        <time>2012-04-07T13:02:35Z</time>
      </trkpt>
      <trkpt lat="45.82208" lon="4.84207">
        <ele>215</ele>
        <time>2012-04-07T13:02:38Z</time>
      </trkpt>
      <trkpt lat="45.82221" lon="4.84211">
        <ele>215</ele>
        <time>2012-04-07T13:02:41Z</time>
      </trkpt>
      <trkpt lat="45.82235" lon="4.84212">
        <ele>215</ele>
        <time>2012-04-07T13:02:44Z</time>
      </trkpt>
      <trkpt lat="45.8225" lon="4.84213">
        <ele>215</ele>
        <time>2012-04-07T13:02:47Z</time>
      </trkpt>
      <trkpt lat="45.82266" lon="4.84213">
        <ele>215</ele>
        <time>2012-04-07T13:02:50Z</time>
      </trkpt>
      <trkpt lat="45.8228" lon="4.84215">
        <ele>217</ele>
        <time>2012-04-07T13:02:54Z</time>
      </trkpt>
      <trkpt lat="45.82294" lon="4.84219">
        <ele>218</ele>
        <time>2012-04-07T13:02:57Z</time>
      </trkpt>
      <trkpt lat="45.82309" lon="4.84223">
        <ele>220</ele>
        <time>2012-04-07T13:03:00Z</time>
      </trkpt>
      <trkpt lat="45.82322" lon="4.8423">
        <ele>220</ele>
        <time>2012-04-07T13:03:03Z</time>
      </trkpt>
      <trkpt lat="45.82333" lon="4.84235">
        <ele>222</ele>
        <time>2012-04-07T13:03:06Z</time>
      </trkpt>
      <trkpt lat="45.82344" lon="4.8424">
        <ele>223</ele>
        <time>2012-04-07T13:03:09Z</time>
      </trkpt>
      <trkpt lat="45.82354" lon="4.84242">
        <ele>223</ele>
        <time>2012-04-07T13:03:12Z</time>
      </trkpt>
      <trkpt lat="45.82356" lon="4.84228">
        <ele>225</ele>
        <time>2012-04-07T13:03:16Z</time>
      </trkpt>
      <trkpt lat="45.82352" lon="4.8421">
        <ele>228</ele>
        <time>2012-04-07T13:03:19Z</time>
      </trkpt>
      <trkpt lat="45.8235" lon="4.84192">
        <ele>228</ele>
        <time>2012-04-07T13:03:22Z</time>
      </trkpt>
      <trkpt lat="45.82352" lon="4.84177">
        <ele>228</ele>
        <time>2012-04-07T13:03:25Z</time>
      </trkpt>
      <trkpt lat="45.82355" lon="4.84158">
        <ele>228</ele>
        <time>2012-04-07T13:03:29Z</time>
      </trkpt>
      <trkpt lat="45.82356" lon="4.84145">
        <ele>228</ele>
        <time>2012-04-07T13:03:32Z</time>
      </trkpt>
      <trkpt lat="45.82355" lon="4.84131">
        <ele>228</ele>
        <time>2012-04-07T13:03:35Z</time>
      </trkpt>
      <trkpt lat="45.82356" lon="4.84118">
        <ele>228</ele>
        <time>2012-04-07T13:03:38Z</time>
      </trkpt>
      <trkpt lat="45.82356" lon="4.84101">
        <ele>228</ele>
        <time>2012-04-07T13:03:42Z</time>
      </trkpt>
      <trkpt lat="45.82357" lon="4.84088">
        <ele>228</ele>
        <time>2012-04-07T13:03:45Z</time>
      </trkpt>
      <trkpt lat="45.82357" lon="4.84075">
        <ele>228</ele>
        <time>2012-04-07T13:03:48Z</time>
      </trkpt>
      <trkpt lat="45.82357" lon="4.84063">
        <ele>229</ele>
        <time>2012-04-07T13:03:51Z</time>
      </trkpt>
      <trkpt lat="45.82358" lon="4.8405">
        <ele>231</ele>
        <time>2012-04-07T13:03:54Z</time>
      </trkpt>
      <trkpt lat="45.82358" lon="4.84038">
        <ele>232</ele>
        <time>2012-04-07T13:03:57Z</time>
      </trkpt>
      <trkpt lat="45.82357" lon="4.84024">
        <ele>232</ele>
        <time>2012-04-07T13:04:00Z</time>
      </trkpt>
      <trkpt lat="45.82358" lon="4.8401">
        <ele>232</ele>
        <time>2012-04-07T13:04:03Z</time>
      </trkpt>
      <trkpt lat="45.82359" lon="4.83993">
        <ele>232</ele>
        <time>2012-04-07T13:04:06Z</time>
      </trkpt>
      <trkpt lat="45.82362" lon="4.83978">
        <ele>233</ele>
        <time>2012-04-07T13:04:09Z</time>
      </trkpt>
      <trkpt lat="45.82374" lon="4.83969">
        <ele>235</ele>
        <time>2012-04-07T13:04:13Z</time>
      </trkpt>
      <trkpt lat="45.82385" lon="4.83968">
        <ele>237</ele>
        <time>2012-04-07T13:04:16Z</time>
      </trkpt>
      <trkpt lat="45.82396" lon="4.83968">
        <ele>238</ele>
        <time>2012-04-07T13:04:19Z</time>
      </trkpt>
      <trkpt lat="45.82408" lon="4.8397">
        <ele>238</ele>
        <time>2012-04-07T13:04:22Z</time>
      </trkpt>
      <trkpt lat="45.8242" lon="4.8397">
        <ele>239</ele>
        <time>2012-04-07T13:04:26Z</time>
      </trkpt>
      <trkpt lat="45.82428" lon="4.83971">
        <ele>239</ele>
        <time>2012-04-07T13:04:29Z</time>
      </trkpt>
      <trkpt lat="45.82437" lon="4.83973">
        <ele>239</ele>
        <time>2012-04-07T13:04:32Z</time>
      </trkpt>
      <trkpt lat="45.82448" lon="4.83973">
        <ele>239</ele>
        <time>2012-04-07T13:04:35Z</time>
      </trkpt>
      <trkpt lat="45.8246" lon="4.83975">
        <ele>239</ele>
        <time>2012-04-07T13:04:38Z</time>
      </trkpt>
      <trkpt lat="45.82466" lon="4.83982">
        <ele>239</ele>
        <time>2012-04-07T13:04:41Z</time>
      </trkpt>
      <trkpt lat="45.82476" lon="4.83979">
        <ele>240</ele>
        <time>2012-04-07T13:04:44Z</time>
      </trkpt>
      <trkpt lat="45.82487" lon="4.8398">
        <ele>240</ele>
        <time>2012-04-07T13:04:47Z</time>
      </trkpt>
      <trkpt lat="45.82499" lon="4.83981">
        <ele>239</ele>
        <time>2012-04-07T13:04:50Z</time>
      </trkpt>
      <trkpt lat="45.82518" lon="4.83978">
        <ele>235</ele>
        <time>2012-04-07T13:04:54Z</time>
      </trkpt>
      <trkpt lat="45.82536" lon="4.83975">
        <ele>233</ele>
        <time>2012-04-07T13:04:57Z</time>
      </trkpt>
      <trkpt lat="45.8255" lon="4.8396">
        <ele>232</ele>
        <time>2012-04-07T13:05:00Z</time>
      </trkpt>
      <trkpt lat="45.82555" lon="4.83943">
        <ele>231</ele>
        <time>2012-04-07T13:05:03Z</time>
      </trkpt>
      <trkpt lat="45.82557" lon="4.83925">
        <ele>230</ele>
        <time>2012-04-07T13:05:06Z</time>
      </trkpt>
      <trkpt lat="45.82559" lon="4.83906">
        <ele>230</ele>
        <time>2012-04-07T13:05:09Z</time>
      </trkpt>
      <trkpt lat="45.8256" lon="4.83887">
        <ele>230</ele>
        <time>2012-04-07T13:05:12Z</time>
      </trkpt>
      <trkpt lat="45.82561" lon="4.8387">
        <ele>230</ele>
        <time>2012-04-07T13:05:15Z</time>
      </trkpt>
      <trkpt lat="45.82566" lon="4.83855">
        <ele>230</ele>
        <time>2012-04-07T13:05:18Z</time>
      </trkpt>
      <trkpt lat="45.82569" lon="4.83842">
        <ele>230</ele>
        <time>2012-04-07T13:05:21Z</time>
      </trkpt>
      <trkpt lat="45.82575" lon="4.83826">
        <ele>230</ele>
        <time>2012-04-07T13:05:25Z</time>
      </trkpt>
      <trkpt lat="45.82576" lon="4.83809">
        <ele>231</ele>
        <time>2012-04-07T13:05:29Z</time>
      </trkpt>
      <trkpt lat="45.82573" lon="4.83795">
        <ele>232</ele>
        <time>2012-04-07T13:05:32Z</time>
      </trkpt>
      <trkpt lat="45.82571" lon="4.83783">
        <ele>232</ele>
        <time>2012-04-07T13:05:35Z</time>
      </trkpt>
      <trkpt lat="45.82566" lon="4.83768">
        <ele>232</ele>
        <time>2012-04-07T13:05:39Z</time>
      </trkpt>
      <trkpt lat="45.82562" lon="4.83752">
        <ele>233</ele>
        <time>2012-04-07T13:05:43Z</time>
      </trkpt>
      <trkpt lat="45.8256" lon="4.83741">
        <ele>235</ele>
        <time>2012-04-07T13:05:46Z</time>
      </trkpt>
      <trkpt lat="45.82558" lon="4.8373">
        <ele>236</ele>
        <time>2012-04-07T13:05:49Z</time>
      </trkpt>
      <trkpt lat="45.82557" lon="4.83718">
        <ele>237</ele>
        <time>2012-04-07T13:05:52Z</time>
      </trkpt>
      <trkpt lat="45.82555" lon="4.83706">
        <ele>238</ele>
        <time>2012-04-07T13:05:55Z</time>
      </trkpt>
      <trkpt lat="45.82555" lon="4.83696">
        <ele>241</ele>
        <time>2012-04-07T13:05:58Z</time>
      </trkpt>
      <trkpt lat="45.82554" lon="4.83681">
        <ele>245</ele>
        <time>2012-04-07T13:06:02Z</time>
      </trkpt>
      <trkpt lat="45.82555" lon="4.83664">
        <ele>246</ele>
        <time>2012-04-07T13:06:06Z</time>
      </trkpt>
      <trkpt lat="45.82555" lon="4.83652">
        <ele>247</ele>
        <time>2012-04-07T13:06:09Z</time>
      </trkpt>
      <trkpt lat="45.82555" lon="4.83634">
        <ele>248</ele>
        <time>2012-04-07T13:06:13Z</time>
      </trkpt>
      <trkpt lat="45.82556" lon="4.83615">
        <ele>248</ele>
        <time>2012-04-07T13:06:17Z</time>
      </trkpt>
      <trkpt lat="45.82558" lon="4.83603">
        <ele>248</ele>
        <time>2012-04-07T13:06:20Z</time>
      </trkpt>
      <trkpt lat="45.82558" lon="4.83591">
        <ele>249</ele>
        <time>2012-04-07T13:06:23Z</time>
      </trkpt>
      <trkpt lat="45.82561" lon="4.8358">
        <ele>250</ele>
        <time>2012-04-07T13:06:26Z</time>
      </trkpt>
      <trkpt lat="45.82564" lon="4.83568">
        <ele>252</ele>
        <time>2012-04-07T13:06:29Z</time>
      </trkpt>
      <trkpt lat="45.82566" lon="4.83556">
        <ele>255</ele>
        <time>2012-04-07T13:06:32Z</time>
      </trkpt>
      <trkpt lat="45.82569" lon="4.83544">
        <ele>256</ele>
        <time>2012-04-07T13:06:35Z</time>
      </trkpt>
      <trkpt lat="45.82574" lon="4.83529">
        <ele>256</ele>
        <time>2012-04-07T13:06:39Z</time>
      </trkpt>
      <trkpt lat="45.82576" lon="4.83516">
        <ele>256</ele>
        <time>2012-04-07T13:06:42Z</time>
      </trkpt>
      <trkpt lat="45.82578" lon="4.83504">
        <ele>256</ele>
        <time>2012-04-07T13:06:45Z</time>
      </trkpt>
      <trkpt lat="45.8258" lon="4.83493">
        <ele>256</ele>
        <time>2012-04-07T13:06:48Z</time>
      </trkpt>
      <trkpt lat="45.82584" lon="4.83482">
        <ele>258</ele>
        <time>2012-04-07T13:06:51Z</time>
      </trkpt>
      <trkpt lat="45.82589" lon="4.83467">
        <ele>261</ele>
        <time>2012-04-07T13:06:55Z</time>
      </trkpt>
      <trkpt lat="45.82592" lon="4.83457">
        <ele>263</ele>
        <time>2012-04-07T13:06:58Z</time>
      </trkpt>
      <trkpt lat="45.82596" lon="4.83445">
        <ele>267</ele>
        <time>2012-04-07T13:07:02Z</time>
      </trkpt>
      <trkpt lat="45.82602" lon="4.83443">
        <ele>269</ele>
        <time>2012-04-07T13:07:05Z</time>
      </trkpt>
      <trkpt lat="45.82613" lon="4.83451">
        <ele>269</ele>
        <time>2012-04-07T13:07:09Z</time>
      </trkpt>
      <trkpt lat="45.82622" lon="4.83454">
        <ele>269</ele>
        <time>2012-04-07T13:07:12Z</time>
      </trkpt>
      <trkpt lat="45.82632" lon="4.83457">
        <ele>269</ele>
        <time>2012-04-07T13:07:15Z</time>
      </trkpt>
      <trkpt lat="45.82645" lon="4.83463">
        <ele>269</ele>
        <time>2012-04-07T13:07:18Z</time>
      </trkpt>
      <trkpt lat="45.82662" lon="4.83473">
        <ele>269</ele>
        <time>2012-04-07T13:07:21Z</time>
      </trkpt>
      <trkpt lat="45.82684" lon="4.83482">
        <ele>269</ele>
        <time>2012-04-07T13:07:25Z</time>
      </trkpt>
      <trkpt lat="45.82699" lon="4.83488">
        <ele>269</ele>
        <time>2012-04-07T13:07:28Z</time>
      </trkpt>
      <trkpt lat="45.82713" lon="4.83496">
        <ele>268</ele>
        <time>2012-04-07T13:07:31Z</time>
      </trkpt>
      <trkpt lat="45.82734" lon="4.83505">
        <ele>264</ele>
        <time>2012-04-07T13:07:35Z</time>
      </trkpt>
      <trkpt lat="45.82747" lon="4.83509">
        <ele>261</ele>
        <time>2012-04-07T13:07:38Z</time>
      </trkpt>
      <trkpt lat="45.82766" lon="4.83513">
        <ele>257</ele>
        <time>2012-04-07T13:07:42Z</time>
      </trkpt>
      <trkpt lat="45.8278" lon="4.83516">
        <ele>254</ele>
        <time>2012-04-07T13:07:45Z</time>
      </trkpt>
      <trkpt lat="45.82799" lon="4.83519">
        <ele>251</ele>
        <time>2012-04-07T13:07:49Z</time>
      </trkpt>
      <trkpt lat="45.82817" lon="4.83523">
        <ele>250</ele>
        <time>2012-04-07T13:07:53Z</time>
      </trkpt>
      <trkpt lat="45.82834" lon="4.83522">
        <ele>249</ele>
        <time>2012-04-07T13:07:57Z</time>
      </trkpt>
      <trkpt lat="45.82852" lon="4.83522">
        <ele>249</ele>
        <time>2012-04-07T13:08:01Z</time>
      </trkpt>
      <trkpt lat="45.82866" lon="4.83519">
        <ele>249</ele>
        <time>2012-04-07T13:08:05Z</time>
      </trkpt>
      <trkpt lat="45.82877" lon="4.83517">
        <ele>249</ele>
        <time>2012-04-07T13:08:08Z</time>
      </trkpt>
      <trkpt lat="45.82888" lon="4.83514">
        <ele>249</ele>
        <time>2012-04-07T13:08:11Z</time>
      </trkpt>
      <trkpt lat="45.829" lon="4.83511">
        <ele>249</ele>
        <time>2012-04-07T13:08:14Z</time>
      </trkpt>
      <trkpt lat="45.82917" lon="4.83504">
        <ele>249</ele>
        <time>2012-04-07T13:08:18Z</time>
      </trkpt>
      <trkpt lat="45.82931" lon="4.83496">
        <ele>249</ele>
        <time>2012-04-07T13:08:21Z</time>
      </trkpt>
      <trkpt lat="45.82947" lon="4.83488">
        <ele>249</ele>
        <time>2012-04-07T13:08:24Z</time>
      </trkpt>
      <trkpt lat="45.82969" lon="4.83472">
        <ele>249</ele>
        <time>2012-04-07T13:08:28Z</time>
      </trkpt>
      <trkpt lat="45.82991" lon="4.83453">
        <ele>247</ele>
        <time>2012-04-07T13:08:32Z</time>
      </trkpt>
      <trkpt lat="45.83011" lon="4.83444">
        <ele>247</ele>
        <time>2012-04-07T13:08:35Z</time>
      </trkpt>
      <trkpt lat="45.83035" lon="4.83431">
        <ele>246</ele>
        <time>2012-04-07T13:08:38Z</time>
      </trkpt>
      <trkpt lat="45.83069" lon="4.83411">
        <ele>243</ele>
        <time>2012-04-07T13:08:42Z</time>
      </trkpt>
      <trkpt lat="45.83093" lon="4.83398">
        <ele>243</ele>
        <time>2012-04-07T13:08:45Z</time>
      </trkpt>
      <trkpt lat="45.83114" lon="4.83385">
        <ele>243</ele>
        <time>2012-04-07T13:08:48Z</time>
      </trkpt>
      <trkpt lat="45.83137" lon="4.83365">
        <ele>241</ele>
        <time>2012-04-07T13:08:52Z</time>
      </trkpt>
      <trkpt lat="45.83153" lon="4.83347">
        <ele>240</ele>
        <time>2012-04-07T13:08:55Z</time>
      </trkpt>
      <trkpt lat="45.83169" lon="4.83329">
        <ele>238</ele>
        <time>2012-04-07T13:08:58Z</time>
      </trkpt>
      <trkpt lat="45.83188" lon="4.83305">
        <ele>237</ele>
        <time>2012-04-07T13:09:02Z</time>
      </trkpt>
      <trkpt lat="45.83202" lon="4.83279">
        <ele>237</ele>
        <time>2012-04-07T13:09:06Z</time>
      </trkpt>
      <trkpt lat="45.83216" lon="4.83258">
        <ele>237</ele>
        <time>2012-04-07T13:09:09Z</time>
      </trkpt>
      <trkpt lat="45.83233" lon="4.83229">
        <ele>237</ele>
        <time>2012-04-07T13:09:13Z</time>
      </trkpt>
      <trkpt lat="45.83246" lon="4.83208">
        <ele>237</ele>
        <time>2012-04-07T13:09:16Z</time>
      </trkpt>
      <trkpt lat="45.83257" lon="4.83187">
        <ele>238</ele>
        <time>2012-04-07T13:09:19Z</time>
      </trkpt>
      <trkpt lat="45.83273" lon="4.83161">
        <ele>238</ele>
        <time>2012-04-07T13:09:23Z</time>
      </trkpt>
      <trkpt lat="45.83291" lon="4.8314">
        <ele>238</ele>
        <time>2012-04-07T13:09:27Z</time>
      </trkpt>
      <trkpt lat="45.83301" lon="4.83122">
        <ele>238</ele>
        <time>2012-04-07T13:09:30Z</time>
      </trkpt>
      <trkpt lat="45.83314" lon="4.83101">
        <ele>238</ele>
        <time>2012-04-07T13:09:33Z</time>
      </trkpt>
      <trkpt lat="45.83327" lon="4.83076">
        <ele>240</ele>
        <time>2012-04-07T13:09:36Z</time>
      </trkpt>
      <trkpt lat="45.83341" lon="4.83048">
        <ele>243</ele>
        <time>2012-04-07T13:09:39Z</time>
      </trkpt>
      <trkpt lat="45.83361" lon="4.83011">
        <ele>247</ele>
        <time>2012-04-07T13:09:43Z</time>
      </trkpt>
      <trkpt lat="45.83379" lon="4.82989">
        <ele>247</ele>
        <time>2012-04-07T13:09:46Z</time>
      </trkpt>
      <trkpt lat="45.83397" lon="4.82973">
        <ele>247</ele>
        <time>2012-04-07T13:09:49Z</time>
      </trkpt>
      <trkpt lat="45.83416" lon="4.82954">
        <ele>247</ele>
        <time>2012-04-07T13:09:52Z</time>
      </trkpt>
      <trkpt lat="45.8343" lon="4.82928">
        <ele>247</ele>
        <time>2012-04-07T13:09:55Z</time>
      </trkpt>
      <trkpt lat="45.83439" lon="4.82896">
        <ele>248</ele>
        <time>2012-04-07T13:09:58Z</time>
      </trkpt>
      <trkpt lat="45.83446" lon="4.82866">
        <ele>250</ele>
        <time>2012-04-07T13:10:01Z</time>
      </trkpt>
      <trkpt lat="45.83452" lon="4.8284">
        <ele>251</ele>
        <time>2012-04-07T13:10:04Z</time>
      </trkpt>
      <trkpt lat="45.83455" lon="4.82806">
        <ele>252</ele>
        <time>2012-04-07T13:10:08Z</time>
      </trkpt>
      <trkpt lat="45.83456" lon="4.82776">
        <ele>253</ele>
        <time>2012-04-07T13:10:11Z</time>
      </trkpt>
      <trkpt lat="45.83463" lon="4.82747">
        <ele>253</ele>
        <time>2012-04-07T13:10:14Z</time>
      </trkpt>
      <trkpt lat="45.83479" lon="4.82719">
        <ele>253</ele>
        <time>2012-04-07T13:10:17Z</time>
      </trkpt>
      <trkpt lat="45.83495" lon="4.8269">
        <ele>255</ele>
        <time>2012-04-07T13:10:20Z</time>
      </trkpt>
      <trkpt lat="45.8351" lon="4.82658">
        <ele>255</ele>
        <time>2012-04-07T13:10:23Z</time>
      </trkpt>
      <trkpt lat="45.83529" lon="4.82612">
        <ele>255</ele>
        <time>2012-04-07T13:10:27Z</time>
      </trkpt>
      <trkpt lat="45.8354" lon="4.82575">
        <ele>255</ele>
        <time>2012-04-07T13:10:30Z</time>
      </trkpt>
      <trkpt lat="45.83553" lon="4.8253">
        <ele>255</ele>
        <time>2012-04-07T13:10:34Z</time>
      </trkpt>
      <trkpt lat="45.83562" lon="4.82497">
        <ele>253</ele>
        <time>2012-04-07T13:10:37Z</time>
      </trkpt>
      <trkpt lat="45.83574" lon="4.82463">
        <ele>250</ele>
        <time>2012-04-07T13:10:40Z</time>
      </trkpt>
      <trkpt lat="45.8359" lon="4.8243">
        <ele>247</ele>
        <time>2012-04-07T13:10:43Z</time>
      </trkpt>
      <trkpt lat="45.83604" lon="4.824">
        <ele>243</ele>
        <time>2012-04-07T13:10:46Z</time>
      </trkpt>
      <trkpt lat="45.83611" lon="4.82365">
        <ele>238</ele>
        <time>2012-04-07T13:10:49Z</time>
      </trkpt>
      <trkpt lat="45.83609" lon="4.8233">
        <ele>234</ele>
        <time>2012-04-07T13:10:52Z</time>
      </trkpt>
      <trkpt lat="45.83605" lon="4.82299">
        <ele>231</ele>
        <time>2012-04-07T13:10:55Z</time>
      </trkpt>
      <trkpt lat="45.83608" lon="4.82271">
        <ele>227</ele>
        <time>2012-04-07T13:10:59Z</time>
      </trkpt>
      <trkpt lat="45.83609" lon="4.82254">
        <ele>224</ele>
        <time>2012-04-07T13:11:02Z</time>
      </trkpt>
      <trkpt lat="45.836" lon="4.82245">
        <ele>221</ele>
        <time>2012-04-07T13:11:05Z</time>
      </trkpt>
      <trkpt lat="45.83594" lon="4.82241">
        <ele>218</ele>
        <time>2012-04-07T13:11:08Z</time>
      </trkpt>
      <trkpt lat="45.83588" lon="4.82237">
        <ele>216</ele>
        <time>2012-04-07T13:11:11Z</time>
      </trkpt>
      <trkpt lat="45.83583" lon="4.82236">
        <ele>216</ele>
        <time>2012-04-07T13:11:14Z</time>
      </trkpt>
      <trkpt lat="45.83583" lon="4.82239">
        <ele>216</ele>
        <time>2012-04-07T13:11:17Z</time>
      </trkpt>
      <trkpt lat="45.8359" lon="4.82241">
        <ele>216</ele>
        <time>2012-04-07T13:11:21Z</time>
      </trkpt>
      <trkpt lat="45.83596" lon="4.82244">
        <ele>213</ele>
        <time>2012-04-07T13:11:24Z</time>
      </trkpt>
      <trkpt lat="45.83599" lon="4.82247">
        <ele>210</ele>
        <time>2012-04-07T13:11:27Z</time>
      </trkpt>
      <trkpt lat="45.83598" lon="4.82242">
        <ele>206</ele>
        <time>2012-04-07T13:11:31Z</time>
      </trkpt>
      <trkpt lat="45.83595" lon="4.82239">
        <ele>206</ele>
        <time>2012-04-07T13:11:34Z</time>
      </trkpt>
      <trkpt lat="45.8359" lon="4.82237">
        <ele>206</ele>
        <time>2012-04-07T13:11:37Z</time>
      </trkpt>
      <trkpt lat="45.83584" lon="4.82234">
        <ele>207</ele>
        <time>2012-04-07T13:11:41Z</time>
      </trkpt>
      <trkpt lat="45.83578" lon="4.8223">
        <ele>207</ele>
        <time>2012-04-07T13:11:44Z</time>
      </trkpt>
      <trkpt lat="45.83574" lon="4.82226">
        <ele>207</ele>
        <time>2012-04-07T13:11:47Z</time>
      </trkpt>
      <trkpt lat="45.83567" lon="4.82221">
        <ele>208</ele>
        <time>2012-04-07T13:11:51Z</time>
      </trkpt>
      <trkpt lat="45.83561" lon="4.8222">
        <ele>211</ele>
        <time>2012-04-07T13:11:54Z</time>
      </trkpt>
      <trkpt lat="45.83556" lon="4.82214">
        <ele>214</ele>
        <time>2012-04-07T13:11:57Z</time>
      </trkpt>
      <trkpt lat="45.83548" lon="4.82207">
        <ele>214</ele>
        <time>2012-04-07T13:12:01Z</time>
      </trkpt>
      <trkpt lat="45.83542" lon="4.82201">
        <ele>214</ele>
        <time>2012-04-07T13:12:04Z</time>
      </trkpt>
      <trkpt lat="45.83535" lon="4.82195">
        <ele>214</ele>
        <time>2012-04-07T13:12:07Z</time>
      </trkpt>
      <trkpt lat="45.8353" lon="4.82189">
        <ele>214</ele>
        <time>2012-04-07T13:12:10Z</time>
      </trkpt>
      <trkpt lat="45.83523" lon="4.82182">
        <ele>214</ele>
        <time>2012-04-07T13:12:13Z</time>
      </trkpt>
      <trkpt lat="45.83517" lon="4.82176">
        <ele>214</ele>
        <time>2012-04-07T13:12:16Z</time>
      </trkpt>
      <trkpt lat="45.83511" lon="4.82171">
        <ele>215</ele>
        <time>2012-04-07T13:12:19Z</time>
      </trkpt>
      <trkpt lat="45.83504" lon="4.82166">
        <ele>216</ele>
        <time>2012-04-07T13:12:22Z</time>
      </trkpt>
      <trkpt lat="45.83498" lon="4.82163">
        <ele>217</ele>
        <time>2012-04-07T13:12:25Z</time>
      </trkpt>
      <trkpt lat="45.83493" lon="4.82159">
        <ele>218</ele>
        <time>2012-04-07T13:12:28Z</time>
      </trkpt>
      <trkpt lat="45.83487" lon="4.82153">
        <ele>218</ele>
        <time>2012-04-07T13:12:31Z</time>
      </trkpt>
      <trkpt lat="45.83482" lon="4.82148">
        <ele>218</ele>
        <time>2012-04-07T13:12:34Z</time>
      </trkpt>
      <trkpt lat="45.83476" lon="4.82142">
        <ele>218</ele>
        <time>2012-04-07T13:12:37Z</time>
      </trkpt>
      <trkpt lat="45.83469" lon="4.82136">
        <ele>218</ele>
        <time>2012-04-07T13:12:40Z</time>
      </trkpt>
      <trkpt lat="45.83462" lon="4.82131">
        <ele>218</ele>
        <time>2012-04-07T13:12:43Z</time>
      </trkpt>
      <trkpt lat="45.83455" lon="4.82126">
        <ele>218</ele>
        <time>2012-04-07T13:12:46Z</time>
      </trkpt>
      <trkpt lat="45.83449" lon="4.82124">
        <ele>220</ele>
        <time>2012-04-07T13:12:49Z</time>
      </trkpt>
      <trkpt lat="45.83443" lon="4.82118">
        <ele>223</ele>
        <time>2012-04-07T13:12:52Z</time>
      </trkpt>
      <trkpt lat="45.83436" lon="4.82112">
        <ele>225</ele>
        <time>2012-04-07T13:12:55Z</time>
      </trkpt>
      <trkpt lat="45.83427" lon="4.82109">
        <ele>227</ele>
        <time>2012-04-07T13:12:58Z</time>
      </trkpt>
      <trkpt lat="45.83419" lon="4.82105">
        <ele>228</ele>
        <time>2012-04-07T13:13:01Z</time>
      </trkpt>
      <trkpt lat="45.8341" lon="4.821">
        <ele>228</ele>
        <time>2012-04-07T13:13:04Z</time>
      </trkpt>
      <trkpt lat="45.83404" lon="4.82094">
        <ele>228</ele>
        <time>2012-04-07T13:13:07Z</time>
      </trkpt>
      <trkpt lat="45.83397" lon="4.82088">
        <ele>228</ele>
        <time>2012-04-07T13:13:10Z</time>
      </trkpt>
      <trkpt lat="45.83391" lon="4.82083">
        <ele>227</ele>
        <time>2012-04-07T13:13:13Z</time>
      </trkpt>
      <trkpt lat="45.83384" lon="4.82077">
        <ele>227</ele>
        <time>2012-04-07T13:13:16Z</time>
      </trkpt>
      <trkpt lat="45.83378" lon="4.82071">
        <ele>226</ele>
        <time>2012-04-07T13:13:19Z</time>
      </trkpt>
      <trkpt lat="45.83372" lon="4.82064">
        <ele>226</ele>
        <time>2012-04-07T13:13:22Z</time>
      </trkpt>
      <trkpt lat="45.83366" lon="4.82058">
        <ele>226</ele>
        <time>2012-04-07T13:13:25Z</time>
      </trkpt>
      <trkpt lat="45.83361" lon="4.82053">
        <ele>226</ele>
        <time>2012-04-07T13:13:28Z</time>
      </trkpt>
      <trkpt lat="45.83355" lon="4.8205">
        <ele>226</ele>
        <time>2012-04-07T13:13:31Z</time>
      </trkpt>
      <trkpt lat="45.8335" lon="4.82047">
        <ele>227</ele>
        <time>2012-04-07T13:13:34Z</time>
      </trkpt>
      <trkpt lat="45.83345" lon="4.82041">
        <ele>230</ele>
        <time>2012-04-07T13:13:37Z</time>
      </trkpt>
      <trkpt lat="45.83339" lon="4.82035">
        <ele>233</ele>
        <time>2012-04-07T13:13:40Z</time>
      </trkpt>
      <trkpt lat="45.83334" lon="4.82028">
        <ele>235</ele>
        <time>2012-04-07T13:13:43Z</time>
      </trkpt>
      <trkpt lat="45.8333" lon="4.8202">
        <ele>236</ele>
        <time>2012-04-07T13:13:46Z</time>
      </trkpt>
      <trkpt lat="45.83325" lon="4.82013">
        <ele>236</ele>
        <time>2012-04-07T13:13:49Z</time>
      </trkpt>
      <trkpt lat="45.8332" lon="4.82006">
        <ele>236</ele>
        <time>2012-04-07T13:13:52Z</time>
      </trkpt>
      <trkpt lat="45.83316" lon="4.81997">
        <ele>236</ele>
        <time>2012-04-07T13:13:55Z</time>
      </trkpt>
      <trkpt lat="45.83312" lon="4.81988">
        <ele>236</ele>
        <time>2012-04-07T13:13:58Z</time>
      </trkpt>
      <trkpt lat="45.83308" lon="4.8198">
        <ele>236</ele>
        <time>2012-04-07T13:14:01Z</time>
      </trkpt>
      <trkpt lat="45.83303" lon="4.81973">
        <ele>236</ele>
        <time>2012-04-07T13:14:04Z</time>
      </trkpt>
      <trkpt lat="45.83299" lon="4.81966">
        <ele>236</ele>
        <time>2012-04-07T13:14:07Z</time>
      </trkpt>
      <trkpt lat="45.83296" lon="4.8196">
        <ele>236</ele>
        <time>2012-04-07T13:14:10Z</time>
      </trkpt>
      <trkpt lat="45.83291" lon="4.81952">
        <ele>237</ele>
        <time>2012-04-07T13:14:13Z</time>
      </trkpt>
      <trkpt lat="45.83287" lon="4.81943">
        <ele>237</ele>
        <time>2012-04-07T13:14:16Z</time>
      </trkpt>
      <trkpt lat="45.83282" lon="4.81935">
        <ele>237</ele>
        <time>2012-04-07T13:14:19Z</time>
      </trkpt>
      <trkpt lat="45.83278" lon="4.81927">
        <ele>237</ele>
        <time>2012-04-07T13:14:22Z</time>
      </trkpt>
      <trkpt lat="45.83273" lon="4.81919">
        <ele>237</ele>
        <time>2012-04-07T13:14:25Z</time>
      </trkpt>
      <trkpt lat="45.8327" lon="4.81913">
        <ele>238</ele>
        <time>2012-04-07T13:14:28Z</time>
      </trkpt>
      <trkpt lat="45.83265" lon="4.81905">
        <ele>241</ele>
        <time>2012-04-07T13:14:31Z</time>
      </trkpt>
      <trkpt lat="45.8326" lon="4.81898">
        <ele>243</ele>
        <time>2012-04-07T13:14:34Z</time>
      </trkpt>
      <trkpt lat="45.83255" lon="4.81891">
        <ele>243</ele>
        <time>2012-04-07T13:14:37Z</time>
      </trkpt>
      <trkpt lat="45.8325" lon="4.81883">
        <ele>243</ele>
        <time>2012-04-07T13:14:40Z</time>
      </trkpt>
      <trkpt lat="45.83246" lon="4.81878">
        <ele>245</ele>
        <time>2012-04-07T13:14:43Z</time>
      </trkpt>
      <trkpt lat="45.83239" lon="4.81869">
        <ele>248</ele>
        <time>2012-04-07T13:14:46Z</time>
      </trkpt>
      <trkpt lat="45.83236" lon="4.81863">
        <ele>250</ele>
        <time>2012-04-07T13:14:49Z</time>
      </trkpt>
      <trkpt lat="45.83234" lon="4.81856">
        <ele>251</ele>
        <time>2012-04-07T13:14:52Z</time>
      </trkpt>
      <trkpt lat="45.83231" lon="4.81851">
        <ele>251</ele>
        <time>2012-04-07T13:14:55Z</time>
      </trkpt>
      <trkpt lat="45.83227" lon="4.81845">
        <ele>251</ele>
        <time>2012-04-07T13:14:58Z</time>
      </trkpt>
      <trkpt lat="45.83223" lon="4.81835">
        <ele>253</ele>
        <time>2012-04-07T13:15:01Z</time>
      </trkpt>
      <trkpt lat="45.83218" lon="4.81824">
        <ele>255</ele>
        <time>2012-04-07T13:15:04Z</time>
      </trkpt>
      <trkpt lat="45.83215" lon="4.81816">
        <ele>257</ele>
        <time>2012-04-07T13:15:07Z</time>
      </trkpt>
      <trkpt lat="45.83213" lon="4.81808">
        <ele>257</ele>
        <time>2012-04-07T13:15:10Z</time>
      </trkpt>
      <trkpt lat="45.8321" lon="4.81801">
        <ele>257</ele>
        <time>2012-04-07T13:15:13Z</time>
      </trkpt>
      <trkpt lat="45.83208" lon="4.81796">
        <ele>257</ele>
        <time>2012-04-07T13:15:16Z</time>
      </trkpt>
      <trkpt lat="45.83205" lon="4.81792">
        <ele>257</ele>
        <time>2012-04-07T13:15:20Z</time>
      </trkpt>
      <trkpt lat="45.83202" lon="4.81787">
        <ele>257</ele>
        <time>2012-04-07T13:15:24Z</time>
      </trkpt>
      <trkpt lat="45.83205" lon="4.81782">
        <ele>257</ele>
        <time>2012-04-07T13:15:28Z</time>
      </trkpt>
      <trkpt lat="45.83205" lon="4.81777">
        <ele>257</ele>
        <time>2012-04-07T13:15:32Z</time>
      </trkpt>
      <trkpt lat="45.83204" lon="4.8178">
        <ele>256</ele>
        <time>2012-04-07T13:15:35Z</time>
      </trkpt>
      <trkpt lat="45.83208" lon="4.81789">
        <ele>255</ele>
        <time>2012-04-07T13:15:38Z</time>
      </trkpt>
      <trkpt lat="45.83213" lon="4.818">
        <ele>252</ele>
        <time>2012-04-07T13:15:41Z</time>
      </trkpt>
      <trkpt lat="45.83217" lon="4.81807">
        <ele>250</ele>
        <time>2012-04-07T13:15:44Z</time>
      </trkpt>
      <trkpt lat="45.8322" lon="4.81804">
        <ele>248</ele>
        <time>2012-04-07T13:15:55Z</time>
      </trkpt>
      <trkpt lat="45.83219" lon="4.81808">
        <ele>251</ele>
        <time>2012-04-07T13:15:58Z</time>
      </trkpt>
      <trkpt lat="45.8322" lon="4.81813">
        <ele>258</ele>
        <time>2012-04-07T13:16:02Z</time>
      </trkpt>
      <trkpt lat="45.83221" lon="4.81815">
        <ele>264</ele>
        <time>2012-04-07T13:16:05Z</time>
      </trkpt>
      <trkpt lat="45.83221" lon="4.81817">
        <ele>270</ele>
        <time>2012-04-07T13:16:09Z</time>
      </trkpt>
      <trkpt lat="45.83219" lon="4.81818">
        <ele>273</ele>
        <time>2012-04-07T13:16:12Z</time>
      </trkpt>
      <trkpt lat="45.8322" lon="4.81817">
        <ele>275</ele>
        <time>2012-04-07T13:16:17Z</time>
      </trkpt>
      <trkpt lat="45.83221" lon="4.81815">
        <ele>275</ele>
        <time>2012-04-07T13:16:24Z</time>
      </trkpt>
      <trkpt lat="45.83221" lon="4.81814">
        <ele>275</ele>
        <time>2012-04-07T13:16:28Z</time>
      </trkpt>
      <trkpt lat="45.83221" lon="4.81816">
        <ele>271</ele>
        <time>2012-04-07T13:16:33Z</time>
      </trkpt>
      <trkpt lat="45.8322" lon="4.81822">
        <ele>271</ele>
        <time>2012-04-07T13:16:37Z</time>
      </trkpt>
      <trkpt lat="45.8322" lon="4.81826">
        <ele>272</ele>
        <time>2012-04-07T13:16:42Z</time>
      </trkpt>
      <trkpt lat="45.83221" lon="4.81824">
        <ele>274</ele>
        <time>2012-04-07T13:16:53Z</time>
      </trkpt>
      <trkpt lat="45.83224" lon="4.81819">
        <ele>273</ele>
        <time>2012-04-07T13:16:56Z</time>
      </trkpt>
      <trkpt lat="45.83226" lon="4.81815">
        <ele>269</ele>
        <time>2012-04-07T13:17:00Z</time>
      </trkpt>
      <trkpt lat="45.83227" lon="4.81813">
        <ele>265</ele>
        <time>2012-04-07T13:17:04Z</time>
      </trkpt>
      <trkpt lat="45.83227" lon="4.8181">
        <ele>260</ele>
        <time>2012-04-07T13:17:10Z</time>
      </trkpt>
      <trkpt lat="45.83224" lon="4.81805">
        <ele>259</ele>
        <time>2012-04-07T13:17:14Z</time>
      </trkpt>
      <trkpt lat="45.83223" lon="4.81801">
        <ele>259</ele>
        <time>2012-04-07T13:17:18Z</time>
      </trkpt>
      <trkpt lat="45.83222" lon="4.81805">
        <ele>260</ele>
        <time>2012-04-07T13:17:23Z</time>
      </trkpt>
      <trkpt lat="45.83226" lon="4.81809">
        <ele>263</ele>
        <time>2012-04-07T13:17:27Z</time>
      </trkpt>
      <trkpt lat="45.83226" lon="4.81811">
        <ele>263</ele>
        <time>2012-04-07T13:17:30Z</time>
      </trkpt>
      <trkpt lat="45.83227" lon="4.81813">
        <ele>262</ele>
        <time>2012-04-07T13:17:34Z</time>
      </trkpt>
      <trkpt lat="45.83231" lon="4.81817">
        <ele>259</ele>
        <time>2012-04-07T13:17:37Z</time>
      </trkpt>
      <trkpt lat="45.83233" lon="4.81819">
        <ele>255</ele>
        <time>2012-04-07T13:17:41Z</time>
      </trkpt>
      <trkpt lat="45.83233" lon="4.81817">
        <ele>247</ele>
        <time>2012-04-07T13:17:49Z</time>
      </trkpt>
      <trkpt lat="45.83229" lon="4.81813">
        <ele>245</ele>
        <time>2012-04-07T13:17:52Z</time>
      </trkpt>
      <trkpt lat="45.83228" lon="4.8181">
        <ele>245</ele>
        <time>2012-04-07T13:17:55Z</time>
      </trkpt>
      <trkpt lat="45.83227" lon="4.81807">
        <ele>244</ele>
        <time>2012-04-07T13:17:58Z</time>
      </trkpt>
      <trkpt lat="45.83226" lon="4.81807">
        <ele>243</ele>
        <time>2012-04-07T13:18:03Z</time>
      </trkpt>
      <trkpt lat="45.83221" lon="4.81806">
        <ele>243</ele>
        <time>2012-04-07T13:18:07Z</time>
      </trkpt>
      <trkpt lat="45.83218" lon="4.818">
        <ele>243</ele>
        <time>2012-04-07T13:18:10Z</time>
      </trkpt>
      <trkpt lat="45.83215" lon="4.81796">
        <ele>241</ele>
        <time>2012-04-07T13:18:13Z</time>
      </trkpt>
      <trkpt lat="45.83214" lon="4.81791">
        <ele>240</ele>
        <time>2012-04-07T13:18:16Z</time>
      </trkpt>
      <trkpt lat="45.83211" lon="4.81787">
        <ele>240</ele>
        <time>2012-04-07T13:18:19Z</time>
      </trkpt>
      <trkpt lat="45.83208" lon="4.81785">
        <ele>241</ele>
        <time>2012-04-07T13:18:23Z</time>
      </trkpt>
      <trkpt lat="45.83207" lon="4.81786">
        <ele>245</ele>
        <time>2012-04-07T13:18:30Z</time>
      </trkpt>
      <trkpt lat="45.83205" lon="4.8179">
        <ele>249</ele>
        <time>2012-04-07T13:18:34Z</time>
      </trkpt>
      <trkpt lat="45.83205" lon="4.81795">
        <ele>253</ele>
        <time>2012-04-07T13:18:38Z</time>
      </trkpt>
      <trkpt lat="45.83204" lon="4.81796">
        <ele>263</ele>
        <time>2012-04-07T13:18:53Z</time>
      </trkpt>
      <trkpt lat="45.83203" lon="4.81792">
        <ele>263</ele>
        <time>2012-04-07T13:18:56Z</time>
      </trkpt>
      <trkpt lat="45.83202" lon="4.81786">
        <ele>263</ele>
        <time>2012-04-07T13:18:59Z</time>
      </trkpt>
      <trkpt lat="45.83202" lon="4.8178">
        <ele>261</ele>
        <time>2012-04-07T13:19:02Z</time>
      </trkpt>
      <trkpt lat="45.832" lon="4.81772">
        <ele>260</ele>
        <time>2012-04-07T13:19:05Z</time>
      </trkpt>
      <trkpt lat="45.83198" lon="4.81763">
        <ele>258</ele>
        <time>2012-04-07T13:19:08Z</time>
      </trkpt>
      <trkpt lat="45.83197" lon="4.81758">
        <ele>258</ele>
        <time>2012-04-07T13:19:11Z</time>
      </trkpt>
      <trkpt lat="45.83195" lon="4.81749">
        <ele>258</ele>
        <time>2012-04-07T13:19:14Z</time>
      </trkpt>
      <trkpt lat="45.83194" lon="4.81741">
        <ele>258</ele>
        <time>2012-04-07T13:19:17Z</time>
      </trkpt>
      <trkpt lat="45.83191" lon="4.8173">
        <ele>258</ele>
        <time>2012-04-07T13:19:20Z</time>
      </trkpt>
      <trkpt lat="45.83189" lon="4.81719">
        <ele>258</ele>
        <time>2012-04-07T13:19:23Z</time>
      </trkpt>
      <trkpt lat="45.83187" lon="4.81705">
        <ele>258</ele>
        <time>2012-04-07T13:19:27Z</time>
      </trkpt>
      <trkpt lat="45.83185" lon="4.81696">
        <ele>257</ele>
        <time>2012-04-07T13:19:30Z</time>
      </trkpt>
      <trkpt lat="45.83183" lon="4.81684">
        <ele>256</ele>
        <time>2012-04-07T13:19:33Z</time>
      </trkpt>
      <trkpt lat="45.83181" lon="4.81672">
        <ele>256</ele>
        <time>2012-04-07T13:19:36Z</time>
      </trkpt>
      <trkpt lat="45.83181" lon="4.81662">
        <ele>256</ele>
        <time>2012-04-07T13:19:39Z</time>
      </trkpt>
      <trkpt lat="45.8318" lon="4.81652">
        <ele>254</ele>
        <time>2012-04-07T13:19:42Z</time>
      </trkpt>
      <trkpt lat="45.83182" lon="4.8164">
        <ele>254</ele>
        <time>2012-04-07T13:19:45Z</time>
      </trkpt>
      <trkpt lat="45.83187" lon="4.81628">
        <ele>254</ele>
        <time>2012-04-07T13:19:48Z</time>
      </trkpt>
      <trkpt lat="45.83195" lon="4.81619">
        <ele>254</ele>
        <time>2012-04-07T13:19:51Z</time>
      </trkpt>
      <trkpt lat="45.83202" lon="4.81615">
        <ele>254</ele>
        <time>2012-04-07T13:19:54Z</time>
      </trkpt>
      <trkpt lat="45.83208" lon="4.81617">
        <ele>254</ele>
        <time>2012-04-07T13:19:57Z</time>
      </trkpt>
      <trkpt lat="45.83214" lon="4.81625">
        <ele>254</ele>
        <time>2012-04-07T13:20:00Z</time>
      </trkpt>
      <trkpt lat="45.83219" lon="4.81634">
        <ele>254</ele>
        <time>2012-04-07T13:20:03Z</time>
      </trkpt>
      <trkpt lat="45.83222" lon="4.81642">
        <ele>255</ele>
        <time>2012-04-07T13:20:06Z</time>
      </trkpt>
      <trkpt lat="45.83226" lon="4.8165">
        <ele>255</ele>
        <time>2012-04-07T13:20:09Z</time>
      </trkpt>
      <trkpt lat="45.83231" lon="4.81659">
        <ele>255</ele>
        <time>2012-04-07T13:20:12Z</time>
      </trkpt>
      <trkpt lat="45.83237" lon="4.81666">
        <ele>256</ele>
        <time>2012-04-07T13:20:15Z</time>
      </trkpt>
      <trkpt lat="45.83243" lon="4.81672">
        <ele>257</ele>
        <time>2012-04-07T13:20:18Z</time>
      </trkpt>
      <trkpt lat="45.83249" lon="4.81679">
        <ele>258</ele>
        <time>2012-04-07T13:20:21Z</time>
      </trkpt>
      <trkpt lat="45.83255" lon="4.81685">
        <ele>258</ele>
        <time>2012-04-07T13:20:24Z</time>
      </trkpt>
      <trkpt lat="45.8326" lon="4.81691">
        <ele>258</ele>
        <time>2012-04-07T13:20:27Z</time>
      </trkpt>
      <trkpt lat="45.83266" lon="4.81698">
        <ele>258</ele>
        <time>2012-04-07T13:20:30Z</time>
      </trkpt>
      <trkpt lat="45.83272" lon="4.81704">
        <ele>258</ele>
        <time>2012-04-07T13:20:33Z</time>
      </trkpt>
      <trkpt lat="45.83279" lon="4.81711">
        <ele>259</ele>
        <time>2012-04-07T13:20:36Z</time>
      </trkpt>
      <trkpt lat="45.83287" lon="4.81717">
        <ele>261</ele>
        <time>2012-04-07T13:20:39Z</time>
      </trkpt>
      <trkpt lat="45.83296" lon="4.81723">
        <ele>263</ele>
        <time>2012-04-07T13:20:42Z</time>
      </trkpt>
      <trkpt lat="45.83304" lon="4.81727">
        <ele>264</ele>
        <time>2012-04-07T13:20:45Z</time>
      </trkpt>
      <trkpt lat="45.83311" lon="4.81731">
        <ele>264</ele>
        <time>2012-04-07T13:20:48Z</time>
      </trkpt>
      <trkpt lat="45.83319" lon="4.81734">
        <ele>264</ele>
        <time>2012-04-07T13:20:51Z</time>
      </trkpt>
      <trkpt lat="45.83325" lon="4.81738">
        <ele>264</ele>
        <time>2012-04-07T13:20:54Z</time>
      </trkpt>
      <trkpt lat="45.83331" lon="4.81741">
        <ele>264</ele>
        <time>2012-04-07T13:20:57Z</time>
      </trkpt>
      <trkpt lat="45.83338" lon="4.81746">
        <ele>264</ele>
        <time>2012-04-07T13:21:00Z</time>
      </trkpt>
      <trkpt lat="45.83345" lon="4.81749">
        <ele>264</ele>
        <time>2012-04-07T13:21:03Z</time>
      </trkpt>
      <trkpt lat="45.83352" lon="4.81751">
        <ele>264</ele>
        <time>2012-04-07T13:21:06Z</time>
      </trkpt>
      <trkpt lat="45.83359" lon="4.81754">
        <ele>264</ele>
        <time>2012-04-07T13:21:09Z</time>
      </trkpt>
      <trkpt lat="45.83366" lon="4.81755">
        <ele>266</ele>
        <time>2012-04-07T13:21:12Z</time>
      </trkpt>
      <trkpt lat="45.83374" lon="4.81755">
        <ele>269</ele>
        <time>2012-04-07T13:21:15Z</time>
      </trkpt>
      <trkpt lat="45.83381" lon="4.81754">
        <ele>271</ele>
        <time>2012-04-07T13:21:18Z</time>
      </trkpt>
      <trkpt lat="45.83388" lon="4.81753">
        <ele>272</ele>
        <time>2012-04-07T13:21:21Z</time>
      </trkpt>
      <trkpt lat="45.83395" lon="4.81751">
        <ele>274</ele>
        <time>2012-04-07T13:21:24Z</time>
      </trkpt>
      <trkpt lat="45.83401" lon="4.81751">
        <ele>276</ele>
        <time>2012-04-07T13:21:27Z</time>
      </trkpt>
      <trkpt lat="45.83408" lon="4.81751">
        <ele>278</ele>
        <time>2012-04-07T13:21:30Z</time>
      </trkpt>
      <trkpt lat="45.83416" lon="4.81751">
        <ele>279</ele>
        <time>2012-04-07T13:21:33Z</time>
      </trkpt>
      <trkpt lat="45.83423" lon="4.81751">
        <ele>280</ele>
        <time>2012-04-07T13:21:36Z</time>
      </trkpt>
      <trkpt lat="45.83429" lon="4.8175">
        <ele>281</ele>
        <time>2012-04-07T13:21:39Z</time>
      </trkpt>
      <trkpt lat="45.83436" lon="4.81747">
        <ele>281</ele>
        <time>2012-04-07T13:21:42Z</time>
      </trkpt>
      <trkpt lat="45.83442" lon="4.81746">
        <ele>281</ele>
        <time>2012-04-07T13:21:45Z</time>
      </trkpt>
      <trkpt lat="45.83448" lon="4.81743">
        <ele>281</ele>
        <time>2012-04-07T13:21:48Z</time>
      </trkpt>
      <trkpt lat="45.83456" lon="4.81738">
        <ele>281</ele>
        <time>2012-04-07T13:21:51Z</time>
      </trkpt>
      <trkpt lat="45.83463" lon="4.81736">
        <ele>279</ele>
        <time>2012-04-07T13:21:54Z</time>
      </trkpt>
      <trkpt lat="45.8347" lon="4.81735">
        <ele>279</ele>
        <time>2012-04-07T13:21:57Z</time>
      </trkpt>
      <trkpt lat="45.83477" lon="4.81735">
        <ele>279</ele>
        <time>2012-04-07T13:22:00Z</time>
      </trkpt>
      <trkpt lat="45.83484" lon="4.81733">
        <ele>279</ele>
        <time>2012-04-07T13:22:03Z</time>
      </trkpt>
      <trkpt lat="45.8349" lon="4.81732">
        <ele>279</ele>
        <time>2012-04-07T13:22:06Z</time>
      </trkpt>
      <trkpt lat="45.83496" lon="4.81732">
        <ele>279</ele>
        <time>2012-04-07T13:22:09Z</time>
      </trkpt>
      <trkpt lat="45.83503" lon="4.8173">
        <ele>279</ele>
        <time>2012-04-07T13:22:12Z</time>
      </trkpt>
      <trkpt lat="45.83509" lon="4.8173">
        <ele>279</ele>
        <time>2012-04-07T13:22:15Z</time>
      </trkpt>
      <trkpt lat="45.83516" lon="4.81729">
        <ele>279</ele>
        <time>2012-04-07T13:22:18Z</time>
      </trkpt>
      <trkpt lat="45.83523" lon="4.81728">
        <ele>280</ele>
        <time>2012-04-07T13:22:21Z</time>
      </trkpt>
      <trkpt lat="45.83531" lon="4.81728">
        <ele>281</ele>
        <time>2012-04-07T13:22:24Z</time>
      </trkpt>
      <trkpt lat="45.83537" lon="4.81726">
        <ele>281</ele>
        <time>2012-04-07T13:22:27Z</time>
      </trkpt>
      <trkpt lat="45.83545" lon="4.81723">
        <ele>281</ele>
        <time>2012-04-07T13:22:30Z</time>
      </trkpt>
      <trkpt lat="45.83552" lon="4.81722">
        <ele>281</ele>
        <time>2012-04-07T13:22:33Z</time>
      </trkpt>
      <trkpt lat="45.83558" lon="4.81718">
        <ele>281</ele>
        <time>2012-04-07T13:22:36Z</time>
      </trkpt>
      <trkpt lat="45.83562" lon="4.81712">
        <ele>281</ele>
        <time>2012-04-07T13:22:39Z</time>
      </trkpt>
      <trkpt lat="45.83568" lon="4.81708">
        <ele>281</ele>
        <time>2012-04-07T13:22:42Z</time>
      </trkpt>
      <trkpt lat="45.83575" lon="4.81705">
        <ele>281</ele>
        <time>2012-04-07T13:22:45Z</time>
      </trkpt>
      <trkpt lat="45.83581" lon="4.817">
        <ele>281</ele>
        <time>2012-04-07T13:22:48Z</time>
      </trkpt>
      <trkpt lat="45.83586" lon="4.81694">
        <ele>283</ele>
        <time>2012-04-07T13:22:51Z</time>
      </trkpt>
      <trkpt lat="45.83591" lon="4.81689">
        <ele>285</ele>
        <time>2012-04-07T13:22:54Z</time>
      </trkpt>
      <trkpt lat="45.83598" lon="4.81685">
        <ele>288</ele>
        <time>2012-04-07T13:22:57Z</time>
      </trkpt>
      <trkpt lat="45.83604" lon="4.81681">
        <ele>290</ele>
        <time>2012-04-07T13:23:00Z</time>
      </trkpt>
      <trkpt lat="45.8361" lon="4.81677">
        <ele>291</ele>
        <time>2012-04-07T13:23:03Z</time>
      </trkpt>
      <trkpt lat="45.83616" lon="4.81673">
        <ele>292</ele>
        <time>2012-04-07T13:23:06Z</time>
      </trkpt>
      <trkpt lat="45.83621" lon="4.81668">
        <ele>294</ele>
        <time>2012-04-07T13:23:09Z</time>
      </trkpt>
      <trkpt lat="45.83627" lon="4.81663">
        <ele>297</ele>
        <time>2012-04-07T13:23:12Z</time>
      </trkpt>
      <trkpt lat="45.83632" lon="4.81656">
        <ele>298</ele>
        <time>2012-04-07T13:23:15Z</time>
      </trkpt>
      <trkpt lat="45.83638" lon="4.81649">
        <ele>298</ele>
        <time>2012-04-07T13:23:18Z</time>
      </trkpt>
      <trkpt lat="45.83643" lon="4.81641">
        <ele>298</ele>
        <time>2012-04-07T13:23:21Z</time>
      </trkpt>
      <trkpt lat="45.83646" lon="4.81633">
        <ele>298</ele>
        <time>2012-04-07T13:23:24Z</time>
      </trkpt>
      <trkpt lat="45.83649" lon="4.81626">
        <ele>300</ele>
        <time>2012-04-07T13:23:27Z</time>
      </trkpt>
      <trkpt lat="45.83651" lon="4.81617">
        <ele>302</ele>
        <time>2012-04-07T13:23:30Z</time>
      </trkpt>
      <trkpt lat="45.83653" lon="4.81607">
        <ele>303</ele>
        <time>2012-04-07T13:23:33Z</time>
      </trkpt>
      <trkpt lat="45.83655" lon="4.81599">
        <ele>305</ele>
        <time>2012-04-07T13:23:36Z</time>
      </trkpt>
      <trkpt lat="45.83657" lon="4.81591">
        <ele>308</ele>
        <time>2012-04-07T13:23:39Z</time>
      </trkpt>
      <trkpt lat="45.83659" lon="4.81582">
        <ele>311</ele>
        <time>2012-04-07T13:23:42Z</time>
      </trkpt>
      <trkpt lat="45.83661" lon="4.81573">
        <ele>314</ele>
        <time>2012-04-07T13:23:45Z</time>
      </trkpt>
      <trkpt lat="45.83662" lon="4.81564">
        <ele>317</ele>
        <time>2012-04-07T13:23:48Z</time>
      </trkpt>
      <trkpt lat="45.83663" lon="4.81555">
        <ele>317</ele>
        <time>2012-04-07T13:23:51Z</time>
      </trkpt>
      <trkpt lat="45.83663" lon="4.81548">
        <ele>318</ele>
        <time>2012-04-07T13:23:54Z</time>
      </trkpt>
      <trkpt lat="45.83664" lon="4.81536">
        <ele>318</ele>
        <time>2012-04-07T13:23:57Z</time>
      </trkpt>
      <trkpt lat="45.83667" lon="4.81526">
        <ele>318</ele>
        <time>2012-04-07T13:24:00Z</time>
      </trkpt>
      <trkpt lat="45.83671" lon="4.81515">
        <ele>318</ele>
        <time>2012-04-07T13:24:03Z</time>
      </trkpt>
      <trkpt lat="45.83676" lon="4.81506">
        <ele>318</ele>
        <time>2012-04-07T13:24:06Z</time>
      </trkpt>
      <trkpt lat="45.83678" lon="4.81497">
        <ele>318</ele>
        <time>2012-04-07T13:24:09Z</time>
      </trkpt>
      <trkpt lat="45.8368" lon="4.81488">
        <ele>321</ele>
        <time>2012-04-07T13:24:12Z</time>
      </trkpt>
      <trkpt lat="45.83679" lon="4.81479">
        <ele>323</ele>
        <time>2012-04-07T13:24:15Z</time>
      </trkpt>
      <trkpt lat="45.83676" lon="4.8148">
        <ele>323</ele>
        <time>2012-04-07T13:24:18Z</time>
      </trkpt>
      <trkpt lat="45.83672" lon="4.81485">
        <ele>323</ele>
        <time>2012-04-07T13:24:21Z</time>
      </trkpt>
      <trkpt lat="45.83671" lon="4.81488">
        <ele>323</ele>
        <time>2012-04-07T13:24:24Z</time>
      </trkpt>
      <trkpt lat="45.83667" lon="4.81496">
        <ele>323</ele>
        <time>2012-04-07T13:24:27Z</time>
      </trkpt>
      <trkpt lat="45.83662" lon="4.81503">
        <ele>323</ele>
        <time>2012-04-07T13:24:30Z</time>
      </trkpt>
      <trkpt lat="45.83656" lon="4.81509">
        <ele>324</ele>
        <time>2012-04-07T13:24:33Z</time>
      </trkpt>
      <trkpt lat="45.8365" lon="4.81515">
        <ele>324</ele>
        <time>2012-04-07T13:24:36Z</time>
      </trkpt>
      <trkpt lat="45.83644" lon="4.81521">
        <ele>325</ele>
        <time>2012-04-07T13:24:39Z</time>
      </trkpt>
      <trkpt lat="45.83638" lon="4.81527">
        <ele>326</ele>
        <time>2012-04-07T13:24:42Z</time>
      </trkpt>
      <trkpt lat="45.83631" lon="4.81532">
        <ele>327</ele>
        <time>2012-04-07T13:24:45Z</time>
      </trkpt>
      <trkpt lat="45.83625" lon="4.81537">
        <ele>327</ele>
        <time>2012-04-07T13:24:48Z</time>
      </trkpt>
      <trkpt lat="45.83619" lon="4.81542">
        <ele>329</ele>
        <time>2012-04-07T13:24:51Z</time>
      </trkpt>
      <trkpt lat="45.83612" lon="4.81547">
        <ele>330</ele>
        <time>2012-04-07T13:24:54Z</time>
      </trkpt>
      <trkpt lat="45.83606" lon="4.81552">
        <ele>330</ele>
        <time>2012-04-07T13:24:57Z</time>
      </trkpt>
      <trkpt lat="45.836" lon="4.81556">
        <ele>330</ele>
        <time>2012-04-07T13:25:00Z</time>
      </trkpt>
      <trkpt lat="45.83593" lon="4.8156">
        <ele>330</ele>
        <time>2012-04-07T13:25:03Z</time>
      </trkpt>
      <trkpt lat="45.83587" lon="4.81562">
        <ele>330</ele>
        <time>2012-04-07T13:25:06Z</time>
      </trkpt>
      <trkpt lat="45.83581" lon="4.81563">
        <ele>330</ele>
        <time>2012-04-07T13:25:09Z</time>
      </trkpt>
      <trkpt lat="45.83575" lon="4.81567">
        <ele>330</ele>
        <time>2012-04-07T13:25:12Z</time>
      </trkpt>
      <trkpt lat="45.83569" lon="4.8157">
        <ele>330</ele>
        <time>2012-04-07T13:25:15Z</time>
      </trkpt>
      <trkpt lat="45.83563" lon="4.81573">
        <ele>330</ele>
        <time>2012-04-07T13:25:18Z</time>
      </trkpt>
      <trkpt lat="45.83556" lon="4.81574">
        <ele>330</ele>
        <time>2012-04-07T13:25:21Z</time>
      </trkpt>
      <trkpt lat="45.83549" lon="4.81571">
        <ele>330</ele>
        <time>2012-04-07T13:25:24Z</time>
      </trkpt>
      <trkpt lat="45.83542" lon="4.81568">
        <ele>329</ele>
        <time>2012-04-07T13:25:27Z</time>
      </trkpt>
      <trkpt lat="45.83537" lon="4.81559">
        <ele>327</ele>
        <time>2012-04-07T13:25:30Z</time>
      </trkpt>
      <trkpt lat="45.83533" lon="4.81551">
        <ele>324</ele>
        <time>2012-04-07T13:25:33Z</time>
      </trkpt>
      <trkpt lat="45.83529" lon="4.81541">
        <ele>324</ele>
        <time>2012-04-07T13:25:36Z</time>
      </trkpt>
      <trkpt lat="45.83525" lon="4.81531">
        <ele>324</ele>
        <time>2012-04-07T13:25:39Z</time>
      </trkpt>
      <trkpt lat="45.83521" lon="4.8152">
        <ele>324</ele>
        <time>2012-04-07T13:25:42Z</time>
      </trkpt>
      <trkpt lat="45.83516" lon="4.81508">
        <ele>324</ele>
        <time>2012-04-07T13:25:45Z</time>
      </trkpt>
      <trkpt lat="45.83512" lon="4.81497">
        <ele>324</ele>
        <time>2012-04-07T13:25:48Z</time>
      </trkpt>
      <trkpt lat="45.83509" lon="4.81487">
        <ele>324</ele>
        <time>2012-04-07T13:25:51Z</time>
      </trkpt>
      <trkpt lat="45.83506" lon="4.81476">
        <ele>324</ele>
        <time>2012-04-07T13:25:54Z</time>
      </trkpt>
      <trkpt lat="45.83502" lon="4.81466">
        <ele>324</ele>
        <time>2012-04-07T13:25:57Z</time>
      </trkpt>
      <trkpt lat="45.83498" lon="4.81457">
        <ele>324</ele>
        <time>2012-04-07T13:26:00Z</time>
      </trkpt>
      <trkpt lat="45.83493" lon="4.8145">
        <ele>325</ele>
        <time>2012-04-07T13:26:03Z</time>
      </trkpt>
      <trkpt lat="45.83487" lon="4.81443">
        <ele>326</ele>
        <time>2012-04-07T13:26:06Z</time>
      </trkpt>
      <trkpt lat="45.83479" lon="4.81437">
        <ele>327</ele>
        <time>2012-04-07T13:26:09Z</time>
      </trkpt>
      <trkpt lat="45.83473" lon="4.8143">
        <ele>327</ele>
        <time>2012-04-07T13:26:12Z</time>
      </trkpt>
      <trkpt lat="45.83466" lon="4.81425">
        <ele>326</ele>
        <time>2012-04-07T13:26:15Z</time>
      </trkpt>
      <trkpt lat="45.83459" lon="4.81421">
        <ele>325</ele>
        <time>2012-04-07T13:26:18Z</time>
      </trkpt>
      <trkpt lat="45.83452" lon="4.81416">
        <ele>324</ele>
        <time>2012-04-07T13:26:21Z</time>
      </trkpt>
      <trkpt lat="45.83445" lon="4.81413">
        <ele>324</ele>
        <time>2012-04-07T13:26:24Z</time>
      </trkpt>
      <trkpt lat="45.8344" lon="4.8141">
        <ele>324</ele>
        <time>2012-04-07T13:26:27Z</time>
      </trkpt>
      <trkpt lat="45.83435" lon="4.81405">
        <ele>326</ele>
        <time>2012-04-07T13:26:30Z</time>
      </trkpt>
      <trkpt lat="45.83432" lon="4.814">
        <ele>329</ele>
        <time>2012-04-07T13:26:33Z</time>
      </trkpt>
      <trkpt lat="45.83429" lon="4.81392">
        <ele>332</ele>
        <time>2012-04-07T13:26:36Z</time>
      </trkpt>
      <trkpt lat="45.83428" lon="4.81383">
        <ele>333</ele>
        <time>2012-04-07T13:26:39Z</time>
      </trkpt>
      <trkpt lat="45.83427" lon="4.81371">
        <ele>333</ele>
        <time>2012-04-07T13:26:42Z</time>
      </trkpt>
      <trkpt lat="45.83428" lon="4.81358">
        <ele>333</ele>
        <time>2012-04-07T13:26:45Z</time>
      </trkpt>
      <trkpt lat="45.83431" lon="4.81347">
        <ele>333</ele>
        <time>2012-04-07T13:26:48Z</time>
      </trkpt>
      <trkpt lat="45.83436" lon="4.8134">
        <ele>334</ele>
        <time>2012-04-07T13:26:51Z</time>
      </trkpt>
      <trkpt lat="45.83443" lon="4.8134">
        <ele>334</ele>
        <time>2012-04-07T13:26:54Z</time>
      </trkpt>
      <trkpt lat="45.83448" lon="4.81345">
        <ele>334</ele>
        <time>2012-04-07T13:26:57Z</time>
      </trkpt>
      <trkpt lat="45.83453" lon="4.81351">
        <ele>334</ele>
        <time>2012-04-07T13:27:00Z</time>
      </trkpt>
      <trkpt lat="45.83459" lon="4.81356">
        <ele>334</ele>
        <time>2012-04-07T13:27:03Z</time>
      </trkpt>
      <trkpt lat="45.83466" lon="4.81355">
        <ele>334</ele>
        <time>2012-04-07T13:27:06Z</time>
      </trkpt>
      <trkpt lat="45.83474" lon="4.81354">
        <ele>334</ele>
        <time>2012-04-07T13:27:09Z</time>
      </trkpt>
      <trkpt lat="45.8348" lon="4.81351">
        <ele>334</ele>
        <time>2012-04-07T13:27:12Z</time>
      </trkpt>
      <trkpt lat="45.83487" lon="4.81349">
        <ele>337</ele>
        <time>2012-04-07T13:27:15Z</time>
      </trkpt>
      <trkpt lat="45.83492" lon="4.81344">
        <ele>340</ele>
        <time>2012-04-07T13:27:18Z</time>
      </trkpt>
      <trkpt lat="45.83497" lon="4.8134">
        <ele>343</ele>
        <time>2012-04-07T13:27:21Z</time>
      </trkpt>
      <trkpt lat="45.83503" lon="4.81336">
        <ele>345</ele>
        <time>2012-04-07T13:27:24Z</time>
      </trkpt>
      <trkpt lat="45.83508" lon="4.81333">
        <ele>347</ele>
        <time>2012-04-07T13:27:27Z</time>
      </trkpt>
      <trkpt lat="45.83515" lon="4.81331">
        <ele>349</ele>
        <time>2012-04-07T13:27:30Z</time>
      </trkpt>
      <trkpt lat="45.83521" lon="4.81331">
        <ele>350</ele>
        <time>2012-04-07T13:27:33Z</time>
      </trkpt>
      <trkpt lat="45.83527" lon="4.81325">
        <ele>351</ele>
        <time>2012-04-07T13:27:36Z</time>
      </trkpt>
      <trkpt lat="45.83535" lon="4.81318">
        <ele>351</ele>
        <time>2012-04-07T13:27:40Z</time>
      </trkpt>
      <trkpt lat="45.8354" lon="4.81312">
        <ele>351</ele>
        <time>2012-04-07T13:27:43Z</time>
      </trkpt>
      <trkpt lat="45.83546" lon="4.81308">
        <ele>351</ele>
        <time>2012-04-07T13:27:46Z</time>
      </trkpt>
      <trkpt lat="45.83552" lon="4.81303">
        <ele>352</ele>
        <time>2012-04-07T13:27:49Z</time>
      </trkpt>
      <trkpt lat="45.83558" lon="4.81299">
        <ele>353</ele>
        <time>2012-04-07T13:27:52Z</time>
      </trkpt>
      <trkpt lat="45.83562" lon="4.81293">
        <ele>353</ele>
        <time>2012-04-07T13:27:55Z</time>
      </trkpt>
      <trkpt lat="45.83564" lon="4.81285">
        <ele>353</ele>
        <time>2012-04-07T13:27:58Z</time>
      </trkpt>
      <trkpt lat="45.83561" lon="4.81278">
        <ele>354</ele>
        <time>2012-04-07T13:28:01Z</time>
      </trkpt>
      <trkpt lat="45.83559" lon="4.8127">
        <ele>355</ele>
        <time>2012-04-07T13:28:04Z</time>
      </trkpt>
      <trkpt lat="45.83558" lon="4.81262">
        <ele>355</ele>
        <time>2012-04-07T13:28:07Z</time>
      </trkpt>
      <trkpt lat="45.83556" lon="4.81254">
        <ele>355</ele>
        <time>2012-04-07T13:28:10Z</time>
      </trkpt>
      <trkpt lat="45.83555" lon="4.81245">
        <ele>356</ele>
        <time>2012-04-07T13:28:13Z</time>
      </trkpt>
      <trkpt lat="45.83553" lon="4.81237">
        <ele>356</ele>
        <time>2012-04-07T13:28:16Z</time>
      </trkpt>
      <trkpt lat="45.83552" lon="4.81228">
        <ele>356</ele>
        <time>2012-04-07T13:28:19Z</time>
      </trkpt>
      <trkpt lat="45.83549" lon="4.8122">
        <ele>357</ele>
        <time>2012-04-07T13:28:22Z</time>
      </trkpt>
      <trkpt lat="45.83544" lon="4.81214">
        <ele>357</ele>
        <time>2012-04-07T13:28:25Z</time>
      </trkpt>
      <trkpt lat="45.83538" lon="4.81206">
        <ele>357</ele>
        <time>2012-04-07T13:28:28Z</time>
      </trkpt>
      <trkpt lat="45.83532" lon="4.81204">
        <ele>355</ele>
        <time>2012-04-07T13:28:31Z</time>
      </trkpt>
      <trkpt lat="45.83525" lon="4.81204">
        <ele>353</ele>
        <time>2012-04-07T13:28:34Z</time>
      </trkpt>
      <trkpt lat="45.83518" lon="4.81205">
        <ele>353</ele>
        <time>2012-04-07T13:28:37Z</time>
      </trkpt>
      <trkpt lat="45.83512" lon="4.81206">
        <ele>353</ele>
        <time>2012-04-07T13:28:40Z</time>
      </trkpt>
      <trkpt lat="45.83504" lon="4.81206">
        <ele>355</ele>
        <time>2012-04-07T13:28:43Z</time>
      </trkpt>
      <trkpt lat="45.83498" lon="4.81209">
        <ele>358</ele>
        <time>2012-04-07T13:28:46Z</time>
      </trkpt>
      <trkpt lat="45.83491" lon="4.81213">
        <ele>361</ele>
        <time>2012-04-07T13:28:49Z</time>
      </trkpt>
      <trkpt lat="45.83485" lon="4.81213">
        <ele>364</ele>
        <time>2012-04-07T13:28:52Z</time>
      </trkpt>
      <trkpt lat="45.83479" lon="4.81215">
        <ele>369</ele>
        <time>2012-04-07T13:28:55Z</time>
      </trkpt>
      <trkpt lat="45.83472" lon="4.81216">
        <ele>372</ele>
        <time>2012-04-07T13:28:58Z</time>
      </trkpt>
      <trkpt lat="45.83466" lon="4.81216">
        <ele>375</ele>
        <time>2012-04-07T13:29:01Z</time>
      </trkpt>
      <trkpt lat="45.83459" lon="4.81216">
        <ele>378</ele>
        <time>2012-04-07T13:29:04Z</time>
      </trkpt>
      <trkpt lat="45.83453" lon="4.81216">
        <ele>380</ele>
        <time>2012-04-07T13:29:07Z</time>
      </trkpt>
      <trkpt lat="45.83446" lon="4.81218">
        <ele>381</ele>
        <time>2012-04-07T13:29:10Z</time>
      </trkpt>
      <trkpt lat="45.83439" lon="4.81218">
        <ele>381</ele>
        <time>2012-04-07T13:29:13Z</time>
      </trkpt>
      <trkpt lat="45.83433" lon="4.81217">
        <ele>381</ele>
        <time>2012-04-07T13:29:16Z</time>
      </trkpt>
      <trkpt lat="45.83426" lon="4.81211">
        <ele>381</ele>
        <time>2012-04-07T13:29:19Z</time>
      </trkpt>
      <trkpt lat="45.8342" lon="4.81206">
        <ele>381</ele>
        <time>2012-04-07T13:29:22Z</time>
      </trkpt>
      <trkpt lat="45.83415" lon="4.81199">
        <ele>380</ele>
        <time>2012-04-07T13:29:25Z</time>
      </trkpt>
      <trkpt lat="45.83408" lon="4.81193">
        <ele>377</ele>
        <time>2012-04-07T13:29:28Z</time>
      </trkpt>
      <trkpt lat="45.83403" lon="4.81186">
        <ele>374</ele>
        <time>2012-04-07T13:29:31Z</time>
      </trkpt>
      <trkpt lat="45.834" lon="4.8118">
        <ele>371</ele>
        <time>2012-04-07T13:29:34Z</time>
      </trkpt>
      <trkpt lat="45.83395" lon="4.81174">
        <ele>368</ele>
        <time>2012-04-07T13:29:37Z</time>
      </trkpt>
      <trkpt lat="45.83387" lon="4.81165">
        <ele>365</ele>
        <time>2012-04-07T13:29:40Z</time>
      </trkpt>
      <trkpt lat="45.83381" lon="4.8116">
        <ele>365</ele>
        <time>2012-04-07T13:29:43Z</time>
      </trkpt>
      <trkpt lat="45.83375" lon="4.81156">
        <ele>365</ele>
        <time>2012-04-07T13:29:46Z</time>
      </trkpt>
      <trkpt lat="45.83371" lon="4.81148">
        <ele>365</ele>
        <time>2012-04-07T13:29:49Z</time>
      </trkpt>
      <trkpt lat="45.83369" lon="4.81137">
        <ele>368</ele>
        <time>2012-04-07T13:29:52Z</time>
      </trkpt>
      <trkpt lat="45.83371" lon="4.81126">
        <ele>371</ele>
        <time>2012-04-07T13:29:55Z</time>
      </trkpt>
      <trkpt lat="45.83377" lon="4.81117">
        <ele>372</ele>
        <time>2012-04-07T13:29:58Z</time>
      </trkpt>
      <trkpt lat="45.83382" lon="4.8111">
        <ele>374</ele>
        <time>2012-04-07T13:30:01Z</time>
      </trkpt>
      <trkpt lat="45.83389" lon="4.81102">
        <ele>374</ele>
        <time>2012-04-07T13:30:04Z</time>
      </trkpt>
      <trkpt lat="45.83395" lon="4.81095">
        <ele>375</ele>
        <time>2012-04-07T13:30:07Z</time>
      </trkpt>
      <trkpt lat="45.83401" lon="4.81087">
        <ele>376</ele>
        <time>2012-04-07T13:30:10Z</time>
      </trkpt>
      <trkpt lat="45.83406" lon="4.81081">
        <ele>376</ele>
        <time>2012-04-07T13:30:13Z</time>
      </trkpt>
      <trkpt lat="45.83413" lon="4.81077">
        <ele>378</ele>
        <time>2012-04-07T13:30:16Z</time>
      </trkpt>
      <trkpt lat="45.8342" lon="4.81071">
        <ele>379</ele>
        <time>2012-04-07T13:30:19Z</time>
      </trkpt>
      <trkpt lat="45.83426" lon="4.81067">
        <ele>380</ele>
        <time>2012-04-07T13:30:22Z</time>
      </trkpt>
      <trkpt lat="45.83433" lon="4.81064">
        <ele>381</ele>
        <time>2012-04-07T13:30:25Z</time>
      </trkpt>
      <trkpt lat="45.83441" lon="4.81062">
        <ele>381</ele>
        <time>2012-04-07T13:30:28Z</time>
      </trkpt>
      <trkpt lat="45.83447" lon="4.81058">
        <ele>381</ele>
        <time>2012-04-07T13:30:31Z</time>
      </trkpt>
      <trkpt lat="45.83453" lon="4.81054">
        <ele>381</ele>
        <time>2012-04-07T13:30:34Z</time>
      </trkpt>
      <trkpt lat="45.8346" lon="4.81051">
        <ele>381</ele>
        <time>2012-04-07T13:30:37Z</time>
      </trkpt>
      <trkpt lat="45.83469" lon="4.81051">
        <ele>381</ele>
        <time>2012-04-07T13:30:40Z</time>
      </trkpt>
      <trkpt lat="45.83476" lon="4.81045">
        <ele>381</ele>
        <time>2012-04-07T13:30:43Z</time>
      </trkpt>
      <trkpt lat="45.83482" lon="4.81042">
        <ele>381</ele>
        <time>2012-04-07T13:30:46Z</time>
      </trkpt>
      <trkpt lat="45.83487" lon="4.81038">
        <ele>381</ele>
        <time>2012-04-07T13:30:49Z</time>
      </trkpt>
      <trkpt lat="45.83493" lon="4.81031">
        <ele>382</ele>
        <time>2012-04-07T13:30:52Z</time>
      </trkpt>
      <trkpt lat="45.835" lon="4.81029">
        <ele>382</ele>
        <time>2012-04-07T13:30:55Z</time>
      </trkpt>
      <trkpt lat="45.83506" lon="4.81026">
        <ele>384</ele>
        <time>2012-04-07T13:30:58Z</time>
      </trkpt>
      <trkpt lat="45.83512" lon="4.81021">
        <ele>387</ele>
        <time>2012-04-07T13:31:01Z</time>
      </trkpt>
      <trkpt lat="45.83518" lon="4.81018">
        <ele>390</ele>
        <time>2012-04-07T13:31:04Z</time>
      </trkpt>
      <trkpt lat="45.83522" lon="4.81014">
        <ele>393</ele>
        <time>2012-04-07T13:31:07Z</time>
      </trkpt>
      <trkpt lat="45.83527" lon="4.81008">
        <ele>395</ele>
        <time>2012-04-07T13:31:10Z</time>
      </trkpt>
      <trkpt lat="45.83532" lon="4.81002">
        <ele>395</ele>
        <time>2012-04-07T13:31:13Z</time>
      </trkpt>
      <trkpt lat="45.83538" lon="4.81">
        <ele>395</ele>
        <time>2012-04-07T13:31:16Z</time>
      </trkpt>
      <trkpt lat="45.83545" lon="4.80995">
        <ele>395</ele>
        <time>2012-04-07T13:31:19Z</time>
      </trkpt>
      <trkpt lat="45.83548" lon="4.80987">
        <ele>395</ele>
        <time>2012-04-07T13:31:22Z</time>
      </trkpt>
      <trkpt lat="45.83554" lon="4.8098">
        <ele>395</ele>
        <time>2012-04-07T13:31:25Z</time>
      </trkpt>
      <trkpt lat="45.8356" lon="4.80976">
        <ele>392</ele>
        <time>2012-04-07T13:31:28Z</time>
      </trkpt>
      <trkpt lat="45.83566" lon="4.80976">
        <ele>390</ele>
        <time>2012-04-07T13:31:31Z</time>
      </trkpt>
      <trkpt lat="45.83572" lon="4.80972">
        <ele>390</ele>
        <time>2012-04-07T13:31:34Z</time>
      </trkpt>
      <trkpt lat="45.83578" lon="4.80972">
        <ele>390</ele>
        <time>2012-04-07T13:31:37Z</time>
      </trkpt>
      <trkpt lat="45.83586" lon="4.80971">
        <ele>390</ele>
        <time>2012-04-07T13:31:41Z</time>
      </trkpt>
      <trkpt lat="45.83592" lon="4.80968">
        <ele>390</ele>
        <time>2012-04-07T13:31:44Z</time>
      </trkpt>
      <trkpt lat="45.83599" lon="4.80968">
        <ele>390</ele>
        <time>2012-04-07T13:31:47Z</time>
      </trkpt>
      <trkpt lat="45.83606" lon="4.80968">
        <ele>389</ele>
        <time>2012-04-07T13:31:50Z</time>
      </trkpt>
      <trkpt lat="45.83614" lon="4.80965">
        <ele>388</ele>
        <time>2012-04-07T13:31:53Z</time>
      </trkpt>
      <trkpt lat="45.83623" lon="4.80964">
        <ele>388</ele>
        <time>2012-04-07T13:31:57Z</time>
      </trkpt>
      <trkpt lat="45.83631" lon="4.80964">
        <ele>388</ele>
        <time>2012-04-07T13:32:00Z</time>
      </trkpt>
      <trkpt lat="45.83637" lon="4.80967">
        <ele>388</ele>
        <time>2012-04-07T13:32:03Z</time>
      </trkpt>
      <trkpt lat="45.83643" lon="4.80964">
        <ele>389</ele>
        <time>2012-04-07T13:32:06Z</time>
      </trkpt>
      <trkpt lat="45.83647" lon="4.80958">
        <ele>392</ele>
        <time>2012-04-07T13:32:09Z</time>
      </trkpt>
      <trkpt lat="45.8365" lon="4.8095">
        <ele>395</ele>
        <time>2012-04-07T13:32:12Z</time>
      </trkpt>
      <trkpt lat="45.8365" lon="4.80945">
        <ele>398</ele>
        <time>2012-04-07T13:32:15Z</time>
      </trkpt>
      <trkpt lat="45.83651" lon="4.80938">
        <ele>401</ele>
        <time>2012-04-07T13:32:18Z</time>
      </trkpt>
      <trkpt lat="45.83652" lon="4.80932">
        <ele>404</ele>
        <time>2012-04-07T13:32:21Z</time>
      </trkpt>
      <trkpt lat="45.83652" lon="4.80925">
        <ele>407</ele>
        <time>2012-04-07T13:32:24Z</time>
      </trkpt>
      <trkpt lat="45.83653" lon="4.80917">
        <ele>411</ele>
        <time>2012-04-07T13:32:27Z</time>
      </trkpt>
      <trkpt lat="45.83654" lon="4.80908">
        <ele>414</ele>
        <time>2012-04-07T13:32:30Z</time>
      </trkpt>
      <trkpt lat="45.83652" lon="4.80897">
        <ele>417</ele>
        <time>2012-04-07T13:32:33Z</time>
      </trkpt>
      <trkpt lat="45.83652" lon="4.80886">
        <ele>420</ele>
        <time>2012-04-07T13:32:36Z</time>
      </trkpt>
      <trkpt lat="45.83654" lon="4.80877">
        <ele>423</ele>
        <time>2012-04-07T13:32:39Z</time>
      </trkpt>
      <trkpt lat="45.83655" lon="4.80867">
        <ele>424</ele>
        <time>2012-04-07T13:32:42Z</time>
      </trkpt>
      <trkpt lat="45.83654" lon="4.80856">
        <ele>424</ele>
        <time>2012-04-07T13:32:45Z</time>
      </trkpt>
      <trkpt lat="45.83655" lon="4.80845">
        <ele>424</ele>
        <time>2012-04-07T13:32:48Z</time>
      </trkpt>
      <trkpt lat="45.83656" lon="4.80838">
        <ele>424</ele>
        <time>2012-04-07T13:32:51Z</time>
      </trkpt>
      <trkpt lat="45.83658" lon="4.80831">
        <ele>424</ele>
        <time>2012-04-07T13:32:54Z</time>
      </trkpt>
      <trkpt lat="45.83659" lon="4.80822">
        <ele>424</ele>
        <time>2012-04-07T13:32:57Z</time>
      </trkpt>
      <trkpt lat="45.83662" lon="4.80814">
        <ele>425</ele>
        <time>2012-04-07T13:33:00Z</time>
      </trkpt>
      <trkpt lat="45.83665" lon="4.80803">
        <ele>425</ele>
        <time>2012-04-07T13:33:03Z</time>
      </trkpt>
      <trkpt lat="45.83668" lon="4.80793">
        <ele>425</ele>
        <time>2012-04-07T13:33:06Z</time>
      </trkpt>
      <trkpt lat="45.83672" lon="4.80784">
        <ele>424</ele>
        <time>2012-04-07T13:33:09Z</time>
      </trkpt>
      <trkpt lat="45.83676" lon="4.80774">
        <ele>423</ele>
        <time>2012-04-07T13:33:12Z</time>
      </trkpt>
      <trkpt lat="45.83681" lon="4.80763">
        <ele>422</ele>
        <time>2012-04-07T13:33:15Z</time>
      </trkpt>
      <trkpt lat="45.83687" lon="4.80754">
        <ele>419</ele>
        <time>2012-04-07T13:33:18Z</time>
      </trkpt>
      <trkpt lat="45.83693" lon="4.80746">
        <ele>419</ele>
        <time>2012-04-07T13:33:21Z</time>
      </trkpt>
      <trkpt lat="45.837" lon="4.80737">
        <ele>419</ele>
        <time>2012-04-07T13:33:24Z</time>
      </trkpt>
      <trkpt lat="45.83706" lon="4.80728">
        <ele>419</ele>
        <time>2012-04-07T13:33:27Z</time>
      </trkpt>
      <trkpt lat="45.83711" lon="4.80719">
        <ele>419</ele>
        <time>2012-04-07T13:33:30Z</time>
      </trkpt>
      <trkpt lat="45.83716" lon="4.80709">
        <ele>419</ele>
        <time>2012-04-07T13:33:33Z</time>
      </trkpt>
      <trkpt lat="45.8372" lon="4.80702">
        <ele>418</ele>
        <time>2012-04-07T13:33:36Z</time>
      </trkpt>
      <trkpt lat="45.83723" lon="4.80696">
        <ele>418</ele>
        <time>2012-04-07T13:33:39Z</time>
      </trkpt>
      <trkpt lat="45.83722" lon="4.80689">
        <ele>418</ele>
        <time>2012-04-07T13:33:42Z</time>
      </trkpt>
      <trkpt lat="45.83722" lon="4.80681">
        <ele>419</ele>
        <time>2012-04-07T13:33:45Z</time>
      </trkpt>
      <trkpt lat="45.83721" lon="4.80673">
        <ele>419</ele>
        <time>2012-04-07T13:33:48Z</time>
      </trkpt>
      <trkpt lat="45.8372" lon="4.80666">
        <ele>421</ele>
        <time>2012-04-07T13:33:52Z</time>
      </trkpt>
      <trkpt lat="45.83719" lon="4.80661">
        <ele>422</ele>
        <time>2012-04-07T13:33:55Z</time>
      </trkpt>
      <trkpt lat="45.83719" lon="4.80656">
        <ele>423</ele>
        <time>2012-04-07T13:33:58Z</time>
      </trkpt>
      <trkpt lat="45.83718" lon="4.80649">
        <ele>423</ele>
        <time>2012-04-07T13:34:01Z</time>
      </trkpt>
      <trkpt lat="45.83717" lon="4.8064">
        <ele>423</ele>
        <time>2012-04-07T13:34:04Z</time>
      </trkpt>
      <trkpt lat="45.83716" lon="4.80634">
        <ele>423</ele>
        <time>2012-04-07T13:34:07Z</time>
      </trkpt>
      <trkpt lat="45.83717" lon="4.80626">
        <ele>424</ele>
        <time>2012-04-07T13:34:10Z</time>
      </trkpt>
      <trkpt lat="45.83715" lon="4.80618">
        <ele>424</ele>
        <time>2012-04-07T13:34:13Z</time>
      </trkpt>
      <trkpt lat="45.83715" lon="4.80609">
        <ele>425</ele>
        <time>2012-04-07T13:34:17Z</time>
      </trkpt>
      <trkpt lat="45.83715" lon="4.80603">
        <ele>426</ele>
        <time>2012-04-07T13:34:20Z</time>
      </trkpt>
      <trkpt lat="45.83714" lon="4.80596">
        <ele>426</ele>
        <time>2012-04-07T13:34:23Z</time>
      </trkpt>
      <trkpt lat="45.83712" lon="4.80586">
        <ele>426</ele>
        <time>2012-04-07T13:34:27Z</time>
      </trkpt>
      <trkpt lat="45.83709" lon="4.80578">
        <ele>426</ele>
        <time>2012-04-07T13:34:30Z</time>
      </trkpt>
      <trkpt lat="45.83708" lon="4.80571">
        <ele>430</ele>
        <time>2012-04-07T13:34:34Z</time>
      </trkpt>
      <trkpt lat="45.83708" lon="4.80565">
        <ele>432</ele>
        <time>2012-04-07T13:34:37Z</time>
      </trkpt>
      <trkpt lat="45.83707" lon="4.8056">
        <ele>432</ele>
        <time>2012-04-07T13:34:40Z</time>
      </trkpt>
      <trkpt lat="45.83706" lon="4.80553">
        <ele>432</ele>
        <time>2012-04-07T13:34:43Z</time>
      </trkpt>
      <trkpt lat="45.83709" lon="4.8055">
        <ele>432</ele>
        <time>2012-04-07T13:34:46Z</time>
      </trkpt>
      <trkpt lat="45.83713" lon="4.80547">
        <ele>432</ele>
        <time>2012-04-07T13:34:49Z</time>
      </trkpt>
      <trkpt lat="45.83717" lon="4.80542">
        <ele>432</ele>
        <time>2012-04-07T13:34:53Z</time>
      </trkpt>
      <trkpt lat="45.8372" lon="4.8054">
        <ele>432</ele>
        <time>2012-04-07T13:34:56Z</time>
      </trkpt>
      <trkpt lat="45.83725" lon="4.80539">
        <ele>432</ele>
        <time>2012-04-07T13:35:00Z</time>
      </trkpt>
      <trkpt lat="45.83728" lon="4.80536">
        <ele>433</ele>
        <time>2012-04-07T13:35:03Z</time>
      </trkpt>
      <trkpt lat="45.83731" lon="4.80534">
        <ele>434</ele>
        <time>2012-04-07T13:35:06Z</time>
      </trkpt>
      <trkpt lat="45.83734" lon="4.80533">
        <ele>436</ele>
        <time>2012-04-07T13:35:09Z</time>
      </trkpt>
      <trkpt lat="45.83738" lon="4.80529">
        <ele>438</ele>
        <time>2012-04-07T13:35:14Z</time>
      </trkpt>
      <trkpt lat="45.83742" lon="4.80526">
        <ele>438</ele>
        <time>2012-04-07T13:35:18Z</time>
      </trkpt>
      <trkpt lat="45.83746" lon="4.80523">
        <ele>438</ele>
        <time>2012-04-07T13:35:21Z</time>
      </trkpt>
      <trkpt lat="45.8375" lon="4.8052">
        <ele>437</ele>
        <time>2012-04-07T13:35:25Z</time>
      </trkpt>
      <trkpt lat="45.83755" lon="4.80517">
        <ele>437</ele>
        <time>2012-04-07T13:35:28Z</time>
      </trkpt>
      <trkpt lat="45.83759" lon="4.80516">
        <ele>437</ele>
        <time>2012-04-07T13:35:31Z</time>
      </trkpt>
      <trkpt lat="45.83763" lon="4.80516">
        <ele>437</ele>
        <time>2012-04-07T13:35:34Z</time>
      </trkpt>
      <trkpt lat="45.83767" lon="4.80515">
        <ele>437</ele>
        <time>2012-04-07T13:35:37Z</time>
      </trkpt>
      <trkpt lat="45.83771" lon="4.80514">
        <ele>437</ele>
        <time>2012-04-07T13:35:41Z</time>
      </trkpt>
      <trkpt lat="45.83776" lon="4.80514">
        <ele>437</ele>
        <time>2012-04-07T13:35:44Z</time>
      </trkpt>
      <trkpt lat="45.83781" lon="4.80515">
        <ele>437</ele>
        <time>2012-04-07T13:35:47Z</time>
      </trkpt>
      <trkpt lat="45.83787" lon="4.80518">
        <ele>437</ele>
        <time>2012-04-07T13:35:51Z</time>
      </trkpt>
      <trkpt lat="45.83791" lon="4.8052">
        <ele>437</ele>
        <time>2012-04-07T13:35:54Z</time>
      </trkpt>
      <trkpt lat="45.83795" lon="4.80525">
        <ele>437</ele>
        <time>2012-04-07T13:35:57Z</time>
      </trkpt>
      <trkpt lat="45.83801" lon="4.80532">
        <ele>437</ele>
        <time>2012-04-07T13:36:00Z</time>
      </trkpt>
      <trkpt lat="45.83806" lon="4.80537">
        <ele>437</ele>
        <time>2012-04-07T13:36:03Z</time>
      </trkpt>
      <trkpt lat="45.8381" lon="4.80543">
        <ele>437</ele>
        <time>2012-04-07T13:36:07Z</time>
      </trkpt>
      <trkpt lat="45.83814" lon="4.80549">
        <ele>437</ele>
        <time>2012-04-07T13:36:10Z</time>
      </trkpt>
      <trkpt lat="45.83817" lon="4.80555">
        <ele>437</ele>
        <time>2012-04-07T13:36:13Z</time>
      </trkpt>
      <trkpt lat="45.83821" lon="4.80562">
        <ele>439</ele>
        <time>2012-04-07T13:36:16Z</time>
      </trkpt>
      <trkpt lat="45.83827" lon="4.80569">
        <ele>440</ele>
        <time>2012-04-07T13:36:20Z</time>
      </trkpt>
      <trkpt lat="45.83829" lon="4.80573">
        <ele>442</ele>
        <time>2012-04-07T13:36:23Z</time>
      </trkpt>
      <trkpt lat="45.83834" lon="4.80574">
        <ele>443</ele>
        <time>2012-04-07T13:36:27Z</time>
      </trkpt>
      <trkpt lat="45.83839" lon="4.8058">
        <ele>443</ele>
        <time>2012-04-07T13:36:30Z</time>
      </trkpt>
      <trkpt lat="45.83841" lon="4.80586">
        <ele>445</ele>
        <time>2012-04-07T13:36:33Z</time>
      </trkpt>
      <trkpt lat="45.83845" lon="4.80589">
        <ele>446</ele>
        <time>2012-04-07T13:36:36Z</time>
      </trkpt>
      <trkpt lat="45.83849" lon="4.80591">
        <ele>447</ele>
        <time>2012-04-07T13:36:39Z</time>
      </trkpt>
      <trkpt lat="45.83853" lon="4.80593">
        <ele>447</ele>
        <time>2012-04-07T13:36:42Z</time>
      </trkpt>
      <trkpt lat="45.83857" lon="4.80598">
        <ele>447</ele>
        <time>2012-04-07T13:36:46Z</time>
      </trkpt>
      <trkpt lat="45.8386" lon="4.806">
        <ele>448</ele>
        <time>2012-04-07T13:36:50Z</time>
      </trkpt>
      <trkpt lat="45.83863" lon="4.80603">
        <ele>450</ele>
        <time>2012-04-07T13:36:53Z</time>
      </trkpt>
      <trkpt lat="45.83867" lon="4.80607">
        <ele>451</ele>
        <time>2012-04-07T13:36:56Z</time>
      </trkpt>
      <trkpt lat="45.83871" lon="4.8061">
        <ele>451</ele>
        <time>2012-04-07T13:36:59Z</time>
      </trkpt>
      <trkpt lat="45.83875" lon="4.80613">
        <ele>451</ele>
        <time>2012-04-07T13:37:02Z</time>
      </trkpt>
      <trkpt lat="45.8388" lon="4.80617">
        <ele>451</ele>
        <time>2012-04-07T13:37:05Z</time>
      </trkpt>
      <trkpt lat="45.83885" lon="4.80619">
        <ele>451</ele>
        <time>2012-04-07T13:37:08Z</time>
      </trkpt>
      <trkpt lat="45.83889" lon="4.80622">
        <ele>452</ele>
        <time>2012-04-07T13:37:11Z</time>
      </trkpt>
      <trkpt lat="45.83893" lon="4.80627">
        <ele>454</ele>
        <time>2012-04-07T13:37:14Z</time>
      </trkpt>
      <trkpt lat="45.83896" lon="4.8063">
        <ele>455</ele>
        <time>2012-04-07T13:37:17Z</time>
      </trkpt>
      <trkpt lat="45.83901" lon="4.80635">
        <ele>457</ele>
        <time>2012-04-07T13:37:21Z</time>
      </trkpt>
      <trkpt lat="45.83905" lon="4.80639">
        <ele>459</ele>
        <time>2012-04-07T13:37:24Z</time>
      </trkpt>
      <trkpt lat="45.83908" lon="4.80643">
        <ele>459</ele>
        <time>2012-04-07T13:37:27Z</time>
      </trkpt>
      <trkpt lat="45.83913" lon="4.80641">
        <ele>459</ele>
        <time>2012-04-07T13:37:30Z</time>
      </trkpt>
      <trkpt lat="45.83917" lon="4.8064">
        <ele>459</ele>
        <time>2012-04-07T13:37:33Z</time>
      </trkpt>
      <trkpt lat="45.83921" lon="4.80643">
        <ele>459</ele>
        <time>2012-04-07T13:37:36Z</time>
      </trkpt>
      <trkpt lat="45.83926" lon="4.80642">
        <ele>459</ele>
        <time>2012-04-07T13:37:39Z</time>
      </trkpt>
      <trkpt lat="45.83931" lon="4.80643">
        <ele>459</ele>
        <time>2012-04-07T13:37:42Z</time>
      </trkpt>
      <trkpt lat="45.83938" lon="4.80643">
        <ele>459</ele>
        <time>2012-04-07T13:37:45Z</time>
      </trkpt>
      <trkpt lat="45.83943" lon="4.80641">
        <ele>459</ele>
        <time>2012-04-07T13:37:48Z</time>
      </trkpt>
      <trkpt lat="45.8395" lon="4.80643">
        <ele>459</ele>
        <time>2012-04-07T13:37:51Z</time>
      </trkpt>
      <trkpt lat="45.83956" lon="4.80643">
        <ele>459</ele>
        <time>2012-04-07T13:37:54Z</time>
      </trkpt>
      <trkpt lat="45.83963" lon="4.80642">
        <ele>459</ele>
        <time>2012-04-07T13:37:57Z</time>
      </trkpt>
      <trkpt lat="45.83973" lon="4.80641">
        <ele>459</ele>
        <time>2012-04-07T13:38:01Z</time>
      </trkpt>
      <trkpt lat="45.83985" lon="4.8064">
        <ele>458</ele>
        <time>2012-04-07T13:38:05Z</time>
      </trkpt>
      <trkpt lat="45.83994" lon="4.80638">
        <ele>456</ele>
        <time>2012-04-07T13:38:08Z</time>
      </trkpt>
      <trkpt lat="45.84002" lon="4.80637">
        <ele>455</ele>
        <time>2012-04-07T13:38:11Z</time>
      </trkpt>
      <trkpt lat="45.8401" lon="4.80636">
        <ele>455</ele>
        <time>2012-04-07T13:38:14Z</time>
      </trkpt>
      <trkpt lat="45.84019" lon="4.80636">
        <ele>455</ele>
        <time>2012-04-07T13:38:17Z</time>
      </trkpt>
      <trkpt lat="45.84028" lon="4.80636">
        <ele>455</ele>
        <time>2012-04-07T13:38:20Z</time>
      </trkpt>
      <trkpt lat="45.84037" lon="4.80633">
        <ele>455</ele>
        <time>2012-04-07T13:38:24Z</time>
      </trkpt>
      <trkpt lat="45.84048" lon="4.8063">
        <ele>455</ele>
        <time>2012-04-07T13:38:27Z</time>
      </trkpt>
      <trkpt lat="45.84057" lon="4.80622">
        <ele>455</ele>
        <time>2012-04-07T13:38:30Z</time>
      </trkpt>
      <trkpt lat="45.84068" lon="4.80616">
        <ele>452</ele>
        <time>2012-04-07T13:38:33Z</time>
      </trkpt>
      <trkpt lat="45.84078" lon="4.80612">
        <ele>451</ele>
        <time>2012-04-07T13:38:36Z</time>
      </trkpt>
      <trkpt lat="45.84087" lon="4.80605">
        <ele>451</ele>
        <time>2012-04-07T13:38:39Z</time>
      </trkpt>
      <trkpt lat="45.84098" lon="4.80602">
        <ele>451</ele>
        <time>2012-04-07T13:38:42Z</time>
      </trkpt>
      <trkpt lat="45.84108" lon="4.80599">
        <ele>451</ele>
        <time>2012-04-07T13:38:45Z</time>
      </trkpt>
      <trkpt lat="45.84119" lon="4.80595">
        <ele>454</ele>
        <time>2012-04-07T13:38:48Z</time>
      </trkpt>
      <trkpt lat="45.84132" lon="4.80598">
        <ele>454</ele>
        <time>2012-04-07T13:38:51Z</time>
      </trkpt>
      <trkpt lat="45.84143" lon="4.80603">
        <ele>454</ele>
        <time>2012-04-07T13:38:54Z</time>
      </trkpt>
      <trkpt lat="45.84152" lon="4.80609">
        <ele>454</ele>
        <time>2012-04-07T13:38:57Z</time>
      </trkpt>
      <trkpt lat="45.84158" lon="4.80616">
        <ele>456</ele>
        <time>2012-04-07T13:39:00Z</time>
      </trkpt>
      <trkpt lat="45.84164" lon="4.80623">
        <ele>459</ele>
        <time>2012-04-07T13:39:03Z</time>
      </trkpt>
      <trkpt lat="45.84171" lon="4.80628">
        <ele>461</ele>
        <time>2012-04-07T13:39:06Z</time>
      </trkpt>
      <trkpt lat="45.84177" lon="4.80628">
        <ele>462</ele>
        <time>2012-04-07T13:39:09Z</time>
      </trkpt>
      <trkpt lat="45.84183" lon="4.80623">
        <ele>464</ele>
        <time>2012-04-07T13:39:12Z</time>
      </trkpt>
      <trkpt lat="45.84188" lon="4.80618">
        <ele>464</ele>
        <time>2012-04-07T13:39:15Z</time>
      </trkpt>
      <trkpt lat="45.84197" lon="4.80614">
        <ele>465</ele>
        <time>2012-04-07T13:39:19Z</time>
      </trkpt>
      <trkpt lat="45.84203" lon="4.80611">
        <ele>465</ele>
        <time>2012-04-07T13:39:22Z</time>
      </trkpt>
      <trkpt lat="45.84208" lon="4.80608">
        <ele>465</ele>
        <time>2012-04-07T13:39:25Z</time>
      </trkpt>
      <trkpt lat="45.84211" lon="4.80605">
        <ele>465</ele>
        <time>2012-04-07T13:39:28Z</time>
      </trkpt>
      <trkpt lat="45.84217" lon="4.80605">
        <ele>465</ele>
        <time>2012-04-07T13:39:31Z</time>
      </trkpt>
      <trkpt lat="45.84222" lon="4.80604">
        <ele>465</ele>
        <time>2012-04-07T13:39:34Z</time>
      </trkpt>
      <trkpt lat="45.84227" lon="4.80601">
        <ele>465</ele>
        <time>2012-04-07T13:39:37Z</time>
      </trkpt>
      <trkpt lat="45.84232" lon="4.80602">
        <ele>467</ele>
        <time>2012-04-07T13:39:40Z</time>
      </trkpt>
      <trkpt lat="45.84236" lon="4.80601">
        <ele>469</ele>
        <time>2012-04-07T13:39:43Z</time>
      </trkpt>
      <trkpt lat="45.84241" lon="4.80598">
        <ele>472</ele>
        <time>2012-04-07T13:39:46Z</time>
      </trkpt>
      <trkpt lat="45.84245" lon="4.80597">
        <ele>475</ele>
        <time>2012-04-07T13:39:49Z</time>
      </trkpt>
      <trkpt lat="45.84249" lon="4.80596">
        <ele>477</ele>
        <time>2012-04-07T13:39:52Z</time>
      </trkpt>
      <trkpt lat="45.84254" lon="4.80595">
        <ele>479</ele>
        <time>2012-04-07T13:39:55Z</time>
      </trkpt>
      <trkpt lat="45.84259" lon="4.80593">
        <ele>480</ele>
        <time>2012-04-07T13:39:58Z</time>
      </trkpt>
      <trkpt lat="45.84263" lon="4.80588">
        <ele>480</ele>
        <time>2012-04-07T13:40:01Z</time>
      </trkpt>
      <trkpt lat="45.84266" lon="4.80584">
        <ele>481</ele>
        <time>2012-04-07T13:40:04Z</time>
      </trkpt>
      <trkpt lat="45.84264" lon="4.80579">
        <ele>482</ele>
        <time>2012-04-07T13:40:07Z</time>
      </trkpt>
      <trkpt lat="45.84261" lon="4.80577">
        <ele>484</ele>
        <time>2012-04-07T13:40:10Z</time>
      </trkpt>
      <trkpt lat="45.84255" lon="4.80575">
        <ele>486</ele>
        <time>2012-04-07T13:40:13Z</time>
      </trkpt>
      <trkpt lat="45.8425" lon="4.80572">
        <ele>486</ele>
        <time>2012-04-07T13:40:16Z</time>
      </trkpt>
      <trkpt lat="45.84241" lon="4.80571">
        <ele>488</ele>
        <time>2012-04-07T13:40:20Z</time>
      </trkpt>
      <trkpt lat="45.84235" lon="4.8057">
        <ele>491</ele>
        <time>2012-04-07T13:40:23Z</time>
      </trkpt>
      <trkpt lat="45.84229" lon="4.80567">
        <ele>494</ele>
        <time>2012-04-07T13:40:26Z</time>
      </trkpt>
      <trkpt lat="45.84222" lon="4.80559">
        <ele>497</ele>
        <time>2012-04-07T13:40:29Z</time>
      </trkpt>
      <trkpt lat="45.84217" lon="4.80551">
        <ele>498</ele>
        <time>2012-04-07T13:40:32Z</time>
      </trkpt>
      <trkpt lat="45.84212" lon="4.80543">
        <ele>498</ele>
        <time>2012-04-07T13:40:35Z</time>
      </trkpt>
      <trkpt lat="45.84206" lon="4.80537">
        <ele>498</ele>
        <time>2012-04-07T13:40:38Z</time>
      </trkpt>
      <trkpt lat="45.84201" lon="4.80529">
        <ele>498</ele>
        <time>2012-04-07T13:40:41Z</time>
      </trkpt>
      <trkpt lat="45.84197" lon="4.80519">
        <ele>498</ele>
        <time>2012-04-07T13:40:44Z</time>
      </trkpt>
      <trkpt lat="45.84195" lon="4.80503">
        <ele>498</ele>
        <time>2012-04-07T13:40:47Z</time>
      </trkpt>
      <trkpt lat="45.84194" lon="4.80489">
        <ele>498</ele>
        <time>2012-04-07T13:40:50Z</time>
      </trkpt>
      <trkpt lat="45.84193" lon="4.80476">
        <ele>498</ele>
        <time>2012-04-07T13:40:53Z</time>
      </trkpt>
      <trkpt lat="45.84193" lon="4.80461">
        <ele>498</ele>
        <time>2012-04-07T13:40:56Z</time>
      </trkpt>
      <trkpt lat="45.84193" lon="4.80449">
        <ele>498</ele>
        <time>2012-04-07T13:40:59Z</time>
      </trkpt>
      <trkpt lat="45.84192" lon="4.80437">
        <ele>498</ele>
        <time>2012-04-07T13:41:02Z</time>
      </trkpt>
      <trkpt lat="45.84188" lon="4.80426">
        <ele>498</ele>
        <time>2012-04-07T13:41:05Z</time>
      </trkpt>
      <trkpt lat="45.8418" lon="4.80421">
        <ele>498</ele>
        <time>2012-04-07T13:41:08Z</time>
      </trkpt>
      <trkpt lat="45.84172" lon="4.80419">
        <ele>501</ele>
        <time>2012-04-07T13:41:11Z</time>
      </trkpt>
      <trkpt lat="45.84164" lon="4.8042">
        <ele>502</ele>
        <time>2012-04-07T13:41:14Z</time>
      </trkpt>
      <trkpt lat="45.84157" lon="4.80427">
        <ele>502</ele>
        <time>2012-04-07T13:41:17Z</time>
      </trkpt>
      <trkpt lat="45.84151" lon="4.80431">
        <ele>503</ele>
        <time>2012-04-07T13:41:20Z</time>
      </trkpt>
      <trkpt lat="45.84141" lon="4.80436">
        <ele>503</ele>
        <time>2012-04-07T13:41:23Z</time>
      </trkpt>
      <trkpt lat="45.84132" lon="4.80444">
        <ele>503</ele>
        <time>2012-04-07T13:41:26Z</time>
      </trkpt>
      <trkpt lat="45.84122" lon="4.80447">
        <ele>503</ele>
        <time>2012-04-07T13:41:29Z</time>
      </trkpt>
      <trkpt lat="45.84111" lon="4.80452">
        <ele>503</ele>
        <time>2012-04-07T13:41:32Z</time>
      </trkpt>
      <trkpt lat="45.841" lon="4.80454">
        <ele>503</ele>
        <time>2012-04-07T13:41:35Z</time>
      </trkpt>
      <trkpt lat="45.8409" lon="4.80455">
        <ele>503</ele>
        <time>2012-04-07T13:41:38Z</time>
      </trkpt>
      <trkpt lat="45.84079" lon="4.80455">
        <ele>503</ele>
        <time>2012-04-07T13:41:41Z</time>
      </trkpt>
      <trkpt lat="45.84069" lon="4.80452">
        <ele>503</ele>
        <time>2012-04-07T13:41:44Z</time>
      </trkpt>
      <trkpt lat="45.84059" lon="4.80449">
        <ele>503</ele>
        <time>2012-04-07T13:41:47Z</time>
      </trkpt>
      <trkpt lat="45.84047" lon="4.80446">
        <ele>503</ele>
        <time>2012-04-07T13:41:50Z</time>
      </trkpt>
      <trkpt lat="45.84037" lon="4.80442">
        <ele>503</ele>
        <time>2012-04-07T13:41:53Z</time>
      </trkpt>
      <trkpt lat="45.84026" lon="4.80438">
        <ele>503</ele>
        <time>2012-04-07T13:41:56Z</time>
      </trkpt>
      <trkpt lat="45.84017" lon="4.80432">
        <ele>503</ele>
        <time>2012-04-07T13:41:59Z</time>
      </trkpt>
      <trkpt lat="45.84008" lon="4.80427">
        <ele>504</ele>
        <time>2012-04-07T13:42:02Z</time>
      </trkpt>
      <trkpt lat="45.83999" lon="4.80421">
        <ele>504</ele>
        <time>2012-04-07T13:42:05Z</time>
      </trkpt>
      <trkpt lat="45.83991" lon="4.80414">
        <ele>504</ele>
        <time>2012-04-07T13:42:08Z</time>
      </trkpt>
      <trkpt lat="45.83982" lon="4.80409">
        <ele>504</ele>
        <time>2012-04-07T13:42:11Z</time>
      </trkpt>
      <trkpt lat="45.83973" lon="4.80403">
        <ele>504</ele>
        <time>2012-04-07T13:42:14Z</time>
      </trkpt>
      <trkpt lat="45.83965" lon="4.80396">
        <ele>505</ele>
        <time>2012-04-07T13:42:17Z</time>
      </trkpt>
      <trkpt lat="45.83956" lon="4.80388">
        <ele>506</ele>
        <time>2012-04-07T13:42:20Z</time>
      </trkpt>
      <trkpt lat="45.83949" lon="4.80377">
        <ele>506</ele>
        <time>2012-04-07T13:42:23Z</time>
      </trkpt>
      <trkpt lat="45.83942" lon="4.80367">
        <ele>506</ele>
        <time>2012-04-07T13:42:26Z</time>
      </trkpt>
      <trkpt lat="45.83936" lon="4.80355">
        <ele>506</ele>
        <time>2012-04-07T13:42:29Z</time>
      </trkpt>
      <trkpt lat="45.83931" lon="4.80342">
        <ele>506</ele>
        <time>2012-04-07T13:42:32Z</time>
      </trkpt>
      <trkpt lat="45.83927" lon="4.80329">
        <ele>506</ele>
        <time>2012-04-07T13:42:35Z</time>
      </trkpt>
      <trkpt lat="45.83923" lon="4.80316">
        <ele>506</ele>
        <time>2012-04-07T13:42:38Z</time>
      </trkpt>
      <trkpt lat="45.83918" lon="4.80301">
        <ele>506</ele>
        <time>2012-04-07T13:42:42Z</time>
      </trkpt>
      <trkpt lat="45.83912" lon="4.80285">
        <ele>506</ele>
        <time>2012-04-07T13:42:46Z</time>
      </trkpt>
      <trkpt lat="45.83908" lon="4.80274">
        <ele>506</ele>
        <time>2012-04-07T13:42:49Z</time>
      </trkpt>
      <trkpt lat="45.83904" lon="4.80263">
        <ele>506</ele>
        <time>2012-04-07T13:42:52Z</time>
      </trkpt>
      <trkpt lat="45.839" lon="4.80254">
        <ele>506</ele>
        <time>2012-04-07T13:42:55Z</time>
      </trkpt>
      <trkpt lat="45.83897" lon="4.80241">
        <ele>506</ele>
        <time>2012-04-07T13:42:58Z</time>
      </trkpt>
      <trkpt lat="45.83893" lon="4.80228">
        <ele>506</ele>
        <time>2012-04-07T13:43:01Z</time>
      </trkpt>
      <trkpt lat="45.83889" lon="4.80215">
        <ele>506</ele>
        <time>2012-04-07T13:43:04Z</time>
      </trkpt>
      <trkpt lat="45.83883" lon="4.80198">
        <ele>506</ele>
        <time>2012-04-07T13:43:08Z</time>
      </trkpt>
      <trkpt lat="45.83879" lon="4.80186">
        <ele>506</ele>
        <time>2012-04-07T13:43:11Z</time>
      </trkpt>
      <trkpt lat="45.83876" lon="4.80173">
        <ele>506</ele>
        <time>2012-04-07T13:43:14Z</time>
      </trkpt>
      <trkpt lat="45.83872" lon="4.80159">
        <ele>506</ele>
        <time>2012-04-07T13:43:17Z</time>
      </trkpt>
      <trkpt lat="45.83868" lon="4.80144">
        <ele>506</ele>
        <time>2012-04-07T13:43:20Z</time>
      </trkpt>
      <trkpt lat="45.83865" lon="4.80131">
        <ele>508</ele>
        <time>2012-04-07T13:43:23Z</time>
      </trkpt>
      <trkpt lat="45.83862" lon="4.80118">
        <ele>511</ele>
        <time>2012-04-07T13:43:26Z</time>
      </trkpt>
      <trkpt lat="45.83858" lon="4.80103">
        <ele>514</ele>
        <time>2012-04-07T13:43:29Z</time>
      </trkpt>
      <trkpt lat="45.83855" lon="4.80089">
        <ele>517</ele>
        <time>2012-04-07T13:43:32Z</time>
      </trkpt>
      <trkpt lat="45.83852" lon="4.80073">
        <ele>520</ele>
        <time>2012-04-07T13:43:35Z</time>
      </trkpt>
      <trkpt lat="45.8385" lon="4.80056">
        <ele>522</ele>
        <time>2012-04-07T13:43:38Z</time>
      </trkpt>
      <trkpt lat="45.83847" lon="4.8004">
        <ele>522</ele>
        <time>2012-04-07T13:43:41Z</time>
      </trkpt>
      <trkpt lat="45.83846" lon="4.80026">
        <ele>522</ele>
        <time>2012-04-07T13:43:44Z</time>
      </trkpt>
      <trkpt lat="45.83844" lon="4.80013">
        <ele>522</ele>
        <time>2012-04-07T13:43:47Z</time>
      </trkpt>
      <trkpt lat="45.83842" lon="4.8">
        <ele>520</ele>
        <time>2012-04-07T13:43:50Z</time>
      </trkpt>
      <trkpt lat="45.83839" lon="4.79988">
        <ele>518</ele>
        <time>2012-04-07T13:43:53Z</time>
      </trkpt>
      <trkpt lat="45.83833" lon="4.79976">
        <ele>517</ele>
        <time>2012-04-07T13:43:56Z</time>
      </trkpt>
      <trkpt lat="45.83827" lon="4.79965">
        <ele>517</ele>
        <time>2012-04-07T13:43:59Z</time>
      </trkpt>
      <trkpt lat="45.83819" lon="4.79957">
        <ele>517</ele>
        <time>2012-04-07T13:44:02Z</time>
      </trkpt>
      <trkpt lat="45.83811" lon="4.79951">
        <ele>517</ele>
        <time>2012-04-07T13:44:05Z</time>
      </trkpt>
      <trkpt lat="45.83803" lon="4.79946">
        <ele>517</ele>
        <time>2012-04-07T13:44:08Z</time>
      </trkpt>
      <trkpt lat="45.83795" lon="4.79941">
        <ele>517</ele>
        <time>2012-04-07T13:44:11Z</time>
      </trkpt>
      <trkpt lat="45.83788" lon="4.79937">
        <ele>517</ele>
        <time>2012-04-07T13:44:14Z</time>
      </trkpt>
      <trkpt lat="45.83782" lon="4.79932">
        <ele>517</ele>
        <time>2012-04-07T13:44:17Z</time>
      </trkpt>
      <trkpt lat="45.83776" lon="4.79925">
        <ele>517</ele>
        <time>2012-04-07T13:44:20Z</time>
      </trkpt>
      <trkpt lat="45.83773" lon="4.79917">
        <ele>517</ele>
        <time>2012-04-07T13:44:23Z</time>
      </trkpt>
      <trkpt lat="45.8377" lon="4.79906">
        <ele>517</ele>
        <time>2012-04-07T13:44:26Z</time>
      </trkpt>
      <trkpt lat="45.83772" lon="4.79888">
        <ele>518</ele>
        <time>2012-04-07T13:44:30Z</time>
      </trkpt>
      <trkpt lat="45.83775" lon="4.79877">
        <ele>520</ele>
        <time>2012-04-07T13:44:33Z</time>
      </trkpt>
      <trkpt lat="45.83781" lon="4.79866">
        <ele>521</ele>
        <time>2012-04-07T13:44:36Z</time>
      </trkpt>
      <trkpt lat="45.83786" lon="4.79855">
        <ele>522</ele>
        <time>2012-04-07T13:44:39Z</time>
      </trkpt>
      <trkpt lat="45.83791" lon="4.79844">
        <ele>522</ele>
        <time>2012-04-07T13:44:42Z</time>
      </trkpt>
      <trkpt lat="45.83796" lon="4.79833">
        <ele>523</ele>
        <time>2012-04-07T13:44:45Z</time>
      </trkpt>
      <trkpt lat="45.838" lon="4.79824">
        <ele>523</ele>
        <time>2012-04-07T13:44:48Z</time>
      </trkpt>
      <trkpt lat="45.83806" lon="4.79813">
        <ele>525</ele>
        <time>2012-04-07T13:44:51Z</time>
      </trkpt>
      <trkpt lat="45.8381" lon="4.79802">
        <ele>526</ele>
        <time>2012-04-07T13:44:54Z</time>
      </trkpt>
      <trkpt lat="45.83815" lon="4.7979">
        <ele>527</ele>
        <time>2012-04-07T13:44:57Z</time>
      </trkpt>
      <trkpt lat="45.83819" lon="4.79779">
        <ele>529</ele>
        <time>2012-04-07T13:45:00Z</time>
      </trkpt>
      <trkpt lat="45.83823" lon="4.79769">
        <ele>531</ele>
        <time>2012-04-07T13:45:03Z</time>
      </trkpt>
      <trkpt lat="45.83828" lon="4.79758">
        <ele>532</ele>
        <time>2012-04-07T13:45:06Z</time>
      </trkpt>
      <trkpt lat="45.83833" lon="4.79747">
        <ele>533</ele>
        <time>2012-04-07T13:45:09Z</time>
      </trkpt>
      <trkpt lat="45.83837" lon="4.79737">
        <ele>534</ele>
        <time>2012-04-07T13:45:12Z</time>
      </trkpt>
      <trkpt lat="45.83841" lon="4.79723">
        <ele>534</ele>
        <time>2012-04-07T13:45:15Z</time>
      </trkpt>
      <trkpt lat="45.83845" lon="4.79709">
        <ele>534</ele>
        <time>2012-04-07T13:45:18Z</time>
      </trkpt>
      <trkpt lat="45.83849" lon="4.79696">
        <ele>534</ele>
        <time>2012-04-07T13:45:21Z</time>
      </trkpt>
      <trkpt lat="45.83851" lon="4.79682">
        <ele>534</ele>
        <time>2012-04-07T13:45:24Z</time>
      </trkpt>
      <trkpt lat="45.83855" lon="4.79669">
        <ele>535</ele>
        <time>2012-04-07T13:45:27Z</time>
      </trkpt>
      <trkpt lat="45.83858" lon="4.79654">
        <ele>537</ele>
        <time>2012-04-07T13:45:30Z</time>
      </trkpt>
      <trkpt lat="45.83864" lon="4.79639">
        <ele>538</ele>
        <time>2012-04-07T13:45:33Z</time>
      </trkpt>
      <trkpt lat="45.8387" lon="4.79621">
        <ele>538</ele>
        <time>2012-04-07T13:45:36Z</time>
      </trkpt>
      <trkpt lat="45.83875" lon="4.79606">
        <ele>538</ele>
        <time>2012-04-07T13:45:39Z</time>
      </trkpt>
      <trkpt lat="45.83881" lon="4.79591">
        <ele>538</ele>
        <time>2012-04-07T13:45:42Z</time>
      </trkpt>
      <trkpt lat="45.83887" lon="4.79576">
        <ele>538</ele>
        <time>2012-04-07T13:45:45Z</time>
      </trkpt>
      <trkpt lat="45.83894" lon="4.79562">
        <ele>538</ele>
        <time>2012-04-07T13:45:48Z</time>
      </trkpt>
      <trkpt lat="45.83902" lon="4.79547">
        <ele>538</ele>
        <time>2012-04-07T13:45:51Z</time>
      </trkpt>
      <trkpt lat="45.83911" lon="4.79532">
        <ele>537</ele>
        <time>2012-04-07T13:45:54Z</time>
      </trkpt>
      <trkpt lat="45.83921" lon="4.7952">
        <ele>537</ele>
        <time>2012-04-07T13:45:57Z</time>
      </trkpt>
      <trkpt lat="45.83932" lon="4.79508">
        <ele>537</ele>
        <time>2012-04-07T13:46:00Z</time>
      </trkpt>
      <trkpt lat="45.83943" lon="4.79499">
        <ele>536</ele>
        <time>2012-04-07T13:46:03Z</time>
      </trkpt>
      <trkpt lat="45.83954" lon="4.7949">
        <ele>535</ele>
        <time>2012-04-07T13:46:06Z</time>
      </trkpt>
      <trkpt lat="45.83968" lon="4.79475">
        <ele>535</ele>
        <time>2012-04-07T13:46:10Z</time>
      </trkpt>
      <trkpt lat="45.83979" lon="4.79463">
        <ele>535</ele>
        <time>2012-04-07T13:46:13Z</time>
      </trkpt>
      <trkpt lat="45.83991" lon="4.79453">
        <ele>535</ele>
        <time>2012-04-07T13:46:16Z</time>
      </trkpt>
      <trkpt lat="45.84005" lon="4.79446">
        <ele>535</ele>
        <time>2012-04-07T13:46:19Z</time>
      </trkpt>
      <trkpt lat="45.84016" lon="4.79436">
        <ele>535</ele>
        <time>2012-04-07T13:46:22Z</time>
      </trkpt>
      <trkpt lat="45.84027" lon="4.79428">
        <ele>535</ele>
        <time>2012-04-07T13:46:25Z</time>
      </trkpt>
      <trkpt lat="45.84042" lon="4.79414">
        <ele>535</ele>
        <time>2012-04-07T13:46:29Z</time>
      </trkpt>
      <trkpt lat="45.84054" lon="4.79404">
        <ele>535</ele>
        <time>2012-04-07T13:46:32Z</time>
      </trkpt>
      <trkpt lat="45.84069" lon="4.79394">
        <ele>535</ele>
        <time>2012-04-07T13:46:35Z</time>
      </trkpt>
      <trkpt lat="45.84084" lon="4.79382">
        <ele>535</ele>
        <time>2012-04-07T13:46:38Z</time>
      </trkpt>
      <trkpt lat="45.84102" lon="4.7937">
        <ele>535</ele>
        <time>2012-04-07T13:46:41Z</time>
      </trkpt>
      <trkpt lat="45.84121" lon="4.79358">
        <ele>535</ele>
        <time>2012-04-07T13:46:44Z</time>
      </trkpt>
      <trkpt lat="45.84142" lon="4.79347">
        <ele>535</ele>
        <time>2012-04-07T13:46:47Z</time>
      </trkpt>
      <trkpt lat="45.84162" lon="4.7934">
        <ele>535</ele>
        <time>2012-04-07T13:46:50Z</time>
      </trkpt>
      <trkpt lat="45.84178" lon="4.79336">
        <ele>532</ele>
        <time>2012-04-07T13:46:53Z</time>
      </trkpt>
      <trkpt lat="45.84184" lon="4.79331">
        <ele>531</ele>
        <time>2012-04-07T13:46:56Z</time>
      </trkpt>
      <trkpt lat="45.84186" lon="4.7933">
        <ele>530</ele>
        <time>2012-04-07T13:47:06Z</time>
      </trkpt>
      <trkpt lat="45.84187" lon="4.7933">
        <ele>530</ele>
        <time>2012-04-07T13:47:10Z</time>
      </trkpt>
      <trkpt lat="45.84188" lon="4.79332">
        <ele>527</ele>
        <time>2012-04-07T13:47:16Z</time>
      </trkpt>
      <trkpt lat="45.8419" lon="4.79334">
        <ele>526</ele>
        <time>2012-04-07T13:47:20Z</time>
      </trkpt>
      <trkpt lat="45.84192" lon="4.79338">
        <ele>524</ele>
        <time>2012-04-07T13:47:24Z</time>
      </trkpt>
      <trkpt lat="45.84195" lon="4.7934">
        <ele>523</ele>
        <time>2012-04-07T13:47:28Z</time>
      </trkpt>
      <trkpt lat="45.84194" lon="4.79342">
        <ele>523</ele>
        <time>2012-04-07T13:47:35Z</time>
      </trkpt>
      <trkpt lat="45.84195" lon="4.79344">
        <ele>520</ele>
        <time>2012-04-07T13:47:44Z</time>
      </trkpt>
      <trkpt lat="45.84194" lon="4.79346">
        <ele>516</ele>
        <time>2012-04-07T13:47:56Z</time>
      </trkpt>
      <trkpt lat="45.84193" lon="4.79347">
        <ele>515</ele>
        <time>2012-04-07T13:48:02Z</time>
      </trkpt>
      <trkpt lat="45.84193" lon="4.79349">
        <ele>515</ele>
        <time>2012-04-07T13:48:18Z</time>
      </trkpt>
      <trkpt lat="45.84192" lon="4.7935">
        <ele>515</ele>
        <time>2012-04-07T13:48:23Z</time>
      </trkpt>
      <trkpt lat="45.84191" lon="4.7935">
        <ele>515</ele>
        <time>2012-04-07T13:48:32Z</time>
      </trkpt>
      <trkpt lat="45.8419" lon="4.79351">
        <ele>515</ele>
        <time>2012-04-07T13:48:39Z</time>
      </trkpt>
      <trkpt lat="45.84189" lon="4.79352">
        <ele>518</ele>
        <time>2012-04-07T13:48:52Z</time>
      </trkpt>
      <trkpt lat="45.8419" lon="4.79352">
        <ele>518</ele>
        <time>2012-04-07T13:49:07Z</time>
      </trkpt>
      <trkpt lat="45.84191" lon="4.79352">
        <ele>518</ele>
        <time>2012-04-07T13:49:11Z</time>
      </trkpt>
      <trkpt lat="45.84193" lon="4.79351">
        <ele>518</ele>
        <time>2012-04-07T13:49:14Z</time>
      </trkpt>
      <trkpt lat="45.84194" lon="4.79351">
        <ele>517</ele>
        <time>2012-04-07T13:49:21Z</time>
      </trkpt>
      <trkpt lat="45.84194" lon="4.7935">
        <ele>517</ele>
        <time>2012-04-07T13:49:30Z</time>
      </trkpt>
      <trkpt lat="45.84194" lon="4.79348">
        <ele>514</ele>
        <time>2012-04-07T13:49:49Z</time>
      </trkpt>
      <trkpt lat="45.84195" lon="4.79346">
        <ele>514</ele>
        <time>2012-04-07T13:49:55Z</time>
      </trkpt>
      <trkpt lat="45.84196" lon="4.79345">
        <ele>514</ele>
        <time>2012-04-07T13:49:59Z</time>
      </trkpt>
      <trkpt lat="45.84197" lon="4.79343">
        <ele>514</ele>
        <time>2012-04-07T13:50:04Z</time>
      </trkpt>
      <trkpt lat="45.84198" lon="4.79342">
        <ele>514</ele>
        <time>2012-04-07T13:50:15Z</time>
      </trkpt>
      <trkpt lat="45.84199" lon="4.79343">
        <ele>514</ele>
        <time>2012-04-07T13:50:41Z</time>
      </trkpt>
      <trkpt lat="45.84198" lon="4.79343">
        <ele>514</ele>
        <time>2012-04-07T13:51:16Z</time>
      </trkpt>
      <trkpt lat="45.84196" lon="4.79342">
        <ele>514</ele>
        <time>2012-04-07T13:51:24Z</time>
      </trkpt>
      <trkpt lat="45.84198" lon="4.79343">
        <ele>516</ele>
        <time>2012-04-07T13:52:10Z</time>
      </trkpt>
      <trkpt lat="45.84199" lon="4.79344">
        <ele>517</ele>
        <time>2012-04-07T13:52:54Z</time>
      </trkpt>
      <trkpt lat="45.84199" lon="4.79342">
        <ele>517</ele>
        <time>2012-04-07T13:53:26Z</time>
      </trkpt>
      <trkpt lat="45.842" lon="4.79341">
        <ele>517</ele>
        <time>2012-04-07T13:53:33Z</time>
      </trkpt>
      <trkpt lat="45.842" lon="4.79343">
        <ele>518</ele>
        <time>2012-04-07T13:53:43Z</time>
      </trkpt>
      <trkpt lat="45.84198" lon="4.79344">
        <ele>518</ele>
        <time>2012-04-07T13:53:47Z</time>
      </trkpt>
      <trkpt lat="45.84197" lon="4.79345">
        <ele>518</ele>
        <time>2012-04-07T13:53:52Z</time>
      </trkpt>
      <trkpt lat="45.84197" lon="4.79343">
        <ele>521</ele>
        <time>2012-04-07T13:54:09Z</time>
      </trkpt>
      <trkpt lat="45.84198" lon="4.79342">
        <ele>523</ele>
        <time>2012-04-07T13:54:20Z</time>
      </trkpt>
      <trkpt lat="45.84199" lon="4.79341">
        <ele>525</ele>
        <time>2012-04-07T13:54:35Z</time>
      </trkpt>
      <trkpt lat="45.84199" lon="4.79339">
        <ele>526</ele>
        <time>2012-04-07T13:54:47Z</time>
      </trkpt>
      <trkpt lat="45.84198" lon="4.7934">
        <ele>528</ele>
        <time>2012-04-07T13:55:01Z</time>
      </trkpt>
      <trkpt lat="45.84197" lon="4.79338">
        <ele>530</ele>
        <time>2012-04-07T13:55:37Z</time>
      </trkpt>
      <trkpt lat="45.84196" lon="4.79336">
        <ele>533</ele>
        <time>2012-04-07T13:55:45Z</time>
      </trkpt>
      <trkpt lat="45.84195" lon="4.79336">
        <ele>534</ele>
        <time>2012-04-07T13:55:57Z</time>
      </trkpt>
      <trkpt lat="45.84194" lon="4.79336">
        <ele>534</ele>
        <time>2012-04-07T13:56:11Z</time>
      </trkpt>
      <trkpt lat="45.84193" lon="4.79336">
        <ele>534</ele>
        <time>2012-04-07T13:56:21Z</time>
      </trkpt>
      <trkpt lat="45.84195" lon="4.79336">
        <ele>533</ele>
        <time>2012-04-07T13:56:30Z</time>
      </trkpt>
      <trkpt lat="45.84196" lon="4.79336">
        <ele>531</ele>
        <time>2012-04-07T13:56:37Z</time>
      </trkpt>
      <trkpt lat="45.84197" lon="4.79338">
        <ele>530</ele>
        <time>2012-04-07T13:56:42Z</time>
      </trkpt>
      <trkpt lat="45.84198" lon="4.79339">
        <ele>529</ele>
        <time>2012-04-07T13:56:45Z</time>
      </trkpt>
      <trkpt lat="45.84197" lon="4.79337">
        <ele>528</ele>
        <time>2012-04-07T13:56:49Z</time>
      </trkpt>
      <trkpt lat="45.84195" lon="4.79333">
        <ele>526</ele>
        <time>2012-04-07T13:56:52Z</time>
      </trkpt>
      <trkpt lat="45.84187" lon="4.79325">
        <ele>523</ele>
        <time>2012-04-07T13:56:56Z</time>
      </trkpt>
      <trkpt lat="45.84177" lon="4.79321">
        <ele>522</ele>
        <time>2012-04-07T13:56:59Z</time>
      </trkpt>
      <trkpt lat="45.84163" lon="4.79317">
        <ele>520</ele>
        <time>2012-04-07T13:57:02Z</time>
      </trkpt>
      <trkpt lat="45.84145" lon="4.7931">
        <ele>519</ele>
        <time>2012-04-07T13:57:05Z</time>
      </trkpt>
      <trkpt lat="45.84127" lon="4.79303">
        <ele>518</ele>
        <time>2012-04-07T13:57:08Z</time>
      </trkpt>
      <trkpt lat="45.84105" lon="4.79294">
        <ele>517</ele>
        <time>2012-04-07T13:57:11Z</time>
      </trkpt>
      <trkpt lat="45.8408" lon="4.79286">
        <ele>515</ele>
        <time>2012-04-07T13:57:14Z</time>
      </trkpt>
      <trkpt lat="45.84042" lon="4.79282">
        <ele>513</ele>
        <time>2012-04-07T13:57:18Z</time>
      </trkpt>
      <trkpt lat="45.84" lon="4.79289">
        <ele>510</ele>
        <time>2012-04-07T13:57:22Z</time>
      </trkpt>
      <trkpt lat="45.83966" lon="4.79297">
        <ele>507</ele>
        <time>2012-04-07T13:57:25Z</time>
      </trkpt>
      <trkpt lat="45.8393" lon="4.79301">
        <ele>504</ele>
        <time>2012-04-07T13:57:28Z</time>
      </trkpt>
      <trkpt lat="45.83893" lon="4.79302">
        <ele>501</ele>
        <time>2012-04-07T13:57:31Z</time>
      </trkpt>
      <trkpt lat="45.83857" lon="4.79314">
        <ele>498</ele>
        <time>2012-04-07T13:57:34Z</time>
      </trkpt>
      <trkpt lat="45.83819" lon="4.79328">
        <ele>495</ele>
        <time>2012-04-07T13:57:37Z</time>
      </trkpt>
      <trkpt lat="45.83782" lon="4.79339">
        <ele>492</ele>
        <time>2012-04-07T13:57:40Z</time>
      </trkpt>
      <trkpt lat="45.83744" lon="4.79344">
        <ele>489</ele>
        <time>2012-04-07T13:57:43Z</time>
      </trkpt>
      <trkpt lat="45.83706" lon="4.79346">
        <ele>488</ele>
        <time>2012-04-07T13:57:46Z</time>
      </trkpt>
      <trkpt lat="45.83669" lon="4.79349">
        <ele>486</ele>
        <time>2012-04-07T13:57:49Z</time>
      </trkpt>
      <trkpt lat="45.83631" lon="4.79353">
        <ele>484</ele>
        <time>2012-04-07T13:57:52Z</time>
      </trkpt>
      <trkpt lat="45.83593" lon="4.79355">
        <ele>482</ele>
        <time>2012-04-07T13:57:55Z</time>
      </trkpt>
      <trkpt lat="45.83556" lon="4.79358">
        <ele>480</ele>
        <time>2012-04-07T13:57:58Z</time>
      </trkpt>
      <trkpt lat="45.83519" lon="4.79361">
        <ele>479</ele>
        <time>2012-04-07T13:58:01Z</time>
      </trkpt>
      <trkpt lat="45.83485" lon="4.79369">
        <ele>478</ele>
        <time>2012-04-07T13:58:04Z</time>
      </trkpt>
      <trkpt lat="45.83453" lon="4.79367">
        <ele>478</ele>
        <time>2012-04-07T13:58:07Z</time>
      </trkpt>
      <trkpt lat="45.83423" lon="4.79358">
        <ele>478</ele>
        <time>2012-04-07T13:58:10Z</time>
      </trkpt>
      <trkpt lat="45.83394" lon="4.79349">
        <ele>478</ele>
        <time>2012-04-07T13:58:13Z</time>
      </trkpt>
      <trkpt lat="45.83368" lon="4.79345">
        <ele>478</ele>
        <time>2012-04-07T13:58:16Z</time>
      </trkpt>
      <trkpt lat="45.83341" lon="4.79342">
        <ele>478</ele>
        <time>2012-04-07T13:58:19Z</time>
      </trkpt>
      <trkpt lat="45.83316" lon="4.79339">
        <ele>478</ele>
        <time>2012-04-07T13:58:22Z</time>
      </trkpt>
      <trkpt lat="45.83292" lon="4.79334">
        <ele>478</ele>
        <time>2012-04-07T13:58:25Z</time>
      </trkpt>
      <trkpt lat="45.83268" lon="4.79327">
        <ele>478</ele>
        <time>2012-04-07T13:58:28Z</time>
      </trkpt>
      <trkpt lat="45.83245" lon="4.79319">
        <ele>478</ele>
        <time>2012-04-07T13:58:31Z</time>
      </trkpt>
      <trkpt lat="45.83215" lon="4.79312">
        <ele>478</ele>
        <time>2012-04-07T13:58:35Z</time>
      </trkpt>
      <trkpt lat="45.83192" lon="4.79306">
        <ele>478</ele>
        <time>2012-04-07T13:58:38Z</time>
      </trkpt>
      <trkpt lat="45.83168" lon="4.793">
        <ele>478</ele>
        <time>2012-04-07T13:58:41Z</time>
      </trkpt>
      <trkpt lat="45.83146" lon="4.79295">
        <ele>478</ele>
        <time>2012-04-07T13:58:44Z</time>
      </trkpt>
      <trkpt lat="45.83121" lon="4.79291">
        <ele>478</ele>
        <time>2012-04-07T13:58:47Z</time>
      </trkpt>
      <trkpt lat="45.83096" lon="4.79286">
        <ele>478</ele>
        <time>2012-04-07T13:58:50Z</time>
      </trkpt>
      <trkpt lat="45.83069" lon="4.79282">
        <ele>478</ele>
        <time>2012-04-07T13:58:53Z</time>
      </trkpt>
      <trkpt lat="45.8303" lon="4.79285">
        <ele>478</ele>
        <time>2012-04-07T13:58:57Z</time>
      </trkpt>
      <trkpt lat="45.83" lon="4.79288">
        <ele>476</ele>
        <time>2012-04-07T13:59:00Z</time>
      </trkpt>
      <trkpt lat="45.82961" lon="4.79299">
        <ele>474</ele>
        <time>2012-04-07T13:59:04Z</time>
      </trkpt>
      <trkpt lat="45.82932" lon="4.79307">
        <ele>471</ele>
        <time>2012-04-07T13:59:07Z</time>
      </trkpt>
      <trkpt lat="45.82903" lon="4.79302">
        <ele>468</ele>
        <time>2012-04-07T13:59:10Z</time>
      </trkpt>
      <trkpt lat="45.82878" lon="4.79281">
        <ele>465</ele>
        <time>2012-04-07T13:59:13Z</time>
      </trkpt>
      <trkpt lat="45.82862" lon="4.79245">
        <ele>463</ele>
        <time>2012-04-07T13:59:16Z</time>
      </trkpt>
      <trkpt lat="45.82851" lon="4.79206">
        <ele>462</ele>
        <time>2012-04-07T13:59:19Z</time>
      </trkpt>
      <trkpt lat="45.82841" lon="4.79169">
        <ele>461</ele>
        <time>2012-04-07T13:59:22Z</time>
      </trkpt>
      <trkpt lat="45.82826" lon="4.79138">
        <ele>461</ele>
        <time>2012-04-07T13:59:25Z</time>
      </trkpt>
      <trkpt lat="45.828" lon="4.79124">
        <ele>459</ele>
        <time>2012-04-07T13:59:28Z</time>
      </trkpt>
      <trkpt lat="45.82771" lon="4.79117">
        <ele>456</ele>
        <time>2012-04-07T13:59:31Z</time>
      </trkpt>
      <trkpt lat="45.82742" lon="4.79113">
        <ele>454</ele>
        <time>2012-04-07T13:59:34Z</time>
      </trkpt>
      <trkpt lat="45.82721" lon="4.79109">
        <ele>452</ele>
        <time>2012-04-07T13:59:37Z</time>
      </trkpt>
      <trkpt lat="45.82706" lon="4.79106">
        <ele>451</ele>
        <time>2012-04-07T13:59:40Z</time>
      </trkpt>
      <trkpt lat="45.82694" lon="4.79102">
        <ele>450</ele>
        <time>2012-04-07T13:59:43Z</time>
      </trkpt>
      <trkpt lat="45.8269" lon="4.79089">
        <ele>450</ele>
        <time>2012-04-07T13:59:46Z</time>
      </trkpt>
      <trkpt lat="45.82692" lon="4.7908">
        <ele>450</ele>
        <time>2012-04-07T13:59:49Z</time>
      </trkpt>
      <trkpt lat="45.82691" lon="4.79081">
        <ele>450</ele>
        <time>2012-04-07T13:59:52Z</time>
      </trkpt>
      <trkpt lat="45.8269" lon="4.7909">
        <ele>450</ele>
        <time>2012-04-07T13:59:55Z</time>
      </trkpt>
      <trkpt lat="45.8269" lon="4.79097">
        <ele>450</ele>
        <time>2012-04-07T13:59:59Z</time>
      </trkpt>
      <trkpt lat="45.82691" lon="4.79095">
        <ele>450</ele>
        <time>2012-04-07T14:00:06Z</time>
      </trkpt>
      <trkpt lat="45.82691" lon="4.79092">
        <ele>449</ele>
        <time>2012-04-07T14:00:19Z</time>
      </trkpt>
      <trkpt lat="45.82692" lon="4.79085">
        <ele>449</ele>
        <time>2012-04-07T14:00:22Z</time>
      </trkpt>
      <trkpt lat="45.82695" lon="4.79075">
        <ele>449</ele>
        <time>2012-04-07T14:00:25Z</time>
      </trkpt>
      <trkpt lat="45.82699" lon="4.79062">
        <ele>449</ele>
        <time>2012-04-07T14:00:28Z</time>
      </trkpt>
      <trkpt lat="45.82704" lon="4.79049">
        <ele>449</ele>
        <time>2012-04-07T14:00:31Z</time>
      </trkpt>
      <trkpt lat="45.82708" lon="4.79039">
        <ele>449</ele>
        <time>2012-04-07T14:00:34Z</time>
      </trkpt>
      <trkpt lat="45.82714" lon="4.79025">
        <ele>449</ele>
        <time>2012-04-07T14:00:37Z</time>
      </trkpt>
      <trkpt lat="45.8272" lon="4.79003">
        <ele>449</ele>
        <time>2012-04-07T14:00:40Z</time>
      </trkpt>
      <trkpt lat="45.82729" lon="4.78985">
        <ele>449</ele>
        <time>2012-04-07T14:00:43Z</time>
      </trkpt>
      <trkpt lat="45.82744" lon="4.78969">
        <ele>447</ele>
        <time>2012-04-07T14:00:46Z</time>
      </trkpt>
      <trkpt lat="45.82761" lon="4.78955">
        <ele>446</ele>
        <time>2012-04-07T14:00:49Z</time>
      </trkpt>
      <trkpt lat="45.82776" lon="4.78941">
        <ele>446</ele>
        <time>2012-04-07T14:00:52Z</time>
      </trkpt>
      <trkpt lat="45.82795" lon="4.78923">
        <ele>446</ele>
        <time>2012-04-07T14:00:56Z</time>
      </trkpt>
      <trkpt lat="45.82809" lon="4.78911">
        <ele>446</ele>
        <time>2012-04-07T14:00:59Z</time>
      </trkpt>
      <trkpt lat="45.82823" lon="4.78901">
        <ele>446</ele>
        <time>2012-04-07T14:01:02Z</time>
      </trkpt>
      <trkpt lat="45.82835" lon="4.78891">
        <ele>446</ele>
        <time>2012-04-07T14:01:05Z</time>
      </trkpt>
      <trkpt lat="45.82846" lon="4.78881">
        <ele>446</ele>
        <time>2012-04-07T14:01:08Z</time>
      </trkpt>
      <trkpt lat="45.82857" lon="4.78872">
        <ele>446</ele>
        <time>2012-04-07T14:01:11Z</time>
      </trkpt>
      <trkpt lat="45.82868" lon="4.78864">
        <ele>446</ele>
        <time>2012-04-07T14:01:14Z</time>
      </trkpt>
      <trkpt lat="45.8288" lon="4.78857">
        <ele>447</ele>
        <time>2012-04-07T14:01:17Z</time>
      </trkpt>
      <trkpt lat="45.82891" lon="4.78851">
        <ele>449</ele>
        <time>2012-04-07T14:01:20Z</time>
      </trkpt>
      <trkpt lat="45.82901" lon="4.78844">
        <ele>451</ele>
        <time>2012-04-07T14:01:23Z</time>
      </trkpt>
      <trkpt lat="45.82912" lon="4.78838">
        <ele>453</ele>
        <time>2012-04-07T14:01:26Z</time>
      </trkpt>
      <trkpt lat="45.82921" lon="4.78833">
        <ele>455</ele>
        <time>2012-04-07T14:01:29Z</time>
      </trkpt>
      <trkpt lat="45.8293" lon="4.78826">
        <ele>457</ele>
        <time>2012-04-07T14:01:32Z</time>
      </trkpt>
      <trkpt lat="45.8294" lon="4.78817">
        <ele>457</ele>
        <time>2012-04-07T14:01:35Z</time>
      </trkpt>
      <trkpt lat="45.82956" lon="4.78804">
        <ele>457</ele>
        <time>2012-04-07T14:01:38Z</time>
      </trkpt>
      <trkpt lat="45.82973" lon="4.78788">
        <ele>456</ele>
        <time>2012-04-07T14:01:41Z</time>
      </trkpt>
      <trkpt lat="45.82991" lon="4.78768">
        <ele>454</ele>
        <time>2012-04-07T14:01:44Z</time>
      </trkpt>
      <trkpt lat="45.83006" lon="4.78748">
        <ele>454</ele>
        <time>2012-04-07T14:01:47Z</time>
      </trkpt>
      <trkpt lat="45.83019" lon="4.78726">
        <ele>452</ele>
        <time>2012-04-07T14:01:50Z</time>
      </trkpt>
      <trkpt lat="45.83033" lon="4.78696">
        <ele>451</ele>
        <time>2012-04-07T14:01:54Z</time>
      </trkpt>
      <trkpt lat="45.83042" lon="4.78675">
        <ele>451</ele>
        <time>2012-04-07T14:01:57Z</time>
      </trkpt>
      <trkpt lat="45.83052" lon="4.78654">
        <ele>451</ele>
        <time>2012-04-07T14:02:00Z</time>
      </trkpt>
      <trkpt lat="45.83062" lon="4.78635">
        <ele>451</ele>
        <time>2012-04-07T14:02:03Z</time>
      </trkpt>
      <trkpt lat="45.8307" lon="4.78615">
        <ele>451</ele>
        <time>2012-04-07T14:02:06Z</time>
      </trkpt>
      <trkpt lat="45.8308" lon="4.78594">
        <ele>451</ele>
        <time>2012-04-07T14:02:09Z</time>
      </trkpt>
      <trkpt lat="45.83093" lon="4.78572">
        <ele>451</ele>
        <time>2012-04-07T14:02:12Z</time>
      </trkpt>
      <trkpt lat="45.8312" lon="4.78544">
        <ele>451</ele>
        <time>2012-04-07T14:02:16Z</time>
      </trkpt>
      <trkpt lat="45.83146" lon="4.78526">
        <ele>449</ele>
        <time>2012-04-07T14:02:19Z</time>
      </trkpt>
      <trkpt lat="45.83172" lon="4.78508">
        <ele>449</ele>
        <time>2012-04-07T14:02:22Z</time>
      </trkpt>
      <trkpt lat="45.83195" lon="4.78479">
        <ele>448</ele>
        <time>2012-04-07T14:02:25Z</time>
      </trkpt>
      <trkpt lat="45.83224" lon="4.78448">
        <ele>446</ele>
        <time>2012-04-07T14:02:29Z</time>
      </trkpt>
      <trkpt lat="45.83243" lon="4.78425">
        <ele>445</ele>
        <time>2012-04-07T14:02:32Z</time>
      </trkpt>
      <trkpt lat="45.83252" lon="4.78394">
        <ele>445</ele>
        <time>2012-04-07T14:02:35Z</time>
      </trkpt>
      <trkpt lat="45.83261" lon="4.78363">
        <ele>445</ele>
        <time>2012-04-07T14:02:38Z</time>
      </trkpt>
      <trkpt lat="45.83269" lon="4.78316">
        <ele>445</ele>
        <time>2012-04-07T14:02:42Z</time>
      </trkpt>
      <trkpt lat="45.83261" lon="4.78272">
        <ele>445</ele>
        <time>2012-04-07T14:02:45Z</time>
      </trkpt>
      <trkpt lat="45.83254" lon="4.78233">
        <ele>445</ele>
        <time>2012-04-07T14:02:48Z</time>
      </trkpt>
      <trkpt lat="45.83246" lon="4.78197">
        <ele>445</ele>
        <time>2012-04-07T14:02:51Z</time>
      </trkpt>
      <trkpt lat="45.83239" lon="4.78163">
        <ele>447</ele>
        <time>2012-04-07T14:02:54Z</time>
      </trkpt>
      <trkpt lat="45.83242" lon="4.78133">
        <ele>449</ele>
        <time>2012-04-07T14:02:57Z</time>
      </trkpt>
      <trkpt lat="45.83257" lon="4.78113">
        <ele>449</ele>
        <time>2012-04-07T14:03:00Z</time>
      </trkpt>
      <trkpt lat="45.83273" lon="4.78099">
        <ele>449</ele>
        <time>2012-04-07T14:03:03Z</time>
      </trkpt>
      <trkpt lat="45.83288" lon="4.78085">
        <ele>447</ele>
        <time>2012-04-07T14:03:06Z</time>
      </trkpt>
      <trkpt lat="45.83307" lon="4.78072">
        <ele>444</ele>
        <time>2012-04-07T14:03:09Z</time>
      </trkpt>
      <trkpt lat="45.83326" lon="4.78058">
        <ele>443</ele>
        <time>2012-04-07T14:03:12Z</time>
      </trkpt>
      <trkpt lat="45.8335" lon="4.7805">
        <ele>443</ele>
        <time>2012-04-07T14:03:15Z</time>
      </trkpt>
      <trkpt lat="45.83372" lon="4.78044">
        <ele>443</ele>
        <time>2012-04-07T14:03:18Z</time>
      </trkpt>
      <trkpt lat="45.8339" lon="4.78033">
        <ele>443</ele>
        <time>2012-04-07T14:03:21Z</time>
      </trkpt>
      <trkpt lat="45.83405" lon="4.78016">
        <ele>441</ele>
        <time>2012-04-07T14:03:24Z</time>
      </trkpt>
      <trkpt lat="45.83415" lon="4.77994">
        <ele>441</ele>
        <time>2012-04-07T14:03:27Z</time>
      </trkpt>
      <trkpt lat="45.8342" lon="4.7797">
        <ele>441</ele>
        <time>2012-04-07T14:03:30Z</time>
      </trkpt>
      <trkpt lat="45.83423" lon="4.77948">
        <ele>441</ele>
        <time>2012-04-07T14:03:33Z</time>
      </trkpt>
      <trkpt lat="45.83426" lon="4.77922">
        <ele>441</ele>
        <time>2012-04-07T14:03:37Z</time>
      </trkpt>
      <trkpt lat="45.83435" lon="4.77902">
        <ele>441</ele>
        <time>2012-04-07T14:03:40Z</time>
      </trkpt>
      <trkpt lat="45.83448" lon="4.7788">
        <ele>441</ele>
        <time>2012-04-07T14:03:43Z</time>
      </trkpt>
      <trkpt lat="45.83469" lon="4.77864">
        <ele>441</ele>
        <time>2012-04-07T14:03:46Z</time>
      </trkpt>
      <trkpt lat="45.83496" lon="4.77863">
        <ele>442</ele>
        <time>2012-04-07T14:03:49Z</time>
      </trkpt>
      <trkpt lat="45.83526" lon="4.77862">
        <ele>442</ele>
        <time>2012-04-07T14:03:52Z</time>
      </trkpt>
      <trkpt lat="45.83555" lon="4.77859">
        <ele>442</ele>
        <time>2012-04-07T14:03:55Z</time>
      </trkpt>
      <trkpt lat="45.83583" lon="4.77854">
        <ele>442</ele>
        <time>2012-04-07T14:03:58Z</time>
      </trkpt>
      <trkpt lat="45.83607" lon="4.77844">
        <ele>442</ele>
        <time>2012-04-07T14:04:01Z</time>
      </trkpt>
      <trkpt lat="45.83627" lon="4.77832">
        <ele>440</ele>
        <time>2012-04-07T14:04:04Z</time>
      </trkpt>
      <trkpt lat="45.83649" lon="4.77821">
        <ele>437</ele>
        <time>2012-04-07T14:04:07Z</time>
      </trkpt>
      <trkpt lat="45.83675" lon="4.7782">
        <ele>434</ele>
        <time>2012-04-07T14:04:10Z</time>
      </trkpt>
      <trkpt lat="45.83703" lon="4.77826">
        <ele>434</ele>
        <time>2012-04-07T14:04:13Z</time>
      </trkpt>
      <trkpt lat="45.8373" lon="4.77836">
        <ele>434</ele>
        <time>2012-04-07T14:04:16Z</time>
      </trkpt>
      <trkpt lat="45.83757" lon="4.77847">
        <ele>433</ele>
        <time>2012-04-07T14:04:19Z</time>
      </trkpt>
      <trkpt lat="45.8378" lon="4.7785">
        <ele>432</ele>
        <time>2012-04-07T14:04:22Z</time>
      </trkpt>
      <trkpt lat="45.83796" lon="4.77832">
        <ele>430</ele>
        <time>2012-04-07T14:04:25Z</time>
      </trkpt>
      <trkpt lat="45.83785" lon="4.77795">
        <ele>427</ele>
        <time>2012-04-07T14:04:28Z</time>
      </trkpt>
      <trkpt lat="45.83772" lon="4.7776">
        <ele>427</ele>
        <time>2012-04-07T14:04:31Z</time>
      </trkpt>
      <trkpt lat="45.83764" lon="4.77724">
        <ele>427</ele>
        <time>2012-04-07T14:04:34Z</time>
      </trkpt>
      <trkpt lat="45.83762" lon="4.77687">
        <ele>427</ele>
        <time>2012-04-07T14:04:37Z</time>
      </trkpt>
      <trkpt lat="45.83762" lon="4.77652">
        <ele>427</ele>
        <time>2012-04-07T14:04:40Z</time>
      </trkpt>
      <trkpt lat="45.83761" lon="4.7762">
        <ele>428</ele>
        <time>2012-04-07T14:04:43Z</time>
      </trkpt>
      <trkpt lat="45.83761" lon="4.77591">
        <ele>428</ele>
        <time>2012-04-07T14:04:46Z</time>
      </trkpt>
      <trkpt lat="45.83761" lon="4.77563">
        <ele>428</ele>
        <time>2012-04-07T14:04:49Z</time>
      </trkpt>
      <trkpt lat="45.8376" lon="4.77538">
        <ele>429</ele>
        <time>2012-04-07T14:04:52Z</time>
      </trkpt>
      <trkpt lat="45.83757" lon="4.77518">
        <ele>430</ele>
        <time>2012-04-07T14:04:55Z</time>
      </trkpt>
      <trkpt lat="45.83759" lon="4.77501">
        <ele>433</ele>
        <time>2012-04-07T14:04:59Z</time>
      </trkpt>
      <trkpt lat="45.83765" lon="4.77502">
        <ele>435</ele>
        <time>2012-04-07T14:05:02Z</time>
      </trkpt>
      <trkpt lat="45.83769" lon="4.77506">
        <ele>435</ele>
        <time>2012-04-07T14:05:06Z</time>
      </trkpt>
      <trkpt lat="45.8377" lon="4.77512">
        <ele>435</ele>
        <time>2012-04-07T14:05:10Z</time>
      </trkpt>
      <trkpt lat="45.8377" lon="4.77516">
        <ele>435</ele>
        <time>2012-04-07T14:05:27Z</time>
      </trkpt>
      <trkpt lat="45.8377" lon="4.77518">
        <ele>437</ele>
        <time>2012-04-07T14:05:32Z</time>
      </trkpt>
      <trkpt lat="45.8377" lon="4.77522">
        <ele>438</ele>
        <time>2012-04-07T14:05:37Z</time>
      </trkpt>
      <trkpt lat="45.83771" lon="4.77526">
        <ele>438</ele>
        <time>2012-04-07T14:05:40Z</time>
      </trkpt>
      <trkpt lat="45.83772" lon="4.77531">
        <ele>438</ele>
        <time>2012-04-07T14:05:43Z</time>
      </trkpt>
      <trkpt lat="45.83772" lon="4.77536">
        <ele>438</ele>
        <time>2012-04-07T14:05:46Z</time>
      </trkpt>
      <trkpt lat="45.83772" lon="4.77542">
        <ele>438</ele>
        <time>2012-04-07T14:05:49Z</time>
      </trkpt>
      <trkpt lat="45.83775" lon="4.77545">
        <ele>438</ele>
        <time>2012-04-07T14:05:52Z</time>
      </trkpt>
      <trkpt lat="45.83774" lon="4.77551">
        <ele>438</ele>
        <time>2012-04-07T14:05:55Z</time>
      </trkpt>
      <trkpt lat="45.83775" lon="4.77557">
        <ele>437</ele>
        <time>2012-04-07T14:05:58Z</time>
      </trkpt>
      <trkpt lat="45.83776" lon="4.77563">
        <ele>437</ele>
        <time>2012-04-07T14:06:01Z</time>
      </trkpt>
      <trkpt lat="45.83777" lon="4.77572">
        <ele>436</ele>
        <time>2012-04-07T14:06:04Z</time>
      </trkpt>
      <trkpt lat="45.83779" lon="4.7758">
        <ele>436</ele>
        <time>2012-04-07T14:06:07Z</time>
      </trkpt>
      <trkpt lat="45.83781" lon="4.77588">
        <ele>436</ele>
        <time>2012-04-07T14:06:10Z</time>
      </trkpt>
      <trkpt lat="45.83782" lon="4.77597">
        <ele>436</ele>
        <time>2012-04-07T14:06:13Z</time>
      </trkpt>
      <trkpt lat="45.83784" lon="4.77606">
        <ele>436</ele>
        <time>2012-04-07T14:06:16Z</time>
      </trkpt>
      <trkpt lat="45.83787" lon="4.77615">
        <ele>436</ele>
        <time>2012-04-07T14:06:19Z</time>
      </trkpt>
      <trkpt lat="45.8379" lon="4.77624">
        <ele>436</ele>
        <time>2012-04-07T14:06:22Z</time>
      </trkpt>
      <trkpt lat="45.83793" lon="4.77632">
        <ele>436</ele>
        <time>2012-04-07T14:06:25Z</time>
      </trkpt>
      <trkpt lat="45.83795" lon="4.7764">
        <ele>437</ele>
        <time>2012-04-07T14:06:28Z</time>
      </trkpt>
      <trkpt lat="45.83797" lon="4.77649">
        <ele>439</ele>
        <time>2012-04-07T14:06:31Z</time>
      </trkpt>
      <trkpt lat="45.83799" lon="4.77657">
        <ele>440</ele>
        <time>2012-04-07T14:06:34Z</time>
      </trkpt>
      <trkpt lat="45.83802" lon="4.77665">
        <ele>442</ele>
        <time>2012-04-07T14:06:37Z</time>
      </trkpt>
      <trkpt lat="45.83804" lon="4.77674">
        <ele>443</ele>
        <time>2012-04-07T14:06:40Z</time>
      </trkpt>
      <trkpt lat="45.83807" lon="4.77683">
        <ele>443</ele>
        <time>2012-04-07T14:06:43Z</time>
      </trkpt>
      <trkpt lat="45.83811" lon="4.77697">
        <ele>443</ele>
        <time>2012-04-07T14:06:47Z</time>
      </trkpt>
      <trkpt lat="45.83813" lon="4.77706">
        <ele>443</ele>
        <time>2012-04-07T14:06:50Z</time>
      </trkpt>
      <trkpt lat="45.83815" lon="4.77715">
        <ele>443</ele>
        <time>2012-04-07T14:06:53Z</time>
      </trkpt>
      <trkpt lat="45.83816" lon="4.77724">
        <ele>443</ele>
        <time>2012-04-07T14:06:56Z</time>
      </trkpt>
      <trkpt lat="45.83819" lon="4.77733">
        <ele>443</ele>
        <time>2012-04-07T14:06:59Z</time>
      </trkpt>
      <trkpt lat="45.83822" lon="4.77742">
        <ele>443</ele>
        <time>2012-04-07T14:07:02Z</time>
      </trkpt>
      <trkpt lat="45.83826" lon="4.7775">
        <ele>444</ele>
        <time>2012-04-07T14:07:05Z</time>
      </trkpt>
      <trkpt lat="45.8383" lon="4.77755">
        <ele>444</ele>
        <time>2012-04-07T14:07:08Z</time>
      </trkpt>
      <trkpt lat="45.83836" lon="4.77762">
        <ele>444</ele>
        <time>2012-04-07T14:07:12Z</time>
      </trkpt>
      <trkpt lat="45.83842" lon="4.7777">
        <ele>444</ele>
        <time>2012-04-07T14:07:16Z</time>
      </trkpt>
      <trkpt lat="45.83845" lon="4.77778">
        <ele>444</ele>
        <time>2012-04-07T14:07:19Z</time>
      </trkpt>
      <trkpt lat="45.8385" lon="4.77785">
        <ele>444</ele>
        <time>2012-04-07T14:07:22Z</time>
      </trkpt>
      <trkpt lat="45.83858" lon="4.77789">
        <ele>444</ele>
        <time>2012-04-07T14:07:25Z</time>
      </trkpt>
      <trkpt lat="45.83864" lon="4.7779">
        <ele>446</ele>
        <time>2012-04-07T14:07:28Z</time>
      </trkpt>
      <trkpt lat="45.8387" lon="4.77792">
        <ele>449</ele>
        <time>2012-04-07T14:07:31Z</time>
      </trkpt>
      <trkpt lat="45.83876" lon="4.77793">
        <ele>452</ele>
        <time>2012-04-07T14:07:34Z</time>
      </trkpt>
      <trkpt lat="45.83882" lon="4.77793">
        <ele>454</ele>
        <time>2012-04-07T14:07:37Z</time>
      </trkpt>
      <trkpt lat="45.83888" lon="4.77794">
        <ele>456</ele>
        <time>2012-04-07T14:07:40Z</time>
      </trkpt>
      <trkpt lat="45.83894" lon="4.77795">
        <ele>457</ele>
        <time>2012-04-07T14:07:43Z</time>
      </trkpt>
      <trkpt lat="45.839" lon="4.77794">
        <ele>459</ele>
        <time>2012-04-07T14:07:46Z</time>
      </trkpt>
      <trkpt lat="45.83904" lon="4.77794">
        <ele>461</ele>
        <time>2012-04-07T14:07:49Z</time>
      </trkpt>
      <trkpt lat="45.83911" lon="4.77793">
        <ele>463</ele>
        <time>2012-04-07T14:07:52Z</time>
      </trkpt>
      <trkpt lat="45.83918" lon="4.77795">
        <ele>464</ele>
        <time>2012-04-07T14:07:55Z</time>
      </trkpt>
      <trkpt lat="45.83925" lon="4.77797">
        <ele>465</ele>
        <time>2012-04-07T14:07:58Z</time>
      </trkpt>
      <trkpt lat="45.83933" lon="4.77798">
        <ele>466</ele>
        <time>2012-04-07T14:08:01Z</time>
      </trkpt>
      <trkpt lat="45.83939" lon="4.77799">
        <ele>469</ele>
        <time>2012-04-07T14:08:04Z</time>
      </trkpt>
      <trkpt lat="45.83944" lon="4.77797">
        <ele>472</ele>
        <time>2012-04-07T14:08:07Z</time>
      </trkpt>
      <trkpt lat="45.83949" lon="4.77797">
        <ele>475</ele>
        <time>2012-04-07T14:08:10Z</time>
      </trkpt>
      <trkpt lat="45.83955" lon="4.77798">
        <ele>476</ele>
        <time>2012-04-07T14:08:13Z</time>
      </trkpt>
      <trkpt lat="45.83962" lon="4.77798">
        <ele>476</ele>
        <time>2012-04-07T14:08:16Z</time>
      </trkpt>
      <trkpt lat="45.83968" lon="4.77798">
        <ele>476</ele>
        <time>2012-04-07T14:08:19Z</time>
      </trkpt>
      <trkpt lat="45.83973" lon="4.77797">
        <ele>477</ele>
        <time>2012-04-07T14:08:22Z</time>
      </trkpt>
      <trkpt lat="45.8398" lon="4.77798">
        <ele>478</ele>
        <time>2012-04-07T14:08:25Z</time>
      </trkpt>
      <trkpt lat="45.83986" lon="4.778">
        <ele>478</ele>
        <time>2012-04-07T14:08:28Z</time>
      </trkpt>
      <trkpt lat="45.83994" lon="4.778">
        <ele>478</ele>
        <time>2012-04-07T14:08:31Z</time>
      </trkpt>
      <trkpt lat="45.84002" lon="4.77799">
        <ele>478</ele>
        <time>2012-04-07T14:08:34Z</time>
      </trkpt>
      <trkpt lat="45.84009" lon="4.77801">
        <ele>478</ele>
        <time>2012-04-07T14:08:37Z</time>
      </trkpt>
      <trkpt lat="45.84017" lon="4.77808">
        <ele>478</ele>
        <time>2012-04-07T14:08:40Z</time>
      </trkpt>
      <trkpt lat="45.84022" lon="4.77815">
        <ele>478</ele>
        <time>2012-04-07T14:08:43Z</time>
      </trkpt>
      <trkpt lat="45.84023" lon="4.77827">
        <ele>478</ele>
        <time>2012-04-07T14:08:46Z</time>
      </trkpt>
      <trkpt lat="45.84021" lon="4.77837">
        <ele>477</ele>
        <time>2012-04-07T14:08:49Z</time>
      </trkpt>
      <trkpt lat="45.84017" lon="4.77849">
        <ele>474</ele>
        <time>2012-04-07T14:08:52Z</time>
      </trkpt>
      <trkpt lat="45.84012" lon="4.77861">
        <ele>468</ele>
        <time>2012-04-07T14:08:55Z</time>
      </trkpt>
      <trkpt lat="45.84008" lon="4.77872">
        <ele>463</ele>
        <time>2012-04-07T14:08:58Z</time>
      </trkpt>
      <trkpt lat="45.84006" lon="4.77883">
        <ele>460</ele>
        <time>2012-04-07T14:09:01Z</time>
      </trkpt>
      <trkpt lat="45.84008" lon="4.77892">
        <ele>457</ele>
        <time>2012-04-07T14:09:04Z</time>
      </trkpt>
      <trkpt lat="45.84012" lon="4.77902">
        <ele>457</ele>
        <time>2012-04-07T14:09:07Z</time>
      </trkpt>
      <trkpt lat="45.84018" lon="4.77908">
        <ele>457</ele>
        <time>2012-04-07T14:09:10Z</time>
      </trkpt>
      <trkpt lat="45.84026" lon="4.7791">
        <ele>458</ele>
        <time>2012-04-07T14:09:13Z</time>
      </trkpt>
      <trkpt lat="45.84033" lon="4.77909">
        <ele>460</ele>
        <time>2012-04-07T14:09:16Z</time>
      </trkpt>
      <trkpt lat="45.8404" lon="4.77907">
        <ele>460</ele>
        <time>2012-04-07T14:09:19Z</time>
      </trkpt>
      <trkpt lat="45.84045" lon="4.77902">
        <ele>459</ele>
        <time>2012-04-07T14:09:22Z</time>
      </trkpt>
      <trkpt lat="45.8405" lon="4.77893">
        <ele>456</ele>
        <time>2012-04-07T14:09:25Z</time>
      </trkpt>
      <trkpt lat="45.84053" lon="4.77885">
        <ele>455</ele>
        <time>2012-04-07T14:09:28Z</time>
      </trkpt>
      <trkpt lat="45.84055" lon="4.77875">
        <ele>455</ele>
        <time>2012-04-07T14:09:31Z</time>
      </trkpt>
      <trkpt lat="45.84056" lon="4.77864">
        <ele>454</ele>
        <time>2012-04-07T14:09:34Z</time>
      </trkpt>
      <trkpt lat="45.84058" lon="4.77854">
        <ele>454</ele>
        <time>2012-04-07T14:09:37Z</time>
      </trkpt>
      <trkpt lat="45.84059" lon="4.77844">
        <ele>454</ele>
        <time>2012-04-07T14:09:40Z</time>
      </trkpt>
      <trkpt lat="45.84061" lon="4.77832">
        <ele>454</ele>
        <time>2012-04-07T14:09:43Z</time>
      </trkpt>
      <trkpt lat="45.84062" lon="4.77821">
        <ele>454</ele>
        <time>2012-04-07T14:09:46Z</time>
      </trkpt>
      <trkpt lat="45.84065" lon="4.7781">
        <ele>454</ele>
        <time>2012-04-07T14:09:49Z</time>
      </trkpt>
      <trkpt lat="45.84067" lon="4.77799">
        <ele>455</ele>
        <time>2012-04-07T14:09:52Z</time>
      </trkpt>
      <trkpt lat="45.8407" lon="4.77788">
        <ele>457</ele>
        <time>2012-04-07T14:09:55Z</time>
      </trkpt>
      <trkpt lat="45.84071" lon="4.7778">
        <ele>459</ele>
        <time>2012-04-07T14:09:58Z</time>
      </trkpt>
      <trkpt lat="45.84075" lon="4.77771">
        <ele>462</ele>
        <time>2012-04-07T14:10:02Z</time>
      </trkpt>
      <trkpt lat="45.84079" lon="4.77765">
        <ele>465</ele>
        <time>2012-04-07T14:10:05Z</time>
      </trkpt>
      <trkpt lat="45.84086" lon="4.7776">
        <ele>468</ele>
        <time>2012-04-07T14:10:08Z</time>
      </trkpt>
      <trkpt lat="45.84094" lon="4.77758">
        <ele>471</ele>
        <time>2012-04-07T14:10:11Z</time>
      </trkpt>
      <trkpt lat="45.84102" lon="4.77758">
        <ele>474</ele>
        <time>2012-04-07T14:10:14Z</time>
      </trkpt>
      <trkpt lat="45.8411" lon="4.77761">
        <ele>477</ele>
        <time>2012-04-07T14:10:17Z</time>
      </trkpt>
      <trkpt lat="45.84117" lon="4.77767">
        <ele>480</ele>
        <time>2012-04-07T14:10:20Z</time>
      </trkpt>
      <trkpt lat="45.84122" lon="4.77776">
        <ele>483</ele>
        <time>2012-04-07T14:10:23Z</time>
      </trkpt>
      <trkpt lat="45.84124" lon="4.77785">
        <ele>484</ele>
        <time>2012-04-07T14:10:26Z</time>
      </trkpt>
      <trkpt lat="45.84122" lon="4.77795">
        <ele>486</ele>
        <time>2012-04-07T14:10:29Z</time>
      </trkpt>
      <trkpt lat="45.84121" lon="4.77805">
        <ele>487</ele>
        <time>2012-04-07T14:10:32Z</time>
      </trkpt>
      <trkpt lat="45.84119" lon="4.77815">
        <ele>488</ele>
        <time>2012-04-07T14:10:35Z</time>
      </trkpt>
      <trkpt lat="45.84119" lon="4.77828">
        <ele>488</ele>
        <time>2012-04-07T14:10:38Z</time>
      </trkpt>
      <trkpt lat="45.84117" lon="4.77842">
        <ele>488</ele>
        <time>2012-04-07T14:10:41Z</time>
      </trkpt>
      <trkpt lat="45.84115" lon="4.77855">
        <ele>487</ele>
        <time>2012-04-07T14:10:44Z</time>
      </trkpt>
      <trkpt lat="45.84111" lon="4.77866">
        <ele>484</ele>
        <time>2012-04-07T14:10:47Z</time>
      </trkpt>
      <trkpt lat="45.84106" lon="4.77881">
        <ele>480</ele>
        <time>2012-04-07T14:10:51Z</time>
      </trkpt>
      <trkpt lat="45.84102" lon="4.77892">
        <ele>477</ele>
        <time>2012-04-07T14:10:54Z</time>
      </trkpt>
      <trkpt lat="45.84099" lon="4.77904">
        <ele>476</ele>
        <time>2012-04-07T14:10:57Z</time>
      </trkpt>
      <trkpt lat="45.84098" lon="4.77916">
        <ele>476</ele>
        <time>2012-04-07T14:11:00Z</time>
      </trkpt>
      <trkpt lat="45.84098" lon="4.77926">
        <ele>476</ele>
        <time>2012-04-07T14:11:03Z</time>
      </trkpt>
      <trkpt lat="45.84102" lon="4.77934">
        <ele>476</ele>
        <time>2012-04-07T14:11:06Z</time>
      </trkpt>
      <trkpt lat="45.84109" lon="4.77941">
        <ele>477</ele>
        <time>2012-04-07T14:11:09Z</time>
      </trkpt>
      <trkpt lat="45.84118" lon="4.77944">
        <ele>479</ele>
        <time>2012-04-07T14:11:12Z</time>
      </trkpt>
      <trkpt lat="45.84126" lon="4.77941">
        <ele>479</ele>
        <time>2012-04-07T14:11:15Z</time>
      </trkpt>
      <trkpt lat="45.84133" lon="4.77934">
        <ele>479</ele>
        <time>2012-04-07T14:11:18Z</time>
      </trkpt>
      <trkpt lat="45.84139" lon="4.77922">
        <ele>479</ele>
        <time>2012-04-07T14:11:21Z</time>
      </trkpt>
      <trkpt lat="45.84145" lon="4.77913">
        <ele>479</ele>
        <time>2012-04-07T14:11:24Z</time>
      </trkpt>
      <trkpt lat="45.84153" lon="4.779">
        <ele>479</ele>
        <time>2012-04-07T14:11:28Z</time>
      </trkpt>
      <trkpt lat="45.84159" lon="4.7789">
        <ele>479</ele>
        <time>2012-04-07T14:11:31Z</time>
      </trkpt>
      <trkpt lat="45.84164" lon="4.77882">
        <ele>478</ele>
        <time>2012-04-07T14:11:34Z</time>
      </trkpt>
      <trkpt lat="45.84169" lon="4.77874">
        <ele>476</ele>
        <time>2012-04-07T14:11:37Z</time>
      </trkpt>
      <trkpt lat="45.84177" lon="4.77862">
        <ele>474</ele>
        <time>2012-04-07T14:11:41Z</time>
      </trkpt>
      <trkpt lat="45.84182" lon="4.77854">
        <ele>473</ele>
        <time>2012-04-07T14:11:44Z</time>
      </trkpt>
      <trkpt lat="45.84188" lon="4.77845">
        <ele>473</ele>
        <time>2012-04-07T14:11:47Z</time>
      </trkpt>
      <trkpt lat="45.84194" lon="4.77833">
        <ele>473</ele>
        <time>2012-04-07T14:11:50Z</time>
      </trkpt>
      <trkpt lat="45.84201" lon="4.77824">
        <ele>473</ele>
        <time>2012-04-07T14:11:53Z</time>
      </trkpt>
      <trkpt lat="45.84208" lon="4.77817">
        <ele>473</ele>
        <time>2012-04-07T14:11:56Z</time>
      </trkpt>
      <trkpt lat="45.84216" lon="4.77809">
        <ele>471</ele>
        <time>2012-04-07T14:12:00Z</time>
      </trkpt>
      <trkpt lat="45.84222" lon="4.77802">
        <ele>470</ele>
        <time>2012-04-07T14:12:03Z</time>
      </trkpt>
      <trkpt lat="45.84229" lon="4.77792">
        <ele>470</ele>
        <time>2012-04-07T14:12:06Z</time>
      </trkpt>
      <trkpt lat="45.84232" lon="4.7778">
        <ele>470</ele>
        <time>2012-04-07T14:12:09Z</time>
      </trkpt>
      <trkpt lat="45.84233" lon="4.77768">
        <ele>470</ele>
        <time>2012-04-07T14:12:12Z</time>
      </trkpt>
      <trkpt lat="45.84231" lon="4.77753">
        <ele>470</ele>
        <time>2012-04-07T14:12:15Z</time>
      </trkpt>
      <trkpt lat="45.84227" lon="4.77739">
        <ele>472</ele>
        <time>2012-04-07T14:12:18Z</time>
      </trkpt>
      <trkpt lat="45.8422" lon="4.77729">
        <ele>474</ele>
        <time>2012-04-07T14:12:21Z</time>
      </trkpt>
      <trkpt lat="45.84212" lon="4.7772">
        <ele>476</ele>
        <time>2012-04-07T14:12:24Z</time>
      </trkpt>
      <trkpt lat="45.84204" lon="4.77715">
        <ele>477</ele>
        <time>2012-04-07T14:12:27Z</time>
      </trkpt>
      <trkpt lat="45.84195" lon="4.77712">
        <ele>478</ele>
        <time>2012-04-07T14:12:30Z</time>
      </trkpt>
      <trkpt lat="45.84186" lon="4.77708">
        <ele>480</ele>
        <time>2012-04-07T14:12:33Z</time>
      </trkpt>
      <trkpt lat="45.84177" lon="4.77705">
        <ele>483</ele>
        <time>2012-04-07T14:12:36Z</time>
      </trkpt>
      <trkpt lat="45.84162" lon="4.77701">
        <ele>487</ele>
        <time>2012-04-07T14:12:40Z</time>
      </trkpt>
      <trkpt lat="45.84158" lon="4.77688">
        <ele>488</ele>
        <time>2012-04-07T14:12:43Z</time>
      </trkpt>
      <trkpt lat="45.84159" lon="4.77673">
        <ele>490</ele>
        <time>2012-04-07T14:12:46Z</time>
      </trkpt>
      <trkpt lat="45.84165" lon="4.7766">
        <ele>490</ele>
        <time>2012-04-07T14:12:49Z</time>
      </trkpt>
      <trkpt lat="45.84175" lon="4.77654">
        <ele>490</ele>
        <time>2012-04-07T14:12:52Z</time>
      </trkpt>
      <trkpt lat="45.84185" lon="4.77656">
        <ele>491</ele>
        <time>2012-04-07T14:12:55Z</time>
      </trkpt>
      <trkpt lat="45.84194" lon="4.77662">
        <ele>494</ele>
        <time>2012-04-07T14:12:58Z</time>
      </trkpt>
      <trkpt lat="45.84204" lon="4.77668">
        <ele>497</ele>
        <time>2012-04-07T14:13:01Z</time>
      </trkpt>
      <trkpt lat="45.84213" lon="4.77673">
        <ele>499</ele>
        <time>2012-04-07T14:13:04Z</time>
      </trkpt>
      <trkpt lat="45.84222" lon="4.77675">
        <ele>501</ele>
        <time>2012-04-07T14:13:07Z</time>
      </trkpt>
      <trkpt lat="45.8423" lon="4.77676">
        <ele>501</ele>
        <time>2012-04-07T14:13:10Z</time>
      </trkpt>
      <trkpt lat="45.84238" lon="4.77677">
        <ele>501</ele>
        <time>2012-04-07T14:13:13Z</time>
      </trkpt>
      <trkpt lat="45.84245" lon="4.77677">
        <ele>501</ele>
        <time>2012-04-07T14:13:16Z</time>
      </trkpt>
      <trkpt lat="45.84251" lon="4.77676">
        <ele>498</ele>
        <time>2012-04-07T14:13:19Z</time>
      </trkpt>
      <trkpt lat="45.84259" lon="4.77677">
        <ele>495</ele>
        <time>2012-04-07T14:13:22Z</time>
      </trkpt>
      <trkpt lat="45.84268" lon="4.77678">
        <ele>492</ele>
        <time>2012-04-07T14:13:25Z</time>
      </trkpt>
      <trkpt lat="45.84277" lon="4.77678">
        <ele>488</ele>
        <time>2012-04-07T14:13:29Z</time>
      </trkpt>
      <trkpt lat="45.84285" lon="4.77677">
        <ele>485</ele>
        <time>2012-04-07T14:13:32Z</time>
      </trkpt>
      <trkpt lat="45.84294" lon="4.77677">
        <ele>485</ele>
        <time>2012-04-07T14:13:35Z</time>
      </trkpt>
      <trkpt lat="45.84305" lon="4.77677">
        <ele>485</ele>
        <time>2012-04-07T14:13:38Z</time>
      </trkpt>
      <trkpt lat="45.84314" lon="4.7768">
        <ele>488</ele>
        <time>2012-04-07T14:13:41Z</time>
      </trkpt>
      <trkpt lat="45.84322" lon="4.77683">
        <ele>491</ele>
        <time>2012-04-07T14:13:44Z</time>
      </trkpt>
      <trkpt lat="45.8433" lon="4.77687">
        <ele>494</ele>
        <time>2012-04-07T14:13:47Z</time>
      </trkpt>
      <trkpt lat="45.84338" lon="4.77691">
        <ele>497</ele>
        <time>2012-04-07T14:13:50Z</time>
      </trkpt>
      <trkpt lat="45.84346" lon="4.77694">
        <ele>500</ele>
        <time>2012-04-07T14:13:53Z</time>
      </trkpt>
      <trkpt lat="45.84353" lon="4.77698">
        <ele>503</ele>
        <time>2012-04-07T14:13:56Z</time>
      </trkpt>
      <trkpt lat="45.84359" lon="4.77703">
        <ele>506</ele>
        <time>2012-04-07T14:13:59Z</time>
      </trkpt>
      <trkpt lat="45.84366" lon="4.77709">
        <ele>506</ele>
        <time>2012-04-07T14:14:02Z</time>
      </trkpt>
      <trkpt lat="45.84373" lon="4.77716">
        <ele>507</ele>
        <time>2012-04-07T14:14:05Z</time>
      </trkpt>
      <trkpt lat="45.84384" lon="4.77724">
        <ele>507</ele>
        <time>2012-04-07T14:14:09Z</time>
      </trkpt>
      <trkpt lat="45.84389" lon="4.77734">
        <ele>507</ele>
        <time>2012-04-07T14:14:12Z</time>
      </trkpt>
      <trkpt lat="45.84392" lon="4.77746">
        <ele>508</ele>
        <time>2012-04-07T14:14:15Z</time>
      </trkpt>
      <trkpt lat="45.84392" lon="4.77763">
        <ele>510</ele>
        <time>2012-04-07T14:14:19Z</time>
      </trkpt>
      <trkpt lat="45.84391" lon="4.77775">
        <ele>511</ele>
        <time>2012-04-07T14:14:22Z</time>
      </trkpt>
      <trkpt lat="45.84384" lon="4.7779">
        <ele>512</ele>
        <time>2012-04-07T14:14:26Z</time>
      </trkpt>
      <trkpt lat="45.84376" lon="4.77801">
        <ele>512</ele>
        <time>2012-04-07T14:14:30Z</time>
      </trkpt>
      <trkpt lat="45.84369" lon="4.77809">
        <ele>512</ele>
        <time>2012-04-07T14:14:33Z</time>
      </trkpt>
      <trkpt lat="45.84359" lon="4.77819">
        <ele>512</ele>
        <time>2012-04-07T14:14:37Z</time>
      </trkpt>
      <trkpt lat="45.84353" lon="4.77826">
        <ele>512</ele>
        <time>2012-04-07T14:14:40Z</time>
      </trkpt>
      <trkpt lat="45.84347" lon="4.77834">
        <ele>512</ele>
        <time>2012-04-07T14:14:43Z</time>
      </trkpt>
      <trkpt lat="45.84341" lon="4.77849">
        <ele>512</ele>
        <time>2012-04-07T14:14:47Z</time>
      </trkpt>
      <trkpt lat="45.8434" lon="4.77863">
        <ele>512</ele>
        <time>2012-04-07T14:14:50Z</time>
      </trkpt>
      <trkpt lat="45.84342" lon="4.77875">
        <ele>512</ele>
        <time>2012-04-07T14:14:53Z</time>
      </trkpt>
      <trkpt lat="45.84346" lon="4.77884">
        <ele>512</ele>
        <time>2012-04-07T14:14:56Z</time>
      </trkpt>
      <trkpt lat="45.84354" lon="4.77889">
        <ele>512</ele>
        <time>2012-04-07T14:14:59Z</time>
      </trkpt>
      <trkpt lat="45.84365" lon="4.77888">
        <ele>512</ele>
        <time>2012-04-07T14:15:03Z</time>
      </trkpt>
      <trkpt lat="45.84372" lon="4.77881">
        <ele>513</ele>
        <time>2012-04-07T14:15:06Z</time>
      </trkpt>
      <trkpt lat="45.84379" lon="4.77874">
        <ele>514</ele>
        <time>2012-04-07T14:15:09Z</time>
      </trkpt>
      <trkpt lat="45.84386" lon="4.77866">
        <ele>515</ele>
        <time>2012-04-07T14:15:12Z</time>
      </trkpt>
      <trkpt lat="45.84392" lon="4.7786">
        <ele>515</ele>
        <time>2012-04-07T14:15:15Z</time>
      </trkpt>
      <trkpt lat="45.84398" lon="4.77853">
        <ele>515</ele>
        <time>2012-04-07T14:15:18Z</time>
      </trkpt>
      <trkpt lat="45.84404" lon="4.77847">
        <ele>515</ele>
        <time>2012-04-07T14:15:21Z</time>
      </trkpt>
      <trkpt lat="45.84411" lon="4.77841">
        <ele>515</ele>
        <time>2012-04-07T14:15:24Z</time>
      </trkpt>
      <trkpt lat="45.84417" lon="4.77834">
        <ele>515</ele>
        <time>2012-04-07T14:15:27Z</time>
      </trkpt>
      <trkpt lat="45.84426" lon="4.77826">
        <ele>515</ele>
        <time>2012-04-07T14:15:31Z</time>
      </trkpt>
      <trkpt lat="45.84435" lon="4.77819">
        <ele>515</ele>
        <time>2012-04-07T14:15:35Z</time>
      </trkpt>
      <trkpt lat="45.84444" lon="4.77813">
        <ele>515</ele>
        <time>2012-04-07T14:15:39Z</time>
      </trkpt>
      <trkpt lat="45.84451" lon="4.77808">
        <ele>515</ele>
        <time>2012-04-07T14:15:42Z</time>
      </trkpt>
      <trkpt lat="45.84458" lon="4.77802">
        <ele>515</ele>
        <time>2012-04-07T14:15:45Z</time>
      </trkpt>
      <trkpt lat="45.84465" lon="4.77797">
        <ele>515</ele>
        <time>2012-04-07T14:15:48Z</time>
      </trkpt>
      <trkpt lat="45.84472" lon="4.77791">
        <ele>515</ele>
        <time>2012-04-07T14:15:51Z</time>
      </trkpt>
      <trkpt lat="45.84481" lon="4.77784">
        <ele>515</ele>
        <time>2012-04-07T14:15:55Z</time>
      </trkpt>
      <trkpt lat="45.8449" lon="4.77777">
        <ele>515</ele>
        <time>2012-04-07T14:15:59Z</time>
      </trkpt>
      <trkpt lat="45.84498" lon="4.77768">
        <ele>515</ele>
        <time>2012-04-07T14:16:03Z</time>
      </trkpt>
      <trkpt lat="45.84505" lon="4.77761">
        <ele>515</ele>
        <time>2012-04-07T14:16:06Z</time>
      </trkpt>
      <trkpt lat="45.84511" lon="4.77752">
        <ele>515</ele>
        <time>2012-04-07T14:16:09Z</time>
      </trkpt>
      <trkpt lat="45.84517" lon="4.77738">
        <ele>517</ele>
        <time>2012-04-07T14:16:13Z</time>
      </trkpt>
      <trkpt lat="45.8452" lon="4.77726">
        <ele>519</ele>
        <time>2012-04-07T14:16:16Z</time>
      </trkpt>
      <trkpt lat="45.84523" lon="4.77715">
        <ele>521</ele>
        <time>2012-04-07T14:16:19Z</time>
      </trkpt>
      <trkpt lat="45.84525" lon="4.77701">
        <ele>522</ele>
        <time>2012-04-07T14:16:23Z</time>
      </trkpt>
      <trkpt lat="45.84525" lon="4.77687">
        <ele>522</ele>
        <time>2012-04-07T14:16:27Z</time>
      </trkpt>
      <trkpt lat="45.84525" lon="4.77673">
        <ele>522</ele>
        <time>2012-04-07T14:16:31Z</time>
      </trkpt>
      <trkpt lat="45.84525" lon="4.7766">
        <ele>522</ele>
        <time>2012-04-07T14:16:35Z</time>
      </trkpt>
      <trkpt lat="45.84525" lon="4.77646">
        <ele>522</ele>
        <time>2012-04-07T14:16:39Z</time>
      </trkpt>
      <trkpt lat="45.84526" lon="4.77632">
        <ele>521</ele>
        <time>2012-04-07T14:16:43Z</time>
      </trkpt>
      <trkpt lat="45.84529" lon="4.77622">
        <ele>521</ele>
        <time>2012-04-07T14:16:46Z</time>
      </trkpt>
      <trkpt lat="45.84533" lon="4.77614">
        <ele>521</ele>
        <time>2012-04-07T14:16:49Z</time>
      </trkpt>
      <trkpt lat="45.84538" lon="4.77608">
        <ele>522</ele>
        <time>2012-04-07T14:16:52Z</time>
      </trkpt>
      <trkpt lat="45.84544" lon="4.77603">
        <ele>523</ele>
        <time>2012-04-07T14:16:55Z</time>
      </trkpt>
      <trkpt lat="45.84549" lon="4.776">
        <ele>524</ele>
        <time>2012-04-07T14:16:58Z</time>
      </trkpt>
      <trkpt lat="45.84555" lon="4.77597">
        <ele>525</ele>
        <time>2012-04-07T14:17:01Z</time>
      </trkpt>
      <trkpt lat="45.84566" lon="4.7759">
        <ele>526</ele>
        <time>2012-04-07T14:17:05Z</time>
      </trkpt>
      <trkpt lat="45.84574" lon="4.77588">
        <ele>527</ele>
        <time>2012-04-07T14:17:08Z</time>
      </trkpt>
      <trkpt lat="45.84581" lon="4.77584">
        <ele>529</ele>
        <time>2012-04-07T14:17:11Z</time>
      </trkpt>
      <trkpt lat="45.84587" lon="4.77579">
        <ele>530</ele>
        <time>2012-04-07T14:17:14Z</time>
      </trkpt>
      <trkpt lat="45.84594" lon="4.77577">
        <ele>532</ele>
        <time>2012-04-07T14:17:17Z</time>
      </trkpt>
      <trkpt lat="45.846" lon="4.77574">
        <ele>534</ele>
        <time>2012-04-07T14:17:20Z</time>
      </trkpt>
      <trkpt lat="45.84608" lon="4.7757">
        <ele>536</ele>
        <time>2012-04-07T14:17:23Z</time>
      </trkpt>
      <trkpt lat="45.84618" lon="4.77563">
        <ele>536</ele>
        <time>2012-04-07T14:17:27Z</time>
      </trkpt>
      <trkpt lat="45.84625" lon="4.77561">
        <ele>533</ele>
        <time>2012-04-07T14:17:30Z</time>
      </trkpt>
      <trkpt lat="45.84632" lon="4.7756">
        <ele>530</ele>
        <time>2012-04-07T14:17:33Z</time>
      </trkpt>
      <trkpt lat="45.8464" lon="4.77559">
        <ele>528</ele>
        <time>2012-04-07T14:17:36Z</time>
      </trkpt>
      <trkpt lat="45.84649" lon="4.7756">
        <ele>528</ele>
        <time>2012-04-07T14:17:39Z</time>
      </trkpt>
      <trkpt lat="45.84661" lon="4.77562">
        <ele>528</ele>
        <time>2012-04-07T14:17:43Z</time>
      </trkpt>
      <trkpt lat="45.8467" lon="4.77562">
        <ele>530</ele>
        <time>2012-04-07T14:17:46Z</time>
      </trkpt>
      <trkpt lat="45.84679" lon="4.77564">
        <ele>533</ele>
        <time>2012-04-07T14:17:49Z</time>
      </trkpt>
      <trkpt lat="45.84688" lon="4.7757">
        <ele>536</ele>
        <time>2012-04-07T14:17:52Z</time>
      </trkpt>
      <trkpt lat="45.84695" lon="4.77579">
        <ele>539</ele>
        <time>2012-04-07T14:17:55Z</time>
      </trkpt>
      <trkpt lat="45.847" lon="4.77589">
        <ele>542</ele>
        <time>2012-04-07T14:17:58Z</time>
      </trkpt>
      <trkpt lat="45.84705" lon="4.776">
        <ele>545</ele>
        <time>2012-04-07T14:18:01Z</time>
      </trkpt>
      <trkpt lat="45.84709" lon="4.77611">
        <ele>547</ele>
        <time>2012-04-07T14:18:04Z</time>
      </trkpt>
      <trkpt lat="45.84713" lon="4.77622">
        <ele>548</ele>
        <time>2012-04-07T14:18:07Z</time>
      </trkpt>
      <trkpt lat="45.84717" lon="4.77632">
        <ele>548</ele>
        <time>2012-04-07T14:18:10Z</time>
      </trkpt>
      <trkpt lat="45.84721" lon="4.77642">
        <ele>549</ele>
        <time>2012-04-07T14:18:13Z</time>
      </trkpt>
      <trkpt lat="45.84724" lon="4.77653">
        <ele>550</ele>
        <time>2012-04-07T14:18:16Z</time>
      </trkpt>
      <trkpt lat="45.84727" lon="4.77665">
        <ele>551</ele>
        <time>2012-04-07T14:18:19Z</time>
      </trkpt>
      <trkpt lat="45.84728" lon="4.77676">
        <ele>551</ele>
        <time>2012-04-07T14:18:22Z</time>
      </trkpt>
      <trkpt lat="45.84729" lon="4.7769">
        <ele>552</ele>
        <time>2012-04-07T14:18:25Z</time>
      </trkpt>
      <trkpt lat="45.84728" lon="4.77702">
        <ele>552</ele>
        <time>2012-04-07T14:18:28Z</time>
      </trkpt>
      <trkpt lat="45.84727" lon="4.77713">
        <ele>552</ele>
        <time>2012-04-07T14:18:31Z</time>
      </trkpt>
      <trkpt lat="45.84724" lon="4.77728">
        <ele>552</ele>
        <time>2012-04-07T14:18:35Z</time>
      </trkpt>
      <trkpt lat="45.8472" lon="4.77737">
        <ele>552</ele>
        <time>2012-04-07T14:18:38Z</time>
      </trkpt>
      <trkpt lat="45.84717" lon="4.77749">
        <ele>554</ele>
        <time>2012-04-07T14:18:42Z</time>
      </trkpt>
      <trkpt lat="45.84715" lon="4.77759">
        <ele>554</ele>
        <time>2012-04-07T14:18:45Z</time>
      </trkpt>
      <trkpt lat="45.84712" lon="4.77767">
        <ele>554</ele>
        <time>2012-04-07T14:18:48Z</time>
      </trkpt>
      <trkpt lat="45.84709" lon="4.77777">
        <ele>555</ele>
        <time>2012-04-07T14:18:51Z</time>
      </trkpt>
      <trkpt lat="45.84707" lon="4.77786">
        <ele>555</ele>
        <time>2012-04-07T14:18:54Z</time>
      </trkpt>
      <trkpt lat="45.84703" lon="4.77796">
        <ele>556</ele>
        <time>2012-04-07T14:18:57Z</time>
      </trkpt>
      <trkpt lat="45.84701" lon="4.77805">
        <ele>556</ele>
        <time>2012-04-07T14:19:00Z</time>
      </trkpt>
      <trkpt lat="45.84698" lon="4.77814">
        <ele>556</ele>
        <time>2012-04-07T14:19:03Z</time>
      </trkpt>
      <trkpt lat="45.84694" lon="4.77823">
        <ele>557</ele>
        <time>2012-04-07T14:19:06Z</time>
      </trkpt>
      <trkpt lat="45.8469" lon="4.77833">
        <ele>557</ele>
        <time>2012-04-07T14:19:09Z</time>
      </trkpt>
      <trkpt lat="45.84687" lon="4.77842">
        <ele>557</ele>
        <time>2012-04-07T14:19:12Z</time>
      </trkpt>
      <trkpt lat="45.84682" lon="4.77849">
        <ele>557</ele>
        <time>2012-04-07T14:19:15Z</time>
      </trkpt>
      <trkpt lat="45.84677" lon="4.77855">
        <ele>558</ele>
        <time>2012-04-07T14:19:18Z</time>
      </trkpt>
      <trkpt lat="45.84671" lon="4.77862">
        <ele>558</ele>
        <time>2012-04-07T14:19:21Z</time>
      </trkpt>
      <trkpt lat="45.84665" lon="4.77868">
        <ele>558</ele>
        <time>2012-04-07T14:19:24Z</time>
      </trkpt>
      <trkpt lat="45.84658" lon="4.77876">
        <ele>558</ele>
        <time>2012-04-07T14:19:27Z</time>
      </trkpt>
      <trkpt lat="45.84649" lon="4.77889">
        <ele>558</ele>
        <time>2012-04-07T14:19:31Z</time>
      </trkpt>
      <trkpt lat="45.84645" lon="4.779">
        <ele>558</ele>
        <time>2012-04-07T14:19:34Z</time>
      </trkpt>
      <trkpt lat="45.84644" lon="4.77911">
        <ele>558</ele>
        <time>2012-04-07T14:19:37Z</time>
      </trkpt>
      <trkpt lat="45.84647" lon="4.77924">
        <ele>560</ele>
        <time>2012-04-07T14:19:41Z</time>
      </trkpt>
      <trkpt lat="45.84653" lon="4.77929">
        <ele>560</ele>
        <time>2012-04-07T14:19:44Z</time>
      </trkpt>
      <trkpt lat="45.84661" lon="4.77928">
        <ele>560</ele>
        <time>2012-04-07T14:19:47Z</time>
      </trkpt>
      <trkpt lat="45.84671" lon="4.77918">
        <ele>560</ele>
        <time>2012-04-07T14:19:51Z</time>
      </trkpt>
      <trkpt lat="45.84674" lon="4.77912">
        <ele>559</ele>
        <time>2012-04-07T14:19:55Z</time>
      </trkpt>
      <trkpt lat="45.84679" lon="4.77904">
        <ele>554</ele>
        <time>2012-04-07T14:19:58Z</time>
      </trkpt>
      <trkpt lat="45.84683" lon="4.77896">
        <ele>550</ele>
        <time>2012-04-07T14:20:01Z</time>
      </trkpt>
      <trkpt lat="45.84686" lon="4.77886">
        <ele>545</ele>
        <time>2012-04-07T14:20:04Z</time>
      </trkpt>
      <trkpt lat="45.84688" lon="4.77876">
        <ele>541</ele>
        <time>2012-04-07T14:20:07Z</time>
      </trkpt>
      <trkpt lat="45.8469" lon="4.77866">
        <ele>538</ele>
        <time>2012-04-07T14:20:10Z</time>
      </trkpt>
      <trkpt lat="45.84694" lon="4.77857">
        <ele>535</ele>
        <time>2012-04-07T14:20:13Z</time>
      </trkpt>
      <trkpt lat="45.84699" lon="4.77849">
        <ele>531</ele>
        <time>2012-04-07T14:20:16Z</time>
      </trkpt>
      <trkpt lat="45.84705" lon="4.77842">
        <ele>528</ele>
        <time>2012-04-07T14:20:19Z</time>
      </trkpt>
      <trkpt lat="45.84715" lon="4.77837">
        <ele>528</ele>
        <time>2012-04-07T14:20:22Z</time>
      </trkpt>
      <trkpt lat="45.84725" lon="4.77842">
        <ele>531</ele>
        <time>2012-04-07T14:20:26Z</time>
      </trkpt>
      <trkpt lat="45.84731" lon="4.77848">
        <ele>536</ele>
        <time>2012-04-07T14:20:29Z</time>
      </trkpt>
      <trkpt lat="45.84732" lon="4.77858">
        <ele>543</ele>
        <time>2012-04-07T14:20:32Z</time>
      </trkpt>
      <trkpt lat="45.8473" lon="4.7787">
        <ele>550</ele>
        <time>2012-04-07T14:20:35Z</time>
      </trkpt>
      <trkpt lat="45.84726" lon="4.77881">
        <ele>556</ele>
        <time>2012-04-07T14:20:38Z</time>
      </trkpt>
      <trkpt lat="45.8472" lon="4.77897">
        <ele>563</ele>
        <time>2012-04-07T14:20:42Z</time>
      </trkpt>
      <trkpt lat="45.84713" lon="4.7791">
        <ele>567</ele>
        <time>2012-04-07T14:20:46Z</time>
      </trkpt>
      <trkpt lat="45.84709" lon="4.7792">
        <ele>570</ele>
        <time>2012-04-07T14:20:49Z</time>
      </trkpt>
      <trkpt lat="45.84705" lon="4.77931">
        <ele>573</ele>
        <time>2012-04-07T14:20:52Z</time>
      </trkpt>
      <trkpt lat="45.847" lon="4.77944">
        <ele>576</ele>
        <time>2012-04-07T14:20:55Z</time>
      </trkpt>
      <trkpt lat="45.84694" lon="4.77957">
        <ele>577</ele>
        <time>2012-04-07T14:20:59Z</time>
      </trkpt>
      <trkpt lat="45.8469" lon="4.7797">
        <ele>577</ele>
        <time>2012-04-07T14:21:03Z</time>
      </trkpt>
      <trkpt lat="45.84687" lon="4.77982">
        <ele>577</ele>
        <time>2012-04-07T14:21:07Z</time>
      </trkpt>
      <trkpt lat="45.84686" lon="4.7799">
        <ele>577</ele>
        <time>2012-04-07T14:21:10Z</time>
      </trkpt>
      <trkpt lat="45.84685" lon="4.78002">
        <ele>577</ele>
        <time>2012-04-07T14:21:14Z</time>
      </trkpt>
      <trkpt lat="45.84684" lon="4.78009">
        <ele>577</ele>
        <time>2012-04-07T14:21:17Z</time>
      </trkpt>
      <trkpt lat="45.84685" lon="4.78015">
        <ele>577</ele>
        <time>2012-04-07T14:21:20Z</time>
      </trkpt>
      <trkpt lat="45.84687" lon="4.7801">
        <ele>577</ele>
        <time>2012-04-07T14:21:24Z</time>
      </trkpt>
      <trkpt lat="45.84681" lon="4.78009">
        <ele>577</ele>
        <time>2012-04-07T14:21:27Z</time>
      </trkpt>
      <trkpt lat="45.84686" lon="4.78019">
        <ele>577</ele>
        <time>2012-04-07T14:21:31Z</time>
      </trkpt>
      <trkpt lat="45.84696" lon="4.78027">
        <ele>578</ele>
        <time>2012-04-07T14:21:35Z</time>
      </trkpt>
      <trkpt lat="45.84704" lon="4.78028">
        <ele>581</ele>
        <time>2012-04-07T14:21:38Z</time>
      </trkpt>
      <trkpt lat="45.84713" lon="4.78027">
        <ele>581</ele>
        <time>2012-04-07T14:21:41Z</time>
      </trkpt>
      <trkpt lat="45.84724" lon="4.78026">
        <ele>581</ele>
        <time>2012-04-07T14:21:45Z</time>
      </trkpt>
      <trkpt lat="45.84731" lon="4.78023">
        <ele>581</ele>
        <time>2012-04-07T14:21:49Z</time>
      </trkpt>
      <trkpt lat="45.84743" lon="4.78024">
        <ele>581</ele>
        <time>2012-04-07T14:21:53Z</time>
      </trkpt>
      <trkpt lat="45.84752" lon="4.78025">
        <ele>581</ele>
        <time>2012-04-07T14:21:56Z</time>
      </trkpt>
      <trkpt lat="45.84767" lon="4.78024">
        <ele>583</ele>
        <time>2012-04-07T14:22:00Z</time>
      </trkpt>
      <trkpt lat="45.84783" lon="4.78022">
        <ele>587</ele>
        <time>2012-04-07T14:22:04Z</time>
      </trkpt>
      <trkpt lat="45.84795" lon="4.78022">
        <ele>590</ele>
        <time>2012-04-07T14:22:07Z</time>
      </trkpt>
      <trkpt lat="45.84809" lon="4.78024">
        <ele>593</ele>
        <time>2012-04-07T14:22:10Z</time>
      </trkpt>
      <trkpt lat="45.84821" lon="4.78024">
        <ele>596</ele>
        <time>2012-04-07T14:22:13Z</time>
      </trkpt>
      <trkpt lat="45.84833" lon="4.78029">
        <ele>600</ele>
        <time>2012-04-07T14:22:17Z</time>
      </trkpt>
      <trkpt lat="45.84847" lon="4.78037">
        <ele>604</ele>
        <time>2012-04-07T14:22:21Z</time>
      </trkpt>
      <trkpt lat="45.84861" lon="4.78044">
        <ele>608</ele>
        <time>2012-04-07T14:22:25Z</time>
      </trkpt>
      <trkpt lat="45.84871" lon="4.7805">
        <ele>611</ele>
        <time>2012-04-07T14:22:28Z</time>
      </trkpt>
      <trkpt lat="45.84881" lon="4.78058">
        <ele>615</ele>
        <time>2012-04-07T14:22:32Z</time>
      </trkpt>
      <trkpt lat="45.8489" lon="4.78065">
        <ele>618</ele>
        <time>2012-04-07T14:22:36Z</time>
      </trkpt>
      <trkpt lat="45.84898" lon="4.78071">
        <ele>619</ele>
        <time>2012-04-07T14:22:40Z</time>
      </trkpt>
      <trkpt lat="45.84904" lon="4.78077">
        <ele>619</ele>
        <time>2012-04-07T14:22:44Z</time>
      </trkpt>
      <trkpt lat="45.84909" lon="4.78081">
        <ele>619</ele>
        <time>2012-04-07T14:22:47Z</time>
      </trkpt>
      <trkpt lat="45.84916" lon="4.78084">
        <ele>619</ele>
        <time>2012-04-07T14:22:51Z</time>
      </trkpt>
      <trkpt lat="45.84921" lon="4.78088">
        <ele>619</ele>
        <time>2012-04-07T14:22:54Z</time>
      </trkpt>
      <trkpt lat="45.84929" lon="4.78095">
        <ele>619</ele>
        <time>2012-04-07T14:22:58Z</time>
      </trkpt>
      <trkpt lat="45.84933" lon="4.78101">
        <ele>619</ele>
        <time>2012-04-07T14:23:01Z</time>
      </trkpt>
      <trkpt lat="45.84936" lon="4.78108">
        <ele>618</ele>
        <time>2012-04-07T14:23:04Z</time>
      </trkpt>
      <trkpt lat="45.84939" lon="4.78116">
        <ele>617</ele>
        <time>2012-04-07T14:23:07Z</time>
      </trkpt>
      <trkpt lat="45.84945" lon="4.78129">
        <ele>614</ele>
        <time>2012-04-07T14:23:11Z</time>
      </trkpt>
      <trkpt lat="45.8495" lon="4.78138">
        <ele>612</ele>
        <time>2012-04-07T14:23:14Z</time>
      </trkpt>
      <trkpt lat="45.84954" lon="4.78148">
        <ele>610</ele>
        <time>2012-04-07T14:23:17Z</time>
      </trkpt>
      <trkpt lat="45.84958" lon="4.78155">
        <ele>608</ele>
        <time>2012-04-07T14:23:20Z</time>
      </trkpt>
      <trkpt lat="45.84962" lon="4.78163">
        <ele>606</ele>
        <time>2012-04-07T14:23:23Z</time>
      </trkpt>
      <trkpt lat="45.84968" lon="4.78171">
        <ele>604</ele>
        <time>2012-04-07T14:23:26Z</time>
      </trkpt>
      <trkpt lat="45.84974" lon="4.78177">
        <ele>602</ele>
        <time>2012-04-07T14:23:29Z</time>
      </trkpt>
      <trkpt lat="45.84979" lon="4.78185">
        <ele>601</ele>
        <time>2012-04-07T14:23:32Z</time>
      </trkpt>
      <trkpt lat="45.84986" lon="4.78195">
        <ele>601</ele>
        <time>2012-04-07T14:23:36Z</time>
      </trkpt>
      <trkpt lat="45.84992" lon="4.78204">
        <ele>600</ele>
        <time>2012-04-07T14:23:39Z</time>
      </trkpt>
      <trkpt lat="45.85001" lon="4.78221">
        <ele>599</ele>
        <time>2012-04-07T14:23:43Z</time>
      </trkpt>
      <trkpt lat="45.85007" lon="4.78242">
        <ele>599</ele>
        <time>2012-04-07T14:23:46Z</time>
      </trkpt>
      <trkpt lat="45.85001" lon="4.78264">
        <ele>599</ele>
        <time>2012-04-07T14:23:49Z</time>
      </trkpt>
      <trkpt lat="45.84975" lon="4.78267">
        <ele>598</ele>
        <time>2012-04-07T14:23:53Z</time>
      </trkpt>
      <trkpt lat="45.84961" lon="4.78248">
        <ele>597</ele>
        <time>2012-04-07T14:23:56Z</time>
      </trkpt>
      <trkpt lat="45.8495" lon="4.78221">
        <ele>596</ele>
        <time>2012-04-07T14:23:59Z</time>
      </trkpt>
      <trkpt lat="45.8493" lon="4.78203">
        <ele>594</ele>
        <time>2012-04-07T14:24:03Z</time>
      </trkpt>
      <trkpt lat="45.84921" lon="4.7825">
        <ele>592</ele>
        <time>2012-04-07T14:24:07Z</time>
      </trkpt>
      <trkpt lat="45.84928" lon="4.7828">
        <ele>590</ele>
        <time>2012-04-07T14:24:10Z</time>
      </trkpt>
      <trkpt lat="45.84948" lon="4.78314">
        <ele>587</ele>
        <time>2012-04-07T14:24:14Z</time>
      </trkpt>
      <trkpt lat="45.8497" lon="4.7833">
        <ele>586</ele>
        <time>2012-04-07T14:24:17Z</time>
      </trkpt>
      <trkpt lat="45.84996" lon="4.78328">
        <ele>586</ele>
        <time>2012-04-07T14:24:20Z</time>
      </trkpt>
      <trkpt lat="45.85022" lon="4.78312">
        <ele>586</ele>
        <time>2012-04-07T14:24:23Z</time>
      </trkpt>
      <trkpt lat="45.85057" lon="4.78287">
        <ele>586</ele>
        <time>2012-04-07T14:24:27Z</time>
      </trkpt>
      <trkpt lat="45.85095" lon="4.78265">
        <ele>584</ele>
        <time>2012-04-07T14:24:31Z</time>
      </trkpt>
      <trkpt lat="45.85125" lon="4.78251">
        <ele>583</ele>
        <time>2012-04-07T14:24:34Z</time>
      </trkpt>
      <trkpt lat="45.85154" lon="4.78248">
        <ele>583</ele>
        <time>2012-04-07T14:24:37Z</time>
      </trkpt>
      <trkpt lat="45.85183" lon="4.78258">
        <ele>583</ele>
        <time>2012-04-07T14:24:40Z</time>
      </trkpt>
      <trkpt lat="45.85209" lon="4.7828">
        <ele>583</ele>
        <time>2012-04-07T14:24:43Z</time>
      </trkpt>
      <trkpt lat="45.85232" lon="4.78312">
        <ele>581</ele>
        <time>2012-04-07T14:24:46Z</time>
      </trkpt>
      <trkpt lat="45.85255" lon="4.78346">
        <ele>579</ele>
        <time>2012-04-07T14:24:49Z</time>
      </trkpt>
      <trkpt lat="45.85279" lon="4.78383">
        <ele>577</ele>
        <time>2012-04-07T14:24:52Z</time>
      </trkpt>
      <trkpt lat="45.85299" lon="4.78423">
        <ele>574</ele>
        <time>2012-04-07T14:24:55Z</time>
      </trkpt>
      <trkpt lat="45.85318" lon="4.78458">
        <ele>571</ele>
        <time>2012-04-07T14:24:58Z</time>
      </trkpt>
      <trkpt lat="45.85338" lon="4.78483">
        <ele>568</ele>
        <time>2012-04-07T14:25:01Z</time>
      </trkpt>
      <trkpt lat="45.85371" lon="4.78496">
        <ele>566</ele>
        <time>2012-04-07T14:25:05Z</time>
      </trkpt>
      <trkpt lat="45.85395" lon="4.78499">
        <ele>565</ele>
        <time>2012-04-07T14:25:08Z</time>
      </trkpt>
      <trkpt lat="45.85425" lon="4.78507">
        <ele>563</ele>
        <time>2012-04-07T14:25:12Z</time>
      </trkpt>
      <trkpt lat="45.85442" lon="4.78516">
        <ele>562</ele>
        <time>2012-04-07T14:25:15Z</time>
      </trkpt>
      <trkpt lat="45.85456" lon="4.78524">
        <ele>561</ele>
        <time>2012-04-07T14:25:18Z</time>
      </trkpt>
      <trkpt lat="45.85467" lon="4.78528">
        <ele>560</ele>
        <time>2012-04-07T14:25:21Z</time>
      </trkpt>
      <trkpt lat="45.85472" lon="4.7852">
        <ele>558</ele>
        <time>2012-04-07T14:25:25Z</time>
      </trkpt>
      <trkpt lat="45.85469" lon="4.78514">
        <ele>556</ele>
        <time>2012-04-07T14:25:28Z</time>
      </trkpt>
      <trkpt lat="45.85462" lon="4.78512">
        <ele>553</ele>
        <time>2012-04-07T14:25:32Z</time>
      </trkpt>
      <trkpt lat="45.85456" lon="4.78511">
        <ele>552</ele>
        <time>2012-04-07T14:25:35Z</time>
      </trkpt>
      <trkpt lat="45.85451" lon="4.78507">
        <ele>551</ele>
        <time>2012-04-07T14:25:38Z</time>
      </trkpt>
      <trkpt lat="45.85446" lon="4.78502">
        <ele>550</ele>
        <time>2012-04-07T14:25:41Z</time>
      </trkpt>
      <trkpt lat="45.85441" lon="4.78499">
        <ele>550</ele>
        <time>2012-04-07T14:25:44Z</time>
      </trkpt>
      <trkpt lat="45.85437" lon="4.78492">
        <ele>550</ele>
        <time>2012-04-07T14:25:47Z</time>
      </trkpt>
      <trkpt lat="45.85431" lon="4.78484">
        <ele>550</ele>
        <time>2012-04-07T14:25:50Z</time>
      </trkpt>
      <trkpt lat="45.85425" lon="4.78476">
        <ele>550</ele>
        <time>2012-04-07T14:25:53Z</time>
      </trkpt>
      <trkpt lat="45.85419" lon="4.78468">
        <ele>550</ele>
        <time>2012-04-07T14:25:56Z</time>
      </trkpt>
      <trkpt lat="45.8541" lon="4.78458">
        <ele>550</ele>
        <time>2012-04-07T14:26:00Z</time>
      </trkpt>
      <trkpt lat="45.85404" lon="4.7845">
        <ele>550</ele>
        <time>2012-04-07T14:26:03Z</time>
      </trkpt>
      <trkpt lat="45.85397" lon="4.78443">
        <ele>550</ele>
        <time>2012-04-07T14:26:06Z</time>
      </trkpt>
      <trkpt lat="45.85391" lon="4.78434">
        <ele>550</ele>
        <time>2012-04-07T14:26:09Z</time>
      </trkpt>
      <trkpt lat="45.85384" lon="4.78425">
        <ele>553</ele>
        <time>2012-04-07T14:26:12Z</time>
      </trkpt>
      <trkpt lat="45.85378" lon="4.78414">
        <ele>554</ele>
        <time>2012-04-07T14:26:15Z</time>
      </trkpt>
      <trkpt lat="45.85371" lon="4.78403">
        <ele>556</ele>
        <time>2012-04-07T14:26:18Z</time>
      </trkpt>
      <trkpt lat="45.85363" lon="4.78392">
        <ele>557</ele>
        <time>2012-04-07T14:26:21Z</time>
      </trkpt>
      <trkpt lat="45.85355" lon="4.7838">
        <ele>558</ele>
        <time>2012-04-07T14:26:24Z</time>
      </trkpt>
      <trkpt lat="45.85345" lon="4.78362">
        <ele>560</ele>
        <time>2012-04-07T14:26:28Z</time>
      </trkpt>
      <trkpt lat="45.85339" lon="4.78347">
        <ele>563</ele>
        <time>2012-04-07T14:26:31Z</time>
      </trkpt>
      <trkpt lat="45.85331" lon="4.78332">
        <ele>565</ele>
        <time>2012-04-07T14:26:34Z</time>
      </trkpt>
      <trkpt lat="45.85322" lon="4.78317">
        <ele>567</ele>
        <time>2012-04-07T14:26:37Z</time>
      </trkpt>
      <trkpt lat="45.85312" lon="4.783">
        <ele>569</ele>
        <time>2012-04-07T14:26:40Z</time>
      </trkpt>
      <trkpt lat="45.85302" lon="4.78283">
        <ele>571</ele>
        <time>2012-04-07T14:26:43Z</time>
      </trkpt>
      <trkpt lat="45.85291" lon="4.78265">
        <ele>571</ele>
        <time>2012-04-07T14:26:46Z</time>
      </trkpt>
      <trkpt lat="45.85274" lon="4.78241">
        <ele>571</ele>
        <time>2012-04-07T14:26:50Z</time>
      </trkpt>
      <trkpt lat="45.85262" lon="4.78216">
        <ele>571</ele>
        <time>2012-04-07T14:26:53Z</time>
      </trkpt>
      <trkpt lat="45.8525" lon="4.78185">
        <ele>570</ele>
        <time>2012-04-07T14:26:56Z</time>
      </trkpt>
      <trkpt lat="45.85241" lon="4.78151">
        <ele>569</ele>
        <time>2012-04-07T14:26:59Z</time>
      </trkpt>
      <trkpt lat="45.85234" lon="4.78115">
        <ele>567</ele>
        <time>2012-04-07T14:27:02Z</time>
      </trkpt>
      <trkpt lat="45.85229" lon="4.78076">
        <ele>564</ele>
        <time>2012-04-07T14:27:05Z</time>
      </trkpt>
      <trkpt lat="45.85228" lon="4.78034">
        <ele>561</ele>
        <time>2012-04-07T14:27:08Z</time>
      </trkpt>
      <trkpt lat="45.85231" lon="4.77978">
        <ele>554</ele>
        <time>2012-04-07T14:27:12Z</time>
      </trkpt>
      <trkpt lat="45.85237" lon="4.77931">
        <ele>548</ele>
        <time>2012-04-07T14:27:15Z</time>
      </trkpt>
      <trkpt lat="45.85245" lon="4.77881">
        <ele>542</ele>
        <time>2012-04-07T14:27:18Z</time>
      </trkpt>
      <trkpt lat="45.85253" lon="4.77829">
        <ele>536</ele>
        <time>2012-04-07T14:27:21Z</time>
      </trkpt>
      <trkpt lat="45.85262" lon="4.77775">
        <ele>531</ele>
        <time>2012-04-07T14:27:24Z</time>
      </trkpt>
      <trkpt lat="45.85268" lon="4.77729">
        <ele>527</ele>
        <time>2012-04-07T14:27:27Z</time>
      </trkpt>
      <trkpt lat="45.8528" lon="4.77691">
        <ele>524</ele>
        <time>2012-04-07T14:27:30Z</time>
      </trkpt>
      <trkpt lat="45.8531" lon="4.77662">
        <ele>521</ele>
        <time>2012-04-07T14:27:34Z</time>
      </trkpt>
      <trkpt lat="45.85335" lon="4.7766">
        <ele>521</ele>
        <time>2012-04-07T14:27:37Z</time>
      </trkpt>
      <trkpt lat="45.85356" lon="4.77666">
        <ele>524</ele>
        <time>2012-04-07T14:27:40Z</time>
      </trkpt>
      <trkpt lat="45.85378" lon="4.77673">
        <ele>524</ele>
        <time>2012-04-07T14:27:43Z</time>
      </trkpt>
      <trkpt lat="45.854" lon="4.77681">
        <ele>524</ele>
        <time>2012-04-07T14:27:46Z</time>
      </trkpt>
      <trkpt lat="45.85423" lon="4.77689">
        <ele>524</ele>
        <time>2012-04-07T14:27:49Z</time>
      </trkpt>
      <trkpt lat="45.85456" lon="4.77696">
        <ele>524</ele>
        <time>2012-04-07T14:27:53Z</time>
      </trkpt>
      <trkpt lat="45.85482" lon="4.77699">
        <ele>524</ele>
        <time>2012-04-07T14:27:56Z</time>
      </trkpt>
      <trkpt lat="45.85507" lon="4.77694">
        <ele>524</ele>
        <time>2012-04-07T14:27:59Z</time>
      </trkpt>
      <trkpt lat="45.85529" lon="4.77664">
        <ele>522</ele>
        <time>2012-04-07T14:28:03Z</time>
      </trkpt>
      <trkpt lat="45.8554" lon="4.77618">
        <ele>518</ele>
        <time>2012-04-07T14:28:07Z</time>
      </trkpt>
      <trkpt lat="45.85546" lon="4.77582">
        <ele>515</ele>
        <time>2012-04-07T14:28:10Z</time>
      </trkpt>
      <trkpt lat="45.85551" lon="4.77542">
        <ele>512</ele>
        <time>2012-04-07T14:28:13Z</time>
      </trkpt>
      <trkpt lat="45.85547" lon="4.77488">
        <ele>508</ele>
        <time>2012-04-07T14:28:17Z</time>
      </trkpt>
      <trkpt lat="45.85529" lon="4.77453">
        <ele>505</ele>
        <time>2012-04-07T14:28:20Z</time>
      </trkpt>
      <trkpt lat="45.85488" lon="4.77424">
        <ele>501</ele>
        <time>2012-04-07T14:28:24Z</time>
      </trkpt>
      <trkpt lat="45.85455" lon="4.77401">
        <ele>498</ele>
        <time>2012-04-07T14:28:27Z</time>
      </trkpt>
      <trkpt lat="45.85423" lon="4.77379">
        <ele>495</ele>
        <time>2012-04-07T14:28:30Z</time>
      </trkpt>
      <trkpt lat="45.85391" lon="4.77362">
        <ele>492</ele>
        <time>2012-04-07T14:28:33Z</time>
      </trkpt>
      <trkpt lat="45.85361" lon="4.77347">
        <ele>491</ele>
        <time>2012-04-07T14:28:36Z</time>
      </trkpt>
      <trkpt lat="45.85329" lon="4.7733">
        <ele>491</ele>
        <time>2012-04-07T14:28:39Z</time>
      </trkpt>
      <trkpt lat="45.85296" lon="4.77312">
        <ele>491</ele>
        <time>2012-04-07T14:28:42Z</time>
      </trkpt>
      <trkpt lat="45.85264" lon="4.77295">
        <ele>494</ele>
        <time>2012-04-07T14:28:45Z</time>
      </trkpt>
      <trkpt lat="45.85229" lon="4.77281">
        <ele>497</ele>
        <time>2012-04-07T14:28:48Z</time>
      </trkpt>
      <trkpt lat="45.85191" lon="4.77276">
        <ele>497</ele>
        <time>2012-04-07T14:28:51Z</time>
      </trkpt>
      <trkpt lat="45.85157" lon="4.77271">
        <ele>494</ele>
        <time>2012-04-07T14:28:54Z</time>
      </trkpt>
      <trkpt lat="45.85125" lon="4.77265">
        <ele>490</ele>
        <time>2012-04-07T14:28:57Z</time>
      </trkpt>
      <trkpt lat="45.85091" lon="4.77263">
        <ele>487</ele>
        <time>2012-04-07T14:29:00Z</time>
      </trkpt>
      <trkpt lat="45.85057" lon="4.77265">
        <ele>481</ele>
        <time>2012-04-07T14:29:03Z</time>
      </trkpt>
      <trkpt lat="45.85024" lon="4.7727">
        <ele>475</ele>
        <time>2012-04-07T14:29:06Z</time>
      </trkpt>
      <trkpt lat="45.84995" lon="4.77284">
        <ele>469</ele>
        <time>2012-04-07T14:29:09Z</time>
      </trkpt>
      <trkpt lat="45.84967" lon="4.77282">
        <ele>463</ele>
        <time>2012-04-07T14:29:12Z</time>
      </trkpt>
      <trkpt lat="45.84939" lon="4.77274">
        <ele>458</ele>
        <time>2012-04-07T14:29:15Z</time>
      </trkpt>
      <trkpt lat="45.8491" lon="4.7727">
        <ele>454</ele>
        <time>2012-04-07T14:29:18Z</time>
      </trkpt>
      <trkpt lat="45.84868" lon="4.77255">
        <ele>446</ele>
        <time>2012-04-07T14:29:22Z</time>
      </trkpt>
      <trkpt lat="45.84842" lon="4.77223">
        <ele>441</ele>
        <time>2012-04-07T14:29:25Z</time>
      </trkpt>
      <trkpt lat="45.84821" lon="4.77188">
        <ele>438</ele>
        <time>2012-04-07T14:29:28Z</time>
      </trkpt>
      <trkpt lat="45.84784" lon="4.77163">
        <ele>436</ele>
        <time>2012-04-07T14:29:32Z</time>
      </trkpt>
      <trkpt lat="45.84753" lon="4.77156">
        <ele>436</ele>
        <time>2012-04-07T14:29:35Z</time>
      </trkpt>
      <trkpt lat="45.8471" lon="4.77146">
        <ele>436</ele>
        <time>2012-04-07T14:29:39Z</time>
      </trkpt>
      <trkpt lat="45.84681" lon="4.7713">
        <ele>436</ele>
        <time>2012-04-07T14:29:42Z</time>
      </trkpt>
      <trkpt lat="45.84657" lon="4.77103">
        <ele>436</ele>
        <time>2012-04-07T14:29:45Z</time>
      </trkpt>
      <trkpt lat="45.84653" lon="4.77063">
        <ele>435</ele>
        <time>2012-04-07T14:29:48Z</time>
      </trkpt>
      <trkpt lat="45.84655" lon="4.77023">
        <ele>434</ele>
        <time>2012-04-07T14:29:51Z</time>
      </trkpt>
      <trkpt lat="45.84655" lon="4.76988">
        <ele>433</ele>
        <time>2012-04-07T14:29:54Z</time>
      </trkpt>
      <trkpt lat="45.84644" lon="4.76952">
        <ele>431</ele>
        <time>2012-04-07T14:29:58Z</time>
      </trkpt>
      <trkpt lat="45.84627" lon="4.76941">
        <ele>430</ele>
        <time>2012-04-07T14:30:01Z</time>
      </trkpt>
      <trkpt lat="45.84601" lon="4.7694">
        <ele>430</ele>
        <time>2012-04-07T14:30:05Z</time>
      </trkpt>
      <trkpt lat="45.84581" lon="4.76943">
        <ele>430</ele>
        <time>2012-04-07T14:30:08Z</time>
      </trkpt>
      <trkpt lat="45.84563" lon="4.76951">
        <ele>430</ele>
        <time>2012-04-07T14:30:11Z</time>
      </trkpt>
      <trkpt lat="45.84541" lon="4.76968">
        <ele>430</ele>
        <time>2012-04-07T14:30:15Z</time>
      </trkpt>
      <trkpt lat="45.84525" lon="4.77">
        <ele>430</ele>
        <time>2012-04-07T14:30:19Z</time>
      </trkpt>
      <trkpt lat="45.84508" lon="4.77015">
        <ele>430</ele>
        <time>2012-04-07T14:30:22Z</time>
      </trkpt>
      <trkpt lat="45.84487" lon="4.77011">
        <ele>430</ele>
        <time>2012-04-07T14:30:25Z</time>
      </trkpt>
      <trkpt lat="45.84466" lon="4.77007">
        <ele>430</ele>
        <time>2012-04-07T14:30:28Z</time>
      </trkpt>
      <trkpt lat="45.84448" lon="4.77">
        <ele>428</ele>
        <time>2012-04-07T14:30:31Z</time>
      </trkpt>
      <trkpt lat="45.84424" lon="4.7697">
        <ele>424</ele>
        <time>2012-04-07T14:30:35Z</time>
      </trkpt>
      <trkpt lat="45.84412" lon="4.7694">
        <ele>423</ele>
        <time>2012-04-07T14:30:38Z</time>
      </trkpt>
      <trkpt lat="45.84389" lon="4.76921">
        <ele>423</ele>
        <time>2012-04-07T14:30:42Z</time>
      </trkpt>
      <trkpt lat="45.84371" lon="4.76927">
        <ele>423</ele>
        <time>2012-04-07T14:30:45Z</time>
      </trkpt>
      <trkpt lat="45.84356" lon="4.76932">
        <ele>423</ele>
        <time>2012-04-07T14:30:48Z</time>
      </trkpt>
      <trkpt lat="45.84349" lon="4.76934">
        <ele>421</ele>
        <time>2012-04-07T14:30:51Z</time>
      </trkpt>
      <trkpt lat="45.84348" lon="4.76937">
        <ele>421</ele>
        <time>2012-04-07T14:30:55Z</time>
      </trkpt>
      <trkpt lat="45.84345" lon="4.76941">
        <ele>421</ele>
        <time>2012-04-07T14:30:59Z</time>
      </trkpt>
      <trkpt lat="45.84346" lon="4.76941">
        <ele>423</ele>
        <time>2012-04-07T14:31:17Z</time>
      </trkpt>
      <trkpt lat="45.84348" lon="4.7694">
        <ele>429</ele>
        <time>2012-04-07T14:31:26Z</time>
      </trkpt>
      <trkpt lat="45.84346" lon="4.76939">
        <ele>430</ele>
        <time>2012-04-07T14:31:29Z</time>
      </trkpt>
      <trkpt lat="45.84341" lon="4.7694">
        <ele>432</ele>
        <time>2012-04-07T14:31:32Z</time>
      </trkpt>
      <trkpt lat="45.84332" lon="4.76939">
        <ele>432</ele>
        <time>2012-04-07T14:31:35Z</time>
      </trkpt>
      <trkpt lat="45.84328" lon="4.7693">
        <ele>432</ele>
        <time>2012-04-07T14:31:39Z</time>
      </trkpt>
      <trkpt lat="45.84338" lon="4.76909">
        <ele>432</ele>
        <time>2012-04-07T14:31:43Z</time>
      </trkpt>
      <trkpt lat="45.84343" lon="4.76893">
        <ele>432</ele>
        <time>2012-04-07T14:31:46Z</time>
      </trkpt>
      <trkpt lat="45.84351" lon="4.76877">
        <ele>431</ele>
        <time>2012-04-07T14:31:49Z</time>
      </trkpt>
      <trkpt lat="45.84362" lon="4.76862">
        <ele>428</ele>
        <time>2012-04-07T14:31:52Z</time>
      </trkpt>
      <trkpt lat="45.84385" lon="4.7684">
        <ele>422</ele>
        <time>2012-04-07T14:31:56Z</time>
      </trkpt>
      <trkpt lat="45.84405" lon="4.76825">
        <ele>419</ele>
        <time>2012-04-07T14:31:59Z</time>
      </trkpt>
      <trkpt lat="45.84429" lon="4.7681">
        <ele>418</ele>
        <time>2012-04-07T14:32:02Z</time>
      </trkpt>
      <trkpt lat="45.84464" lon="4.76788">
        <ele>420</ele>
        <time>2012-04-07T14:32:06Z</time>
      </trkpt>
      <trkpt lat="45.84497" lon="4.76773">
        <ele>424</ele>
        <time>2012-04-07T14:32:10Z</time>
      </trkpt>
      <trkpt lat="45.84522" lon="4.76758">
        <ele>427</ele>
        <time>2012-04-07T14:32:13Z</time>
      </trkpt>
      <trkpt lat="45.84545" lon="4.76744">
        <ele>432</ele>
        <time>2012-04-07T14:32:16Z</time>
      </trkpt>
      <trkpt lat="45.84577" lon="4.76724">
        <ele>437</ele>
        <time>2012-04-07T14:32:20Z</time>
      </trkpt>
      <trkpt lat="45.84599" lon="4.76699">
        <ele>440</ele>
        <time>2012-04-07T14:32:23Z</time>
      </trkpt>
      <trkpt lat="45.84613" lon="4.76666">
        <ele>441</ele>
        <time>2012-04-07T14:32:26Z</time>
      </trkpt>
      <trkpt lat="45.84623" lon="4.76631">
        <ele>441</ele>
        <time>2012-04-07T14:32:29Z</time>
      </trkpt>
      <trkpt lat="45.8463" lon="4.76595">
        <ele>439</ele>
        <time>2012-04-07T14:32:32Z</time>
      </trkpt>
      <trkpt lat="45.84639" lon="4.76561">
        <ele>433</ele>
        <time>2012-04-07T14:32:35Z</time>
      </trkpt>
      <trkpt lat="45.84651" lon="4.76536">
        <ele>427</ele>
        <time>2012-04-07T14:32:38Z</time>
      </trkpt>
      <trkpt lat="45.84683" lon="4.76526">
        <ele>418</ele>
        <time>2012-04-07T14:32:42Z</time>
      </trkpt>
      <trkpt lat="45.84707" lon="4.76551">
        <ele>409</ele>
        <time>2012-04-07T14:32:45Z</time>
      </trkpt>
      <trkpt lat="45.84731" lon="4.76577">
        <ele>403</ele>
        <time>2012-04-07T14:32:48Z</time>
      </trkpt>
      <trkpt lat="45.84756" lon="4.76604">
        <ele>397</ele>
        <time>2012-04-07T14:32:51Z</time>
      </trkpt>
      <trkpt lat="45.84782" lon="4.7662">
        <ele>391</ele>
        <time>2012-04-07T14:32:54Z</time>
      </trkpt>
      <trkpt lat="45.84812" lon="4.766">
        <ele>383</ele>
        <time>2012-04-07T14:32:58Z</time>
      </trkpt>
      <trkpt lat="45.84828" lon="4.76567">
        <ele>377</ele>
        <time>2012-04-07T14:33:01Z</time>
      </trkpt>
      <trkpt lat="45.84842" lon="4.76526">
        <ele>371</ele>
        <time>2012-04-07T14:33:04Z</time>
      </trkpt>
      <trkpt lat="45.84856" lon="4.76485">
        <ele>365</ele>
        <time>2012-04-07T14:33:07Z</time>
      </trkpt>
      <trkpt lat="45.84872" lon="4.76447">
        <ele>361</ele>
        <time>2012-04-07T14:33:10Z</time>
      </trkpt>
      <trkpt lat="45.84893" lon="4.76395">
        <ele>357</ele>
        <time>2012-04-07T14:33:14Z</time>
      </trkpt>
      <trkpt lat="45.84909" lon="4.76356">
        <ele>354</ele>
        <time>2012-04-07T14:33:17Z</time>
      </trkpt>
      <trkpt lat="45.84924" lon="4.76318">
        <ele>351</ele>
        <time>2012-04-07T14:33:20Z</time>
      </trkpt>
      <trkpt lat="45.84944" lon="4.76267">
        <ele>347</ele>
        <time>2012-04-07T14:33:24Z</time>
      </trkpt>
      <trkpt lat="45.84961" lon="4.7623">
        <ele>347</ele>
        <time>2012-04-07T14:33:27Z</time>
      </trkpt>
      <trkpt lat="45.8498" lon="4.76197">
        <ele>347</ele>
        <time>2012-04-07T14:33:30Z</time>
      </trkpt>
      <trkpt lat="45.85003" lon="4.7617">
        <ele>347</ele>
        <time>2012-04-07T14:33:33Z</time>
      </trkpt>
      <trkpt lat="45.85028" lon="4.76142">
        <ele>347</ele>
        <time>2012-04-07T14:33:36Z</time>
      </trkpt>
      <trkpt lat="45.85055" lon="4.76114">
        <ele>350</ele>
        <time>2012-04-07T14:33:39Z</time>
      </trkpt>
      <trkpt lat="45.85082" lon="4.76087">
        <ele>355</ele>
        <time>2012-04-07T14:33:42Z</time>
      </trkpt>
      <trkpt lat="45.85109" lon="4.76059">
        <ele>361</ele>
        <time>2012-04-07T14:33:45Z</time>
      </trkpt>
      <trkpt lat="45.85137" lon="4.76034">
        <ele>367</ele>
        <time>2012-04-07T14:33:48Z</time>
      </trkpt>
      <trkpt lat="45.85165" lon="4.7601">
        <ele>375</ele>
        <time>2012-04-07T14:33:51Z</time>
      </trkpt>
      <trkpt lat="45.85194" lon="4.75986">
        <ele>381</ele>
        <time>2012-04-07T14:33:54Z</time>
      </trkpt>
      <trkpt lat="45.8522" lon="4.75963">
        <ele>384</ele>
        <time>2012-04-07T14:33:57Z</time>
      </trkpt>
      <trkpt lat="45.85243" lon="4.75941">
        <ele>387</ele>
        <time>2012-04-07T14:34:00Z</time>
      </trkpt>
      <trkpt lat="45.85263" lon="4.75924">
        <ele>389</ele>
        <time>2012-04-07T14:34:03Z</time>
      </trkpt>
      <trkpt lat="45.8528" lon="4.75912">
        <ele>388</ele>
        <time>2012-04-07T14:34:06Z</time>
      </trkpt>
      <trkpt lat="45.85293" lon="4.75911">
        <ele>382</ele>
        <time>2012-04-07T14:34:10Z</time>
      </trkpt>
      <trkpt lat="45.85294" lon="4.75914">
        <ele>361</ele>
        <time>2012-04-07T14:34:17Z</time>
      </trkpt>
      <trkpt lat="45.85295" lon="4.75915">
        <ele>349</ele>
        <time>2012-04-07T14:34:22Z</time>
      </trkpt>
      <trkpt lat="45.85296" lon="4.75916">
        <ele>335</ele>
        <time>2012-04-07T14:34:33Z</time>
      </trkpt>
      <trkpt lat="45.85296" lon="4.75918">
        <ele>331</ele>
        <time>2012-04-07T14:34:37Z</time>
      </trkpt>
      <trkpt lat="45.85294" lon="4.75918">
        <ele>327</ele>
        <time>2012-04-07T14:34:43Z</time>
      </trkpt>
      <trkpt lat="45.85293" lon="4.75918">
        <ele>327</ele>
        <time>2012-04-07T14:34:49Z</time>
      </trkpt>
      <trkpt lat="45.85292" lon="4.75919">
        <ele>327</ele>
        <time>2012-04-07T14:34:55Z</time>
      </trkpt>
      <trkpt lat="45.85291" lon="4.75919">
        <ele>327</ele>
        <time>2012-04-07T14:35:03Z</time>
      </trkpt>
      <trkpt lat="45.8529" lon="4.75919">
        <ele>327</ele>
        <time>2012-04-07T14:35:19Z</time>
      </trkpt>
      <trkpt lat="45.85291" lon="4.7592">
        <ele>327</ele>
        <time>2012-04-07T14:35:38Z</time>
      </trkpt>
      <trkpt lat="45.8529" lon="4.7592">
        <ele>331</ele>
        <time>2012-04-07T14:36:05Z</time>
      </trkpt>
      <trkpt lat="45.85289" lon="4.7592">
        <ele>331</ele>
        <time>2012-04-07T14:36:33Z</time>
      </trkpt>
      <trkpt lat="45.85289" lon="4.75925">
        <ele>331</ele>
        <time>2012-04-07T14:36:36Z</time>
      </trkpt>
      <trkpt lat="45.8529" lon="4.75929">
        <ele>331</ele>
        <time>2012-04-07T14:36:39Z</time>
      </trkpt>
      <trkpt lat="45.85292" lon="4.75938">
        <ele>331</ele>
        <time>2012-04-07T14:36:43Z</time>
      </trkpt>
      <trkpt lat="45.85293" lon="4.75947">
        <ele>331</ele>
        <time>2012-04-07T14:36:47Z</time>
      </trkpt>
      <trkpt lat="45.85293" lon="4.75952">
        <ele>331</ele>
        <time>2012-04-07T14:36:50Z</time>
      </trkpt>
      <trkpt lat="45.85293" lon="4.7596">
        <ele>331</ele>
        <time>2012-04-07T14:36:53Z</time>
      </trkpt>
      <trkpt lat="45.85293" lon="4.75969">
        <ele>330</ele>
        <time>2012-04-07T14:36:57Z</time>
      </trkpt>
      <trkpt lat="45.85293" lon="4.75975">
        <ele>329</ele>
        <time>2012-04-07T14:37:00Z</time>
      </trkpt>
      <trkpt lat="45.85293" lon="4.7598">
        <ele>328</ele>
        <time>2012-04-07T14:37:03Z</time>
      </trkpt>
      <trkpt lat="45.85294" lon="4.75988">
        <ele>325</ele>
        <time>2012-04-07T14:37:07Z</time>
      </trkpt>
      <trkpt lat="45.85291" lon="4.75996">
        <ele>325</ele>
        <time>2012-04-07T14:37:11Z</time>
      </trkpt>
      <trkpt lat="45.85291" lon="4.7601">
        <ele>322</ele>
        <time>2012-04-07T14:37:14Z</time>
      </trkpt>
      <trkpt lat="45.85291" lon="4.76025">
        <ele>318</ele>
        <time>2012-04-07T14:37:18Z</time>
      </trkpt>
      <trkpt lat="45.85291" lon="4.76036">
        <ele>315</ele>
        <time>2012-04-07T14:37:21Z</time>
      </trkpt>
      <trkpt lat="45.85291" lon="4.76048">
        <ele>312</ele>
        <time>2012-04-07T14:37:24Z</time>
      </trkpt>
      <trkpt lat="45.85291" lon="4.76064">
        <ele>310</ele>
        <time>2012-04-07T14:37:28Z</time>
      </trkpt>
      <trkpt lat="45.8529" lon="4.7608">
        <ele>310</ele>
        <time>2012-04-07T14:37:32Z</time>
      </trkpt>
      <trkpt lat="45.8529" lon="4.76092">
        <ele>310</ele>
        <time>2012-04-07T14:37:35Z</time>
      </trkpt>
      <trkpt lat="45.85292" lon="4.76107">
        <ele>310</ele>
        <time>2012-04-07T14:37:39Z</time>
      </trkpt>
      <trkpt lat="45.85294" lon="4.76117">
        <ele>310</ele>
        <time>2012-04-07T14:37:42Z</time>
      </trkpt>
      <trkpt lat="45.85298" lon="4.76128">
        <ele>311</ele>
        <time>2012-04-07T14:37:45Z</time>
      </trkpt>
      <trkpt lat="45.85304" lon="4.76137">
        <ele>313</ele>
        <time>2012-04-07T14:37:48Z</time>
      </trkpt>
      <trkpt lat="45.85308" lon="4.76151">
        <ele>316</ele>
        <time>2012-04-07T14:37:51Z</time>
      </trkpt>
      <trkpt lat="45.85311" lon="4.76163">
        <ele>317</ele>
        <time>2012-04-07T14:37:54Z</time>
      </trkpt>
      <trkpt lat="45.85315" lon="4.76175">
        <ele>317</ele>
        <time>2012-04-07T14:37:57Z</time>
      </trkpt>
      <trkpt lat="45.85327" lon="4.76186">
        <ele>319</ele>
        <time>2012-04-07T14:38:00Z</time>
      </trkpt>
      <trkpt lat="45.85343" lon="4.76193">
        <ele>322</ele>
        <time>2012-04-07T14:38:04Z</time>
      </trkpt>
      <trkpt lat="45.85357" lon="4.76194">
        <ele>326</ele>
        <time>2012-04-07T14:38:08Z</time>
      </trkpt>
      <trkpt lat="45.85369" lon="4.7619">
        <ele>329</ele>
        <time>2012-04-07T14:38:11Z</time>
      </trkpt>
      <trkpt lat="45.85385" lon="4.76182">
        <ele>333</ele>
        <time>2012-04-07T14:38:15Z</time>
      </trkpt>
      <trkpt lat="45.85397" lon="4.76175">
        <ele>336</ele>
        <time>2012-04-07T14:38:18Z</time>
      </trkpt>
      <trkpt lat="45.85409" lon="4.76167">
        <ele>339</ele>
        <time>2012-04-07T14:38:21Z</time>
      </trkpt>
      <trkpt lat="45.85418" lon="4.76156">
        <ele>342</ele>
        <time>2012-04-07T14:38:24Z</time>
      </trkpt>
      <trkpt lat="45.85437" lon="4.76143">
        <ele>344</ele>
        <time>2012-04-07T14:38:28Z</time>
      </trkpt>
      <trkpt lat="45.85458" lon="4.76127">
        <ele>348</ele>
        <time>2012-04-07T14:38:32Z</time>
      </trkpt>
      <trkpt lat="45.85474" lon="4.76115">
        <ele>351</ele>
        <time>2012-04-07T14:38:35Z</time>
      </trkpt>
      <trkpt lat="45.85496" lon="4.76098">
        <ele>356</ele>
        <time>2012-04-07T14:38:39Z</time>
      </trkpt>
      <trkpt lat="45.85512" lon="4.76087">
        <ele>359</ele>
        <time>2012-04-07T14:38:42Z</time>
      </trkpt>
      <trkpt lat="45.85528" lon="4.76077">
        <ele>361</ele>
        <time>2012-04-07T14:38:45Z</time>
      </trkpt>
      <trkpt lat="45.85543" lon="4.76069">
        <ele>361</ele>
        <time>2012-04-07T14:38:48Z</time>
      </trkpt>
      <trkpt lat="45.85567" lon="4.76056">
        <ele>361</ele>
        <time>2012-04-07T14:38:52Z</time>
      </trkpt>
      <trkpt lat="45.85586" lon="4.76049">
        <ele>360</ele>
        <time>2012-04-07T14:38:55Z</time>
      </trkpt>
      <trkpt lat="45.85609" lon="4.7605">
        <ele>357</ele>
        <time>2012-04-07T14:38:59Z</time>
      </trkpt>
      <trkpt lat="45.85626" lon="4.76052">
        <ele>353</ele>
        <time>2012-04-07T14:39:02Z</time>
      </trkpt>
      <trkpt lat="45.85644" lon="4.76054">
        <ele>347</ele>
        <time>2012-04-07T14:39:05Z</time>
      </trkpt>
      <trkpt lat="45.85659" lon="4.76062">
        <ele>342</ele>
        <time>2012-04-07T14:39:08Z</time>
      </trkpt>
      <trkpt lat="45.85669" lon="4.76079">
        <ele>336</ele>
        <time>2012-04-07T14:39:11Z</time>
      </trkpt>
      <trkpt lat="45.85668" lon="4.76102">
        <ele>330</ele>
        <time>2012-04-07T14:39:14Z</time>
      </trkpt>
      <trkpt lat="45.85665" lon="4.76127">
        <ele>324</ele>
        <time>2012-04-07T14:39:17Z</time>
      </trkpt>
      <trkpt lat="45.85656" lon="4.76152">
        <ele>318</ele>
        <time>2012-04-07T14:39:20Z</time>
      </trkpt>
      <trkpt lat="45.85649" lon="4.7618">
        <ele>310</ele>
        <time>2012-04-07T14:39:24Z</time>
      </trkpt>
      <trkpt lat="45.85643" lon="4.76207">
        <ele>303</ele>
        <time>2012-04-07T14:39:28Z</time>
      </trkpt>
      <trkpt lat="45.85635" lon="4.76226">
        <ele>299</ele>
        <time>2012-04-07T14:39:32Z</time>
      </trkpt>
      <trkpt lat="45.85631" lon="4.76242">
        <ele>299</ele>
        <time>2012-04-07T14:39:35Z</time>
      </trkpt>
      <trkpt lat="45.85628" lon="4.76261">
        <ele>299</ele>
        <time>2012-04-07T14:39:38Z</time>
      </trkpt>
      <trkpt lat="45.85639" lon="4.76274">
        <ele>296</ele>
        <time>2012-04-07T14:39:42Z</time>
      </trkpt>
      <trkpt lat="45.85648" lon="4.76268">
        <ele>296</ele>
        <time>2012-04-07T14:39:45Z</time>
      </trkpt>
      <trkpt lat="45.85659" lon="4.76256">
        <ele>296</ele>
        <time>2012-04-07T14:39:48Z</time>
      </trkpt>
      <trkpt lat="45.85668" lon="4.76246">
        <ele>299</ele>
        <time>2012-04-07T14:39:51Z</time>
      </trkpt>
      <trkpt lat="45.85678" lon="4.76237">
        <ele>302</ele>
        <time>2012-04-07T14:39:54Z</time>
      </trkpt>
      <trkpt lat="45.85688" lon="4.76225">
        <ele>305</ele>
        <time>2012-04-07T14:39:57Z</time>
      </trkpt>
      <trkpt lat="45.85699" lon="4.76213">
        <ele>308</ele>
        <time>2012-04-07T14:40:00Z</time>
      </trkpt>
      <trkpt lat="45.85711" lon="4.76204">
        <ele>311</ele>
        <time>2012-04-07T14:40:03Z</time>
      </trkpt>
      <trkpt lat="45.85721" lon="4.76193">
        <ele>313</ele>
        <time>2012-04-07T14:40:06Z</time>
      </trkpt>
      <trkpt lat="45.85731" lon="4.76182">
        <ele>313</ele>
        <time>2012-04-07T14:40:09Z</time>
      </trkpt>
      <trkpt lat="45.85743" lon="4.76177">
        <ele>313</ele>
        <time>2012-04-07T14:40:12Z</time>
      </trkpt>
      <trkpt lat="45.85755" lon="4.76173">
        <ele>313</ele>
        <time>2012-04-07T14:40:15Z</time>
      </trkpt>
      <trkpt lat="45.85768" lon="4.76171">
        <ele>311</ele>
        <time>2012-04-07T14:40:18Z</time>
      </trkpt>
      <trkpt lat="45.85786" lon="4.76172">
        <ele>310</ele>
        <time>2012-04-07T14:40:22Z</time>
      </trkpt>
      <trkpt lat="45.858" lon="4.76172">
        <ele>308</ele>
        <time>2012-04-07T14:40:25Z</time>
      </trkpt>
      <trkpt lat="45.85811" lon="4.76166">
        <ele>305</ele>
        <time>2012-04-07T14:40:28Z</time>
      </trkpt>
      <trkpt lat="45.85821" lon="4.7616">
        <ele>302</ele>
        <time>2012-04-07T14:40:31Z</time>
      </trkpt>
      <trkpt lat="45.85834" lon="4.7615">
        <ele>300</ele>
        <time>2012-04-07T14:40:35Z</time>
      </trkpt>
      <trkpt lat="45.85844" lon="4.76144">
        <ele>300</ele>
        <time>2012-04-07T14:40:38Z</time>
      </trkpt>
      <trkpt lat="45.85858" lon="4.76137">
        <ele>299</ele>
        <time>2012-04-07T14:40:42Z</time>
      </trkpt>
      <trkpt lat="45.85872" lon="4.76129">
        <ele>299</ele>
        <time>2012-04-07T14:40:46Z</time>
      </trkpt>
      <trkpt lat="45.85885" lon="4.76124">
        <ele>298</ele>
        <time>2012-04-07T14:40:49Z</time>
      </trkpt>
      <trkpt lat="45.85906" lon="4.76115">
        <ele>298</ele>
        <time>2012-04-07T14:40:53Z</time>
      </trkpt>
      <trkpt lat="45.85921" lon="4.76108">
        <ele>298</ele>
        <time>2012-04-07T14:40:56Z</time>
      </trkpt>
      <trkpt lat="45.85934" lon="4.76097">
        <ele>298</ele>
        <time>2012-04-07T14:40:59Z</time>
      </trkpt>
      <trkpt lat="45.85951" lon="4.76084">
        <ele>299</ele>
        <time>2012-04-07T14:41:03Z</time>
      </trkpt>
      <trkpt lat="45.85965" lon="4.76074">
        <ele>300</ele>
        <time>2012-04-07T14:41:06Z</time>
      </trkpt>
      <trkpt lat="45.85981" lon="4.76062">
        <ele>301</ele>
        <time>2012-04-07T14:41:10Z</time>
      </trkpt>
      <trkpt lat="45.85995" lon="4.76053">
        <ele>301</ele>
        <time>2012-04-07T14:41:14Z</time>
      </trkpt>
      <trkpt lat="45.86005" lon="4.76049">
        <ele>302</ele>
        <time>2012-04-07T14:41:17Z</time>
      </trkpt>
      <trkpt lat="45.86013" lon="4.76053">
        <ele>303</ele>
        <time>2012-04-07T14:41:20Z</time>
      </trkpt>
      <trkpt lat="45.86019" lon="4.7606">
        <ele>303</ele>
        <time>2012-04-07T14:41:23Z</time>
      </trkpt>
      <trkpt lat="45.86021" lon="4.7607">
        <ele>303</ele>
        <time>2012-04-07T14:41:26Z</time>
      </trkpt>
      <trkpt lat="45.86024" lon="4.76085">
        <ele>303</ele>
        <time>2012-04-07T14:41:30Z</time>
      </trkpt>
      <trkpt lat="45.86028" lon="4.76097">
        <ele>303</ele>
        <time>2012-04-07T14:41:34Z</time>
      </trkpt>
      <trkpt lat="45.86036" lon="4.76104">
        <ele>303</ele>
        <time>2012-04-07T14:41:38Z</time>
      </trkpt>
      <trkpt lat="45.86043" lon="4.76105">
        <ele>303</ele>
        <time>2012-04-07T14:41:41Z</time>
      </trkpt>
      <trkpt lat="45.86055" lon="4.76098">
        <ele>303</ele>
        <time>2012-04-07T14:41:45Z</time>
      </trkpt>
      <trkpt lat="45.86064" lon="4.76092">
        <ele>303</ele>
        <time>2012-04-07T14:41:48Z</time>
      </trkpt>
      <trkpt lat="45.86073" lon="4.76086">
        <ele>303</ele>
        <time>2012-04-07T14:41:51Z</time>
      </trkpt>
      <trkpt lat="45.86084" lon="4.76079">
        <ele>303</ele>
        <time>2012-04-07T14:41:54Z</time>
      </trkpt>
      <trkpt lat="45.86093" lon="4.76071">
        <ele>303</ele>
        <time>2012-04-07T14:41:57Z</time>
      </trkpt>
      <trkpt lat="45.86105" lon="4.76063">
        <ele>303</ele>
        <time>2012-04-07T14:42:01Z</time>
      </trkpt>
      <trkpt lat="45.86116" lon="4.76054">
        <ele>302</ele>
        <time>2012-04-07T14:42:05Z</time>
      </trkpt>
      <trkpt lat="45.86124" lon="4.76047">
        <ele>300</ele>
        <time>2012-04-07T14:42:08Z</time>
      </trkpt>
      <trkpt lat="45.86132" lon="4.76039">
        <ele>299</ele>
        <time>2012-04-07T14:42:11Z</time>
      </trkpt>
      <trkpt lat="45.86141" lon="4.76032">
        <ele>299</ele>
        <time>2012-04-07T14:42:14Z</time>
      </trkpt>
      <trkpt lat="45.8615" lon="4.76026">
        <ele>299</ele>
        <time>2012-04-07T14:42:17Z</time>
      </trkpt>
      <trkpt lat="45.8616" lon="4.76022">
        <ele>299</ele>
        <time>2012-04-07T14:42:20Z</time>
      </trkpt>
      <trkpt lat="45.86171" lon="4.76023">
        <ele>299</ele>
        <time>2012-04-07T14:42:23Z</time>
      </trkpt>
      <trkpt lat="45.86182" lon="4.76025">
        <ele>299</ele>
        <time>2012-04-07T14:42:26Z</time>
      </trkpt>
      <trkpt lat="45.86192" lon="4.76028">
        <ele>299</ele>
        <time>2012-04-07T14:42:29Z</time>
      </trkpt>
      <trkpt lat="45.86205" lon="4.76029">
        <ele>299</ele>
        <time>2012-04-07T14:42:32Z</time>
      </trkpt>
      <trkpt lat="45.86218" lon="4.76027">
        <ele>299</ele>
        <time>2012-04-07T14:42:35Z</time>
      </trkpt>
      <trkpt lat="45.86235" lon="4.7602">
        <ele>298</ele>
        <time>2012-04-07T14:42:38Z</time>
      </trkpt>
      <trkpt lat="45.86247" lon="4.76018">
        <ele>298</ele>
        <time>2012-04-07T14:42:41Z</time>
      </trkpt>
      <trkpt lat="45.86261" lon="4.76016">
        <ele>298</ele>
        <time>2012-04-07T14:42:44Z</time>
      </trkpt>
      <trkpt lat="45.86273" lon="4.76016">
        <ele>298</ele>
        <time>2012-04-07T14:42:47Z</time>
      </trkpt>
      <trkpt lat="45.86284" lon="4.76015">
        <ele>298</ele>
        <time>2012-04-07T14:42:50Z</time>
      </trkpt>
      <trkpt lat="45.86295" lon="4.76014">
        <ele>298</ele>
        <time>2012-04-07T14:42:53Z</time>
      </trkpt>
      <trkpt lat="45.86312" lon="4.76013">
        <ele>295</ele>
        <time>2012-04-07T14:42:57Z</time>
      </trkpt>
      <trkpt lat="45.86324" lon="4.76013">
        <ele>293</ele>
        <time>2012-04-07T14:43:00Z</time>
      </trkpt>
      <trkpt lat="45.86338" lon="4.76012">
        <ele>292</ele>
        <time>2012-04-07T14:43:03Z</time>
      </trkpt>
      <trkpt lat="45.86357" lon="4.76008">
        <ele>291</ele>
        <time>2012-04-07T14:43:07Z</time>
      </trkpt>
      <trkpt lat="45.8637" lon="4.76008">
        <ele>289</ele>
        <time>2012-04-07T14:43:10Z</time>
      </trkpt>
      <trkpt lat="45.86386" lon="4.76005">
        <ele>286</ele>
        <time>2012-04-07T14:43:13Z</time>
      </trkpt>
      <trkpt lat="45.86402" lon="4.76001">
        <ele>284</ele>
        <time>2012-04-07T14:43:16Z</time>
      </trkpt>
      <trkpt lat="45.8642" lon="4.75997">
        <ele>283</ele>
        <time>2012-04-07T14:43:19Z</time>
      </trkpt>
      <trkpt lat="45.8644" lon="4.75992">
        <ele>283</ele>
        <time>2012-04-07T14:43:22Z</time>
      </trkpt>
      <trkpt lat="45.8646" lon="4.75986">
        <ele>283</ele>
        <time>2012-04-07T14:43:25Z</time>
      </trkpt>
      <trkpt lat="45.86481" lon="4.75981">
        <ele>283</ele>
        <time>2012-04-07T14:43:28Z</time>
      </trkpt>
      <trkpt lat="45.86509" lon="4.75971">
        <ele>281</ele>
        <time>2012-04-07T14:43:32Z</time>
      </trkpt>
      <trkpt lat="45.86529" lon="4.75963">
        <ele>278</ele>
        <time>2012-04-07T14:43:35Z</time>
      </trkpt>
      <trkpt lat="45.86557" lon="4.75948">
        <ele>275</ele>
        <time>2012-04-07T14:43:39Z</time>
      </trkpt>
      <trkpt lat="45.86578" lon="4.75938">
        <ele>273</ele>
        <time>2012-04-07T14:43:42Z</time>
      </trkpt>
      <trkpt lat="45.86599" lon="4.75926">
        <ele>271</ele>
        <time>2012-04-07T14:43:45Z</time>
      </trkpt>
      <trkpt lat="45.86621" lon="4.75917">
        <ele>268</ele>
        <time>2012-04-07T14:43:48Z</time>
      </trkpt>
      <trkpt lat="45.86644" lon="4.75909">
        <ele>266</ele>
        <time>2012-04-07T14:43:51Z</time>
      </trkpt>
      <trkpt lat="45.86666" lon="4.75901">
        <ele>265</ele>
        <time>2012-04-07T14:43:54Z</time>
      </trkpt>
      <trkpt lat="45.86688" lon="4.75887">
        <ele>263</ele>
        <time>2012-04-07T14:43:57Z</time>
      </trkpt>
      <trkpt lat="45.8671" lon="4.7587">
        <ele>262</ele>
        <time>2012-04-07T14:44:00Z</time>
      </trkpt>
      <trkpt lat="45.86732" lon="4.75852">
        <ele>261</ele>
        <time>2012-04-07T14:44:03Z</time>
      </trkpt>
      <trkpt lat="45.8676" lon="4.75833">
        <ele>258</ele>
        <time>2012-04-07T14:44:07Z</time>
      </trkpt>
      <trkpt lat="45.86781" lon="4.75819">
        <ele>257</ele>
        <time>2012-04-07T14:44:10Z</time>
      </trkpt>
      <trkpt lat="45.86798" lon="4.75806">
        <ele>257</ele>
        <time>2012-04-07T14:44:13Z</time>
      </trkpt>
      <trkpt lat="45.86817" lon="4.75794">
        <ele>257</ele>
        <time>2012-04-07T14:44:16Z</time>
      </trkpt>
      <trkpt lat="45.86836" lon="4.75782">
        <ele>256</ele>
        <time>2012-04-07T14:44:19Z</time>
      </trkpt>
      <trkpt lat="45.86859" lon="4.75775">
        <ele>255</ele>
        <time>2012-04-07T14:44:22Z</time>
      </trkpt>
      <trkpt lat="45.86882" lon="4.75769">
        <ele>254</ele>
        <time>2012-04-07T14:44:25Z</time>
      </trkpt>
      <trkpt lat="45.86904" lon="4.75764">
        <ele>254</ele>
        <time>2012-04-07T14:44:28Z</time>
      </trkpt>
      <trkpt lat="45.86922" lon="4.75757">
        <ele>254</ele>
        <time>2012-04-07T14:44:31Z</time>
      </trkpt>
      <trkpt lat="45.86932" lon="4.75733">
        <ele>254</ele>
        <time>2012-04-07T14:44:35Z</time>
      </trkpt>
      <trkpt lat="45.8694" lon="4.75719">
        <ele>252</ele>
        <time>2012-04-07T14:44:38Z</time>
      </trkpt>
      <trkpt lat="45.86951" lon="4.75712">
        <ele>249</ele>
        <time>2012-04-07T14:44:41Z</time>
      </trkpt>
      <trkpt lat="45.86973" lon="4.75704">
        <ele>247</ele>
        <time>2012-04-07T14:44:45Z</time>
      </trkpt>
      <trkpt lat="45.86994" lon="4.75698">
        <ele>245</ele>
        <time>2012-04-07T14:44:48Z</time>
      </trkpt>
      <trkpt lat="45.87019" lon="4.75691">
        <ele>244</ele>
        <time>2012-04-07T14:44:51Z</time>
      </trkpt>
      <trkpt lat="45.87045" lon="4.75685">
        <ele>241</ele>
        <time>2012-04-07T14:44:54Z</time>
      </trkpt>
      <trkpt lat="45.8707" lon="4.75679">
        <ele>239</ele>
        <time>2012-04-07T14:44:57Z</time>
      </trkpt>
      <trkpt lat="45.87096" lon="4.75673">
        <ele>237</ele>
        <time>2012-04-07T14:45:00Z</time>
      </trkpt>
      <trkpt lat="45.87119" lon="4.75668">
        <ele>234</ele>
        <time>2012-04-07T14:45:03Z</time>
      </trkpt>
      <trkpt lat="45.8714" lon="4.75663">
        <ele>232</ele>
        <time>2012-04-07T14:45:06Z</time>
      </trkpt>
      <trkpt lat="45.87157" lon="4.75659">
        <ele>230</ele>
        <time>2012-04-07T14:45:09Z</time>
      </trkpt>
      <trkpt lat="45.87168" lon="4.7566">
        <ele>229</ele>
        <time>2012-04-07T14:45:12Z</time>
      </trkpt>
      <trkpt lat="45.87173" lon="4.7567">
        <ele>228</ele>
        <time>2012-04-07T14:45:15Z</time>
      </trkpt>
      <trkpt lat="45.87175" lon="4.75684">
        <ele>228</ele>
        <time>2012-04-07T14:45:18Z</time>
      </trkpt>
      <trkpt lat="45.87177" lon="4.75701">
        <ele>227</ele>
        <time>2012-04-07T14:45:21Z</time>
      </trkpt>
      <trkpt lat="45.8718" lon="4.75718">
        <ele>226</ele>
        <time>2012-04-07T14:45:24Z</time>
      </trkpt>
      <trkpt lat="45.87185" lon="4.75735">
        <ele>226</ele>
        <time>2012-04-07T14:45:27Z</time>
      </trkpt>
      <trkpt lat="45.87191" lon="4.75755">
        <ele>226</ele>
        <time>2012-04-07T14:45:30Z</time>
      </trkpt>
      <trkpt lat="45.87197" lon="4.75777">
        <ele>225</ele>
        <time>2012-04-07T14:45:33Z</time>
      </trkpt>
      <trkpt lat="45.87204" lon="4.75799">
        <ele>225</ele>
        <time>2012-04-07T14:45:36Z</time>
      </trkpt>
      <trkpt lat="45.87209" lon="4.7582">
        <ele>225</ele>
        <time>2012-04-07T14:45:39Z</time>
      </trkpt>
      <trkpt lat="45.87214" lon="4.75844">
        <ele>225</ele>
        <time>2012-04-07T14:45:42Z</time>
      </trkpt>
      <trkpt lat="45.87217" lon="4.75867">
        <ele>225</ele>
        <time>2012-04-07T14:45:45Z</time>
      </trkpt>
      <trkpt lat="45.87218" lon="4.75888">
        <ele>225</ele>
        <time>2012-04-07T14:45:48Z</time>
      </trkpt>
      <trkpt lat="45.87218" lon="4.75909">
        <ele>224</ele>
        <time>2012-04-07T14:45:51Z</time>
      </trkpt>
      <trkpt lat="45.8722" lon="4.75931">
        <ele>222</ele>
        <time>2012-04-07T14:45:54Z</time>
      </trkpt>
      <trkpt lat="45.87222" lon="4.75948">
        <ele>220</ele>
        <time>2012-04-07T14:45:57Z</time>
      </trkpt>
      <trkpt lat="45.87223" lon="4.75973">
        <ele>219</ele>
        <time>2012-04-07T14:46:01Z</time>
      </trkpt>
      <trkpt lat="45.87225" lon="4.75991">
        <ele>216</ele>
        <time>2012-04-07T14:46:04Z</time>
      </trkpt>
      <trkpt lat="45.87227" lon="4.76007">
        <ele>215</ele>
        <time>2012-04-07T14:46:07Z</time>
      </trkpt>
      <trkpt lat="45.87228" lon="4.76022">
        <ele>215</ele>
        <time>2012-04-07T14:46:10Z</time>
      </trkpt>
      <trkpt lat="45.8723" lon="4.76037">
        <ele>215</ele>
        <time>2012-04-07T14:46:13Z</time>
      </trkpt>
      <trkpt lat="45.87231" lon="4.76053">
        <ele>215</ele>
        <time>2012-04-07T14:46:16Z</time>
      </trkpt>
      <trkpt lat="45.87233" lon="4.7607">
        <ele>215</ele>
        <time>2012-04-07T14:46:19Z</time>
      </trkpt>
      <trkpt lat="45.87234" lon="4.76087">
        <ele>215</ele>
        <time>2012-04-07T14:46:22Z</time>
      </trkpt>
      <trkpt lat="45.87235" lon="4.76105">
        <ele>216</ele>
        <time>2012-04-07T14:46:25Z</time>
      </trkpt>
      <trkpt lat="45.87237" lon="4.76124">
        <ele>217</ele>
        <time>2012-04-07T14:46:28Z</time>
      </trkpt>
      <trkpt lat="45.87238" lon="4.76143">
        <ele>217</ele>
        <time>2012-04-07T14:46:31Z</time>
      </trkpt>
      <trkpt lat="45.87239" lon="4.76164">
        <ele>217</ele>
        <time>2012-04-07T14:46:34Z</time>
      </trkpt>
      <trkpt lat="45.87241" lon="4.76185">
        <ele>217</ele>
        <time>2012-04-07T14:46:37Z</time>
      </trkpt>
      <trkpt lat="45.87242" lon="4.76205">
        <ele>217</ele>
        <time>2012-04-07T14:46:40Z</time>
      </trkpt>
      <trkpt lat="45.87243" lon="4.76225">
        <ele>217</ele>
        <time>2012-04-07T14:46:43Z</time>
      </trkpt>
      <trkpt lat="45.87244" lon="4.76245">
        <ele>217</ele>
        <time>2012-04-07T14:46:46Z</time>
      </trkpt>
      <trkpt lat="45.87245" lon="4.76266">
        <ele>217</ele>
        <time>2012-04-07T14:46:49Z</time>
      </trkpt>
      <trkpt lat="45.87247" lon="4.76286">
        <ele>217</ele>
        <time>2012-04-07T14:46:52Z</time>
      </trkpt>
      <trkpt lat="45.87247" lon="4.76306">
        <ele>216</ele>
        <time>2012-04-07T14:46:55Z</time>
      </trkpt>
      <trkpt lat="45.87247" lon="4.76327">
        <ele>214</ele>
        <time>2012-04-07T14:46:58Z</time>
      </trkpt>
      <trkpt lat="45.87249" lon="4.76347">
        <ele>211</ele>
        <time>2012-04-07T14:47:01Z</time>
      </trkpt>
      <trkpt lat="45.87251" lon="4.76368">
        <ele>209</ele>
        <time>2012-04-07T14:47:04Z</time>
      </trkpt>
      <trkpt lat="45.87252" lon="4.76389">
        <ele>208</ele>
        <time>2012-04-07T14:47:07Z</time>
      </trkpt>
      <trkpt lat="45.87251" lon="4.76409">
        <ele>208</ele>
        <time>2012-04-07T14:47:10Z</time>
      </trkpt>
      <trkpt lat="45.87251" lon="4.76429">
        <ele>206</ele>
        <time>2012-04-07T14:47:13Z</time>
      </trkpt>
      <trkpt lat="45.87255" lon="4.76456">
        <ele>206</ele>
        <time>2012-04-07T14:47:17Z</time>
      </trkpt>
      <trkpt lat="45.87258" lon="4.76476">
        <ele>208</ele>
        <time>2012-04-07T14:47:20Z</time>
      </trkpt>
      <trkpt lat="45.87259" lon="4.76497">
        <ele>210</ele>
        <time>2012-04-07T14:47:23Z</time>
      </trkpt>
      <trkpt lat="45.8726" lon="4.76518">
        <ele>211</ele>
        <time>2012-04-07T14:47:26Z</time>
      </trkpt>
      <trkpt lat="45.87261" lon="4.7654">
        <ele>213</ele>
        <time>2012-04-07T14:47:29Z</time>
      </trkpt>
      <trkpt lat="45.8726" lon="4.76563">
        <ele>215</ele>
        <time>2012-04-07T14:47:32Z</time>
      </trkpt>
      <trkpt lat="45.87262" lon="4.76594">
        <ele>216</ele>
        <time>2012-04-07T14:47:36Z</time>
      </trkpt>
      <trkpt lat="45.87264" lon="4.76625">
        <ele>217</ele>
        <time>2012-04-07T14:47:40Z</time>
      </trkpt>
      <trkpt lat="45.87262" lon="4.76641">
        <ele>217</ele>
        <time>2012-04-07T14:47:43Z</time>
      </trkpt>
      <trkpt lat="45.87261" lon="4.7665">
        <ele>217</ele>
        <time>2012-04-07T14:47:46Z</time>
      </trkpt>
      <trkpt lat="45.87268" lon="4.76653">
        <ele>217</ele>
        <time>2012-04-07T14:47:49Z</time>
      </trkpt>
      <trkpt lat="45.87282" lon="4.76649">
        <ele>217</ele>
        <time>2012-04-07T14:47:53Z</time>
      </trkpt>
      <trkpt lat="45.87296" lon="4.76644">
        <ele>217</ele>
        <time>2012-04-07T14:47:56Z</time>
      </trkpt>
      <trkpt lat="45.87309" lon="4.7664">
        <ele>217</ele>
        <time>2012-04-07T14:47:59Z</time>
      </trkpt>
      <trkpt lat="45.87324" lon="4.76637">
        <ele>219</ele>
        <time>2012-04-07T14:48:02Z</time>
      </trkpt>
      <trkpt lat="45.87339" lon="4.76633">
        <ele>222</ele>
        <time>2012-04-07T14:48:05Z</time>
      </trkpt>
      <trkpt lat="45.87353" lon="4.76625">
        <ele>225</ele>
        <time>2012-04-07T14:48:08Z</time>
      </trkpt>
      <trkpt lat="45.87372" lon="4.76615">
        <ele>226</ele>
        <time>2012-04-07T14:48:12Z</time>
      </trkpt>
      <trkpt lat="45.8739" lon="4.76603">
        <ele>226</ele>
        <time>2012-04-07T14:48:16Z</time>
      </trkpt>
      <trkpt lat="45.87403" lon="4.76592">
        <ele>226</ele>
        <time>2012-04-07T14:48:19Z</time>
      </trkpt>
      <trkpt lat="45.87417" lon="4.76581">
        <ele>226</ele>
        <time>2012-04-07T14:48:22Z</time>
      </trkpt>
      <trkpt lat="45.87432" lon="4.76573">
        <ele>226</ele>
        <time>2012-04-07T14:48:25Z</time>
      </trkpt>
      <trkpt lat="45.87448" lon="4.76564">
        <ele>226</ele>
        <time>2012-04-07T14:48:28Z</time>
      </trkpt>
      <trkpt lat="45.8747" lon="4.76552">
        <ele>226</ele>
        <time>2012-04-07T14:48:32Z</time>
      </trkpt>
      <trkpt lat="45.87486" lon="4.76541">
        <ele>226</ele>
        <time>2012-04-07T14:48:35Z</time>
      </trkpt>
      <trkpt lat="45.87497" lon="4.76533">
        <ele>226</ele>
        <time>2012-04-07T14:48:38Z</time>
      </trkpt>
      <trkpt lat="45.87505" lon="4.76522">
        <ele>227</ele>
        <time>2012-04-07T14:48:41Z</time>
      </trkpt>
      <trkpt lat="45.87511" lon="4.76508">
        <ele>228</ele>
        <time>2012-04-07T14:48:44Z</time>
      </trkpt>
      <trkpt lat="45.87519" lon="4.76493">
        <ele>229</ele>
        <time>2012-04-07T14:48:47Z</time>
      </trkpt>
      <trkpt lat="45.8753" lon="4.76471">
        <ele>230</ele>
        <time>2012-04-07T14:48:51Z</time>
      </trkpt>
      <trkpt lat="45.8754" lon="4.76453">
        <ele>230</ele>
        <time>2012-04-07T14:48:54Z</time>
      </trkpt>
      <trkpt lat="45.87551" lon="4.76433">
        <ele>230</ele>
        <time>2012-04-07T14:48:57Z</time>
      </trkpt>
      <trkpt lat="45.87562" lon="4.76412">
        <ele>230</ele>
        <time>2012-04-07T14:49:00Z</time>
      </trkpt>
      <trkpt lat="45.87575" lon="4.76394">
        <ele>230</ele>
        <time>2012-04-07T14:49:03Z</time>
      </trkpt>
      <trkpt lat="45.87588" lon="4.76376">
        <ele>230</ele>
        <time>2012-04-07T14:49:06Z</time>
      </trkpt>
      <trkpt lat="45.87601" lon="4.76359">
        <ele>228</ele>
        <time>2012-04-07T14:49:09Z</time>
      </trkpt>
      <trkpt lat="45.87615" lon="4.7634">
        <ele>226</ele>
        <time>2012-04-07T14:49:12Z</time>
      </trkpt>
      <trkpt lat="45.87629" lon="4.76319">
        <ele>225</ele>
        <time>2012-04-07T14:49:15Z</time>
      </trkpt>
      <trkpt lat="45.87642" lon="4.763">
        <ele>224</ele>
        <time>2012-04-07T14:49:18Z</time>
      </trkpt>
      <trkpt lat="45.87656" lon="4.7628">
        <ele>222</ele>
        <time>2012-04-07T14:49:21Z</time>
      </trkpt>
      <trkpt lat="45.87671" lon="4.76261">
        <ele>221</ele>
        <time>2012-04-07T14:49:24Z</time>
      </trkpt>
      <trkpt lat="45.87686" lon="4.76241">
        <ele>221</ele>
        <time>2012-04-07T14:49:27Z</time>
      </trkpt>
      <trkpt lat="45.87701" lon="4.76221">
        <ele>221</ele>
        <time>2012-04-07T14:49:30Z</time>
      </trkpt>
      <trkpt lat="45.87716" lon="4.76201">
        <ele>221</ele>
        <time>2012-04-07T14:49:33Z</time>
      </trkpt>
      <trkpt lat="45.8773" lon="4.76182">
        <ele>221</ele>
        <time>2012-04-07T14:49:36Z</time>
      </trkpt>
      <trkpt lat="45.87745" lon="4.76163">
        <ele>221</ele>
        <time>2012-04-07T14:49:39Z</time>
      </trkpt>
      <trkpt lat="45.8776" lon="4.76143">
        <ele>221</ele>
        <time>2012-04-07T14:49:42Z</time>
      </trkpt>
      <trkpt lat="45.87775" lon="4.76123">
        <ele>221</ele>
        <time>2012-04-07T14:49:45Z</time>
      </trkpt>
      <trkpt lat="45.87789" lon="4.76104">
        <ele>221</ele>
        <time>2012-04-07T14:49:48Z</time>
      </trkpt>
      <trkpt lat="45.87809" lon="4.76078">
        <ele>221</ele>
        <time>2012-04-07T14:49:52Z</time>
      </trkpt>
      <trkpt lat="45.87824" lon="4.76058">
        <ele>221</ele>
        <time>2012-04-07T14:49:55Z</time>
      </trkpt>
      <trkpt lat="45.87838" lon="4.76038">
        <ele>221</ele>
        <time>2012-04-07T14:49:58Z</time>
      </trkpt>
      <trkpt lat="45.87853" lon="4.76019">
        <ele>221</ele>
        <time>2012-04-07T14:50:01Z</time>
      </trkpt>
      <trkpt lat="45.87868" lon="4.76001">
        <ele>221</ele>
        <time>2012-04-07T14:50:04Z</time>
      </trkpt>
      <trkpt lat="45.87884" lon="4.75983">
        <ele>221</ele>
        <time>2012-04-07T14:50:07Z</time>
      </trkpt>
      <trkpt lat="45.879" lon="4.75967">
        <ele>221</ele>
        <time>2012-04-07T14:50:10Z</time>
      </trkpt>
      <trkpt lat="45.87923" lon="4.75948">
        <ele>220</ele>
        <time>2012-04-07T14:50:14Z</time>
      </trkpt>
      <trkpt lat="45.87942" lon="4.75938">
        <ele>220</ele>
        <time>2012-04-07T14:50:17Z</time>
      </trkpt>
      <trkpt lat="45.87968" lon="4.75927">
        <ele>219</ele>
        <time>2012-04-07T14:50:21Z</time>
      </trkpt>
      <trkpt lat="45.87985" lon="4.75912">
        <ele>218</ele>
        <time>2012-04-07T14:50:24Z</time>
      </trkpt>
      <trkpt lat="45.88" lon="4.75892">
        <ele>217</ele>
        <time>2012-04-07T14:50:27Z</time>
      </trkpt>
      <trkpt lat="45.88015" lon="4.75871">
        <ele>215</ele>
        <time>2012-04-07T14:50:30Z</time>
      </trkpt>
      <trkpt lat="45.88032" lon="4.75849">
        <ele>215</ele>
        <time>2012-04-07T14:50:33Z</time>
      </trkpt>
      <trkpt lat="45.88047" lon="4.75828">
        <ele>215</ele>
        <time>2012-04-07T14:50:36Z</time>
      </trkpt>
      <trkpt lat="45.88057" lon="4.758">
        <ele>214</ele>
        <time>2012-04-07T14:50:39Z</time>
      </trkpt>
      <trkpt lat="45.88059" lon="4.75768">
        <ele>214</ele>
        <time>2012-04-07T14:50:42Z</time>
      </trkpt>
      <trkpt lat="45.88057" lon="4.75735">
        <ele>213</ele>
        <time>2012-04-07T14:50:45Z</time>
      </trkpt>
      <trkpt lat="45.88055" lon="4.75701">
        <ele>211</ele>
        <time>2012-04-07T14:50:48Z</time>
      </trkpt>
      <trkpt lat="45.88057" lon="4.75656">
        <ele>209</ele>
        <time>2012-04-07T14:50:52Z</time>
      </trkpt>
      <trkpt lat="45.88068" lon="4.75624">
        <ele>208</ele>
        <time>2012-04-07T14:50:55Z</time>
      </trkpt>
      <trkpt lat="45.88085" lon="4.75598">
        <ele>207</ele>
        <time>2012-04-07T14:50:58Z</time>
      </trkpt>
      <trkpt lat="45.88103" lon="4.75575">
        <ele>206</ele>
        <time>2012-04-07T14:51:01Z</time>
      </trkpt>
      <trkpt lat="45.8812" lon="4.75553">
        <ele>206</ele>
        <time>2012-04-07T14:51:04Z</time>
      </trkpt>
      <trkpt lat="45.88136" lon="4.75531">
        <ele>205</ele>
        <time>2012-04-07T14:51:07Z</time>
      </trkpt>
      <trkpt lat="45.88152" lon="4.75513">
        <ele>204</ele>
        <time>2012-04-07T14:51:10Z</time>
      </trkpt>
      <trkpt lat="45.88168" lon="4.75497">
        <ele>203</ele>
        <time>2012-04-07T14:51:13Z</time>
      </trkpt>
      <trkpt lat="45.88185" lon="4.75484">
        <ele>203</ele>
        <time>2012-04-07T14:51:16Z</time>
      </trkpt>
      <trkpt lat="45.88201" lon="4.75473">
        <ele>202</ele>
        <time>2012-04-07T14:51:19Z</time>
      </trkpt>
      <trkpt lat="45.88214" lon="4.75464">
        <ele>201</ele>
        <time>2012-04-07T14:51:22Z</time>
      </trkpt>
      <trkpt lat="45.88224" lon="4.7546">
        <ele>201</ele>
        <time>2012-04-07T14:51:25Z</time>
      </trkpt>
      <trkpt lat="45.88229" lon="4.75461">
        <ele>201</ele>
        <time>2012-04-07T14:51:29Z</time>
      </trkpt>
      <trkpt lat="45.8823" lon="4.7546">
        <ele>201</ele>
        <time>2012-04-07T14:51:35Z</time>
      </trkpt>
      <trkpt lat="45.88231" lon="4.75459">
        <ele>201</ele>
        <time>2012-04-07T14:51:39Z</time>
      </trkpt>
      <trkpt lat="45.88232" lon="4.75457">
        <ele>201</ele>
        <time>2012-04-07T14:51:42Z</time>
      </trkpt>
      <trkpt lat="45.88232" lon="4.75459">
        <ele>200</ele>
        <time>2012-04-07T14:51:52Z</time>
      </trkpt>
      <trkpt lat="45.88231" lon="4.75462">
        <ele>198</ele>
        <time>2012-04-07T14:51:55Z</time>
      </trkpt>
      <trkpt lat="45.8823" lon="4.75466">
        <ele>197</ele>
        <time>2012-04-07T14:51:59Z</time>
      </trkpt>
      <trkpt lat="45.8823" lon="4.75464">
        <ele>197</ele>
        <time>2012-04-07T14:52:13Z</time>
      </trkpt>
      <trkpt lat="45.88231" lon="4.75463">
        <ele>197</ele>
        <time>2012-04-07T14:52:43Z</time>
      </trkpt>
      <trkpt lat="45.88232" lon="4.75463">
        <ele>197</ele>
        <time>2012-04-07T14:53:12Z</time>
      </trkpt>
      <trkpt lat="45.88233" lon="4.75464">
        <ele>197</ele>
        <time>2012-04-07T14:54:01Z</time>
      </trkpt>
      <trkpt lat="45.88233" lon="4.75466">
        <ele>197</ele>
        <time>2012-04-07T14:55:39Z</time>
      </trkpt>
      <trkpt lat="45.88234" lon="4.75467">
        <ele>197</ele>
        <time>2012-04-07T14:56:24Z</time>
      </trkpt>
      <trkpt lat="45.88236" lon="4.75466">
        <ele>196</ele>
        <time>2012-04-07T14:56:54Z</time>
      </trkpt>
      <trkpt lat="45.88236" lon="4.75465">
        <ele>194</ele>
        <time>2012-04-07T14:58:09Z</time>
      </trkpt>
      <trkpt lat="45.88234" lon="4.75466">
        <ele>194</ele>
        <time>2012-04-07T14:58:41Z</time>
      </trkpt>
      <trkpt lat="45.88233" lon="4.75466">
        <ele>194</ele>
        <time>2012-04-07T14:58:58Z</time>
      </trkpt>
      <trkpt lat="45.8823" lon="4.75465">
        <ele>194</ele>
        <time>2012-04-07T14:59:04Z</time>
      </trkpt>
      <trkpt lat="45.88229" lon="4.75465">
        <ele>194</ele>
        <time>2012-04-07T14:59:07Z</time>
      </trkpt>
      <trkpt lat="45.88226" lon="4.75467">
        <ele>194</ele>
        <time>2012-04-07T14:59:11Z</time>
      </trkpt>
      <trkpt lat="45.88225" lon="4.75467">
        <ele>194</ele>
        <time>2012-04-07T14:59:23Z</time>
      </trkpt>
      <trkpt lat="45.88224" lon="4.75466">
        <ele>194</ele>
        <time>2012-04-07T14:59:34Z</time>
      </trkpt>
      <trkpt lat="45.88223" lon="4.75466">
        <ele>203</ele>
        <time>2012-04-07T15:02:40Z</time>
      </trkpt>
      <trkpt lat="45.88221" lon="4.75465">
        <ele>203</ele>
        <time>2012-04-07T15:04:24Z</time>
      </trkpt>
      <trkpt lat="45.8822" lon="4.75465">
        <ele>203</ele>
        <time>2012-04-07T15:06:35Z</time>
      </trkpt>
      <trkpt lat="45.88219" lon="4.75465">
        <ele>203</ele>
        <time>2012-04-07T15:08:43Z</time>
      </trkpt>
      <trkpt lat="45.8822" lon="4.75464">
        <ele>204</ele>
        <time>2012-04-07T15:15:06Z</time>
      </trkpt>
      <trkpt lat="45.88221" lon="4.75463">
        <ele>204</ele>
        <time>2012-04-07T15:15:18Z</time>
      </trkpt>
      <trkpt lat="45.88223" lon="4.75461">
        <ele>204</ele>
        <time>2012-04-07T15:15:24Z</time>
      </trkpt>
      <trkpt lat="45.88226" lon="4.75456">
        <ele>204</ele>
        <time>2012-04-07T15:15:27Z</time>
      </trkpt>
      <trkpt lat="45.8823" lon="4.75452">
        <ele>204</ele>
        <time>2012-04-07T15:15:30Z</time>
      </trkpt>
      <trkpt lat="45.88235" lon="4.75447">
        <ele>204</ele>
        <time>2012-04-07T15:15:33Z</time>
      </trkpt>
      <trkpt lat="45.88242" lon="4.75442">
        <ele>204</ele>
        <time>2012-04-07T15:15:36Z</time>
      </trkpt>
      <trkpt lat="45.88249" lon="4.75437">
        <ele>204</ele>
        <time>2012-04-07T15:15:40Z</time>
      </trkpt>
      <trkpt lat="45.88261" lon="4.75431">
        <ele>204</ele>
        <time>2012-04-07T15:15:43Z</time>
      </trkpt>
      <trkpt lat="45.8827" lon="4.75426">
        <ele>204</ele>
        <time>2012-04-07T15:15:46Z</time>
      </trkpt>
      <trkpt lat="45.88279" lon="4.75422">
        <ele>204</ele>
        <time>2012-04-07T15:15:50Z</time>
      </trkpt>
      <trkpt lat="45.88292" lon="4.75417">
        <ele>204</ele>
        <time>2012-04-07T15:15:53Z</time>
      </trkpt>
      <trkpt lat="45.883" lon="4.75413">
        <ele>203</ele>
        <time>2012-04-07T15:15:56Z</time>
      </trkpt>
      <trkpt lat="45.88309" lon="4.7541">
        <ele>203</ele>
        <time>2012-04-07T15:16:00Z</time>
      </trkpt>
      <trkpt lat="45.88321" lon="4.75402">
        <ele>203</ele>
        <time>2012-04-07T15:16:03Z</time>
      </trkpt>
      <trkpt lat="45.88331" lon="4.75397">
        <ele>203</ele>
        <time>2012-04-07T15:16:06Z</time>
      </trkpt>
      <trkpt lat="45.88341" lon="4.75393">
        <ele>203</ele>
        <time>2012-04-07T15:16:10Z</time>
      </trkpt>
      <trkpt lat="45.88353" lon="4.75387">
        <ele>203</ele>
        <time>2012-04-07T15:16:13Z</time>
      </trkpt>
      <trkpt lat="45.88363" lon="4.75383">
        <ele>203</ele>
        <time>2012-04-07T15:16:16Z</time>
      </trkpt>
      <trkpt lat="45.88371" lon="4.75379">
        <ele>203</ele>
        <time>2012-04-07T15:16:20Z</time>
      </trkpt>
      <trkpt lat="45.8838" lon="4.75376">
        <ele>203</ele>
        <time>2012-04-07T15:16:24Z</time>
      </trkpt>
      <trkpt lat="45.88381" lon="4.75389">
        <ele>203</ele>
        <time>2012-04-07T15:16:27Z</time>
      </trkpt>
      <trkpt lat="45.88378" lon="4.75404">
        <ele>202</ele>
        <time>2012-04-07T15:16:30Z</time>
      </trkpt>
      <trkpt lat="45.88375" lon="4.75418">
        <ele>201</ele>
        <time>2012-04-07T15:16:33Z</time>
      </trkpt>
      <trkpt lat="45.88373" lon="4.75432">
        <ele>201</ele>
        <time>2012-04-07T15:16:36Z</time>
      </trkpt>
      <trkpt lat="45.88369" lon="4.75445">
        <ele>201</ele>
        <time>2012-04-07T15:16:40Z</time>
      </trkpt>
      <trkpt lat="45.88366" lon="4.75462">
        <ele>201</ele>
        <time>2012-04-07T15:16:43Z</time>
      </trkpt>
      <trkpt lat="45.88365" lon="4.75475">
        <ele>201</ele>
        <time>2012-04-07T15:16:46Z</time>
      </trkpt>
      <trkpt lat="45.88364" lon="4.75488">
        <ele>201</ele>
        <time>2012-04-07T15:16:50Z</time>
      </trkpt>
      <trkpt lat="45.88363" lon="4.75501">
        <ele>201</ele>
        <time>2012-04-07T15:16:53Z</time>
      </trkpt>
      <trkpt lat="45.88363" lon="4.7551">
        <ele>201</ele>
        <time>2012-04-07T15:16:56Z</time>
      </trkpt>
      <trkpt lat="45.88364" lon="4.75523">
        <ele>201</ele>
        <time>2012-04-07T15:17:00Z</time>
      </trkpt>
      <trkpt lat="45.88365" lon="4.75542">
        <ele>201</ele>
        <time>2012-04-07T15:17:03Z</time>
      </trkpt>
      <trkpt lat="45.88365" lon="4.75555">
        <ele>201</ele>
        <time>2012-04-07T15:17:06Z</time>
      </trkpt>
      <trkpt lat="45.88365" lon="4.75568">
        <ele>201</ele>
        <time>2012-04-07T15:17:10Z</time>
      </trkpt>
      <trkpt lat="45.88364" lon="4.75586">
        <ele>201</ele>
        <time>2012-04-07T15:17:13Z</time>
      </trkpt>
      <trkpt lat="45.88364" lon="4.75599">
        <ele>201</ele>
        <time>2012-04-07T15:17:16Z</time>
      </trkpt>
      <trkpt lat="45.88364" lon="4.75613">
        <ele>201</ele>
        <time>2012-04-07T15:17:20Z</time>
      </trkpt>
      <trkpt lat="45.88363" lon="4.75632">
        <ele>201</ele>
        <time>2012-04-07T15:17:24Z</time>
      </trkpt>
      <trkpt lat="45.88362" lon="4.75649">
        <ele>201</ele>
        <time>2012-04-07T15:17:27Z</time>
      </trkpt>
      <trkpt lat="45.88362" lon="4.75662">
        <ele>201</ele>
        <time>2012-04-07T15:17:30Z</time>
      </trkpt>
      <trkpt lat="45.88361" lon="4.75677">
        <ele>201</ele>
        <time>2012-04-07T15:17:33Z</time>
      </trkpt>
      <trkpt lat="45.88359" lon="4.75694">
        <ele>201</ele>
        <time>2012-04-07T15:17:36Z</time>
      </trkpt>
      <trkpt lat="45.88356" lon="4.75708">
        <ele>201</ele>
        <time>2012-04-07T15:17:40Z</time>
      </trkpt>
      <trkpt lat="45.88352" lon="4.75728">
        <ele>201</ele>
        <time>2012-04-07T15:17:43Z</time>
      </trkpt>
      <trkpt lat="45.8835" lon="4.75742">
        <ele>201</ele>
        <time>2012-04-07T15:17:46Z</time>
      </trkpt>
      <trkpt lat="45.88347" lon="4.75756">
        <ele>201</ele>
        <time>2012-04-07T15:17:50Z</time>
      </trkpt>
      <trkpt lat="45.88344" lon="4.75776">
        <ele>201</ele>
        <time>2012-04-07T15:17:53Z</time>
      </trkpt>
      <trkpt lat="45.88343" lon="4.75793">
        <ele>201</ele>
        <time>2012-04-07T15:17:56Z</time>
      </trkpt>
      <trkpt lat="45.88342" lon="4.75809">
        <ele>201</ele>
        <time>2012-04-07T15:18:00Z</time>
      </trkpt>
      <trkpt lat="45.88342" lon="4.75828">
        <ele>201</ele>
        <time>2012-04-07T15:18:03Z</time>
      </trkpt>
      <trkpt lat="45.88341" lon="4.7584">
        <ele>201</ele>
        <time>2012-04-07T15:18:06Z</time>
      </trkpt>
      <trkpt lat="45.8834" lon="4.75854">
        <ele>201</ele>
        <time>2012-04-07T15:18:10Z</time>
      </trkpt>
      <trkpt lat="45.88338" lon="4.75875">
        <ele>201</ele>
        <time>2012-04-07T15:18:13Z</time>
      </trkpt>
      <trkpt lat="45.88336" lon="4.75891">
        <ele>201</ele>
        <time>2012-04-07T15:18:16Z</time>
      </trkpt>
      <trkpt lat="45.88334" lon="4.75907">
        <ele>201</ele>
        <time>2012-04-07T15:18:20Z</time>
      </trkpt>
      <trkpt lat="45.88329" lon="4.75927">
        <ele>201</ele>
        <time>2012-04-07T15:18:24Z</time>
      </trkpt>
      <trkpt lat="45.88324" lon="4.75947">
        <ele>201</ele>
        <time>2012-04-07T15:18:27Z</time>
      </trkpt>
      <trkpt lat="45.88319" lon="4.75961">
        <ele>201</ele>
        <time>2012-04-07T15:18:30Z</time>
      </trkpt>
      <trkpt lat="45.88313" lon="4.75974">
        <ele>201</ele>
        <time>2012-04-07T15:18:33Z</time>
      </trkpt>
      <trkpt lat="45.88308" lon="4.75988">
        <ele>201</ele>
        <time>2012-04-07T15:18:36Z</time>
      </trkpt>
      <trkpt lat="45.88305" lon="4.76002">
        <ele>200</ele>
        <time>2012-04-07T15:18:39Z</time>
      </trkpt>
      <trkpt lat="45.88301" lon="4.76015">
        <ele>200</ele>
        <time>2012-04-07T15:18:42Z</time>
      </trkpt>
      <trkpt lat="45.88299" lon="4.76029">
        <ele>199</ele>
        <time>2012-04-07T15:18:45Z</time>
      </trkpt>
      <trkpt lat="45.88298" lon="4.76043">
        <ele>199</ele>
        <time>2012-04-07T15:18:48Z</time>
      </trkpt>
      <trkpt lat="45.88296" lon="4.76057">
        <ele>199</ele>
        <time>2012-04-07T15:18:51Z</time>
      </trkpt>
      <trkpt lat="45.88295" lon="4.7607">
        <ele>199</ele>
        <time>2012-04-07T15:18:55Z</time>
      </trkpt>
      <trkpt lat="45.88294" lon="4.76089">
        <ele>199</ele>
        <time>2012-04-07T15:18:58Z</time>
      </trkpt>
      <trkpt lat="45.88295" lon="4.76103">
        <ele>199</ele>
        <time>2012-04-07T15:19:01Z</time>
      </trkpt>
      <trkpt lat="45.88295" lon="4.76116">
        <ele>199</ele>
        <time>2012-04-07T15:19:05Z</time>
      </trkpt>
      <trkpt lat="45.88295" lon="4.76134">
        <ele>199</ele>
        <time>2012-04-07T15:19:08Z</time>
      </trkpt>
      <trkpt lat="45.88295" lon="4.76147">
        <ele>199</ele>
        <time>2012-04-07T15:19:11Z</time>
      </trkpt>
      <trkpt lat="45.88294" lon="4.7616">
        <ele>199</ele>
        <time>2012-04-07T15:19:15Z</time>
      </trkpt>
      <trkpt lat="45.88293" lon="4.76177">
        <ele>199</ele>
        <time>2012-04-07T15:19:18Z</time>
      </trkpt>
      <trkpt lat="45.88292" lon="4.76187">
        <ele>199</ele>
        <time>2012-04-07T15:19:21Z</time>
      </trkpt>
      <trkpt lat="45.8829" lon="4.762">
        <ele>200</ele>
        <time>2012-04-07T15:19:25Z</time>
      </trkpt>
      <trkpt lat="45.88288" lon="4.7622">
        <ele>201</ele>
        <time>2012-04-07T15:19:28Z</time>
      </trkpt>
      <trkpt lat="45.88287" lon="4.76236">
        <ele>203</ele>
        <time>2012-04-07T15:19:31Z</time>
      </trkpt>
      <trkpt lat="45.88286" lon="4.7625">
        <ele>204</ele>
        <time>2012-04-07T15:19:34Z</time>
      </trkpt>
      <trkpt lat="45.88285" lon="4.76264">
        <ele>206</ele>
        <time>2012-04-07T15:19:37Z</time>
      </trkpt>
      <trkpt lat="45.88282" lon="4.76279">
        <ele>207</ele>
        <time>2012-04-07T15:19:40Z</time>
      </trkpt>
      <trkpt lat="45.8828" lon="4.76293">
        <ele>207</ele>
        <time>2012-04-07T15:19:43Z</time>
      </trkpt>
      <trkpt lat="45.88276" lon="4.76305">
        <ele>207</ele>
        <time>2012-04-07T15:19:46Z</time>
      </trkpt>
      <trkpt lat="45.88272" lon="4.76318">
        <ele>207</ele>
        <time>2012-04-07T15:19:49Z</time>
      </trkpt>
      <trkpt lat="45.8827" lon="4.7633">
        <ele>207</ele>
        <time>2012-04-07T15:19:52Z</time>
      </trkpt>
      <trkpt lat="45.88264" lon="4.76342">
        <ele>207</ele>
        <time>2012-04-07T15:19:55Z</time>
      </trkpt>
      <trkpt lat="45.88261" lon="4.76354">
        <ele>207</ele>
        <time>2012-04-07T15:19:58Z</time>
      </trkpt>
      <trkpt lat="45.88258" lon="4.76367">
        <ele>206</ele>
        <time>2012-04-07T15:20:01Z</time>
      </trkpt>
      <trkpt lat="45.88253" lon="4.76379">
        <ele>204</ele>
        <time>2012-04-07T15:20:04Z</time>
      </trkpt>
      <trkpt lat="45.8825" lon="4.76392">
        <ele>202</ele>
        <time>2012-04-07T15:20:07Z</time>
      </trkpt>
      <trkpt lat="45.88245" lon="4.76404">
        <ele>202</ele>
        <time>2012-04-07T15:20:10Z</time>
      </trkpt>
      <trkpt lat="45.88242" lon="4.76416">
        <ele>202</ele>
        <time>2012-04-07T15:20:13Z</time>
      </trkpt>
      <trkpt lat="45.88238" lon="4.76429">
        <ele>202</ele>
        <time>2012-04-07T15:20:16Z</time>
      </trkpt>
      <trkpt lat="45.88233" lon="4.76442">
        <ele>202</ele>
        <time>2012-04-07T15:20:20Z</time>
      </trkpt>
      <trkpt lat="45.88226" lon="4.76461">
        <ele>202</ele>
        <time>2012-04-07T15:20:24Z</time>
      </trkpt>
      <trkpt lat="45.88219" lon="4.7648">
        <ele>202</ele>
        <time>2012-04-07T15:20:27Z</time>
      </trkpt>
      <trkpt lat="45.88213" lon="4.76496">
        <ele>202</ele>
        <time>2012-04-07T15:20:30Z</time>
      </trkpt>
      <trkpt lat="45.88207" lon="4.76511">
        <ele>202</ele>
        <time>2012-04-07T15:20:33Z</time>
      </trkpt>
      <trkpt lat="45.88201" lon="4.76528">
        <ele>202</ele>
        <time>2012-04-07T15:20:36Z</time>
      </trkpt>
      <trkpt lat="45.88194" lon="4.76547">
        <ele>202</ele>
        <time>2012-04-07T15:20:39Z</time>
      </trkpt>
      <trkpt lat="45.88189" lon="4.76565">
        <ele>202</ele>
        <time>2012-04-07T15:20:42Z</time>
      </trkpt>
      <trkpt lat="45.88184" lon="4.76583">
        <ele>202</ele>
        <time>2012-04-07T15:20:45Z</time>
      </trkpt>
      <trkpt lat="45.88179" lon="4.76601">
        <ele>202</ele>
        <time>2012-04-07T15:20:48Z</time>
      </trkpt>
      <trkpt lat="45.88174" lon="4.76618">
        <ele>202</ele>
        <time>2012-04-07T15:20:51Z</time>
      </trkpt>
      <trkpt lat="45.88169" lon="4.76633">
        <ele>202</ele>
        <time>2012-04-07T15:20:54Z</time>
      </trkpt>
      <trkpt lat="45.88163" lon="4.76648">
        <ele>202</ele>
        <time>2012-04-07T15:20:57Z</time>
      </trkpt>
      <trkpt lat="45.88157" lon="4.76664">
        <ele>202</ele>
        <time>2012-04-07T15:21:00Z</time>
      </trkpt>
      <trkpt lat="45.8815" lon="4.76681">
        <ele>202</ele>
        <time>2012-04-07T15:21:03Z</time>
      </trkpt>
      <trkpt lat="45.88143" lon="4.76698">
        <ele>202</ele>
        <time>2012-04-07T15:21:06Z</time>
      </trkpt>
      <trkpt lat="45.88136" lon="4.76715">
        <ele>201</ele>
        <time>2012-04-07T15:21:09Z</time>
      </trkpt>
      <trkpt lat="45.88126" lon="4.76731">
        <ele>201</ele>
        <time>2012-04-07T15:21:12Z</time>
      </trkpt>
      <trkpt lat="45.88119" lon="4.76746">
        <ele>201</ele>
        <time>2012-04-07T15:21:15Z</time>
      </trkpt>
      <trkpt lat="45.88116" lon="4.76763">
        <ele>201</ele>
        <time>2012-04-07T15:21:18Z</time>
      </trkpt>
      <trkpt lat="45.88114" lon="4.76782">
        <ele>201</ele>
        <time>2012-04-07T15:21:21Z</time>
      </trkpt>
      <trkpt lat="45.88113" lon="4.768">
        <ele>201</ele>
        <time>2012-04-07T15:21:24Z</time>
      </trkpt>
      <trkpt lat="45.88112" lon="4.76816">
        <ele>201</ele>
        <time>2012-04-07T15:21:27Z</time>
      </trkpt>
      <trkpt lat="45.8811" lon="4.76833">
        <ele>201</ele>
        <time>2012-04-07T15:21:30Z</time>
      </trkpt>
      <trkpt lat="45.88108" lon="4.7685">
        <ele>201</ele>
        <time>2012-04-07T15:21:33Z</time>
      </trkpt>
      <trkpt lat="45.88106" lon="4.76867">
        <ele>201</ele>
        <time>2012-04-07T15:21:36Z</time>
      </trkpt>
      <trkpt lat="45.88103" lon="4.76883">
        <ele>201</ele>
        <time>2012-04-07T15:21:39Z</time>
      </trkpt>
      <trkpt lat="45.881" lon="4.76899">
        <ele>201</ele>
        <time>2012-04-07T15:21:42Z</time>
      </trkpt>
      <trkpt lat="45.88097" lon="4.76917">
        <ele>202</ele>
        <time>2012-04-07T15:21:45Z</time>
      </trkpt>
      <trkpt lat="45.88094" lon="4.76933">
        <ele>202</ele>
        <time>2012-04-07T15:21:48Z</time>
      </trkpt>
      <trkpt lat="45.88091" lon="4.7695">
        <ele>202</ele>
        <time>2012-04-07T15:21:51Z</time>
      </trkpt>
      <trkpt lat="45.88088" lon="4.76965">
        <ele>202</ele>
        <time>2012-04-07T15:21:54Z</time>
      </trkpt>
      <trkpt lat="45.88085" lon="4.76981">
        <ele>202</ele>
        <time>2012-04-07T15:21:57Z</time>
      </trkpt>
      <trkpt lat="45.88081" lon="4.76999">
        <ele>202</ele>
        <time>2012-04-07T15:22:00Z</time>
      </trkpt>
      <trkpt lat="45.88078" lon="4.77015">
        <ele>202</ele>
        <time>2012-04-07T15:22:03Z</time>
      </trkpt>
      <trkpt lat="45.88073" lon="4.77031">
        <ele>202</ele>
        <time>2012-04-07T15:22:06Z</time>
      </trkpt>
      <trkpt lat="45.88068" lon="4.77048">
        <ele>202</ele>
        <time>2012-04-07T15:22:09Z</time>
      </trkpt>
      <trkpt lat="45.88064" lon="4.77065">
        <ele>202</ele>
        <time>2012-04-07T15:22:12Z</time>
      </trkpt>
      <trkpt lat="45.88059" lon="4.77082">
        <ele>202</ele>
        <time>2012-04-07T15:22:15Z</time>
      </trkpt>
      <trkpt lat="45.88055" lon="4.77099">
        <ele>202</ele>
        <time>2012-04-07T15:22:18Z</time>
      </trkpt>
      <trkpt lat="45.88051" lon="4.77116">
        <ele>202</ele>
        <time>2012-04-07T15:22:21Z</time>
      </trkpt>
      <trkpt lat="45.88048" lon="4.77133">
        <ele>202</ele>
        <time>2012-04-07T15:22:24Z</time>
      </trkpt>
      <trkpt lat="45.88047" lon="4.77148">
        <ele>204</ele>
        <time>2012-04-07T15:22:27Z</time>
      </trkpt>
      <trkpt lat="45.88045" lon="4.77164">
        <ele>204</ele>
        <time>2012-04-07T15:22:30Z</time>
      </trkpt>
      <trkpt lat="45.88043" lon="4.77177">
        <ele>204</ele>
        <time>2012-04-07T15:22:33Z</time>
      </trkpt>
      <trkpt lat="45.88043" lon="4.77192">
        <ele>204</ele>
        <time>2012-04-07T15:22:36Z</time>
      </trkpt>
      <trkpt lat="45.88042" lon="4.77208">
        <ele>204</ele>
        <time>2012-04-07T15:22:39Z</time>
      </trkpt>
      <trkpt lat="45.88041" lon="4.77222">
        <ele>204</ele>
        <time>2012-04-07T15:22:42Z</time>
      </trkpt>
      <trkpt lat="45.88039" lon="4.77237">
        <ele>204</ele>
        <time>2012-04-07T15:22:45Z</time>
      </trkpt>
      <trkpt lat="45.88036" lon="4.7725">
        <ele>204</ele>
        <time>2012-04-07T15:22:48Z</time>
      </trkpt>
      <trkpt lat="45.88034" lon="4.77266">
        <ele>204</ele>
        <time>2012-04-07T15:22:51Z</time>
      </trkpt>
      <trkpt lat="45.88031" lon="4.77283">
        <ele>205</ele>
        <time>2012-04-07T15:22:54Z</time>
      </trkpt>
      <trkpt lat="45.88028" lon="4.77301">
        <ele>206</ele>
        <time>2012-04-07T15:22:57Z</time>
      </trkpt>
      <trkpt lat="45.88026" lon="4.77319">
        <ele>208</ele>
        <time>2012-04-07T15:23:00Z</time>
      </trkpt>
      <trkpt lat="45.88022" lon="4.77336">
        <ele>209</ele>
        <time>2012-04-07T15:23:03Z</time>
      </trkpt>
      <trkpt lat="45.88018" lon="4.77353">
        <ele>211</ele>
        <time>2012-04-07T15:23:06Z</time>
      </trkpt>
      <trkpt lat="45.88015" lon="4.77371">
        <ele>212</ele>
        <time>2012-04-07T15:23:09Z</time>
      </trkpt>
      <trkpt lat="45.88012" lon="4.7739">
        <ele>212</ele>
        <time>2012-04-07T15:23:12Z</time>
      </trkpt>
      <trkpt lat="45.8801" lon="4.77408">
        <ele>212</ele>
        <time>2012-04-07T15:23:15Z</time>
      </trkpt>
      <trkpt lat="45.88006" lon="4.77426">
        <ele>212</ele>
        <time>2012-04-07T15:23:18Z</time>
      </trkpt>
      <trkpt lat="45.88004" lon="4.77443">
        <ele>212</ele>
        <time>2012-04-07T15:23:21Z</time>
      </trkpt>
      <trkpt lat="45.88002" lon="4.7746">
        <ele>212</ele>
        <time>2012-04-07T15:23:24Z</time>
      </trkpt>
      <trkpt lat="45.88" lon="4.77478">
        <ele>212</ele>
        <time>2012-04-07T15:23:27Z</time>
      </trkpt>
      <trkpt lat="45.87997" lon="4.77494">
        <ele>212</ele>
        <time>2012-04-07T15:23:30Z</time>
      </trkpt>
      <trkpt lat="45.87996" lon="4.77512">
        <ele>212</ele>
        <time>2012-04-07T15:23:33Z</time>
      </trkpt>
      <trkpt lat="45.87994" lon="4.77529">
        <ele>212</ele>
        <time>2012-04-07T15:23:36Z</time>
      </trkpt>
      <trkpt lat="45.87992" lon="4.77544">
        <ele>212</ele>
        <time>2012-04-07T15:23:39Z</time>
      </trkpt>
      <trkpt lat="45.87989" lon="4.77559">
        <ele>211</ele>
        <time>2012-04-07T15:23:42Z</time>
      </trkpt>
      <trkpt lat="45.87986" lon="4.77573">
        <ele>210</ele>
        <time>2012-04-07T15:23:45Z</time>
      </trkpt>
      <trkpt lat="45.87984" lon="4.77588">
        <ele>210</ele>
        <time>2012-04-07T15:23:48Z</time>
      </trkpt>
      <trkpt lat="45.87983" lon="4.77605">
        <ele>210</ele>
        <time>2012-04-07T15:23:51Z</time>
      </trkpt>
      <trkpt lat="45.87979" lon="4.77619">
        <ele>209</ele>
        <time>2012-04-07T15:23:54Z</time>
      </trkpt>
      <trkpt lat="45.87977" lon="4.77631">
        <ele>208</ele>
        <time>2012-04-07T15:23:57Z</time>
      </trkpt>
      <trkpt lat="45.87973" lon="4.77642">
        <ele>208</ele>
        <time>2012-04-07T15:24:00Z</time>
      </trkpt>
      <trkpt lat="45.8797" lon="4.77653">
        <ele>208</ele>
        <time>2012-04-07T15:24:03Z</time>
      </trkpt>
      <trkpt lat="45.87965" lon="4.77664">
        <ele>208</ele>
        <time>2012-04-07T15:24:06Z</time>
      </trkpt>
      <trkpt lat="45.8796" lon="4.77673">
        <ele>208</ele>
        <time>2012-04-07T15:24:09Z</time>
      </trkpt>
      <trkpt lat="45.87958" lon="4.77682">
        <ele>208</ele>
        <time>2012-04-07T15:24:12Z</time>
      </trkpt>
      <trkpt lat="45.87958" lon="4.77693">
        <ele>208</ele>
        <time>2012-04-07T15:24:15Z</time>
      </trkpt>
      <trkpt lat="45.87957" lon="4.77707">
        <ele>208</ele>
        <time>2012-04-07T15:24:18Z</time>
      </trkpt>
      <trkpt lat="45.87958" lon="4.77723">
        <ele>209</ele>
        <time>2012-04-07T15:24:21Z</time>
      </trkpt>
      <trkpt lat="45.87959" lon="4.77739">
        <ele>209</ele>
        <time>2012-04-07T15:24:24Z</time>
      </trkpt>
      <trkpt lat="45.87961" lon="4.77754">
        <ele>209</ele>
        <time>2012-04-07T15:24:27Z</time>
      </trkpt>
      <trkpt lat="45.87961" lon="4.77769">
        <ele>209</ele>
        <time>2012-04-07T15:24:30Z</time>
      </trkpt>
      <trkpt lat="45.87962" lon="4.77783">
        <ele>210</ele>
        <time>2012-04-07T15:24:33Z</time>
      </trkpt>
      <trkpt lat="45.87965" lon="4.77798">
        <ele>210</ele>
        <time>2012-04-07T15:24:36Z</time>
      </trkpt>
      <trkpt lat="45.87968" lon="4.77812">
        <ele>210</ele>
        <time>2012-04-07T15:24:39Z</time>
      </trkpt>
      <trkpt lat="45.8797" lon="4.77826">
        <ele>210</ele>
        <time>2012-04-07T15:24:42Z</time>
      </trkpt>
      <trkpt lat="45.8797" lon="4.77841">
        <ele>210</ele>
        <time>2012-04-07T15:24:45Z</time>
      </trkpt>
      <trkpt lat="45.87971" lon="4.77856">
        <ele>210</ele>
        <time>2012-04-07T15:24:48Z</time>
      </trkpt>
      <trkpt lat="45.8797" lon="4.77871">
        <ele>210</ele>
        <time>2012-04-07T15:24:51Z</time>
      </trkpt>
      <trkpt lat="45.8797" lon="4.77885">
        <ele>210</ele>
        <time>2012-04-07T15:24:54Z</time>
      </trkpt>
      <trkpt lat="45.8797" lon="4.77899">
        <ele>211</ele>
        <time>2012-04-07T15:24:57Z</time>
      </trkpt>
      <trkpt lat="45.87971" lon="4.77911">
        <ele>212</ele>
        <time>2012-04-07T15:25:00Z</time>
      </trkpt>
      <trkpt lat="45.87972" lon="4.77922">
        <ele>213</ele>
        <time>2012-04-07T15:25:03Z</time>
      </trkpt>
      <trkpt lat="45.87972" lon="4.77933">
        <ele>213</ele>
        <time>2012-04-07T15:25:06Z</time>
      </trkpt>
      <trkpt lat="45.87974" lon="4.77943">
        <ele>214</ele>
        <time>2012-04-07T15:25:09Z</time>
      </trkpt>
      <trkpt lat="45.87975" lon="4.7795">
        <ele>215</ele>
        <time>2012-04-07T15:25:12Z</time>
      </trkpt>
      <trkpt lat="45.87977" lon="4.77957">
        <ele>215</ele>
        <time>2012-04-07T15:25:15Z</time>
      </trkpt>
      <trkpt lat="45.87979" lon="4.77968">
        <ele>215</ele>
        <time>2012-04-07T15:25:18Z</time>
      </trkpt>
      <trkpt lat="45.87982" lon="4.77985">
        <ele>215</ele>
        <time>2012-04-07T15:25:21Z</time>
      </trkpt>
      <trkpt lat="45.87986" lon="4.78006">
        <ele>215</ele>
        <time>2012-04-07T15:25:24Z</time>
      </trkpt>
      <trkpt lat="45.87988" lon="4.78025">
        <ele>215</ele>
        <time>2012-04-07T15:25:27Z</time>
      </trkpt>
      <trkpt lat="45.8799" lon="4.78044">
        <ele>215</ele>
        <time>2012-04-07T15:25:30Z</time>
      </trkpt>
      <trkpt lat="45.87993" lon="4.78065">
        <ele>215</ele>
        <time>2012-04-07T15:25:33Z</time>
      </trkpt>
      <trkpt lat="45.87997" lon="4.78085">
        <ele>215</ele>
        <time>2012-04-07T15:25:36Z</time>
      </trkpt>
      <trkpt lat="45.87999" lon="4.78105">
        <ele>215</ele>
        <time>2012-04-07T15:25:39Z</time>
      </trkpt>
      <trkpt lat="45.88002" lon="4.78125">
        <ele>213</ele>
        <time>2012-04-07T15:25:42Z</time>
      </trkpt>
      <trkpt lat="45.88004" lon="4.78147">
        <ele>210</ele>
        <time>2012-04-07T15:25:45Z</time>
      </trkpt>
      <trkpt lat="45.88005" lon="4.78171">
        <ele>208</ele>
        <time>2012-04-07T15:25:48Z</time>
      </trkpt>
      <trkpt lat="45.88005" lon="4.78197">
        <ele>208</ele>
        <time>2012-04-07T15:25:51Z</time>
      </trkpt>
      <trkpt lat="45.88004" lon="4.78223">
        <ele>208</ele>
        <time>2012-04-07T15:25:54Z</time>
      </trkpt>
      <trkpt lat="45.88002" lon="4.78247">
        <ele>208</ele>
        <time>2012-04-07T15:25:57Z</time>
      </trkpt>
      <trkpt lat="45.87999" lon="4.78269">
        <ele>208</ele>
        <time>2012-04-07T15:26:00Z</time>
      </trkpt>
      <trkpt lat="45.87997" lon="4.7829">
        <ele>208</ele>
        <time>2012-04-07T15:26:03Z</time>
      </trkpt>
      <trkpt lat="45.87994" lon="4.78312">
        <ele>208</ele>
        <time>2012-04-07T15:26:06Z</time>
      </trkpt>
      <trkpt lat="45.87992" lon="4.78332">
        <ele>208</ele>
        <time>2012-04-07T15:26:09Z</time>
      </trkpt>
      <trkpt lat="45.87991" lon="4.78349">
        <ele>208</ele>
        <time>2012-04-07T15:26:12Z</time>
      </trkpt>
      <trkpt lat="45.8799" lon="4.78366">
        <ele>208</ele>
        <time>2012-04-07T15:26:15Z</time>
      </trkpt>
      <trkpt lat="45.87989" lon="4.78381">
        <ele>208</ele>
        <time>2012-04-07T15:26:18Z</time>
      </trkpt>
      <trkpt lat="45.8799" lon="4.78396">
        <ele>208</ele>
        <time>2012-04-07T15:26:21Z</time>
      </trkpt>
      <trkpt lat="45.87991" lon="4.78408">
        <ele>209</ele>
        <time>2012-04-07T15:26:24Z</time>
      </trkpt>
      <trkpt lat="45.87992" lon="4.78415">
        <ele>209</ele>
        <time>2012-04-07T15:26:27Z</time>
      </trkpt>
      <trkpt lat="45.87991" lon="4.78417">
        <ele>209</ele>
        <time>2012-04-07T15:26:35Z</time>
      </trkpt>
      <trkpt lat="45.87993" lon="4.78423">
        <ele>209</ele>
        <time>2012-04-07T15:26:38Z</time>
      </trkpt>
      <trkpt lat="45.88002" lon="4.78432">
        <ele>209</ele>
        <time>2012-04-07T15:26:41Z</time>
      </trkpt>
      <trkpt lat="45.88017" lon="4.78443">
        <ele>209</ele>
        <time>2012-04-07T15:26:44Z</time>
      </trkpt>
      <trkpt lat="45.8803" lon="4.78461">
        <ele>209</ele>
        <time>2012-04-07T15:26:47Z</time>
      </trkpt>
      <trkpt lat="45.88041" lon="4.78482">
        <ele>209</ele>
        <time>2012-04-07T15:26:50Z</time>
      </trkpt>
      <trkpt lat="45.88051" lon="4.78504">
        <ele>209</ele>
        <time>2012-04-07T15:26:53Z</time>
      </trkpt>
      <trkpt lat="45.8806" lon="4.78526">
        <ele>209</ele>
        <time>2012-04-07T15:26:56Z</time>
      </trkpt>
      <trkpt lat="45.8807" lon="4.78549">
        <ele>207</ele>
        <time>2012-04-07T15:26:59Z</time>
      </trkpt>
      <trkpt lat="45.8808" lon="4.78571">
        <ele>207</ele>
        <time>2012-04-07T15:27:02Z</time>
      </trkpt>
      <trkpt lat="45.8809" lon="4.78593">
        <ele>207</ele>
        <time>2012-04-07T15:27:05Z</time>
      </trkpt>
      <trkpt lat="45.881" lon="4.78615">
        <ele>206</ele>
        <time>2012-04-07T15:27:08Z</time>
      </trkpt>
      <trkpt lat="45.8811" lon="4.78636">
        <ele>206</ele>
        <time>2012-04-07T15:27:11Z</time>
      </trkpt>
      <trkpt lat="45.8812" lon="4.78657">
        <ele>205</ele>
        <time>2012-04-07T15:27:14Z</time>
      </trkpt>
      <trkpt lat="45.88128" lon="4.7868">
        <ele>205</ele>
        <time>2012-04-07T15:27:17Z</time>
      </trkpt>
      <trkpt lat="45.88135" lon="4.78702">
        <ele>205</ele>
        <time>2012-04-07T15:27:20Z</time>
      </trkpt>
      <trkpt lat="45.88141" lon="4.78725">
        <ele>205</ele>
        <time>2012-04-07T15:27:24Z</time>
      </trkpt>
      <trkpt lat="45.88148" lon="4.78757">
        <ele>204</ele>
        <time>2012-04-07T15:27:27Z</time>
      </trkpt>
      <trkpt lat="45.88153" lon="4.78782">
        <ele>204</ele>
        <time>2012-04-07T15:27:30Z</time>
      </trkpt>
      <trkpt lat="45.88159" lon="4.78808">
        <ele>204</ele>
        <time>2012-04-07T15:27:33Z</time>
      </trkpt>
      <trkpt lat="45.88165" lon="4.78835">
        <ele>203</ele>
        <time>2012-04-07T15:27:36Z</time>
      </trkpt>
      <trkpt lat="45.8817" lon="4.78862">
        <ele>203</ele>
        <time>2012-04-07T15:27:39Z</time>
      </trkpt>
      <trkpt lat="45.88175" lon="4.78889">
        <ele>203</ele>
        <time>2012-04-07T15:27:42Z</time>
      </trkpt>
      <trkpt lat="45.8818" lon="4.78916">
        <ele>202</ele>
        <time>2012-04-07T15:27:45Z</time>
      </trkpt>
      <trkpt lat="45.88185" lon="4.78942">
        <ele>202</ele>
        <time>2012-04-07T15:27:48Z</time>
      </trkpt>
      <trkpt lat="45.8819" lon="4.78968">
        <ele>202</ele>
        <time>2012-04-07T15:27:51Z</time>
      </trkpt>
      <trkpt lat="45.88194" lon="4.78993">
        <ele>202</ele>
        <time>2012-04-07T15:27:54Z</time>
      </trkpt>
      <trkpt lat="45.88198" lon="4.79017">
        <ele>202</ele>
        <time>2012-04-07T15:27:57Z</time>
      </trkpt>
      <trkpt lat="45.88202" lon="4.79042">
        <ele>202</ele>
        <time>2012-04-07T15:28:00Z</time>
      </trkpt>
      <trkpt lat="45.88205" lon="4.79066">
        <ele>202</ele>
        <time>2012-04-07T15:28:03Z</time>
      </trkpt>
      <trkpt lat="45.88208" lon="4.79091">
        <ele>202</ele>
        <time>2012-04-07T15:28:06Z</time>
      </trkpt>
      <trkpt lat="45.88212" lon="4.79116">
        <ele>202</ele>
        <time>2012-04-07T15:28:09Z</time>
      </trkpt>
      <trkpt lat="45.88215" lon="4.79142">
        <ele>203</ele>
        <time>2012-04-07T15:28:12Z</time>
      </trkpt>
      <trkpt lat="45.88216" lon="4.79168">
        <ele>203</ele>
        <time>2012-04-07T15:28:15Z</time>
      </trkpt>
      <trkpt lat="45.88217" lon="4.79195">
        <ele>204</ele>
        <time>2012-04-07T15:28:18Z</time>
      </trkpt>
      <trkpt lat="45.88217" lon="4.79221">
        <ele>205</ele>
        <time>2012-04-07T15:28:21Z</time>
      </trkpt>
      <trkpt lat="45.88217" lon="4.79247">
        <ele>206</ele>
        <time>2012-04-07T15:28:24Z</time>
      </trkpt>
      <trkpt lat="45.88217" lon="4.79273">
        <ele>206</ele>
        <time>2012-04-07T15:28:27Z</time>
      </trkpt>
      <trkpt lat="45.88219" lon="4.79297">
        <ele>207</ele>
        <time>2012-04-07T15:28:30Z</time>
      </trkpt>
      <trkpt lat="45.88223" lon="4.79321">
        <ele>208</ele>
        <time>2012-04-07T15:28:33Z</time>
      </trkpt>
      <trkpt lat="45.88227" lon="4.79344">
        <ele>208</ele>
        <time>2012-04-07T15:28:36Z</time>
      </trkpt>
      <trkpt lat="45.88233" lon="4.79367">
        <ele>208</ele>
        <time>2012-04-07T15:28:39Z</time>
      </trkpt>
      <trkpt lat="45.8824" lon="4.7939">
        <ele>208</ele>
        <time>2012-04-07T15:28:42Z</time>
      </trkpt>
      <trkpt lat="45.88246" lon="4.79414">
        <ele>208</ele>
        <time>2012-04-07T15:28:45Z</time>
      </trkpt>
      <trkpt lat="45.88253" lon="4.79438">
        <ele>208</ele>
        <time>2012-04-07T15:28:48Z</time>
      </trkpt>
      <trkpt lat="45.88261" lon="4.79463">
        <ele>208</ele>
        <time>2012-04-07T15:28:51Z</time>
      </trkpt>
      <trkpt lat="45.88269" lon="4.79487">
        <ele>208</ele>
        <time>2012-04-07T15:28:54Z</time>
      </trkpt>
      <trkpt lat="45.88277" lon="4.79512">
        <ele>208</ele>
        <time>2012-04-07T15:28:57Z</time>
      </trkpt>
      <trkpt lat="45.88286" lon="4.79538">
        <ele>208</ele>
        <time>2012-04-07T15:29:00Z</time>
      </trkpt>
      <trkpt lat="45.88295" lon="4.79563">
        <ele>208</ele>
        <time>2012-04-07T15:29:03Z</time>
      </trkpt>
      <trkpt lat="45.88304" lon="4.79588">
        <ele>208</ele>
        <time>2012-04-07T15:29:06Z</time>
      </trkpt>
      <trkpt lat="45.88312" lon="4.79612">
        <ele>208</ele>
        <time>2012-04-07T15:29:09Z</time>
      </trkpt>
      <trkpt lat="45.88321" lon="4.79635">
        <ele>208</ele>
        <time>2012-04-07T15:29:12Z</time>
      </trkpt>
      <trkpt lat="45.88329" lon="4.79659">
        <ele>207</ele>
        <time>2012-04-07T15:29:15Z</time>
      </trkpt>
      <trkpt lat="45.88335" lon="4.79683">
        <ele>206</ele>
        <time>2012-04-07T15:29:18Z</time>
      </trkpt>
      <trkpt lat="45.88341" lon="4.79708">
        <ele>205</ele>
        <time>2012-04-07T15:29:21Z</time>
      </trkpt>
      <trkpt lat="45.88344" lon="4.79733">
        <ele>205</ele>
        <time>2012-04-07T15:29:24Z</time>
      </trkpt>
      <trkpt lat="45.88347" lon="4.79758">
        <ele>205</ele>
        <time>2012-04-07T15:29:27Z</time>
      </trkpt>
      <trkpt lat="45.88351" lon="4.79782">
        <ele>205</ele>
        <time>2012-04-07T15:29:30Z</time>
      </trkpt>
      <trkpt lat="45.88355" lon="4.79806">
        <ele>205</ele>
        <time>2012-04-07T15:29:33Z</time>
      </trkpt>
      <trkpt lat="45.88358" lon="4.79829">
        <ele>205</ele>
        <time>2012-04-07T15:29:36Z</time>
      </trkpt>
      <trkpt lat="45.88362" lon="4.79852">
        <ele>205</ele>
        <time>2012-04-07T15:29:39Z</time>
      </trkpt>
      <trkpt lat="45.88366" lon="4.79874">
        <ele>205</ele>
        <time>2012-04-07T15:29:42Z</time>
      </trkpt>
      <trkpt lat="45.8837" lon="4.79898">
        <ele>205</ele>
        <time>2012-04-07T15:29:45Z</time>
      </trkpt>
      <trkpt lat="45.88373" lon="4.79922">
        <ele>206</ele>
        <time>2012-04-07T15:29:48Z</time>
      </trkpt>
      <trkpt lat="45.88376" lon="4.79946">
        <ele>206</ele>
        <time>2012-04-07T15:29:51Z</time>
      </trkpt>
      <trkpt lat="45.8838" lon="4.7997">
        <ele>207</ele>
        <time>2012-04-07T15:29:54Z</time>
      </trkpt>
      <trkpt lat="45.88383" lon="4.79993">
        <ele>207</ele>
        <time>2012-04-07T15:29:57Z</time>
      </trkpt>
      <trkpt lat="45.88387" lon="4.80017">
        <ele>208</ele>
        <time>2012-04-07T15:30:00Z</time>
      </trkpt>
      <trkpt lat="45.8839" lon="4.80042">
        <ele>208</ele>
        <time>2012-04-07T15:30:03Z</time>
      </trkpt>
      <trkpt lat="45.88391" lon="4.80068">
        <ele>209</ele>
        <time>2012-04-07T15:30:06Z</time>
      </trkpt>
      <trkpt lat="45.88392" lon="4.80094">
        <ele>209</ele>
        <time>2012-04-07T15:30:09Z</time>
      </trkpt>
      <trkpt lat="45.88389" lon="4.8012">
        <ele>209</ele>
        <time>2012-04-07T15:30:12Z</time>
      </trkpt>
      <trkpt lat="45.88385" lon="4.80145">
        <ele>209</ele>
        <time>2012-04-07T15:30:15Z</time>
      </trkpt>
      <trkpt lat="45.8838" lon="4.80169">
        <ele>209</ele>
        <time>2012-04-07T15:30:18Z</time>
      </trkpt>
      <trkpt lat="45.88376" lon="4.80192">
        <ele>209</ele>
        <time>2012-04-07T15:30:21Z</time>
      </trkpt>
      <trkpt lat="45.88372" lon="4.80213">
        <ele>209</ele>
        <time>2012-04-07T15:30:24Z</time>
      </trkpt>
      <trkpt lat="45.88369" lon="4.80233">
        <ele>209</ele>
        <time>2012-04-07T15:30:27Z</time>
      </trkpt>
      <trkpt lat="45.88362" lon="4.80249">
        <ele>209</ele>
        <time>2012-04-07T15:30:30Z</time>
      </trkpt>
      <trkpt lat="45.88358" lon="4.80265">
        <ele>209</ele>
        <time>2012-04-07T15:30:33Z</time>
      </trkpt>
      <trkpt lat="45.88363" lon="4.8028">
        <ele>209</ele>
        <time>2012-04-07T15:30:36Z</time>
      </trkpt>
      <trkpt lat="45.88375" lon="4.80285">
        <ele>209</ele>
        <time>2012-04-07T15:30:39Z</time>
      </trkpt>
      <trkpt lat="45.88393" lon="4.80286">
        <ele>208</ele>
        <time>2012-04-07T15:30:42Z</time>
      </trkpt>
      <trkpt lat="45.88415" lon="4.80291">
        <ele>207</ele>
        <time>2012-04-07T15:30:45Z</time>
      </trkpt>
      <trkpt lat="45.88438" lon="4.80298">
        <ele>206</ele>
        <time>2012-04-07T15:30:48Z</time>
      </trkpt>
      <trkpt lat="45.88462" lon="4.80305">
        <ele>205</ele>
        <time>2012-04-07T15:30:51Z</time>
      </trkpt>
      <trkpt lat="45.88484" lon="4.80312">
        <ele>204</ele>
        <time>2012-04-07T15:30:54Z</time>
      </trkpt>
      <trkpt lat="45.88504" lon="4.80317">
        <ele>204</ele>
        <time>2012-04-07T15:30:57Z</time>
      </trkpt>
      <trkpt lat="45.88526" lon="4.80323">
        <ele>203</ele>
        <time>2012-04-07T15:31:00Z</time>
      </trkpt>
      <trkpt lat="45.88549" lon="4.80328">
        <ele>202</ele>
        <time>2012-04-07T15:31:03Z</time>
      </trkpt>
      <trkpt lat="45.88572" lon="4.80332">
        <ele>201</ele>
        <time>2012-04-07T15:31:06Z</time>
      </trkpt>
      <trkpt lat="45.88594" lon="4.80337">
        <ele>200</ele>
        <time>2012-04-07T15:31:09Z</time>
      </trkpt>
      <trkpt lat="45.88615" lon="4.80346">
        <ele>198</ele>
        <time>2012-04-07T15:31:12Z</time>
      </trkpt>
      <trkpt lat="45.88636" lon="4.80359">
        <ele>196</ele>
        <time>2012-04-07T15:31:15Z</time>
      </trkpt>
      <trkpt lat="45.88658" lon="4.80376">
        <ele>194</ele>
        <time>2012-04-07T15:31:18Z</time>
      </trkpt>
      <trkpt lat="45.88679" lon="4.80396">
        <ele>191</ele>
        <time>2012-04-07T15:31:21Z</time>
      </trkpt>
      <trkpt lat="45.88699" lon="4.80414">
        <ele>189</ele>
        <time>2012-04-07T15:31:24Z</time>
      </trkpt>
      <trkpt lat="45.8872" lon="4.80433">
        <ele>187</ele>
        <time>2012-04-07T15:31:27Z</time>
      </trkpt>
      <trkpt lat="45.88742" lon="4.80452">
        <ele>185</ele>
        <time>2012-04-07T15:31:30Z</time>
      </trkpt>
      <trkpt lat="45.88762" lon="4.80468">
        <ele>184</ele>
        <time>2012-04-07T15:31:33Z</time>
      </trkpt>
      <trkpt lat="45.88781" lon="4.80473">
        <ele>184</ele>
        <time>2012-04-07T15:31:36Z</time>
      </trkpt>
      <trkpt lat="45.88799" lon="4.80462">
        <ele>183</ele>
        <time>2012-04-07T15:31:39Z</time>
      </trkpt>
      <trkpt lat="45.8881" lon="4.80437">
        <ele>181</ele>
        <time>2012-04-07T15:31:42Z</time>
      </trkpt>
      <trkpt lat="45.88815" lon="4.80408">
        <ele>181</ele>
        <time>2012-04-07T15:31:45Z</time>
      </trkpt>
      <trkpt lat="45.88824" lon="4.80383">
        <ele>180</ele>
        <time>2012-04-07T15:31:48Z</time>
      </trkpt>
      <trkpt lat="45.88839" lon="4.80369">
        <ele>179</ele>
        <time>2012-04-07T15:31:51Z</time>
      </trkpt>
      <trkpt lat="45.88856" lon="4.80376">
        <ele>179</ele>
        <time>2012-04-07T15:31:54Z</time>
      </trkpt>
      <trkpt lat="45.88868" lon="4.80402">
        <ele>178</ele>
        <time>2012-04-07T15:31:57Z</time>
      </trkpt>
      <trkpt lat="45.88906" lon="4.80475">
        <ele>175</ele>
        <time>2012-04-07T15:32:05Z</time>
      </trkpt>
      <trkpt lat="45.88913" lon="4.80511">
        <ele>175</ele>
        <time>2012-04-07T15:32:08Z</time>
      </trkpt>
      <trkpt lat="45.8892" lon="4.80534">
        <ele>175</ele>
        <time>2012-04-07T15:32:11Z</time>
      </trkpt>
      <trkpt lat="45.88927" lon="4.80552">
        <ele>176</ele>
        <time>2012-04-07T15:32:14Z</time>
      </trkpt>
      <trkpt lat="45.88928" lon="4.80576">
        <ele>176</ele>
        <time>2012-04-07T15:32:17Z</time>
      </trkpt>
      <trkpt lat="45.88914" lon="4.80593">
        <ele>176</ele>
        <time>2012-04-07T15:32:20Z</time>
      </trkpt>
      <trkpt lat="45.88895" lon="4.80605">
        <ele>176</ele>
        <time>2012-04-07T15:32:24Z</time>
      </trkpt>
      <trkpt lat="45.8887" lon="4.80621">
        <ele>175</ele>
        <time>2012-04-07T15:32:27Z</time>
      </trkpt>
      <trkpt lat="45.88852" lon="4.80635">
        <ele>174</ele>
        <time>2012-04-07T15:32:30Z</time>
      </trkpt>
      <trkpt lat="45.88836" lon="4.80651">
        <ele>173</ele>
        <time>2012-04-07T15:32:33Z</time>
      </trkpt>
      <trkpt lat="45.88819" lon="4.80667">
        <ele>172</ele>
        <time>2012-04-07T15:32:36Z</time>
      </trkpt>
      <trkpt lat="45.88803" lon="4.80685">
        <ele>172</ele>
        <time>2012-04-07T15:32:39Z</time>
      </trkpt>
      <trkpt lat="45.88788" lon="4.80703">
        <ele>172</ele>
        <time>2012-04-07T15:32:42Z</time>
      </trkpt>
      <trkpt lat="45.88773" lon="4.80721">
        <ele>172</ele>
        <time>2012-04-07T15:32:45Z</time>
      </trkpt>
      <trkpt lat="45.88757" lon="4.8074">
        <ele>172</ele>
        <time>2012-04-07T15:32:48Z</time>
      </trkpt>
      <trkpt lat="45.88741" lon="4.80758">
        <ele>172</ele>
        <time>2012-04-07T15:32:51Z</time>
      </trkpt>
      <trkpt lat="45.88725" lon="4.80775">
        <ele>172</ele>
        <time>2012-04-07T15:32:54Z</time>
      </trkpt>
      <trkpt lat="45.8871" lon="4.80793">
        <ele>172</ele>
        <time>2012-04-07T15:32:57Z</time>
      </trkpt>
      <trkpt lat="45.88694" lon="4.8081">
        <ele>172</ele>
        <time>2012-04-07T15:33:00Z</time>
      </trkpt>
      <trkpt lat="45.88678" lon="4.80827">
        <ele>172</ele>
        <time>2012-04-07T15:33:03Z</time>
      </trkpt>
      <trkpt lat="45.8866" lon="4.80845">
        <ele>172</ele>
        <time>2012-04-07T15:33:06Z</time>
      </trkpt>
      <trkpt lat="45.88643" lon="4.80863">
        <ele>172</ele>
        <time>2012-04-07T15:33:09Z</time>
      </trkpt>
      <trkpt lat="45.88626" lon="4.80882">
        <ele>172</ele>
        <time>2012-04-07T15:33:12Z</time>
      </trkpt>
      <trkpt lat="45.88608" lon="4.809">
        <ele>172</ele>
        <time>2012-04-07T15:33:15Z</time>
      </trkpt>
      <trkpt lat="45.88591" lon="4.80919">
        <ele>172</ele>
        <time>2012-04-07T15:33:18Z</time>
      </trkpt>
      <trkpt lat="45.88573" lon="4.80937">
        <ele>172</ele>
        <time>2012-04-07T15:33:21Z</time>
      </trkpt>
      <trkpt lat="45.88557" lon="4.80957">
        <ele>172</ele>
        <time>2012-04-07T15:33:24Z</time>
      </trkpt>
      <trkpt lat="45.8854" lon="4.80976">
        <ele>172</ele>
        <time>2012-04-07T15:33:27Z</time>
      </trkpt>
      <trkpt lat="45.88524" lon="4.80996">
        <ele>172</ele>
        <time>2012-04-07T15:33:30Z</time>
      </trkpt>
      <trkpt lat="45.88509" lon="4.81016">
        <ele>172</ele>
        <time>2012-04-07T15:33:33Z</time>
      </trkpt>
      <trkpt lat="45.88494" lon="4.81036">
        <ele>171</ele>
        <time>2012-04-07T15:33:36Z</time>
      </trkpt>
      <trkpt lat="45.88481" lon="4.81055">
        <ele>169</ele>
        <time>2012-04-07T15:33:39Z</time>
      </trkpt>
      <trkpt lat="45.88469" lon="4.81074">
        <ele>167</ele>
        <time>2012-04-07T15:33:42Z</time>
      </trkpt>
      <trkpt lat="45.88457" lon="4.81093">
        <ele>166</ele>
        <time>2012-04-07T15:33:45Z</time>
      </trkpt>
      <trkpt lat="45.88445" lon="4.81113">
        <ele>165</ele>
        <time>2012-04-07T15:33:48Z</time>
      </trkpt>
      <trkpt lat="45.88431" lon="4.81134">
        <ele>165</ele>
        <time>2012-04-07T15:33:51Z</time>
      </trkpt>
      <trkpt lat="45.88418" lon="4.81155">
        <ele>165</ele>
        <time>2012-04-07T15:33:54Z</time>
      </trkpt>
      <trkpt lat="45.88405" lon="4.81178">
        <ele>165</ele>
        <time>2012-04-07T15:33:57Z</time>
      </trkpt>
      <trkpt lat="45.88393" lon="4.812">
        <ele>165</ele>
        <time>2012-04-07T15:34:00Z</time>
      </trkpt>
      <trkpt lat="45.8838" lon="4.81224">
        <ele>165</ele>
        <time>2012-04-07T15:34:03Z</time>
      </trkpt>
      <trkpt lat="45.88367" lon="4.81248">
        <ele>167</ele>
        <time>2012-04-07T15:34:06Z</time>
      </trkpt>
      <trkpt lat="45.88354" lon="4.81273">
        <ele>167</ele>
        <time>2012-04-07T15:34:09Z</time>
      </trkpt>
      <trkpt lat="45.88342" lon="4.81298">
        <ele>168</ele>
        <time>2012-04-07T15:34:12Z</time>
      </trkpt>
      <trkpt lat="45.88329" lon="4.81323">
        <ele>169</ele>
        <time>2012-04-07T15:34:15Z</time>
      </trkpt>
      <trkpt lat="45.88317" lon="4.81349">
        <ele>170</ele>
        <time>2012-04-07T15:34:18Z</time>
      </trkpt>
      <trkpt lat="45.88306" lon="4.81376">
        <ele>170</ele>
        <time>2012-04-07T15:34:21Z</time>
      </trkpt>
      <trkpt lat="45.88295" lon="4.81403">
        <ele>170</ele>
        <time>2012-04-07T15:34:24Z</time>
      </trkpt>
      <trkpt lat="45.88282" lon="4.8143">
        <ele>170</ele>
        <time>2012-04-07T15:34:27Z</time>
      </trkpt>
      <trkpt lat="45.88269" lon="4.81458">
        <ele>170</ele>
        <time>2012-04-07T15:34:30Z</time>
      </trkpt>
      <trkpt lat="45.88256" lon="4.81486">
        <ele>170</ele>
        <time>2012-04-07T15:34:33Z</time>
      </trkpt>
      <trkpt lat="45.88243" lon="4.81514">
        <ele>170</ele>
        <time>2012-04-07T15:34:36Z</time>
      </trkpt>
      <trkpt lat="45.88231" lon="4.81542">
        <ele>170</ele>
        <time>2012-04-07T15:34:39Z</time>
      </trkpt>
      <trkpt lat="45.88219" lon="4.8157">
        <ele>170</ele>
        <time>2012-04-07T15:34:42Z</time>
      </trkpt>
      <trkpt lat="45.88208" lon="4.81598">
        <ele>171</ele>
        <time>2012-04-07T15:34:45Z</time>
      </trkpt>
      <trkpt lat="45.88196" lon="4.81626">
        <ele>173</ele>
        <time>2012-04-07T15:34:48Z</time>
      </trkpt>
      <trkpt lat="45.88186" lon="4.81653">
        <ele>173</ele>
        <time>2012-04-07T15:34:51Z</time>
      </trkpt>
      <trkpt lat="45.88175" lon="4.8168">
        <ele>174</ele>
        <time>2012-04-07T15:34:54Z</time>
      </trkpt>
      <trkpt lat="45.88165" lon="4.81707">
        <ele>174</ele>
        <time>2012-04-07T15:34:57Z</time>
      </trkpt>
      <trkpt lat="45.88154" lon="4.81736">
        <ele>174</ele>
        <time>2012-04-07T15:35:00Z</time>
      </trkpt>
      <trkpt lat="45.88143" lon="4.81763">
        <ele>174</ele>
        <time>2012-04-07T15:35:03Z</time>
      </trkpt>
      <trkpt lat="45.88132" lon="4.81791">
        <ele>174</ele>
        <time>2012-04-07T15:35:06Z</time>
      </trkpt>
      <trkpt lat="45.88122" lon="4.81819">
        <ele>174</ele>
        <time>2012-04-07T15:35:09Z</time>
      </trkpt>
      <trkpt lat="45.88111" lon="4.81847">
        <ele>174</ele>
        <time>2012-04-07T15:35:12Z</time>
      </trkpt>
      <trkpt lat="45.88101" lon="4.81875">
        <ele>174</ele>
        <time>2012-04-07T15:35:15Z</time>
      </trkpt>
      <trkpt lat="45.88092" lon="4.81904">
        <ele>174</ele>
        <time>2012-04-07T15:35:18Z</time>
      </trkpt>
      <trkpt lat="45.88082" lon="4.81932">
        <ele>174</ele>
        <time>2012-04-07T15:35:21Z</time>
      </trkpt>
      <trkpt lat="45.88073" lon="4.81961">
        <ele>174</ele>
        <time>2012-04-07T15:35:24Z</time>
      </trkpt>
      <trkpt lat="45.88063" lon="4.81989">
        <ele>174</ele>
        <time>2012-04-07T15:35:27Z</time>
      </trkpt>
      <trkpt lat="45.88053" lon="4.82017">
        <ele>173</ele>
        <time>2012-04-07T15:35:30Z</time>
      </trkpt>
      <trkpt lat="45.88042" lon="4.82043">
        <ele>173</ele>
        <time>2012-04-07T15:35:33Z</time>
      </trkpt>
      <trkpt lat="45.88027" lon="4.82063">
        <ele>173</ele>
        <time>2012-04-07T15:35:36Z</time>
      </trkpt>
      <trkpt lat="45.88009" lon="4.82074">
        <ele>173</ele>
        <time>2012-04-07T15:35:39Z</time>
      </trkpt>
      <trkpt lat="45.87993" lon="4.82093">
        <ele>173</ele>
        <time>2012-04-07T15:35:42Z</time>
      </trkpt>
      <trkpt lat="45.87983" lon="4.82119">
        <ele>173</ele>
        <time>2012-04-07T15:35:45Z</time>
      </trkpt>
      <trkpt lat="45.87976" lon="4.82147">
        <ele>172</ele>
        <time>2012-04-07T15:35:48Z</time>
      </trkpt>
      <trkpt lat="45.87971" lon="4.82176">
        <ele>172</ele>
        <time>2012-04-07T15:35:51Z</time>
      </trkpt>
      <trkpt lat="45.87969" lon="4.82206">
        <ele>172</ele>
        <time>2012-04-07T15:35:54Z</time>
      </trkpt>
      <trkpt lat="45.87965" lon="4.82234">
        <ele>172</ele>
        <time>2012-04-07T15:35:57Z</time>
      </trkpt>
      <trkpt lat="45.87962" lon="4.8226">
        <ele>172</ele>
        <time>2012-04-07T15:36:00Z</time>
      </trkpt>
      <trkpt lat="45.87958" lon="4.82283">
        <ele>172</ele>
        <time>2012-04-07T15:36:03Z</time>
      </trkpt>
      <trkpt lat="45.87955" lon="4.82303">
        <ele>172</ele>
        <time>2012-04-07T15:36:06Z</time>
      </trkpt>
      <trkpt lat="45.87953" lon="4.82326">
        <ele>172</ele>
        <time>2012-04-07T15:36:09Z</time>
      </trkpt>
      <trkpt lat="45.87952" lon="4.82351">
        <ele>172</ele>
        <time>2012-04-07T15:36:12Z</time>
      </trkpt>
      <trkpt lat="45.87948" lon="4.82377">
        <ele>172</ele>
        <time>2012-04-07T15:36:15Z</time>
      </trkpt>
      <trkpt lat="45.87944" lon="4.82403">
        <ele>172</ele>
        <time>2012-04-07T15:36:18Z</time>
      </trkpt>
      <trkpt lat="45.87941" lon="4.8243">
        <ele>172</ele>
        <time>2012-04-07T15:36:21Z</time>
      </trkpt>
      <trkpt lat="45.87936" lon="4.82457">
        <ele>172</ele>
        <time>2012-04-07T15:36:24Z</time>
      </trkpt>
      <trkpt lat="45.87931" lon="4.82483">
        <ele>172</ele>
        <time>2012-04-07T15:36:27Z</time>
      </trkpt>
      <trkpt lat="45.87925" lon="4.8251">
        <ele>172</ele>
        <time>2012-04-07T15:36:30Z</time>
      </trkpt>
      <trkpt lat="45.87919" lon="4.82537">
        <ele>172</ele>
        <time>2012-04-07T15:36:33Z</time>
      </trkpt>
      <trkpt lat="45.87914" lon="4.82565">
        <ele>172</ele>
        <time>2012-04-07T15:36:36Z</time>
      </trkpt>
      <trkpt lat="45.87907" lon="4.82592">
        <ele>172</ele>
        <time>2012-04-07T15:36:39Z</time>
      </trkpt>
      <trkpt lat="45.87901" lon="4.8262">
        <ele>172</ele>
        <time>2012-04-07T15:36:42Z</time>
      </trkpt>
      <trkpt lat="45.87894" lon="4.82647">
        <ele>172</ele>
        <time>2012-04-07T15:36:45Z</time>
      </trkpt>
      <trkpt lat="45.8789" lon="4.82675">
        <ele>172</ele>
        <time>2012-04-07T15:36:48Z</time>
      </trkpt>
      <trkpt lat="45.87888" lon="4.82703">
        <ele>172</ele>
        <time>2012-04-07T15:36:51Z</time>
      </trkpt>
      <trkpt lat="45.87886" lon="4.82731">
        <ele>172</ele>
        <time>2012-04-07T15:36:54Z</time>
      </trkpt>
      <trkpt lat="45.87887" lon="4.8276">
        <ele>172</ele>
        <time>2012-04-07T15:36:57Z</time>
      </trkpt>
      <trkpt lat="45.8789" lon="4.82787">
        <ele>172</ele>
        <time>2012-04-07T15:37:00Z</time>
      </trkpt>
      <trkpt lat="45.87895" lon="4.82815">
        <ele>172</ele>
        <time>2012-04-07T15:37:03Z</time>
      </trkpt>
      <trkpt lat="45.87897" lon="4.82843">
        <ele>172</ele>
        <time>2012-04-07T15:37:06Z</time>
      </trkpt>
      <trkpt lat="45.879" lon="4.82872">
        <ele>172</ele>
        <time>2012-04-07T15:37:09Z</time>
      </trkpt>
      <trkpt lat="45.87901" lon="4.829">
        <ele>172</ele>
        <time>2012-04-07T15:37:12Z</time>
      </trkpt>
      <trkpt lat="45.87901" lon="4.82931">
        <ele>172</ele>
        <time>2012-04-07T15:37:15Z</time>
      </trkpt>
      <trkpt lat="45.87899" lon="4.82961">
        <ele>172</ele>
        <time>2012-04-07T15:37:18Z</time>
      </trkpt>
      <trkpt lat="45.87896" lon="4.82992">
        <ele>172</ele>
        <time>2012-04-07T15:37:21Z</time>
      </trkpt>
      <trkpt lat="45.87893" lon="4.83022">
        <ele>172</ele>
        <time>2012-04-07T15:37:24Z</time>
      </trkpt>
      <trkpt lat="45.87889" lon="4.83052">
        <ele>172</ele>
        <time>2012-04-07T15:37:27Z</time>
      </trkpt>
      <trkpt lat="45.87887" lon="4.83083">
        <ele>172</ele>
        <time>2012-04-07T15:37:30Z</time>
      </trkpt>
      <trkpt lat="45.87884" lon="4.83114">
        <ele>172</ele>
        <time>2012-04-07T15:37:33Z</time>
      </trkpt>
      <trkpt lat="45.8788" lon="4.83143">
        <ele>172</ele>
        <time>2012-04-07T15:37:36Z</time>
      </trkpt>
      <trkpt lat="45.87875" lon="4.83171">
        <ele>172</ele>
        <time>2012-04-07T15:37:39Z</time>
      </trkpt>
      <trkpt lat="45.8787" lon="4.832">
        <ele>172</ele>
        <time>2012-04-07T15:37:42Z</time>
      </trkpt>
      <trkpt lat="45.87864" lon="4.83228">
        <ele>172</ele>
        <time>2012-04-07T15:37:45Z</time>
      </trkpt>
      <trkpt lat="45.87857" lon="4.83258">
        <ele>172</ele>
        <time>2012-04-07T15:37:48Z</time>
      </trkpt>
      <trkpt lat="45.87849" lon="4.83287">
        <ele>172</ele>
        <time>2012-04-07T15:37:51Z</time>
      </trkpt>
      <trkpt lat="45.8784" lon="4.83316">
        <ele>172</ele>
        <time>2012-04-07T15:37:54Z</time>
      </trkpt>
      <trkpt lat="45.87831" lon="4.83344">
        <ele>172</ele>
        <time>2012-04-07T15:37:57Z</time>
      </trkpt>
      <trkpt lat="45.87819" lon="4.8337">
        <ele>172</ele>
        <time>2012-04-07T15:38:00Z</time>
      </trkpt>
      <trkpt lat="45.87807" lon="4.83395">
        <ele>172</ele>
        <time>2012-04-07T15:38:03Z</time>
      </trkpt>
      <trkpt lat="45.87795" lon="4.83421">
        <ele>172</ele>
        <time>2012-04-07T15:38:06Z</time>
      </trkpt>
      <trkpt lat="45.87783" lon="4.83445">
        <ele>172</ele>
        <time>2012-04-07T15:38:09Z</time>
      </trkpt>
      <trkpt lat="45.87769" lon="4.83467">
        <ele>172</ele>
        <time>2012-04-07T15:38:12Z</time>
      </trkpt>
      <trkpt lat="45.87755" lon="4.83487">
        <ele>172</ele>
        <time>2012-04-07T15:38:15Z</time>
      </trkpt>
      <trkpt lat="45.8774" lon="4.83506">
        <ele>172</ele>
        <time>2012-04-07T15:38:18Z</time>
      </trkpt>
      <trkpt lat="45.87725" lon="4.83523">
        <ele>172</ele>
        <time>2012-04-07T15:38:21Z</time>
      </trkpt>
      <trkpt lat="45.87711" lon="4.83536">
        <ele>172</ele>
        <time>2012-04-07T15:38:24Z</time>
      </trkpt>
      <trkpt lat="45.87701" lon="4.83539">
        <ele>171</ele>
        <time>2012-04-07T15:38:27Z</time>
      </trkpt>
      <trkpt lat="45.87697" lon="4.83536">
        <ele>170</ele>
        <time>2012-04-07T15:38:30Z</time>
      </trkpt>
      <trkpt lat="45.87688" lon="4.83534">
        <ele>170</ele>
        <time>2012-04-07T15:38:33Z</time>
      </trkpt>
      <trkpt lat="45.8768" lon="4.83538">
        <ele>170</ele>
        <time>2012-04-07T15:38:36Z</time>
      </trkpt>
      <trkpt lat="45.87676" lon="4.83544">
        <ele>170</ele>
        <time>2012-04-07T15:38:39Z</time>
      </trkpt>
      <trkpt lat="45.87677" lon="4.83553">
        <ele>169</ele>
        <time>2012-04-07T15:38:42Z</time>
      </trkpt>
      <trkpt lat="45.87682" lon="4.83558">
        <ele>169</ele>
        <time>2012-04-07T15:38:45Z</time>
      </trkpt>
      <trkpt lat="45.87689" lon="4.83553">
        <ele>169</ele>
        <time>2012-04-07T15:38:48Z</time>
      </trkpt>
      <trkpt lat="45.87692" lon="4.83539">
        <ele>169</ele>
        <time>2012-04-07T15:38:51Z</time>
      </trkpt>
      <trkpt lat="45.87686" lon="4.8353">
        <ele>169</ele>
        <time>2012-04-07T15:38:54Z</time>
      </trkpt>
      <trkpt lat="45.87675" lon="4.83533">
        <ele>169</ele>
        <time>2012-04-07T15:38:57Z</time>
      </trkpt>
      <trkpt lat="45.87664" lon="4.83538">
        <ele>169</ele>
        <time>2012-04-07T15:39:00Z</time>
      </trkpt>
      <trkpt lat="45.87652" lon="4.83538">
        <ele>169</ele>
        <time>2012-04-07T15:39:03Z</time>
      </trkpt>
      <trkpt lat="45.87637" lon="4.83537">
        <ele>169</ele>
        <time>2012-04-07T15:39:06Z</time>
      </trkpt>
      <trkpt lat="45.87621" lon="4.83536">
        <ele>169</ele>
        <time>2012-04-07T15:39:09Z</time>
      </trkpt>
      <trkpt lat="45.87604" lon="4.83533">
        <ele>169</ele>
        <time>2012-04-07T15:39:12Z</time>
      </trkpt>
      <trkpt lat="45.87587" lon="4.83528">
        <ele>169</ele>
        <time>2012-04-07T15:39:15Z</time>
      </trkpt>
      <trkpt lat="45.87569" lon="4.83521">
        <ele>169</ele>
        <time>2012-04-07T15:39:18Z</time>
      </trkpt>
      <trkpt lat="45.87551" lon="4.83515">
        <ele>169</ele>
        <time>2012-04-07T15:39:21Z</time>
      </trkpt>
      <trkpt lat="45.87534" lon="4.83508">
        <ele>169</ele>
        <time>2012-04-07T15:39:24Z</time>
      </trkpt>
      <trkpt lat="45.87515" lon="4.83505">
        <ele>169</ele>
        <time>2012-04-07T15:39:27Z</time>
      </trkpt>
      <trkpt lat="45.87496" lon="4.83503">
        <ele>169</ele>
        <time>2012-04-07T15:39:30Z</time>
      </trkpt>
      <trkpt lat="45.87477" lon="4.83504">
        <ele>169</ele>
        <time>2012-04-07T15:39:33Z</time>
      </trkpt>
      <trkpt lat="45.87458" lon="4.83504">
        <ele>169</ele>
        <time>2012-04-07T15:39:36Z</time>
      </trkpt>
      <trkpt lat="45.87438" lon="4.83504">
        <ele>169</ele>
        <time>2012-04-07T15:39:39Z</time>
      </trkpt>
      <trkpt lat="45.87419" lon="4.83504">
        <ele>169</ele>
        <time>2012-04-07T15:39:42Z</time>
      </trkpt>
      <trkpt lat="45.874" lon="4.83504">
        <ele>169</ele>
        <time>2012-04-07T15:39:45Z</time>
      </trkpt>
      <trkpt lat="45.8738" lon="4.83504">
        <ele>169</ele>
        <time>2012-04-07T15:39:48Z</time>
      </trkpt>
      <trkpt lat="45.8736" lon="4.83504">
        <ele>169</ele>
        <time>2012-04-07T15:39:51Z</time>
      </trkpt>
      <trkpt lat="45.8734" lon="4.83503">
        <ele>169</ele>
        <time>2012-04-07T15:39:54Z</time>
      </trkpt>
      <trkpt lat="45.8732" lon="4.83499">
        <ele>169</ele>
        <time>2012-04-07T15:39:57Z</time>
      </trkpt>
      <trkpt lat="45.873" lon="4.83495">
        <ele>169</ele>
        <time>2012-04-07T15:40:00Z</time>
      </trkpt>
      <trkpt lat="45.87281" lon="4.83492">
        <ele>169</ele>
        <time>2012-04-07T15:40:03Z</time>
      </trkpt>
      <trkpt lat="45.87261" lon="4.83488">
        <ele>169</ele>
        <time>2012-04-07T15:40:06Z</time>
      </trkpt>
      <trkpt lat="45.87241" lon="4.83484">
        <ele>169</ele>
        <time>2012-04-07T15:40:09Z</time>
      </trkpt>
      <trkpt lat="45.87221" lon="4.8348">
        <ele>169</ele>
        <time>2012-04-07T15:40:12Z</time>
      </trkpt>
      <trkpt lat="45.872" lon="4.83477">
        <ele>169</ele>
        <time>2012-04-07T15:40:15Z</time>
      </trkpt>
      <trkpt lat="45.87179" lon="4.83474">
        <ele>169</ele>
        <time>2012-04-07T15:40:18Z</time>
      </trkpt>
      <trkpt lat="45.87159" lon="4.83472">
        <ele>169</ele>
        <time>2012-04-07T15:40:21Z</time>
      </trkpt>
      <trkpt lat="45.8714" lon="4.83468">
        <ele>169</ele>
        <time>2012-04-07T15:40:24Z</time>
      </trkpt>
      <trkpt lat="45.8712" lon="4.83465">
        <ele>169</ele>
        <time>2012-04-07T15:40:27Z</time>
      </trkpt>
      <trkpt lat="45.871" lon="4.83465">
        <ele>169</ele>
        <time>2012-04-07T15:40:30Z</time>
      </trkpt>
      <trkpt lat="45.8708" lon="4.83465">
        <ele>169</ele>
        <time>2012-04-07T15:40:33Z</time>
      </trkpt>
      <trkpt lat="45.87059" lon="4.83465">
        <ele>169</ele>
        <time>2012-04-07T15:40:36Z</time>
      </trkpt>
      <trkpt lat="45.87037" lon="4.83465">
        <ele>169</ele>
        <time>2012-04-07T15:40:39Z</time>
      </trkpt>
      <trkpt lat="45.87016" lon="4.83466">
        <ele>169</ele>
        <time>2012-04-07T15:40:42Z</time>
      </trkpt>
      <trkpt lat="45.86995" lon="4.83465">
        <ele>169</ele>
        <time>2012-04-07T15:40:45Z</time>
      </trkpt>
      <trkpt lat="45.86974" lon="4.83465">
        <ele>169</ele>
        <time>2012-04-07T15:40:48Z</time>
      </trkpt>
      <trkpt lat="45.86953" lon="4.83464">
        <ele>169</ele>
        <time>2012-04-07T15:40:51Z</time>
      </trkpt>
      <trkpt lat="45.86932" lon="4.83464">
        <ele>169</ele>
        <time>2012-04-07T15:40:54Z</time>
      </trkpt>
      <trkpt lat="45.86911" lon="4.83462">
        <ele>168</ele>
        <time>2012-04-07T15:40:57Z</time>
      </trkpt>
      <trkpt lat="45.8689" lon="4.8346">
        <ele>168</ele>
        <time>2012-04-07T15:41:00Z</time>
      </trkpt>
      <trkpt lat="45.86868" lon="4.83457">
        <ele>168</ele>
        <time>2012-04-07T15:41:03Z</time>
      </trkpt>
      <trkpt lat="45.86846" lon="4.83455">
        <ele>168</ele>
        <time>2012-04-07T15:41:06Z</time>
      </trkpt>
      <trkpt lat="45.86825" lon="4.83452">
        <ele>168</ele>
        <time>2012-04-07T15:41:09Z</time>
      </trkpt>
      <trkpt lat="45.86803" lon="4.83451">
        <ele>168</ele>
        <time>2012-04-07T15:41:12Z</time>
      </trkpt>
      <trkpt lat="45.86781" lon="4.83449">
        <ele>168</ele>
        <time>2012-04-07T15:41:15Z</time>
      </trkpt>
      <trkpt lat="45.8676" lon="4.83447">
        <ele>168</ele>
        <time>2012-04-07T15:41:18Z</time>
      </trkpt>
      <trkpt lat="45.86738" lon="4.83446">
        <ele>168</ele>
        <time>2012-04-07T15:41:21Z</time>
      </trkpt>
      <trkpt lat="45.86718" lon="4.83444">
        <ele>168</ele>
        <time>2012-04-07T15:41:24Z</time>
      </trkpt>
      <trkpt lat="45.86697" lon="4.83443">
        <ele>168</ele>
        <time>2012-04-07T15:41:27Z</time>
      </trkpt>
      <trkpt lat="45.86676" lon="4.83441">
        <ele>168</ele>
        <time>2012-04-07T15:41:30Z</time>
      </trkpt>
      <trkpt lat="45.86655" lon="4.83438">
        <ele>168</ele>
        <time>2012-04-07T15:41:33Z</time>
      </trkpt>
      <trkpt lat="45.86635" lon="4.83436">
        <ele>168</ele>
        <time>2012-04-07T15:41:36Z</time>
      </trkpt>
      <trkpt lat="45.86614" lon="4.83433">
        <ele>168</ele>
        <time>2012-04-07T15:41:39Z</time>
      </trkpt>
      <trkpt lat="45.86593" lon="4.83431">
        <ele>168</ele>
        <time>2012-04-07T15:41:42Z</time>
      </trkpt>
      <trkpt lat="45.86572" lon="4.83432">
        <ele>168</ele>
        <time>2012-04-07T15:41:45Z</time>
      </trkpt>
      <trkpt lat="45.86551" lon="4.83435">
        <ele>168</ele>
        <time>2012-04-07T15:41:48Z</time>
      </trkpt>
      <trkpt lat="45.8653" lon="4.8344">
        <ele>168</ele>
        <time>2012-04-07T15:41:51Z</time>
      </trkpt>
      <trkpt lat="45.86509" lon="4.83447">
        <ele>168</ele>
        <time>2012-04-07T15:41:54Z</time>
      </trkpt>
      <trkpt lat="45.86488" lon="4.83456">
        <ele>168</ele>
        <time>2012-04-07T15:41:57Z</time>
      </trkpt>
      <trkpt lat="45.86467" lon="4.83465">
        <ele>168</ele>
        <time>2012-04-07T15:42:00Z</time>
      </trkpt>
      <trkpt lat="45.86445" lon="4.8347">
        <ele>168</ele>
        <time>2012-04-07T15:42:03Z</time>
      </trkpt>
      <trkpt lat="45.86424" lon="4.83469">
        <ele>168</ele>
        <time>2012-04-07T15:42:06Z</time>
      </trkpt>
      <trkpt lat="45.86404" lon="4.83469">
        <ele>168</ele>
        <time>2012-04-07T15:42:09Z</time>
      </trkpt>
      <trkpt lat="45.86388" lon="4.83472">
        <ele>168</ele>
        <time>2012-04-07T15:42:12Z</time>
      </trkpt>
      <trkpt lat="45.86375" lon="4.83464">
        <ele>168</ele>
        <time>2012-04-07T15:42:15Z</time>
      </trkpt>
      <trkpt lat="45.86368" lon="4.8346">
        <ele>168</ele>
        <time>2012-04-07T15:42:18Z</time>
      </trkpt>
      <trkpt lat="45.86359" lon="4.83464">
        <ele>168</ele>
        <time>2012-04-07T15:42:21Z</time>
      </trkpt>
      <trkpt lat="45.86354" lon="4.83476">
        <ele>168</ele>
        <time>2012-04-07T15:42:24Z</time>
      </trkpt>
      <trkpt lat="45.86349" lon="4.83489">
        <ele>168</ele>
        <time>2012-04-07T15:42:27Z</time>
      </trkpt>
      <trkpt lat="45.8634" lon="4.83499">
        <ele>167</ele>
        <time>2012-04-07T15:42:30Z</time>
      </trkpt>
      <trkpt lat="45.86328" lon="4.83508">
        <ele>167</ele>
        <time>2012-04-07T15:42:33Z</time>
      </trkpt>
      <trkpt lat="45.86313" lon="4.83516">
        <ele>167</ele>
        <time>2012-04-07T15:42:36Z</time>
      </trkpt>
      <trkpt lat="45.86299" lon="4.83522">
        <ele>167</ele>
        <time>2012-04-07T15:42:39Z</time>
      </trkpt>
      <trkpt lat="45.86282" lon="4.83525">
        <ele>167</ele>
        <time>2012-04-07T15:42:42Z</time>
      </trkpt>
      <trkpt lat="45.86266" lon="4.83526">
        <ele>167</ele>
        <time>2012-04-07T15:42:45Z</time>
      </trkpt>
      <trkpt lat="45.86249" lon="4.83526">
        <ele>167</ele>
        <time>2012-04-07T15:42:48Z</time>
      </trkpt>
      <trkpt lat="45.86232" lon="4.83525">
        <ele>167</ele>
        <time>2012-04-07T15:42:51Z</time>
      </trkpt>
      <trkpt lat="45.86214" lon="4.83524">
        <ele>167</ele>
        <time>2012-04-07T15:42:54Z</time>
      </trkpt>
      <trkpt lat="45.86195" lon="4.83521">
        <ele>167</ele>
        <time>2012-04-07T15:42:57Z</time>
      </trkpt>
      <trkpt lat="45.86176" lon="4.83519">
        <ele>167</ele>
        <time>2012-04-07T15:43:00Z</time>
      </trkpt>
      <trkpt lat="45.86157" lon="4.83518">
        <ele>167</ele>
        <time>2012-04-07T15:43:03Z</time>
      </trkpt>
      <trkpt lat="45.86138" lon="4.83516">
        <ele>167</ele>
        <time>2012-04-07T15:43:06Z</time>
      </trkpt>
      <trkpt lat="45.86119" lon="4.83514">
        <ele>167</ele>
        <time>2012-04-07T15:43:09Z</time>
      </trkpt>
      <trkpt lat="45.861" lon="4.83513">
        <ele>167</ele>
        <time>2012-04-07T15:43:12Z</time>
      </trkpt>
      <trkpt lat="45.86081" lon="4.83512">
        <ele>167</ele>
        <time>2012-04-07T15:43:15Z</time>
      </trkpt>
      <trkpt lat="45.86061" lon="4.8351">
        <ele>167</ele>
        <time>2012-04-07T15:43:18Z</time>
      </trkpt>
      <trkpt lat="45.86046" lon="4.83509">
        <ele>167</ele>
        <time>2012-04-07T15:43:21Z</time>
      </trkpt>
      <trkpt lat="45.86033" lon="4.83509">
        <ele>167</ele>
        <time>2012-04-07T15:43:24Z</time>
      </trkpt>
      <trkpt lat="45.8602" lon="4.83509">
        <ele>167</ele>
        <time>2012-04-07T15:43:27Z</time>
      </trkpt>
      <trkpt lat="45.86005" lon="4.8351">
        <ele>167</ele>
        <time>2012-04-07T15:43:30Z</time>
      </trkpt>
      <trkpt lat="45.85988" lon="4.83509">
        <ele>167</ele>
        <time>2012-04-07T15:43:33Z</time>
      </trkpt>
      <trkpt lat="45.85971" lon="4.8351">
        <ele>167</ele>
        <time>2012-04-07T15:43:36Z</time>
      </trkpt>
      <trkpt lat="45.85952" lon="4.83511">
        <ele>167</ele>
        <time>2012-04-07T15:43:39Z</time>
      </trkpt>
      <trkpt lat="45.85933" lon="4.83512">
        <ele>167</ele>
        <time>2012-04-07T15:43:42Z</time>
      </trkpt>
      <trkpt lat="45.85914" lon="4.83512">
        <ele>167</ele>
        <time>2012-04-07T15:43:45Z</time>
      </trkpt>
      <trkpt lat="45.85894" lon="4.83511">
        <ele>167</ele>
        <time>2012-04-07T15:43:48Z</time>
      </trkpt>
      <trkpt lat="45.85875" lon="4.83509">
        <ele>167</ele>
        <time>2012-04-07T15:43:51Z</time>
      </trkpt>
      <trkpt lat="45.85857" lon="4.83507">
        <ele>167</ele>
        <time>2012-04-07T15:43:54Z</time>
      </trkpt>
      <trkpt lat="45.85838" lon="4.83506">
        <ele>167</ele>
        <time>2012-04-07T15:43:57Z</time>
      </trkpt>
      <trkpt lat="45.85818" lon="4.83504">
        <ele>167</ele>
        <time>2012-04-07T15:44:00Z</time>
      </trkpt>
      <trkpt lat="45.85799" lon="4.83503">
        <ele>167</ele>
        <time>2012-04-07T15:44:03Z</time>
      </trkpt>
      <trkpt lat="45.8578" lon="4.83502">
        <ele>167</ele>
        <time>2012-04-07T15:44:06Z</time>
      </trkpt>
      <trkpt lat="45.85759" lon="4.83501">
        <ele>167</ele>
        <time>2012-04-07T15:44:09Z</time>
      </trkpt>
      <trkpt lat="45.85739" lon="4.83499">
        <ele>167</ele>
        <time>2012-04-07T15:44:12Z</time>
      </trkpt>
      <trkpt lat="45.85719" lon="4.83497">
        <ele>167</ele>
        <time>2012-04-07T15:44:15Z</time>
      </trkpt>
      <trkpt lat="45.85699" lon="4.83492">
        <ele>167</ele>
        <time>2012-04-07T15:44:18Z</time>
      </trkpt>
      <trkpt lat="45.8568" lon="4.83489">
        <ele>167</ele>
        <time>2012-04-07T15:44:21Z</time>
      </trkpt>
      <trkpt lat="45.8566" lon="4.83484">
        <ele>167</ele>
        <time>2012-04-07T15:44:24Z</time>
      </trkpt>
      <trkpt lat="45.85641" lon="4.83478">
        <ele>167</ele>
        <time>2012-04-07T15:44:27Z</time>
      </trkpt>
      <trkpt lat="45.85622" lon="4.8347">
        <ele>167</ele>
        <time>2012-04-07T15:44:30Z</time>
      </trkpt>
      <trkpt lat="45.85603" lon="4.83463">
        <ele>167</ele>
        <time>2012-04-07T15:44:33Z</time>
      </trkpt>
      <trkpt lat="45.85583" lon="4.83456">
        <ele>167</ele>
        <time>2012-04-07T15:44:36Z</time>
      </trkpt>
      <trkpt lat="45.85563" lon="4.83449">
        <ele>167</ele>
        <time>2012-04-07T15:44:39Z</time>
      </trkpt>
      <trkpt lat="45.85543" lon="4.83443">
        <ele>167</ele>
        <time>2012-04-07T15:44:42Z</time>
      </trkpt>
      <trkpt lat="45.85524" lon="4.83436">
        <ele>167</ele>
        <time>2012-04-07T15:44:45Z</time>
      </trkpt>
      <trkpt lat="45.85505" lon="4.8343">
        <ele>167</ele>
        <time>2012-04-07T15:44:48Z</time>
      </trkpt>
      <trkpt lat="45.85485" lon="4.83425">
        <ele>167</ele>
        <time>2012-04-07T15:44:51Z</time>
      </trkpt>
      <trkpt lat="45.85465" lon="4.83419">
        <ele>167</ele>
        <time>2012-04-07T15:44:54Z</time>
      </trkpt>
      <trkpt lat="45.85445" lon="4.83413">
        <ele>167</ele>
        <time>2012-04-07T15:44:57Z</time>
      </trkpt>
      <trkpt lat="45.85425" lon="4.83407">
        <ele>167</ele>
        <time>2012-04-07T15:45:00Z</time>
      </trkpt>
      <trkpt lat="45.85405" lon="4.83401">
        <ele>167</ele>
        <time>2012-04-07T15:45:03Z</time>
      </trkpt>
      <trkpt lat="45.85385" lon="4.83395">
        <ele>167</ele>
        <time>2012-04-07T15:45:06Z</time>
      </trkpt>
      <trkpt lat="45.85365" lon="4.83389">
        <ele>167</ele>
        <time>2012-04-07T15:45:09Z</time>
      </trkpt>
      <trkpt lat="45.85345" lon="4.83382">
        <ele>167</ele>
        <time>2012-04-07T15:45:12Z</time>
      </trkpt>
      <trkpt lat="45.85325" lon="4.83376">
        <ele>167</ele>
        <time>2012-04-07T15:45:15Z</time>
      </trkpt>
      <trkpt lat="45.85304" lon="4.83371">
        <ele>167</ele>
        <time>2012-04-07T15:45:18Z</time>
      </trkpt>
      <trkpt lat="45.85284" lon="4.83365">
        <ele>167</ele>
        <time>2012-04-07T15:45:21Z</time>
      </trkpt>
      <trkpt lat="45.85266" lon="4.83359">
        <ele>167</ele>
        <time>2012-04-07T15:45:24Z</time>
      </trkpt>
      <trkpt lat="45.85248" lon="4.83355">
        <ele>167</ele>
        <time>2012-04-07T15:45:27Z</time>
      </trkpt>
      <trkpt lat="45.85232" lon="4.8335">
        <ele>167</ele>
        <time>2012-04-07T15:45:30Z</time>
      </trkpt>
      <trkpt lat="45.85217" lon="4.83345">
        <ele>167</ele>
        <time>2012-04-07T15:45:33Z</time>
      </trkpt>
      <trkpt lat="45.85203" lon="4.83341">
        <ele>167</ele>
        <time>2012-04-07T15:45:36Z</time>
      </trkpt>
      <trkpt lat="45.85193" lon="4.83337">
        <ele>167</ele>
        <time>2012-04-07T15:45:39Z</time>
      </trkpt>
      <trkpt lat="45.85186" lon="4.83336">
        <ele>167</ele>
        <time>2012-04-07T15:45:42Z</time>
      </trkpt>
      <trkpt lat="45.85181" lon="4.83333">
        <ele>167</ele>
        <time>2012-04-07T15:45:45Z</time>
      </trkpt>
      <trkpt lat="45.8518" lon="4.83334">
        <ele>167</ele>
        <time>2012-04-07T15:45:51Z</time>
      </trkpt>
      <trkpt lat="45.85175" lon="4.83332">
        <ele>167</ele>
        <time>2012-04-07T15:45:54Z</time>
      </trkpt>
      <trkpt lat="45.85169" lon="4.8333">
        <ele>167</ele>
        <time>2012-04-07T15:45:57Z</time>
      </trkpt>
      <trkpt lat="45.8516" lon="4.83328">
        <ele>167</ele>
        <time>2012-04-07T15:46:00Z</time>
      </trkpt>
      <trkpt lat="45.85151" lon="4.83326">
        <ele>167</ele>
        <time>2012-04-07T15:46:03Z</time>
      </trkpt>
      <trkpt lat="45.85141" lon="4.83323">
        <ele>167</ele>
        <time>2012-04-07T15:46:06Z</time>
      </trkpt>
      <trkpt lat="45.85128" lon="4.83318">
        <ele>167</ele>
        <time>2012-04-07T15:46:09Z</time>
      </trkpt>
      <trkpt lat="45.85113" lon="4.83312">
        <ele>167</ele>
        <time>2012-04-07T15:46:12Z</time>
      </trkpt>
      <trkpt lat="45.85096" lon="4.83306">
        <ele>166</ele>
        <time>2012-04-07T15:46:15Z</time>
      </trkpt>
      <trkpt lat="45.85079" lon="4.83299">
        <ele>166</ele>
        <time>2012-04-07T15:46:18Z</time>
      </trkpt>
      <trkpt lat="45.85062" lon="4.83292">
        <ele>166</ele>
        <time>2012-04-07T15:46:21Z</time>
      </trkpt>
      <trkpt lat="45.85044" lon="4.83284">
        <ele>166</ele>
        <time>2012-04-07T15:46:24Z</time>
      </trkpt>
      <trkpt lat="45.85026" lon="4.83276">
        <ele>165</ele>
        <time>2012-04-07T15:46:27Z</time>
      </trkpt>
      <trkpt lat="45.85009" lon="4.83268">
        <ele>165</ele>
        <time>2012-04-07T15:46:30Z</time>
      </trkpt>
      <trkpt lat="45.84991" lon="4.8326">
        <ele>165</ele>
        <time>2012-04-07T15:46:33Z</time>
      </trkpt>
      <trkpt lat="45.84974" lon="4.83252">
        <ele>165</ele>
        <time>2012-04-07T15:46:36Z</time>
      </trkpt>
      <trkpt lat="45.84956" lon="4.83244">
        <ele>165</ele>
        <time>2012-04-07T15:46:39Z</time>
      </trkpt>
      <trkpt lat="45.84938" lon="4.83234">
        <ele>165</ele>
        <time>2012-04-07T15:46:42Z</time>
      </trkpt>
      <trkpt lat="45.8492" lon="4.83225">
        <ele>165</ele>
        <time>2012-04-07T15:46:45Z</time>
      </trkpt>
      <trkpt lat="45.84902" lon="4.83217">
        <ele>165</ele>
        <time>2012-04-07T15:46:48Z</time>
      </trkpt>
      <trkpt lat="45.84884" lon="4.8321">
        <ele>165</ele>
        <time>2012-04-07T15:46:51Z</time>
      </trkpt>
      <trkpt lat="45.84864" lon="4.83203">
        <ele>165</ele>
        <time>2012-04-07T15:46:54Z</time>
      </trkpt>
      <trkpt lat="45.84845" lon="4.83198">
        <ele>165</ele>
        <time>2012-04-07T15:46:57Z</time>
      </trkpt>
      <trkpt lat="45.84824" lon="4.83194">
        <ele>165</ele>
        <time>2012-04-07T15:47:00Z</time>
      </trkpt>
      <trkpt lat="45.84805" lon="4.8319">
        <ele>165</ele>
        <time>2012-04-07T15:47:03Z</time>
      </trkpt>
      <trkpt lat="45.84785" lon="4.83185">
        <ele>165</ele>
        <time>2012-04-07T15:47:06Z</time>
      </trkpt>
      <trkpt lat="45.84766" lon="4.83181">
        <ele>165</ele>
        <time>2012-04-07T15:47:09Z</time>
      </trkpt>
      <trkpt lat="45.84746" lon="4.83178">
        <ele>165</ele>
        <time>2012-04-07T15:47:12Z</time>
      </trkpt>
      <trkpt lat="45.84726" lon="4.83178">
        <ele>165</ele>
        <time>2012-04-07T15:47:15Z</time>
      </trkpt>
      <trkpt lat="45.84707" lon="4.83181">
        <ele>165</ele>
        <time>2012-04-07T15:47:18Z</time>
      </trkpt>
      <trkpt lat="45.84688" lon="4.83187">
        <ele>165</ele>
        <time>2012-04-07T15:47:21Z</time>
      </trkpt>
      <trkpt lat="45.84669" lon="4.83195">
        <ele>165</ele>
        <time>2012-04-07T15:47:24Z</time>
      </trkpt>
      <trkpt lat="45.84652" lon="4.83204">
        <ele>165</ele>
        <time>2012-04-07T15:47:27Z</time>
      </trkpt>
      <trkpt lat="45.84635" lon="4.83213">
        <ele>165</ele>
        <time>2012-04-07T15:47:30Z</time>
      </trkpt>
      <trkpt lat="45.84617" lon="4.83223">
        <ele>165</ele>
        <time>2012-04-07T15:47:33Z</time>
      </trkpt>
      <trkpt lat="45.84601" lon="4.8323">
        <ele>165</ele>
        <time>2012-04-07T15:47:36Z</time>
      </trkpt>
      <trkpt lat="45.84585" lon="4.83235">
        <ele>165</ele>
        <time>2012-04-07T15:47:39Z</time>
      </trkpt>
      <trkpt lat="45.8457" lon="4.83238">
        <ele>165</ele>
        <time>2012-04-07T15:47:42Z</time>
      </trkpt>
      <trkpt lat="45.84556" lon="4.83239">
        <ele>165</ele>
        <time>2012-04-07T15:47:45Z</time>
      </trkpt>
      <trkpt lat="45.84543" lon="4.83238">
        <ele>165</ele>
        <time>2012-04-07T15:47:48Z</time>
      </trkpt>
      <trkpt lat="45.84533" lon="4.83234">
        <ele>165</ele>
        <time>2012-04-07T15:47:51Z</time>
      </trkpt>
      <trkpt lat="45.84526" lon="4.83231">
        <ele>166</ele>
        <time>2012-04-07T15:47:54Z</time>
      </trkpt>
      <trkpt lat="45.84523" lon="4.83231">
        <ele>167</ele>
        <time>2012-04-07T15:47:57Z</time>
      </trkpt>
      <trkpt lat="45.84523" lon="4.8323">
        <ele>167</ele>
        <time>2012-04-07T15:48:01Z</time>
      </trkpt>
      <trkpt lat="45.84525" lon="4.83226">
        <ele>167</ele>
        <time>2012-04-07T15:48:06Z</time>
      </trkpt>
      <trkpt lat="45.84524" lon="4.83226">
        <ele>165</ele>
        <time>2012-04-07T15:48:10Z</time>
      </trkpt>
      <trkpt lat="45.84523" lon="4.83226">
        <ele>165</ele>
        <time>2012-04-07T15:48:16Z</time>
      </trkpt>
      <trkpt lat="45.84521" lon="4.83228">
        <ele>165</ele>
        <time>2012-04-07T15:48:21Z</time>
      </trkpt>
      <trkpt lat="45.8452" lon="4.83228">
        <ele>165</ele>
        <time>2012-04-07T15:48:27Z</time>
      </trkpt>
      <trkpt lat="45.84518" lon="4.83229">
        <ele>165</ele>
        <time>2012-04-07T15:48:30Z</time>
      </trkpt>
      <trkpt lat="45.84518" lon="4.83231">
        <ele>168</ele>
        <time>2012-04-07T15:48:36Z</time>
      </trkpt>
      <trkpt lat="45.84519" lon="4.83236">
        <ele>169</ele>
        <time>2012-04-07T15:48:39Z</time>
      </trkpt>
      <trkpt lat="45.8452" lon="4.83244">
        <ele>169</ele>
        <time>2012-04-07T15:48:42Z</time>
      </trkpt>
      <trkpt lat="45.84521" lon="4.83255">
        <ele>169</ele>
        <time>2012-04-07T15:48:45Z</time>
      </trkpt>
      <trkpt lat="45.8452" lon="4.83266">
        <ele>169</ele>
        <time>2012-04-07T15:48:48Z</time>
      </trkpt>
      <trkpt lat="45.84518" lon="4.83279">
        <ele>169</ele>
        <time>2012-04-07T15:48:51Z</time>
      </trkpt>
      <trkpt lat="45.84516" lon="4.83292">
        <ele>169</ele>
        <time>2012-04-07T15:48:54Z</time>
      </trkpt>
      <trkpt lat="45.84514" lon="4.83307">
        <ele>169</ele>
        <time>2012-04-07T15:48:57Z</time>
      </trkpt>
      <trkpt lat="45.84511" lon="4.83322">
        <ele>168</ele>
        <time>2012-04-07T15:49:00Z</time>
      </trkpt>
      <trkpt lat="45.84508" lon="4.83337">
        <ele>168</ele>
        <time>2012-04-07T15:49:03Z</time>
      </trkpt>
      <trkpt lat="45.84505" lon="4.83355">
        <ele>168</ele>
        <time>2012-04-07T15:49:06Z</time>
      </trkpt>
      <trkpt lat="45.84504" lon="4.83372">
        <ele>168</ele>
        <time>2012-04-07T15:49:09Z</time>
      </trkpt>
      <trkpt lat="45.84503" lon="4.83391">
        <ele>167</ele>
        <time>2012-04-07T15:49:12Z</time>
      </trkpt>
      <trkpt lat="45.845" lon="4.83408">
        <ele>166</ele>
        <time>2012-04-07T15:49:15Z</time>
      </trkpt>
      <trkpt lat="45.84498" lon="4.83426">
        <ele>166</ele>
        <time>2012-04-07T15:49:18Z</time>
      </trkpt>
      <trkpt lat="45.84494" lon="4.83443">
        <ele>166</ele>
        <time>2012-04-07T15:49:21Z</time>
      </trkpt>
      <trkpt lat="45.84491" lon="4.83459">
        <ele>166</ele>
        <time>2012-04-07T15:49:24Z</time>
      </trkpt>
      <trkpt lat="45.84489" lon="4.83473">
        <ele>166</ele>
        <time>2012-04-07T15:49:27Z</time>
      </trkpt>
      <trkpt lat="45.84488" lon="4.83482">
        <ele>166</ele>
        <time>2012-04-07T15:49:30Z</time>
      </trkpt>
      <trkpt lat="45.84488" lon="4.83494">
        <ele>166</ele>
        <time>2012-04-07T15:49:33Z</time>
      </trkpt>
      <trkpt lat="45.84488" lon="4.83503">
        <ele>166</ele>
        <time>2012-04-07T15:49:36Z</time>
      </trkpt>
      <trkpt lat="45.84481" lon="4.83502">
        <ele>166</ele>
        <time>2012-04-07T15:49:39Z</time>
      </trkpt>
      <trkpt lat="45.84473" lon="4.83498">
        <ele>166</ele>
        <time>2012-04-07T15:49:42Z</time>
      </trkpt>
      <trkpt lat="45.84464" lon="4.83495">
        <ele>166</ele>
        <time>2012-04-07T15:49:45Z</time>
      </trkpt>
      <trkpt lat="45.84454" lon="4.83491">
        <ele>166</ele>
        <time>2012-04-07T15:49:48Z</time>
      </trkpt>
      <trkpt lat="45.84442" lon="4.83486">
        <ele>166</ele>
        <time>2012-04-07T15:49:51Z</time>
      </trkpt>
      <trkpt lat="45.84428" lon="4.8348">
        <ele>166</ele>
        <time>2012-04-07T15:49:54Z</time>
      </trkpt>
      <trkpt lat="45.84414" lon="4.83476">
        <ele>166</ele>
        <time>2012-04-07T15:49:57Z</time>
      </trkpt>
      <trkpt lat="45.844" lon="4.8347">
        <ele>166</ele>
        <time>2012-04-07T15:50:00Z</time>
      </trkpt>
      <trkpt lat="45.84386" lon="4.83463">
        <ele>166</ele>
        <time>2012-04-07T15:50:03Z</time>
      </trkpt>
      <trkpt lat="45.84372" lon="4.83458">
        <ele>166</ele>
        <time>2012-04-07T15:50:06Z</time>
      </trkpt>
      <trkpt lat="45.84357" lon="4.83454">
        <ele>166</ele>
        <time>2012-04-07T15:50:09Z</time>
      </trkpt>
      <trkpt lat="45.84343" lon="4.83448">
        <ele>166</ele>
        <time>2012-04-07T15:50:12Z</time>
      </trkpt>
      <trkpt lat="45.84329" lon="4.83442">
        <ele>166</ele>
        <time>2012-04-07T15:50:15Z</time>
      </trkpt>
      <trkpt lat="45.84314" lon="4.83436">
        <ele>166</ele>
        <time>2012-04-07T15:50:18Z</time>
      </trkpt>
      <trkpt lat="45.84299" lon="4.83429">
        <ele>166</ele>
        <time>2012-04-07T15:50:21Z</time>
      </trkpt>
      <trkpt lat="45.84284" lon="4.83423">
        <ele>166</ele>
        <time>2012-04-07T15:50:24Z</time>
      </trkpt>
      <trkpt lat="45.84269" lon="4.83417">
        <ele>166</ele>
        <time>2012-04-07T15:50:27Z</time>
      </trkpt>
      <trkpt lat="45.84253" lon="4.8341">
        <ele>166</ele>
        <time>2012-04-07T15:50:30Z</time>
      </trkpt>
      <trkpt lat="45.84237" lon="4.83403">
        <ele>166</ele>
        <time>2012-04-07T15:50:33Z</time>
      </trkpt>
      <trkpt lat="45.84219" lon="4.83396">
        <ele>166</ele>
        <time>2012-04-07T15:50:36Z</time>
      </trkpt>
      <trkpt lat="45.842" lon="4.83391">
        <ele>166</ele>
        <time>2012-04-07T15:50:39Z</time>
      </trkpt>
      <trkpt lat="45.84181" lon="4.83385">
        <ele>166</ele>
        <time>2012-04-07T15:50:42Z</time>
      </trkpt>
      <trkpt lat="45.84162" lon="4.83381">
        <ele>166</ele>
        <time>2012-04-07T15:50:45Z</time>
      </trkpt>
      <trkpt lat="45.84142" lon="4.83378">
        <ele>166</ele>
        <time>2012-04-07T15:50:48Z</time>
      </trkpt>
      <trkpt lat="45.84123" lon="4.83376">
        <ele>166</ele>
        <time>2012-04-07T15:50:51Z</time>
      </trkpt>
      <trkpt lat="45.84103" lon="4.83375">
        <ele>166</ele>
        <time>2012-04-07T15:50:54Z</time>
      </trkpt>
      <trkpt lat="45.84084" lon="4.83374">
        <ele>166</ele>
        <time>2012-04-07T15:50:57Z</time>
      </trkpt>
      <trkpt lat="45.84065" lon="4.83375">
        <ele>166</ele>
        <time>2012-04-07T15:51:00Z</time>
      </trkpt>
      <trkpt lat="45.84046" lon="4.83375">
        <ele>166</ele>
        <time>2012-04-07T15:51:03Z</time>
      </trkpt>
      <trkpt lat="45.84027" lon="4.83375">
        <ele>166</ele>
        <time>2012-04-07T15:51:06Z</time>
      </trkpt>
      <trkpt lat="45.8401" lon="4.83378">
        <ele>166</ele>
        <time>2012-04-07T15:51:09Z</time>
      </trkpt>
      <trkpt lat="45.83993" lon="4.83386">
        <ele>166</ele>
        <time>2012-04-07T15:51:12Z</time>
      </trkpt>
      <trkpt lat="45.83976" lon="4.83393">
        <ele>166</ele>
        <time>2012-04-07T15:51:15Z</time>
      </trkpt>
      <trkpt lat="45.8396" lon="4.834">
        <ele>166</ele>
        <time>2012-04-07T15:51:18Z</time>
      </trkpt>
      <trkpt lat="45.83942" lon="4.83407">
        <ele>166</ele>
        <time>2012-04-07T15:51:21Z</time>
      </trkpt>
      <trkpt lat="45.83925" lon="4.83416">
        <ele>166</ele>
        <time>2012-04-07T15:51:24Z</time>
      </trkpt>
      <trkpt lat="45.83907" lon="4.83426">
        <ele>166</ele>
        <time>2012-04-07T15:51:27Z</time>
      </trkpt>
      <trkpt lat="45.8389" lon="4.83437">
        <ele>166</ele>
        <time>2012-04-07T15:51:30Z</time>
      </trkpt>
      <trkpt lat="45.83873" lon="4.83449">
        <ele>166</ele>
        <time>2012-04-07T15:51:33Z</time>
      </trkpt>
      <trkpt lat="45.83856" lon="4.83461">
        <ele>166</ele>
        <time>2012-04-07T15:51:36Z</time>
      </trkpt>
      <trkpt lat="45.8384" lon="4.83475">
        <ele>166</ele>
        <time>2012-04-07T15:51:39Z</time>
      </trkpt>
      <trkpt lat="45.83823" lon="4.83489">
        <ele>166</ele>
        <time>2012-04-07T15:51:42Z</time>
      </trkpt>
      <trkpt lat="45.83808" lon="4.83505">
        <ele>165</ele>
        <time>2012-04-07T15:51:45Z</time>
      </trkpt>
      <trkpt lat="45.83792" lon="4.83522">
        <ele>164</ele>
        <time>2012-04-07T15:51:48Z</time>
      </trkpt>
      <trkpt lat="45.83777" lon="4.8354">
        <ele>164</ele>
        <time>2012-04-07T15:51:51Z</time>
      </trkpt>
      <trkpt lat="45.83763" lon="4.83558">
        <ele>164</ele>
        <time>2012-04-07T15:51:54Z</time>
      </trkpt>
      <trkpt lat="45.83749" lon="4.83577">
        <ele>164</ele>
        <time>2012-04-07T15:51:57Z</time>
      </trkpt>
      <trkpt lat="45.83734" lon="4.83598">
        <ele>164</ele>
        <time>2012-04-07T15:52:00Z</time>
      </trkpt>
      <trkpt lat="45.8372" lon="4.83621">
        <ele>164</ele>
        <time>2012-04-07T15:52:03Z</time>
      </trkpt>
      <trkpt lat="45.83707" lon="4.83642">
        <ele>164</ele>
        <time>2012-04-07T15:52:06Z</time>
      </trkpt>
      <trkpt lat="45.83694" lon="4.83665">
        <ele>164</ele>
        <time>2012-04-07T15:52:09Z</time>
      </trkpt>
      <trkpt lat="45.83681" lon="4.83689">
        <ele>162</ele>
        <time>2012-04-07T15:52:12Z</time>
      </trkpt>
      <trkpt lat="45.83668" lon="4.83712">
        <ele>160</ele>
        <time>2012-04-07T15:52:15Z</time>
      </trkpt>
      <trkpt lat="45.83654" lon="4.83734">
        <ele>158</ele>
        <time>2012-04-07T15:52:18Z</time>
      </trkpt>
      <trkpt lat="45.8364" lon="4.83756">
        <ele>156</ele>
        <time>2012-04-07T15:52:21Z</time>
      </trkpt>
      <trkpt lat="45.83625" lon="4.83777">
        <ele>155</ele>
        <time>2012-04-07T15:52:24Z</time>
      </trkpt>
      <trkpt lat="45.83611" lon="4.83798">
        <ele>155</ele>
        <time>2012-04-07T15:52:27Z</time>
      </trkpt>
      <trkpt lat="45.83596" lon="4.83818">
        <ele>155</ele>
        <time>2012-04-07T15:52:30Z</time>
      </trkpt>
      <trkpt lat="45.83583" lon="4.8384">
        <ele>155</ele>
        <time>2012-04-07T15:52:33Z</time>
      </trkpt>
      <trkpt lat="45.83572" lon="4.83861">
        <ele>155</ele>
        <time>2012-04-07T15:52:36Z</time>
      </trkpt>
      <trkpt lat="45.8356" lon="4.83883">
        <ele>155</ele>
        <time>2012-04-07T15:52:39Z</time>
      </trkpt>
      <trkpt lat="45.83549" lon="4.83905">
        <ele>155</ele>
        <time>2012-04-07T15:52:42Z</time>
      </trkpt>
      <trkpt lat="45.83537" lon="4.83927">
        <ele>155</ele>
        <time>2012-04-07T15:52:45Z</time>
      </trkpt>
      <trkpt lat="45.83527" lon="4.83951">
        <ele>155</ele>
        <time>2012-04-07T15:52:48Z</time>
      </trkpt>
      <trkpt lat="45.83516" lon="4.83975">
        <ele>155</ele>
        <time>2012-04-07T15:52:51Z</time>
      </trkpt>
      <trkpt lat="45.83505" lon="4.84">
        <ele>155</ele>
        <time>2012-04-07T15:52:54Z</time>
      </trkpt>
      <trkpt lat="45.83494" lon="4.84025">
        <ele>156</ele>
        <time>2012-04-07T15:52:57Z</time>
      </trkpt>
      <trkpt lat="45.83485" lon="4.84052">
        <ele>157</ele>
        <time>2012-04-07T15:53:00Z</time>
      </trkpt>
      <trkpt lat="45.83476" lon="4.84078">
        <ele>157</ele>
        <time>2012-04-07T15:53:03Z</time>
      </trkpt>
      <trkpt lat="45.83467" lon="4.84104">
        <ele>157</ele>
        <time>2012-04-07T15:53:06Z</time>
      </trkpt>
      <trkpt lat="45.83458" lon="4.8413">
        <ele>157</ele>
        <time>2012-04-07T15:53:09Z</time>
      </trkpt>
      <trkpt lat="45.83449" lon="4.84157">
        <ele>158</ele>
        <time>2012-04-07T15:53:12Z</time>
      </trkpt>
      <trkpt lat="45.83441" lon="4.84183">
        <ele>159</ele>
        <time>2012-04-07T15:53:15Z</time>
      </trkpt>
      <trkpt lat="45.83432" lon="4.84207">
        <ele>159</ele>
        <time>2012-04-07T15:53:18Z</time>
      </trkpt>
      <trkpt lat="45.83425" lon="4.84231">
        <ele>160</ele>
        <time>2012-04-07T15:53:21Z</time>
      </trkpt>
      <trkpt lat="45.83418" lon="4.84255">
        <ele>160</ele>
        <time>2012-04-07T15:53:24Z</time>
      </trkpt>
      <trkpt lat="45.83412" lon="4.84278">
        <ele>160</ele>
        <time>2012-04-07T15:53:27Z</time>
      </trkpt>
      <trkpt lat="45.83404" lon="4.84303">
        <ele>160</ele>
        <time>2012-04-07T15:53:30Z</time>
      </trkpt>
      <trkpt lat="45.83397" lon="4.84328">
        <ele>160</ele>
        <time>2012-04-07T15:53:33Z</time>
      </trkpt>
      <trkpt lat="45.8339" lon="4.84353">
        <ele>160</ele>
        <time>2012-04-07T15:53:36Z</time>
      </trkpt>
      <trkpt lat="45.83381" lon="4.84378">
        <ele>160</ele>
        <time>2012-04-07T15:53:39Z</time>
      </trkpt>
      <trkpt lat="45.83373" lon="4.84404">
        <ele>160</ele>
        <time>2012-04-07T15:53:42Z</time>
      </trkpt>
      <trkpt lat="45.83366" lon="4.84431">
        <ele>160</ele>
        <time>2012-04-07T15:53:45Z</time>
      </trkpt>
      <trkpt lat="45.83359" lon="4.84459">
        <ele>160</ele>
        <time>2012-04-07T15:53:48Z</time>
      </trkpt>
      <trkpt lat="45.83351" lon="4.84485">
        <ele>160</ele>
        <time>2012-04-07T15:53:51Z</time>
      </trkpt>
      <trkpt lat="45.83343" lon="4.84511">
        <ele>160</ele>
        <time>2012-04-07T15:53:54Z</time>
      </trkpt>
      <trkpt lat="45.83337" lon="4.84536">
        <ele>160</ele>
        <time>2012-04-07T15:53:57Z</time>
      </trkpt>
      <trkpt lat="45.83331" lon="4.84561">
        <ele>160</ele>
        <time>2012-04-07T15:54:00Z</time>
      </trkpt>
      <trkpt lat="45.83324" lon="4.84586">
        <ele>160</ele>
        <time>2012-04-07T15:54:03Z</time>
      </trkpt>
      <trkpt lat="45.83316" lon="4.84613">
        <ele>160</ele>
        <time>2012-04-07T15:54:06Z</time>
      </trkpt>
      <trkpt lat="45.83307" lon="4.84643">
        <ele>161</ele>
        <time>2012-04-07T15:54:09Z</time>
      </trkpt>
      <trkpt lat="45.83297" lon="4.84672">
        <ele>162</ele>
        <time>2012-04-07T15:54:12Z</time>
      </trkpt>
      <trkpt lat="45.83289" lon="4.84701">
        <ele>163</ele>
        <time>2012-04-07T15:54:15Z</time>
      </trkpt>
      <trkpt lat="45.83282" lon="4.84728">
        <ele>163</ele>
        <time>2012-04-07T15:54:18Z</time>
      </trkpt>
      <trkpt lat="45.83277" lon="4.84755">
        <ele>163</ele>
        <time>2012-04-07T15:54:21Z</time>
      </trkpt>
      <trkpt lat="45.8327" lon="4.8478">
        <ele>163</ele>
        <time>2012-04-07T15:54:24Z</time>
      </trkpt>
      <trkpt lat="45.83265" lon="4.848">
        <ele>163</ele>
        <time>2012-04-07T15:54:27Z</time>
      </trkpt>
      <trkpt lat="45.83258" lon="4.84818">
        <ele>163</ele>
        <time>2012-04-07T15:54:30Z</time>
      </trkpt>
      <trkpt lat="45.83251" lon="4.84834">
        <ele>163</ele>
        <time>2012-04-07T15:54:33Z</time>
      </trkpt>
      <trkpt lat="45.83245" lon="4.84847">
        <ele>163</ele>
        <time>2012-04-07T15:54:36Z</time>
      </trkpt>
      <trkpt lat="45.83242" lon="4.84854">
        <ele>163</ele>
        <time>2012-04-07T15:54:40Z</time>
      </trkpt>
      <trkpt lat="45.83241" lon="4.84853">
        <ele>164</ele>
        <time>2012-04-07T15:54:49Z</time>
      </trkpt>
      <trkpt lat="45.83239" lon="4.84854">
        <ele>166</ele>
        <time>2012-04-07T15:54:54Z</time>
      </trkpt>
      <trkpt lat="45.83238" lon="4.84857">
        <ele>167</ele>
        <time>2012-04-07T15:54:57Z</time>
      </trkpt>
      <trkpt lat="45.83236" lon="4.84862">
        <ele>168</ele>
        <time>2012-04-07T15:55:00Z</time>
      </trkpt>
      <trkpt lat="45.83234" lon="4.84868">
        <ele>170</ele>
        <time>2012-04-07T15:55:03Z</time>
      </trkpt>
      <trkpt lat="45.83232" lon="4.84878">
        <ele>171</ele>
        <time>2012-04-07T15:55:06Z</time>
      </trkpt>
      <trkpt lat="45.83228" lon="4.84894">
        <ele>172</ele>
        <time>2012-04-07T15:55:09Z</time>
      </trkpt>
      <trkpt lat="45.8322" lon="4.84912">
        <ele>173</ele>
        <time>2012-04-07T15:55:12Z</time>
      </trkpt>
      <trkpt lat="45.83212" lon="4.84932">
        <ele>173</ele>
        <time>2012-04-07T15:55:15Z</time>
      </trkpt>
      <trkpt lat="45.83201" lon="4.84954">
        <ele>173</ele>
        <time>2012-04-07T15:55:18Z</time>
      </trkpt>
      <trkpt lat="45.83189" lon="4.84976">
        <ele>173</ele>
        <time>2012-04-07T15:55:21Z</time>
      </trkpt>
      <trkpt lat="45.83175" lon="4.84999">
        <ele>173</ele>
        <time>2012-04-07T15:55:24Z</time>
      </trkpt>
      <trkpt lat="45.83159" lon="4.85019">
        <ele>172</ele>
        <time>2012-04-07T15:55:27Z</time>
      </trkpt>
      <trkpt lat="45.83142" lon="4.85039">
        <ele>171</ele>
        <time>2012-04-07T15:55:30Z</time>
      </trkpt>
      <trkpt lat="45.83129" lon="4.85064">
        <ele>169</ele>
        <time>2012-04-07T15:55:33Z</time>
      </trkpt>
      <trkpt lat="45.83113" lon="4.85085">
        <ele>167</ele>
        <time>2012-04-07T15:55:36Z</time>
      </trkpt>
      <trkpt lat="45.83096" lon="4.85106">
        <ele>166</ele>
        <time>2012-04-07T15:55:39Z</time>
      </trkpt>
      <trkpt lat="45.83079" lon="4.85125">
        <ele>165</ele>
        <time>2012-04-07T15:55:42Z</time>
      </trkpt>
      <trkpt lat="45.83064" lon="4.85144">
        <ele>163</ele>
        <time>2012-04-07T15:55:45Z</time>
      </trkpt>
      <trkpt lat="45.83047" lon="4.85163">
        <ele>161</ele>
        <time>2012-04-07T15:55:48Z</time>
      </trkpt>
      <trkpt lat="45.83031" lon="4.85182">
        <ele>161</ele>
        <time>2012-04-07T15:55:51Z</time>
      </trkpt>
      <trkpt lat="45.83016" lon="4.85199">
        <ele>161</ele>
        <time>2012-04-07T15:55:54Z</time>
      </trkpt>
      <trkpt lat="45.83002" lon="4.85214">
        <ele>161</ele>
        <time>2012-04-07T15:55:57Z</time>
      </trkpt>
      <trkpt lat="45.8299" lon="4.85227">
        <ele>161</ele>
        <time>2012-04-07T15:56:00Z</time>
      </trkpt>
      <trkpt lat="45.8298" lon="4.85238">
        <ele>161</ele>
        <time>2012-04-07T15:56:03Z</time>
      </trkpt>
      <trkpt lat="45.82976" lon="4.85242">
        <ele>161</ele>
        <time>2012-04-07T15:56:06Z</time>
      </trkpt>
      <trkpt lat="45.82974" lon="4.85242">
        <ele>159</ele>
        <time>2012-04-07T15:56:09Z</time>
      </trkpt>
      <trkpt lat="45.82972" lon="4.85245">
        <ele>159</ele>
        <time>2012-04-07T15:56:12Z</time>
      </trkpt>
      <trkpt lat="45.82968" lon="4.85251">
        <ele>159</ele>
        <time>2012-04-07T15:56:16Z</time>
      </trkpt>
      <trkpt lat="45.82965" lon="4.85256">
        <ele>159</ele>
        <time>2012-04-07T15:56:19Z</time>
      </trkpt>
      <trkpt lat="45.82961" lon="4.85263">
        <ele>159</ele>
        <time>2012-04-07T15:56:22Z</time>
      </trkpt>
      <trkpt lat="45.82954" lon="4.85271">
        <ele>159</ele>
        <time>2012-04-07T15:56:25Z</time>
      </trkpt>
      <trkpt lat="45.82946" lon="4.8528">
        <ele>159</ele>
        <time>2012-04-07T15:56:28Z</time>
      </trkpt>
      <trkpt lat="45.82936" lon="4.85291">
        <ele>159</ele>
        <time>2012-04-07T15:56:31Z</time>
      </trkpt>
      <trkpt lat="45.82926" lon="4.85304">
        <ele>159</ele>
        <time>2012-04-07T15:56:34Z</time>
      </trkpt>
      <trkpt lat="45.82915" lon="4.85317">
        <ele>159</ele>
        <time>2012-04-07T15:56:37Z</time>
      </trkpt>
      <trkpt lat="45.82903" lon="4.85332">
        <ele>159</ele>
        <time>2012-04-07T15:56:40Z</time>
      </trkpt>
      <trkpt lat="45.8289" lon="4.85347">
        <ele>159</ele>
        <time>2012-04-07T15:56:43Z</time>
      </trkpt>
      <trkpt lat="45.82877" lon="4.85362">
        <ele>159</ele>
        <time>2012-04-07T15:56:46Z</time>
      </trkpt>
      <trkpt lat="45.82863" lon="4.85378">
        <ele>159</ele>
        <time>2012-04-07T15:56:49Z</time>
      </trkpt>
      <trkpt lat="45.82853" lon="4.85397">
        <ele>159</ele>
        <time>2012-04-07T15:56:52Z</time>
      </trkpt>
      <trkpt lat="45.82843" lon="4.85418">
        <ele>159</ele>
        <time>2012-04-07T15:56:55Z</time>
      </trkpt>
      <trkpt lat="45.82834" lon="4.85435">
        <ele>159</ele>
        <time>2012-04-07T15:56:58Z</time>
      </trkpt>
      <trkpt lat="45.82824" lon="4.85447">
        <ele>157</ele>
        <time>2012-04-07T15:57:01Z</time>
      </trkpt>
      <trkpt lat="45.82816" lon="4.85459">
        <ele>157</ele>
        <time>2012-04-07T15:57:04Z</time>
      </trkpt>
      <trkpt lat="45.82806" lon="4.85474">
        <ele>157</ele>
        <time>2012-04-07T15:57:07Z</time>
      </trkpt>
      <trkpt lat="45.82794" lon="4.8549">
        <ele>157</ele>
        <time>2012-04-07T15:57:10Z</time>
      </trkpt>
      <trkpt lat="45.82782" lon="4.85506">
        <ele>156</ele>
        <time>2012-04-07T15:57:13Z</time>
      </trkpt>
      <trkpt lat="45.82768" lon="4.85522">
        <ele>156</ele>
        <time>2012-04-07T15:57:16Z</time>
      </trkpt>
      <trkpt lat="45.82754" lon="4.85539">
        <ele>156</ele>
        <time>2012-04-07T15:57:19Z</time>
      </trkpt>
      <trkpt lat="45.82741" lon="4.85557">
        <ele>156</ele>
        <time>2012-04-07T15:57:22Z</time>
      </trkpt>
      <trkpt lat="45.82729" lon="4.85573">
        <ele>156</ele>
        <time>2012-04-07T15:57:25Z</time>
      </trkpt>
      <trkpt lat="45.82716" lon="4.85589">
        <ele>156</ele>
        <time>2012-04-07T15:57:28Z</time>
      </trkpt>
      <trkpt lat="45.82703" lon="4.85606">
        <ele>156</ele>
        <time>2012-04-07T15:57:31Z</time>
      </trkpt>
      <trkpt lat="45.8269" lon="4.85624">
        <ele>156</ele>
        <time>2012-04-07T15:57:34Z</time>
      </trkpt>
      <trkpt lat="45.82676" lon="4.85643">
        <ele>156</ele>
        <time>2012-04-07T15:57:37Z</time>
      </trkpt>
      <trkpt lat="45.82662" lon="4.85662">
        <ele>155</ele>
        <time>2012-04-07T15:57:40Z</time>
      </trkpt>
      <trkpt lat="45.82647" lon="4.85681">
        <ele>155</ele>
        <time>2012-04-07T15:57:43Z</time>
      </trkpt>
      <trkpt lat="45.82634" lon="4.85701">
        <ele>155</ele>
        <time>2012-04-07T15:57:46Z</time>
      </trkpt>
      <trkpt lat="45.82619" lon="4.8572">
        <ele>155</ele>
        <time>2012-04-07T15:57:49Z</time>
      </trkpt>
      <trkpt lat="45.82605" lon="4.8574">
        <ele>155</ele>
        <time>2012-04-07T15:57:52Z</time>
      </trkpt>
      <trkpt lat="45.82591" lon="4.85759">
        <ele>155</ele>
        <time>2012-04-07T15:57:55Z</time>
      </trkpt>
      <trkpt lat="45.82576" lon="4.85779">
        <ele>155</ele>
        <time>2012-04-07T15:57:58Z</time>
      </trkpt>
      <trkpt lat="45.82561" lon="4.85797">
        <ele>155</ele>
        <time>2012-04-07T15:58:01Z</time>
      </trkpt>
      <trkpt lat="45.82547" lon="4.85817">
        <ele>155</ele>
        <time>2012-04-07T15:58:04Z</time>
      </trkpt>
      <trkpt lat="45.82531" lon="4.85835">
        <ele>155</ele>
        <time>2012-04-07T15:58:07Z</time>
      </trkpt>
      <trkpt lat="45.82512" lon="4.85849">
        <ele>155</ele>
        <time>2012-04-07T15:58:10Z</time>
      </trkpt>
      <trkpt lat="45.82492" lon="4.85859">
        <ele>157</ele>
        <time>2012-04-07T15:58:13Z</time>
      </trkpt>
      <trkpt lat="45.82471" lon="4.85864">
        <ele>160</ele>
        <time>2012-04-07T15:58:16Z</time>
      </trkpt>
      <trkpt lat="45.8245" lon="4.85869">
        <ele>163</ele>
        <time>2012-04-07T15:58:19Z</time>
      </trkpt>
      <trkpt lat="45.8243" lon="4.85873">
        <ele>166</ele>
        <time>2012-04-07T15:58:22Z</time>
      </trkpt>
      <trkpt lat="45.82409" lon="4.85879">
        <ele>169</ele>
        <time>2012-04-07T15:58:25Z</time>
      </trkpt>
      <trkpt lat="45.82388" lon="4.85885">
        <ele>169</ele>
        <time>2012-04-07T15:58:28Z</time>
      </trkpt>
      <trkpt lat="45.82367" lon="4.8589">
        <ele>169</ele>
        <time>2012-04-07T15:58:31Z</time>
      </trkpt>
      <trkpt lat="45.82344" lon="4.85894">
        <ele>169</ele>
        <time>2012-04-07T15:58:34Z</time>
      </trkpt>
      <trkpt lat="45.82322" lon="4.85896">
        <ele>169</ele>
        <time>2012-04-07T15:58:37Z</time>
      </trkpt>
      <trkpt lat="45.82301" lon="4.85896">
        <ele>169</ele>
        <time>2012-04-07T15:58:40Z</time>
      </trkpt>
      <trkpt lat="45.8228" lon="4.85896">
        <ele>169</ele>
        <time>2012-04-07T15:58:43Z</time>
      </trkpt>
      <trkpt lat="45.82261" lon="4.85897">
        <ele>169</ele>
        <time>2012-04-07T15:58:46Z</time>
      </trkpt>
      <trkpt lat="45.82241" lon="4.85895">
        <ele>169</ele>
        <time>2012-04-07T15:58:49Z</time>
      </trkpt>
      <trkpt lat="45.82215" lon="4.8589">
        <ele>169</ele>
        <time>2012-04-07T15:58:53Z</time>
      </trkpt>
      <trkpt lat="45.82196" lon="4.85888">
        <ele>169</ele>
        <time>2012-04-07T15:58:56Z</time>
      </trkpt>
      <trkpt lat="45.82178" lon="4.85889">
        <ele>166</ele>
        <time>2012-04-07T15:58:59Z</time>
      </trkpt>
      <trkpt lat="45.82154" lon="4.8588">
        <ele>163</ele>
        <time>2012-04-07T15:59:02Z</time>
      </trkpt>
      <trkpt lat="45.82133" lon="4.85872">
        <ele>162</ele>
        <time>2012-04-07T15:59:05Z</time>
      </trkpt>
      <trkpt lat="45.82113" lon="4.85864">
        <ele>162</ele>
        <time>2012-04-07T15:59:08Z</time>
      </trkpt>
      <trkpt lat="45.82091" lon="4.85855">
        <ele>162</ele>
        <time>2012-04-07T15:59:11Z</time>
      </trkpt>
      <trkpt lat="45.82071" lon="4.85848">
        <ele>162</ele>
        <time>2012-04-07T15:59:14Z</time>
      </trkpt>
      <trkpt lat="45.82051" lon="4.85839">
        <ele>162</ele>
        <time>2012-04-07T15:59:17Z</time>
      </trkpt>
      <trkpt lat="45.8203" lon="4.85831">
        <ele>162</ele>
        <time>2012-04-07T15:59:20Z</time>
      </trkpt>
      <trkpt lat="45.82011" lon="4.85824">
        <ele>162</ele>
        <time>2012-04-07T15:59:23Z</time>
      </trkpt>
      <trkpt lat="45.8199" lon="4.85817">
        <ele>162</ele>
        <time>2012-04-07T15:59:26Z</time>
      </trkpt>
      <trkpt lat="45.81969" lon="4.85808">
        <ele>162</ele>
        <time>2012-04-07T15:59:29Z</time>
      </trkpt>
      <trkpt lat="45.8195" lon="4.858">
        <ele>163</ele>
        <time>2012-04-07T15:59:32Z</time>
      </trkpt>
      <trkpt lat="45.8193" lon="4.85793">
        <ele>163</ele>
        <time>2012-04-07T15:59:35Z</time>
      </trkpt>
      <trkpt lat="45.81912" lon="4.85784">
        <ele>163</ele>
        <time>2012-04-07T15:59:38Z</time>
      </trkpt>
      <trkpt lat="45.81894" lon="4.85772">
        <ele>163</ele>
        <time>2012-04-07T15:59:41Z</time>
      </trkpt>
      <trkpt lat="45.81874" lon="4.85759">
        <ele>165</ele>
        <time>2012-04-07T15:59:44Z</time>
      </trkpt>
      <trkpt lat="45.81857" lon="4.85742">
        <ele>165</ele>
        <time>2012-04-07T15:59:47Z</time>
      </trkpt>
      <trkpt lat="45.81838" lon="4.85726">
        <ele>165</ele>
        <time>2012-04-07T15:59:50Z</time>
      </trkpt>
      <trkpt lat="45.81823" lon="4.85713">
        <ele>165</ele>
        <time>2012-04-07T15:59:53Z</time>
      </trkpt>
      <trkpt lat="45.81809" lon="4.85701">
        <ele>163</ele>
        <time>2012-04-07T15:59:56Z</time>
      </trkpt>
      <trkpt lat="45.81793" lon="4.85688">
        <ele>160</ele>
        <time>2012-04-07T15:59:59Z</time>
      </trkpt>
      <trkpt lat="45.81775" lon="4.85672">
        <ele>159</ele>
        <time>2012-04-07T16:00:02Z</time>
      </trkpt>
      <trkpt lat="45.81761" lon="4.85654">
        <ele>159</ele>
        <time>2012-04-07T16:00:05Z</time>
      </trkpt>
      <trkpt lat="45.81745" lon="4.85637">
        <ele>159</ele>
        <time>2012-04-07T16:00:08Z</time>
      </trkpt>
      <trkpt lat="45.8173" lon="4.85618">
        <ele>159</ele>
        <time>2012-04-07T16:00:11Z</time>
      </trkpt>
      <trkpt lat="45.81713" lon="4.85601">
        <ele>159</ele>
        <time>2012-04-07T16:00:14Z</time>
      </trkpt>
      <trkpt lat="45.81696" lon="4.85583">
        <ele>160</ele>
        <time>2012-04-07T16:00:17Z</time>
      </trkpt>
      <trkpt lat="45.81683" lon="4.85563">
        <ele>163</ele>
        <time>2012-04-07T16:00:20Z</time>
      </trkpt>
      <trkpt lat="45.81671" lon="4.85542">
        <ele>165</ele>
        <time>2012-04-07T16:00:23Z</time>
      </trkpt>
      <trkpt lat="45.81659" lon="4.85519">
        <ele>168</ele>
        <time>2012-04-07T16:00:26Z</time>
      </trkpt>
      <trkpt lat="45.81646" lon="4.85493">
        <ele>171</ele>
        <time>2012-04-07T16:00:29Z</time>
      </trkpt>
      <trkpt lat="45.81634" lon="4.8547">
        <ele>172</ele>
        <time>2012-04-07T16:00:32Z</time>
      </trkpt>
      <trkpt lat="45.81623" lon="4.85447">
        <ele>172</ele>
        <time>2012-04-07T16:00:35Z</time>
      </trkpt>
      <trkpt lat="45.81612" lon="4.85423">
        <ele>173</ele>
        <time>2012-04-07T16:00:38Z</time>
      </trkpt>
      <trkpt lat="45.81601" lon="4.85396">
        <ele>174</ele>
        <time>2012-04-07T16:00:41Z</time>
      </trkpt>
      <trkpt lat="45.81588" lon="4.85368">
        <ele>174</ele>
        <time>2012-04-07T16:00:44Z</time>
      </trkpt>
      <trkpt lat="45.81578" lon="4.85342">
        <ele>174</ele>
        <time>2012-04-07T16:00:47Z</time>
      </trkpt>
      <trkpt lat="45.81567" lon="4.85314">
        <ele>174</ele>
        <time>2012-04-07T16:00:50Z</time>
      </trkpt>
      <trkpt lat="45.81556" lon="4.8529">
        <ele>172</ele>
        <time>2012-04-07T16:00:53Z</time>
      </trkpt>
      <trkpt lat="45.81544" lon="4.85268">
        <ele>169</ele>
        <time>2012-04-07T16:00:56Z</time>
      </trkpt>
      <trkpt lat="45.81531" lon="4.85246">
        <ele>166</ele>
        <time>2012-04-07T16:00:59Z</time>
      </trkpt>
      <trkpt lat="45.81522" lon="4.85228">
        <ele>163</ele>
        <time>2012-04-07T16:01:02Z</time>
      </trkpt>
      <trkpt lat="45.81508" lon="4.85208">
        <ele>161</ele>
        <time>2012-04-07T16:01:05Z</time>
      </trkpt>
      <trkpt lat="45.81498" lon="4.85191">
        <ele>161</ele>
        <time>2012-04-07T16:01:08Z</time>
      </trkpt>
      <trkpt lat="45.81487" lon="4.8517">
        <ele>161</ele>
        <time>2012-04-07T16:01:11Z</time>
      </trkpt>
      <trkpt lat="45.81478" lon="4.85148">
        <ele>161</ele>
        <time>2012-04-07T16:01:14Z</time>
      </trkpt>
      <trkpt lat="45.81467" lon="4.85123">
        <ele>161</ele>
        <time>2012-04-07T16:01:17Z</time>
      </trkpt>
      <trkpt lat="45.81459" lon="4.85102">
        <ele>161</ele>
        <time>2012-04-07T16:01:20Z</time>
      </trkpt>
      <trkpt lat="45.81449" lon="4.85081">
        <ele>161</ele>
        <time>2012-04-07T16:01:23Z</time>
      </trkpt>
      <trkpt lat="45.8144" lon="4.8506">
        <ele>161</ele>
        <time>2012-04-07T16:01:26Z</time>
      </trkpt>
      <trkpt lat="45.81433" lon="4.8504">
        <ele>161</ele>
        <time>2012-04-07T16:01:29Z</time>
      </trkpt>
      <trkpt lat="45.81425" lon="4.85021">
        <ele>159</ele>
        <time>2012-04-07T16:01:32Z</time>
      </trkpt>
      <trkpt lat="45.81415" lon="4.84999">
        <ele>159</ele>
        <time>2012-04-07T16:01:35Z</time>
      </trkpt>
      <trkpt lat="45.81406" lon="4.8498">
        <ele>159</ele>
        <time>2012-04-07T16:01:38Z</time>
      </trkpt>
      <trkpt lat="45.81399" lon="4.84965">
        <ele>160</ele>
        <time>2012-04-07T16:01:41Z</time>
      </trkpt>
      <trkpt lat="45.81394" lon="4.84952">
        <ele>163</ele>
        <time>2012-04-07T16:01:44Z</time>
      </trkpt>
      <trkpt lat="45.81392" lon="4.84947">
        <ele>165</ele>
        <time>2012-04-07T16:01:47Z</time>
      </trkpt>
      <trkpt lat="45.81392" lon="4.84947">
        <ele>166</ele>
        <time>2012-04-07T16:01:50Z</time>
      </trkpt>
      <trkpt lat="45.8139" lon="4.84945">
        <ele>166</ele>
        <time>2012-04-07T16:01:54Z</time>
      </trkpt>
      <trkpt lat="45.81388" lon="4.84939">
        <ele>166</ele>
        <time>2012-04-07T16:01:57Z</time>
      </trkpt>
      <trkpt lat="45.81382" lon="4.84926">
        <ele>166</ele>
        <time>2012-04-07T16:02:00Z</time>
      </trkpt>
      <trkpt lat="45.81378" lon="4.84912">
        <ele>165</ele>
        <time>2012-04-07T16:02:03Z</time>
      </trkpt>
      <trkpt lat="45.8137" lon="4.84896">
        <ele>162</ele>
        <time>2012-04-07T16:02:06Z</time>
      </trkpt>
      <trkpt lat="45.8136" lon="4.84876">
        <ele>159</ele>
        <time>2012-04-07T16:02:09Z</time>
      </trkpt>
      <trkpt lat="45.81348" lon="4.84854">
        <ele>156</ele>
        <time>2012-04-07T16:02:12Z</time>
      </trkpt>
      <trkpt lat="45.81334" lon="4.84831">
        <ele>156</ele>
        <time>2012-04-07T16:02:15Z</time>
      </trkpt>
      <trkpt lat="45.81318" lon="4.8481">
        <ele>156</ele>
        <time>2012-04-07T16:02:18Z</time>
      </trkpt>
      <trkpt lat="45.81301" lon="4.84788">
        <ele>156</ele>
        <time>2012-04-07T16:02:21Z</time>
      </trkpt>
      <trkpt lat="45.81284" lon="4.84765">
        <ele>158</ele>
        <time>2012-04-07T16:02:24Z</time>
      </trkpt>
      <trkpt lat="45.81269" lon="4.84744">
        <ele>159</ele>
        <time>2012-04-07T16:02:27Z</time>
      </trkpt>
      <trkpt lat="45.81253" lon="4.84724">
        <ele>160</ele>
        <time>2012-04-07T16:02:30Z</time>
      </trkpt>
      <trkpt lat="45.81238" lon="4.84703">
        <ele>161</ele>
        <time>2012-04-07T16:02:33Z</time>
      </trkpt>
      <trkpt lat="45.81223" lon="4.84682">
        <ele>161</ele>
        <time>2012-04-07T16:02:36Z</time>
      </trkpt>
      <trkpt lat="45.8121" lon="4.84663">
        <ele>161</ele>
        <time>2012-04-07T16:02:39Z</time>
      </trkpt>
      <trkpt lat="45.81194" lon="4.84646">
        <ele>161</ele>
        <time>2012-04-07T16:02:42Z</time>
      </trkpt>
      <trkpt lat="45.81179" lon="4.84626">
        <ele>161</ele>
        <time>2012-04-07T16:02:45Z</time>
      </trkpt>
      <trkpt lat="45.81161" lon="4.84607">
        <ele>161</ele>
        <time>2012-04-07T16:02:48Z</time>
      </trkpt>
      <trkpt lat="45.81144" lon="4.8459">
        <ele>160</ele>
        <time>2012-04-07T16:02:51Z</time>
      </trkpt>
      <trkpt lat="45.81127" lon="4.84574">
        <ele>159</ele>
        <time>2012-04-07T16:02:54Z</time>
      </trkpt>
      <trkpt lat="45.81109" lon="4.84558">
        <ele>159</ele>
        <time>2012-04-07T16:02:57Z</time>
      </trkpt>
      <trkpt lat="45.81092" lon="4.84543">
        <ele>159</ele>
        <time>2012-04-07T16:03:00Z</time>
      </trkpt>
      <trkpt lat="45.81075" lon="4.84529">
        <ele>159</ele>
        <time>2012-04-07T16:03:03Z</time>
      </trkpt>
      <trkpt lat="45.81057" lon="4.84516">
        <ele>159</ele>
        <time>2012-04-07T16:03:06Z</time>
      </trkpt>
      <trkpt lat="45.81041" lon="4.84503">
        <ele>161</ele>
        <time>2012-04-07T16:03:09Z</time>
      </trkpt>
      <trkpt lat="45.81023" lon="4.8449">
        <ele>162</ele>
        <time>2012-04-07T16:03:12Z</time>
      </trkpt>
      <trkpt lat="45.8101" lon="4.8448">
        <ele>164</ele>
        <time>2012-04-07T16:03:15Z</time>
      </trkpt>
      <trkpt lat="45.80996" lon="4.84472">
        <ele>167</ele>
        <time>2012-04-07T16:03:18Z</time>
      </trkpt>
      <trkpt lat="45.80981" lon="4.84459">
        <ele>170</ele>
        <time>2012-04-07T16:03:21Z</time>
      </trkpt>
      <trkpt lat="45.80964" lon="4.84446">
        <ele>171</ele>
        <time>2012-04-07T16:03:24Z</time>
      </trkpt>
      <trkpt lat="45.80943" lon="4.84434">
        <ele>171</ele>
        <time>2012-04-07T16:03:27Z</time>
      </trkpt>
      <trkpt lat="45.80923" lon="4.84423">
        <ele>171</ele>
        <time>2012-04-07T16:03:30Z</time>
      </trkpt>
      <trkpt lat="45.80902" lon="4.84416">
        <ele>171</ele>
        <time>2012-04-07T16:03:33Z</time>
      </trkpt>
      <trkpt lat="45.80883" lon="4.8441">
        <ele>169</ele>
        <time>2012-04-07T16:03:36Z</time>
      </trkpt>
      <trkpt lat="45.8086" lon="4.84404">
        <ele>168</ele>
        <time>2012-04-07T16:03:39Z</time>
      </trkpt>
      <trkpt lat="45.80838" lon="4.844">
        <ele>168</ele>
        <time>2012-04-07T16:03:42Z</time>
      </trkpt>
      <trkpt lat="45.80818" lon="4.84396">
        <ele>168</ele>
        <time>2012-04-07T16:03:45Z</time>
      </trkpt>
      <trkpt lat="45.80799" lon="4.84392">
        <ele>168</ele>
        <time>2012-04-07T16:03:48Z</time>
      </trkpt>
      <trkpt lat="45.80779" lon="4.84387">
        <ele>167</ele>
        <time>2012-04-07T16:03:51Z</time>
      </trkpt>
      <trkpt lat="45.80759" lon="4.84383">
        <ele>167</ele>
        <time>2012-04-07T16:03:54Z</time>
      </trkpt>
      <trkpt lat="45.80737" lon="4.84378">
        <ele>167</ele>
        <time>2012-04-07T16:03:57Z</time>
      </trkpt>
      <trkpt lat="45.80716" lon="4.84374">
        <ele>167</ele>
        <time>2012-04-07T16:04:00Z</time>
      </trkpt>
      <trkpt lat="45.80695" lon="4.8437">
        <ele>167</ele>
        <time>2012-04-07T16:04:03Z</time>
      </trkpt>
      <trkpt lat="45.80676" lon="4.84366">
        <ele>167</ele>
        <time>2012-04-07T16:04:06Z</time>
      </trkpt>
      <trkpt lat="45.80656" lon="4.84361">
        <ele>167</ele>
        <time>2012-04-07T16:04:09Z</time>
      </trkpt>
      <trkpt lat="45.80634" lon="4.84356">
        <ele>167</ele>
        <time>2012-04-07T16:04:12Z</time>
      </trkpt>
      <trkpt lat="45.80612" lon="4.8435">
        <ele>167</ele>
        <time>2012-04-07T16:04:15Z</time>
      </trkpt>
      <trkpt lat="45.80591" lon="4.84343">
        <ele>167</ele>
        <time>2012-04-07T16:04:18Z</time>
      </trkpt>
      <trkpt lat="45.80571" lon="4.84336">
        <ele>167</ele>
        <time>2012-04-07T16:04:21Z</time>
      </trkpt>
      <trkpt lat="45.8055" lon="4.8433">
        <ele>167</ele>
        <time>2012-04-07T16:04:24Z</time>
      </trkpt>
      <trkpt lat="45.80529" lon="4.84323">
        <ele>167</ele>
        <time>2012-04-07T16:04:27Z</time>
      </trkpt>
      <trkpt lat="45.80508" lon="4.84317">
        <ele>167</ele>
        <time>2012-04-07T16:04:30Z</time>
      </trkpt>
      <trkpt lat="45.80487" lon="4.8431">
        <ele>167</ele>
        <time>2012-04-07T16:04:33Z</time>
      </trkpt>
      <trkpt lat="45.80465" lon="4.84304">
        <ele>167</ele>
        <time>2012-04-07T16:04:36Z</time>
      </trkpt>
      <trkpt lat="45.80443" lon="4.84297">
        <ele>167</ele>
        <time>2012-04-07T16:04:39Z</time>
      </trkpt>
      <trkpt lat="45.80423" lon="4.8429">
        <ele>167</ele>
        <time>2012-04-07T16:04:42Z</time>
      </trkpt>
      <trkpt lat="45.80402" lon="4.84284">
        <ele>167</ele>
        <time>2012-04-07T16:04:45Z</time>
      </trkpt>
      <trkpt lat="45.80381" lon="4.84277">
        <ele>167</ele>
        <time>2012-04-07T16:04:48Z</time>
      </trkpt>
      <trkpt lat="45.8036" lon="4.84271">
        <ele>167</ele>
        <time>2012-04-07T16:04:51Z</time>
      </trkpt>
      <trkpt lat="45.8034" lon="4.84265">
        <ele>167</ele>
        <time>2012-04-07T16:04:54Z</time>
      </trkpt>
      <trkpt lat="45.80318" lon="4.84258">
        <ele>168</ele>
        <time>2012-04-07T16:04:57Z</time>
      </trkpt>
      <trkpt lat="45.80298" lon="4.84253">
        <ele>168</ele>
        <time>2012-04-07T16:05:00Z</time>
      </trkpt>
      <trkpt lat="45.80277" lon="4.84246">
        <ele>168</ele>
        <time>2012-04-07T16:05:03Z</time>
      </trkpt>
      <trkpt lat="45.80256" lon="4.84239">
        <ele>168</ele>
        <time>2012-04-07T16:05:06Z</time>
      </trkpt>
      <trkpt lat="45.80236" lon="4.84231">
        <ele>168</ele>
        <time>2012-04-07T16:05:09Z</time>
      </trkpt>
      <trkpt lat="45.80215" lon="4.84224">
        <ele>168</ele>
        <time>2012-04-07T16:05:12Z</time>
      </trkpt>
      <trkpt lat="45.80196" lon="4.84217">
        <ele>168</ele>
        <time>2012-04-07T16:05:15Z</time>
      </trkpt>
      <trkpt lat="45.80177" lon="4.84208">
        <ele>168</ele>
        <time>2012-04-07T16:05:18Z</time>
      </trkpt>
      <trkpt lat="45.80159" lon="4.84195">
        <ele>168</ele>
        <time>2012-04-07T16:05:21Z</time>
      </trkpt>
      <trkpt lat="45.80142" lon="4.84184">
        <ele>167</ele>
        <time>2012-04-07T16:05:24Z</time>
      </trkpt>
      <trkpt lat="45.80125" lon="4.84171">
        <ele>166</ele>
        <time>2012-04-07T16:05:27Z</time>
      </trkpt>
      <trkpt lat="45.80108" lon="4.84157">
        <ele>165</ele>
        <time>2012-04-07T16:05:30Z</time>
      </trkpt>
      <trkpt lat="45.8009" lon="4.84143">
        <ele>164</ele>
        <time>2012-04-07T16:05:33Z</time>
      </trkpt>
      <trkpt lat="45.80074" lon="4.84128">
        <ele>164</ele>
        <time>2012-04-07T16:05:36Z</time>
      </trkpt>
      <trkpt lat="45.80057" lon="4.84114">
        <ele>164</ele>
        <time>2012-04-07T16:05:39Z</time>
      </trkpt>
      <trkpt lat="45.8004" lon="4.841">
        <ele>164</ele>
        <time>2012-04-07T16:05:42Z</time>
      </trkpt>
      <trkpt lat="45.80023" lon="4.84086">
        <ele>163</ele>
        <time>2012-04-07T16:05:45Z</time>
      </trkpt>
      <trkpt lat="45.80006" lon="4.8407">
        <ele>163</ele>
        <time>2012-04-07T16:05:48Z</time>
      </trkpt>
      <trkpt lat="45.79991" lon="4.84055">
        <ele>163</ele>
        <time>2012-04-07T16:05:51Z</time>
      </trkpt>
      <trkpt lat="45.79975" lon="4.84037">
        <ele>163</ele>
        <time>2012-04-07T16:05:54Z</time>
      </trkpt>
      <trkpt lat="45.7996" lon="4.84018">
        <ele>163</ele>
        <time>2012-04-07T16:05:57Z</time>
      </trkpt>
      <trkpt lat="45.79946" lon="4.84">
        <ele>163</ele>
        <time>2012-04-07T16:06:00Z</time>
      </trkpt>
      <trkpt lat="45.7993" lon="4.83982">
        <ele>163</ele>
        <time>2012-04-07T16:06:03Z</time>
      </trkpt>
      <trkpt lat="45.79916" lon="4.83966">
        <ele>163</ele>
        <time>2012-04-07T16:06:06Z</time>
      </trkpt>
      <trkpt lat="45.799" lon="4.8395">
        <ele>163</ele>
        <time>2012-04-07T16:06:09Z</time>
      </trkpt>
      <trkpt lat="45.79885" lon="4.83934">
        <ele>163</ele>
        <time>2012-04-07T16:06:12Z</time>
      </trkpt>
      <trkpt lat="45.7987" lon="4.83914">
        <ele>162</ele>
        <time>2012-04-07T16:06:15Z</time>
      </trkpt>
      <trkpt lat="45.79848" lon="4.83889">
        <ele>162</ele>
        <time>2012-04-07T16:06:19Z</time>
      </trkpt>
      <trkpt lat="45.79832" lon="4.8387">
        <ele>162</ele>
        <time>2012-04-07T16:06:22Z</time>
      </trkpt>
      <trkpt lat="45.79819" lon="4.83851">
        <ele>161</ele>
        <time>2012-04-07T16:06:25Z</time>
      </trkpt>
      <trkpt lat="45.79807" lon="4.8383">
        <ele>158</ele>
        <time>2012-04-07T16:06:28Z</time>
      </trkpt>
      <trkpt lat="45.79787" lon="4.838">
        <ele>155</ele>
        <time>2012-04-07T16:06:32Z</time>
      </trkpt>
      <trkpt lat="45.79775" lon="4.83775">
        <ele>155</ele>
        <time>2012-04-07T16:06:35Z</time>
      </trkpt>
      <trkpt lat="45.79763" lon="4.83751">
        <ele>155</ele>
        <time>2012-04-07T16:06:38Z</time>
      </trkpt>
      <trkpt lat="45.79752" lon="4.83728">
        <ele>155</ele>
        <time>2012-04-07T16:06:41Z</time>
      </trkpt>
      <trkpt lat="45.79742" lon="4.83707">
        <ele>158</ele>
        <time>2012-04-07T16:06:44Z</time>
      </trkpt>
      <trkpt lat="45.79732" lon="4.83685">
        <ele>158</ele>
        <time>2012-04-07T16:06:47Z</time>
      </trkpt>
      <trkpt lat="45.79723" lon="4.83666">
        <ele>159</ele>
        <time>2012-04-07T16:06:50Z</time>
      </trkpt>
      <trkpt lat="45.79714" lon="4.83647">
        <ele>159</ele>
        <time>2012-04-07T16:06:53Z</time>
      </trkpt>
      <trkpt lat="45.79704" lon="4.83627">
        <ele>160</ele>
        <time>2012-04-07T16:06:56Z</time>
      </trkpt>
      <trkpt lat="45.79697" lon="4.83605">
        <ele>160</ele>
        <time>2012-04-07T16:06:59Z</time>
      </trkpt>
      <trkpt lat="45.79692" lon="4.83582">
        <ele>160</ele>
        <time>2012-04-07T16:07:02Z</time>
      </trkpt>
      <trkpt lat="45.7969" lon="4.83558">
        <ele>160</ele>
        <time>2012-04-07T16:07:05Z</time>
      </trkpt>
      <trkpt lat="45.79689" lon="4.83534">
        <ele>160</ele>
        <time>2012-04-07T16:07:08Z</time>
      </trkpt>
      <trkpt lat="45.79687" lon="4.83511">
        <ele>160</ele>
        <time>2012-04-07T16:07:11Z</time>
      </trkpt>
      <trkpt lat="45.79683" lon="4.83486">
        <ele>160</ele>
        <time>2012-04-07T16:07:14Z</time>
      </trkpt>
      <trkpt lat="45.79676" lon="4.83461">
        <ele>160</ele>
        <time>2012-04-07T16:07:17Z</time>
      </trkpt>
      <trkpt lat="45.79666" lon="4.83436">
        <ele>160</ele>
        <time>2012-04-07T16:07:20Z</time>
      </trkpt>
      <trkpt lat="45.79656" lon="4.83411">
        <ele>160</ele>
        <time>2012-04-07T16:07:23Z</time>
      </trkpt>
      <trkpt lat="45.79647" lon="4.83385">
        <ele>160</ele>
        <time>2012-04-07T16:07:26Z</time>
      </trkpt>
      <trkpt lat="45.79637" lon="4.8336">
        <ele>159</ele>
        <time>2012-04-07T16:07:29Z</time>
      </trkpt>
      <trkpt lat="45.79629" lon="4.83336">
        <ele>159</ele>
        <time>2012-04-07T16:07:32Z</time>
      </trkpt>
      <trkpt lat="45.79622" lon="4.83313">
        <ele>159</ele>
        <time>2012-04-07T16:07:35Z</time>
      </trkpt>
      <trkpt lat="45.79616" lon="4.83282">
        <ele>159</ele>
        <time>2012-04-07T16:07:39Z</time>
      </trkpt>
      <trkpt lat="45.79613" lon="4.83256">
        <ele>159</ele>
        <time>2012-04-07T16:07:42Z</time>
      </trkpt>
      <trkpt lat="45.79612" lon="4.83234">
        <ele>159</ele>
        <time>2012-04-07T16:07:45Z</time>
      </trkpt>
      <trkpt lat="45.7961" lon="4.83213">
        <ele>159</ele>
        <time>2012-04-07T16:07:48Z</time>
      </trkpt>
      <trkpt lat="45.79606" lon="4.83187">
        <ele>160</ele>
        <time>2012-04-07T16:07:52Z</time>
      </trkpt>
      <trkpt lat="45.79601" lon="4.83162">
        <ele>161</ele>
        <time>2012-04-07T16:07:56Z</time>
      </trkpt>
      <trkpt lat="45.79597" lon="4.83142">
        <ele>161</ele>
        <time>2012-04-07T16:07:59Z</time>
      </trkpt>
      <trkpt lat="45.79592" lon="4.83121">
        <ele>161</ele>
        <time>2012-04-07T16:08:02Z</time>
      </trkpt>
      <trkpt lat="45.79588" lon="4.831">
        <ele>161</ele>
        <time>2012-04-07T16:08:05Z</time>
      </trkpt>
      <trkpt lat="45.79584" lon="4.83076">
        <ele>161</ele>
        <time>2012-04-07T16:08:08Z</time>
      </trkpt>
      <trkpt lat="45.79577" lon="4.83054">
        <ele>161</ele>
        <time>2012-04-07T16:08:11Z</time>
      </trkpt>
      <trkpt lat="45.79573" lon="4.83041">
        <ele>161</ele>
        <time>2012-04-07T16:08:14Z</time>
      </trkpt>
      <trkpt lat="45.79574" lon="4.8304">
        <ele>161</ele>
        <time>2012-04-07T16:08:18Z</time>
      </trkpt>
      <trkpt lat="45.79575" lon="4.8304">
        <ele>161</ele>
        <time>2012-04-07T16:08:24Z</time>
      </trkpt>
      <trkpt lat="45.79574" lon="4.83037">
        <ele>161</ele>
        <time>2012-04-07T16:08:31Z</time>
      </trkpt>
      <trkpt lat="45.79575" lon="4.83037">
        <ele>161</ele>
        <time>2012-04-07T16:08:39Z</time>
      </trkpt>
      <trkpt lat="45.79574" lon="4.83036">
        <ele>168</ele>
        <time>2012-04-07T16:08:53Z</time>
      </trkpt>
      <trkpt lat="45.79573" lon="4.83035">
        <ele>168</ele>
        <time>2012-04-07T16:08:58Z</time>
      </trkpt>
      <trkpt lat="45.79572" lon="4.83032">
        <ele>168</ele>
        <time>2012-04-07T16:09:03Z</time>
      </trkpt>
      <trkpt lat="45.79569" lon="4.83027">
        <ele>168</ele>
        <time>2012-04-07T16:09:06Z</time>
      </trkpt>
      <trkpt lat="45.79565" lon="4.83019">
        <ele>168</ele>
        <time>2012-04-07T16:09:09Z</time>
      </trkpt>
      <trkpt lat="45.79559" lon="4.83006">
        <ele>168</ele>
        <time>2012-04-07T16:09:12Z</time>
      </trkpt>
      <trkpt lat="45.79552" lon="4.82992">
        <ele>168</ele>
        <time>2012-04-07T16:09:15Z</time>
      </trkpt>
      <trkpt lat="45.79546" lon="4.82977">
        <ele>168</ele>
        <time>2012-04-07T16:09:18Z</time>
      </trkpt>
      <trkpt lat="45.79538" lon="4.82958">
        <ele>168</ele>
        <time>2012-04-07T16:09:21Z</time>
      </trkpt>
      <trkpt lat="45.79529" lon="4.82938">
        <ele>168</ele>
        <time>2012-04-07T16:09:24Z</time>
      </trkpt>
      <trkpt lat="45.79517" lon="4.82909">
        <ele>168</ele>
        <time>2012-04-07T16:09:28Z</time>
      </trkpt>
      <trkpt lat="45.79507" lon="4.82887">
        <ele>166</ele>
        <time>2012-04-07T16:09:31Z</time>
      </trkpt>
      <trkpt lat="45.79492" lon="4.82857">
        <ele>164</ele>
        <time>2012-04-07T16:09:35Z</time>
      </trkpt>
      <trkpt lat="45.79479" lon="4.82837">
        <ele>163</ele>
        <time>2012-04-07T16:09:38Z</time>
      </trkpt>
      <trkpt lat="45.79465" lon="4.82816">
        <ele>162</ele>
        <time>2012-04-07T16:09:41Z</time>
      </trkpt>
      <trkpt lat="45.79449" lon="4.82796">
        <ele>162</ele>
        <time>2012-04-07T16:09:44Z</time>
      </trkpt>
      <trkpt lat="45.79429" lon="4.82768">
        <ele>162</ele>
        <time>2012-04-07T16:09:48Z</time>
      </trkpt>
      <trkpt lat="45.79416" lon="4.82746">
        <ele>162</ele>
        <time>2012-04-07T16:09:51Z</time>
      </trkpt>
      <trkpt lat="45.79395" lon="4.82718">
        <ele>162</ele>
        <time>2012-04-07T16:09:55Z</time>
      </trkpt>
      <trkpt lat="45.7938" lon="4.82698">
        <ele>162</ele>
        <time>2012-04-07T16:09:58Z</time>
      </trkpt>
      <trkpt lat="45.79365" lon="4.82678">
        <ele>162</ele>
        <time>2012-04-07T16:10:01Z</time>
      </trkpt>
      <trkpt lat="45.79345" lon="4.82648">
        <ele>162</ele>
        <time>2012-04-07T16:10:05Z</time>
      </trkpt>
      <trkpt lat="45.79331" lon="4.82624">
        <ele>163</ele>
        <time>2012-04-07T16:10:08Z</time>
      </trkpt>
      <trkpt lat="45.79318" lon="4.82601">
        <ele>164</ele>
        <time>2012-04-07T16:10:11Z</time>
      </trkpt>
      <trkpt lat="45.79299" lon="4.82571">
        <ele>164</ele>
        <time>2012-04-07T16:10:15Z</time>
      </trkpt>
      <trkpt lat="45.79286" lon="4.82546">
        <ele>164</ele>
        <time>2012-04-07T16:10:18Z</time>
      </trkpt>
      <trkpt lat="45.79273" lon="4.82521">
        <ele>164</ele>
        <time>2012-04-07T16:10:21Z</time>
      </trkpt>
      <trkpt lat="45.79255" lon="4.82489">
        <ele>164</ele>
        <time>2012-04-07T16:10:25Z</time>
      </trkpt>
      <trkpt lat="45.79242" lon="4.82466">
        <ele>164</ele>
        <time>2012-04-07T16:10:28Z</time>
      </trkpt>
      <trkpt lat="45.7923" lon="4.82443">
        <ele>164</ele>
        <time>2012-04-07T16:10:31Z</time>
      </trkpt>
      <trkpt lat="45.79213" lon="4.82412">
        <ele>167</ele>
        <time>2012-04-07T16:10:35Z</time>
      </trkpt>
      <trkpt lat="45.792" lon="4.82389">
        <ele>168</ele>
        <time>2012-04-07T16:10:38Z</time>
      </trkpt>
      <trkpt lat="45.79187" lon="4.82366">
        <ele>168</ele>
        <time>2012-04-07T16:10:41Z</time>
      </trkpt>
      <trkpt lat="45.79169" lon="4.82334">
        <ele>168</ele>
        <time>2012-04-07T16:10:45Z</time>
      </trkpt>
      <trkpt lat="45.79155" lon="4.82311">
        <ele>168</ele>
        <time>2012-04-07T16:10:48Z</time>
      </trkpt>
      <trkpt lat="45.79143" lon="4.82289">
        <ele>167</ele>
        <time>2012-04-07T16:10:51Z</time>
      </trkpt>
      <trkpt lat="45.79126" lon="4.82259">
        <ele>164</ele>
        <time>2012-04-07T16:10:55Z</time>
      </trkpt>
      <trkpt lat="45.79114" lon="4.82238">
        <ele>162</ele>
        <time>2012-04-07T16:10:58Z</time>
      </trkpt>
      <trkpt lat="45.79101" lon="4.82217">
        <ele>161</ele>
        <time>2012-04-07T16:11:01Z</time>
      </trkpt>
      <trkpt lat="45.79082" lon="4.82191">
        <ele>159</ele>
        <time>2012-04-07T16:11:05Z</time>
      </trkpt>
      <trkpt lat="45.79068" lon="4.82171">
        <ele>159</ele>
        <time>2012-04-07T16:11:08Z</time>
      </trkpt>
      <trkpt lat="45.79054" lon="4.82152">
        <ele>158</ele>
        <time>2012-04-07T16:11:11Z</time>
      </trkpt>
      <trkpt lat="45.79035" lon="4.82128">
        <ele>157</ele>
        <time>2012-04-07T16:11:15Z</time>
      </trkpt>
      <trkpt lat="45.79022" lon="4.82109">
        <ele>154</ele>
        <time>2012-04-07T16:11:18Z</time>
      </trkpt>
      <trkpt lat="45.79008" lon="4.82092">
        <ele>152</ele>
        <time>2012-04-07T16:11:21Z</time>
      </trkpt>
      <trkpt lat="45.78991" lon="4.82071">
        <ele>152</ele>
        <time>2012-04-07T16:11:25Z</time>
      </trkpt>
      <trkpt lat="45.78981" lon="4.82057">
        <ele>152</ele>
        <time>2012-04-07T16:11:28Z</time>
      </trkpt>
      <trkpt lat="45.78971" lon="4.82043">
        <ele>152</ele>
        <time>2012-04-07T16:11:31Z</time>
      </trkpt>
      <trkpt lat="45.78957" lon="4.82028">
        <ele>152</ele>
        <time>2012-04-07T16:11:35Z</time>
      </trkpt>
      <trkpt lat="45.78946" lon="4.82016">
        <ele>152</ele>
        <time>2012-04-07T16:11:38Z</time>
      </trkpt>
      <trkpt lat="45.78934" lon="4.82002">
        <ele>153</ele>
        <time>2012-04-07T16:11:41Z</time>
      </trkpt>
      <trkpt lat="45.78918" lon="4.81983">
        <ele>154</ele>
        <time>2012-04-07T16:11:45Z</time>
      </trkpt>
      <trkpt lat="45.78904" lon="4.81968">
        <ele>156</ele>
        <time>2012-04-07T16:11:48Z</time>
      </trkpt>
      <trkpt lat="45.7889" lon="4.81954">
        <ele>157</ele>
        <time>2012-04-07T16:11:51Z</time>
      </trkpt>
      <trkpt lat="45.78872" lon="4.81932">
        <ele>157</ele>
        <time>2012-04-07T16:11:55Z</time>
      </trkpt>
      <trkpt lat="45.78858" lon="4.81916">
        <ele>158</ele>
        <time>2012-04-07T16:11:58Z</time>
      </trkpt>
      <trkpt lat="45.78844" lon="4.81899">
        <ele>158</ele>
        <time>2012-04-07T16:12:01Z</time>
      </trkpt>
      <trkpt lat="45.78825" lon="4.81878">
        <ele>158</ele>
        <time>2012-04-07T16:12:05Z</time>
      </trkpt>
      <trkpt lat="45.78812" lon="4.81861">
        <ele>158</ele>
        <time>2012-04-07T16:12:08Z</time>
      </trkpt>
      <trkpt lat="45.78801" lon="4.81846">
        <ele>158</ele>
        <time>2012-04-07T16:12:11Z</time>
      </trkpt>
      <trkpt lat="45.78786" lon="4.81825">
        <ele>158</ele>
        <time>2012-04-07T16:12:15Z</time>
      </trkpt>
      <trkpt lat="45.78774" lon="4.81809">
        <ele>158</ele>
        <time>2012-04-07T16:12:18Z</time>
      </trkpt>
      <trkpt lat="45.78763" lon="4.81793">
        <ele>158</ele>
        <time>2012-04-07T16:12:21Z</time>
      </trkpt>
      <trkpt lat="45.78745" lon="4.81771">
        <ele>158</ele>
        <time>2012-04-07T16:12:25Z</time>
      </trkpt>
      <trkpt lat="45.78732" lon="4.81754">
        <ele>158</ele>
        <time>2012-04-07T16:12:28Z</time>
      </trkpt>
      <trkpt lat="45.78718" lon="4.81736">
        <ele>158</ele>
        <time>2012-04-07T16:12:31Z</time>
      </trkpt>
      <trkpt lat="45.78696" lon="4.81713">
        <ele>158</ele>
        <time>2012-04-07T16:12:35Z</time>
      </trkpt>
      <trkpt lat="45.7868" lon="4.81698">
        <ele>158</ele>
        <time>2012-04-07T16:12:38Z</time>
      </trkpt>
      <trkpt lat="45.78661" lon="4.81687">
        <ele>158</ele>
        <time>2012-04-07T16:12:41Z</time>
      </trkpt>
      <trkpt lat="45.78643" lon="4.81675">
        <ele>158</ele>
        <time>2012-04-07T16:12:44Z</time>
      </trkpt>
      <trkpt lat="45.78625" lon="4.81663">
        <ele>158</ele>
        <time>2012-04-07T16:12:47Z</time>
      </trkpt>
      <trkpt lat="45.78606" lon="4.8165">
        <ele>158</ele>
        <time>2012-04-07T16:12:50Z</time>
      </trkpt>
      <trkpt lat="45.78588" lon="4.81636">
        <ele>160</ele>
        <time>2012-04-07T16:12:53Z</time>
      </trkpt>
      <trkpt lat="45.78571" lon="4.81623">
        <ele>161</ele>
        <time>2012-04-07T16:12:56Z</time>
      </trkpt>
      <trkpt lat="45.78549" lon="4.81604">
        <ele>161</ele>
        <time>2012-04-07T16:13:00Z</time>
      </trkpt>
      <trkpt lat="45.78532" lon="4.81591">
        <ele>162</ele>
        <time>2012-04-07T16:13:03Z</time>
      </trkpt>
      <trkpt lat="45.78514" lon="4.8158">
        <ele>162</ele>
        <time>2012-04-07T16:13:06Z</time>
      </trkpt>
      <trkpt lat="45.78497" lon="4.81566">
        <ele>163</ele>
        <time>2012-04-07T16:13:09Z</time>
      </trkpt>
      <trkpt lat="45.78481" lon="4.81551">
        <ele>163</ele>
        <time>2012-04-07T16:13:12Z</time>
      </trkpt>
      <trkpt lat="45.78465" lon="4.81537">
        <ele>163</ele>
        <time>2012-04-07T16:13:15Z</time>
      </trkpt>
      <trkpt lat="45.78449" lon="4.81523">
        <ele>163</ele>
        <time>2012-04-07T16:13:18Z</time>
      </trkpt>
      <trkpt lat="45.78432" lon="4.81508">
        <ele>162</ele>
        <time>2012-04-07T16:13:21Z</time>
      </trkpt>
      <trkpt lat="45.78415" lon="4.81493">
        <ele>162</ele>
        <time>2012-04-07T16:13:24Z</time>
      </trkpt>
      <trkpt lat="45.78397" lon="4.81478">
        <ele>162</ele>
        <time>2012-04-07T16:13:27Z</time>
      </trkpt>
      <trkpt lat="45.78379" lon="4.81463">
        <ele>162</ele>
        <time>2012-04-07T16:13:30Z</time>
      </trkpt>
      <trkpt lat="45.78362" lon="4.81448">
        <ele>162</ele>
        <time>2012-04-07T16:13:33Z</time>
      </trkpt>
      <trkpt lat="45.78345" lon="4.81434">
        <ele>162</ele>
        <time>2012-04-07T16:13:36Z</time>
      </trkpt>
      <trkpt lat="45.78328" lon="4.81419">
        <ele>162</ele>
        <time>2012-04-07T16:13:39Z</time>
      </trkpt>
      <trkpt lat="45.7831" lon="4.81404">
        <ele>163</ele>
        <time>2012-04-07T16:13:42Z</time>
      </trkpt>
      <trkpt lat="45.78293" lon="4.8139">
        <ele>165</ele>
        <time>2012-04-07T16:13:45Z</time>
      </trkpt>
      <trkpt lat="45.78276" lon="4.81375">
        <ele>165</ele>
        <time>2012-04-07T16:13:48Z</time>
      </trkpt>
      <trkpt lat="45.78258" lon="4.8136">
        <ele>166</ele>
        <time>2012-04-07T16:13:51Z</time>
      </trkpt>
      <trkpt lat="45.78234" lon="4.81341">
        <ele>166</ele>
        <time>2012-04-07T16:13:55Z</time>
      </trkpt>
      <trkpt lat="45.78218" lon="4.81326">
        <ele>167</ele>
        <time>2012-04-07T16:13:58Z</time>
      </trkpt>
      <trkpt lat="45.78201" lon="4.81311">
        <ele>167</ele>
        <time>2012-04-07T16:14:01Z</time>
      </trkpt>
      <trkpt lat="45.78186" lon="4.81298">
        <ele>167</ele>
        <time>2012-04-07T16:14:04Z</time>
      </trkpt>
      <trkpt lat="45.78171" lon="4.81285">
        <ele>167</ele>
        <time>2012-04-07T16:14:07Z</time>
      </trkpt>
      <trkpt lat="45.78158" lon="4.8127">
        <ele>167</ele>
        <time>2012-04-07T16:14:10Z</time>
      </trkpt>
      <trkpt lat="45.78143" lon="4.81258">
        <ele>167</ele>
        <time>2012-04-07T16:14:13Z</time>
      </trkpt>
      <trkpt lat="45.78128" lon="4.81245">
        <ele>167</ele>
        <time>2012-04-07T16:14:16Z</time>
      </trkpt>
      <trkpt lat="45.78106" lon="4.81228">
        <ele>165</ele>
        <time>2012-04-07T16:14:20Z</time>
      </trkpt>
      <trkpt lat="45.78088" lon="4.81215">
        <ele>165</ele>
        <time>2012-04-07T16:14:23Z</time>
      </trkpt>
      <trkpt lat="45.78067" lon="4.81192">
        <ele>165</ele>
        <time>2012-04-07T16:14:27Z</time>
      </trkpt>
      <trkpt lat="45.7805" lon="4.81186">
        <ele>165</ele>
        <time>2012-04-07T16:14:30Z</time>
      </trkpt>
      <trkpt lat="45.7803" lon="4.81178">
        <ele>162</ele>
        <time>2012-04-07T16:14:33Z</time>
      </trkpt>
      <trkpt lat="45.78011" lon="4.8117">
        <ele>159</ele>
        <time>2012-04-07T16:14:36Z</time>
      </trkpt>
      <trkpt lat="45.77983" lon="4.81159">
        <ele>158</ele>
        <time>2012-04-07T16:14:40Z</time>
      </trkpt>
      <trkpt lat="45.77964" lon="4.81149">
        <ele>158</ele>
        <time>2012-04-07T16:14:43Z</time>
      </trkpt>
      <trkpt lat="45.77944" lon="4.81139">
        <ele>158</ele>
        <time>2012-04-07T16:14:46Z</time>
      </trkpt>
      <trkpt lat="45.77925" lon="4.81129">
        <ele>158</ele>
        <time>2012-04-07T16:14:49Z</time>
      </trkpt>
      <trkpt lat="45.77906" lon="4.81119">
        <ele>160</ele>
        <time>2012-04-07T16:14:52Z</time>
      </trkpt>
      <trkpt lat="45.77888" lon="4.8111">
        <ele>161</ele>
        <time>2012-04-07T16:14:55Z</time>
      </trkpt>
      <trkpt lat="45.77871" lon="4.81102">
        <ele>162</ele>
        <time>2012-04-07T16:14:58Z</time>
      </trkpt>
      <trkpt lat="45.77855" lon="4.81095">
        <ele>163</ele>
        <time>2012-04-07T16:15:01Z</time>
      </trkpt>
      <trkpt lat="45.77841" lon="4.81089">
        <ele>164</ele>
        <time>2012-04-07T16:15:04Z</time>
      </trkpt>
      <trkpt lat="45.77826" lon="4.81083">
        <ele>165</ele>
        <time>2012-04-07T16:15:07Z</time>
      </trkpt>
      <trkpt lat="45.77811" lon="4.81076">
        <ele>165</ele>
        <time>2012-04-07T16:15:10Z</time>
      </trkpt>
      <trkpt lat="45.77796" lon="4.81069">
        <ele>165</ele>
        <time>2012-04-07T16:15:13Z</time>
      </trkpt>
      <trkpt lat="45.77783" lon="4.81063">
        <ele>165</ele>
        <time>2012-04-07T16:15:16Z</time>
      </trkpt>
      <trkpt lat="45.77765" lon="4.81058">
        <ele>167</ele>
        <time>2012-04-07T16:15:20Z</time>
      </trkpt>
      <trkpt lat="45.77751" lon="4.81056">
        <ele>167</ele>
        <time>2012-04-07T16:15:23Z</time>
      </trkpt>
      <trkpt lat="45.77731" lon="4.8105">
        <ele>167</ele>
        <time>2012-04-07T16:15:27Z</time>
      </trkpt>
      <trkpt lat="45.77716" lon="4.81048">
        <ele>167</ele>
        <time>2012-04-07T16:15:30Z</time>
      </trkpt>
      <trkpt lat="45.77699" lon="4.81048">
        <ele>167</ele>
        <time>2012-04-07T16:15:33Z</time>
      </trkpt>
      <trkpt lat="45.77682" lon="4.81044">
        <ele>167</ele>
        <time>2012-04-07T16:15:36Z</time>
      </trkpt>
      <trkpt lat="45.77658" lon="4.81037">
        <ele>168</ele>
        <time>2012-04-07T16:15:40Z</time>
      </trkpt>
      <trkpt lat="45.77639" lon="4.81032">
        <ele>170</ele>
        <time>2012-04-07T16:15:43Z</time>
      </trkpt>
      <trkpt lat="45.7762" lon="4.8103">
        <ele>170</ele>
        <time>2012-04-07T16:15:46Z</time>
      </trkpt>
      <trkpt lat="45.77601" lon="4.81029">
        <ele>170</ele>
        <time>2012-04-07T16:15:49Z</time>
      </trkpt>
      <trkpt lat="45.77585" lon="4.81029">
        <ele>171</ele>
        <time>2012-04-07T16:15:52Z</time>
      </trkpt>
      <trkpt lat="45.77568" lon="4.81031">
        <ele>174</ele>
        <time>2012-04-07T16:15:55Z</time>
      </trkpt>
      <trkpt lat="45.77553" lon="4.8103">
        <ele>174</ele>
        <time>2012-04-07T16:15:58Z</time>
      </trkpt>
      <trkpt lat="45.77537" lon="4.81032">
        <ele>174</ele>
        <time>2012-04-07T16:16:01Z</time>
      </trkpt>
      <trkpt lat="45.77519" lon="4.81038">
        <ele>174</ele>
        <time>2012-04-07T16:16:04Z</time>
      </trkpt>
      <trkpt lat="45.77499" lon="4.81048">
        <ele>174</ele>
        <time>2012-04-07T16:16:07Z</time>
      </trkpt>
      <trkpt lat="45.77454" lon="4.81072">
        <ele>174</ele>
        <time>2012-04-07T16:16:13Z</time>
      </trkpt>
      <trkpt lat="45.77433" lon="4.81084">
        <ele>174</ele>
        <time>2012-04-07T16:16:16Z</time>
      </trkpt>
      <trkpt lat="45.77417" lon="4.81099">
        <ele>174</ele>
        <time>2012-04-07T16:16:19Z</time>
      </trkpt>
      <trkpt lat="45.77404" lon="4.81116">
        <ele>174</ele>
        <time>2012-04-07T16:16:22Z</time>
      </trkpt>
      <trkpt lat="45.77394" lon="4.81138">
        <ele>172</ele>
        <time>2012-04-07T16:16:25Z</time>
      </trkpt>
      <trkpt lat="45.77383" lon="4.81161">
        <ele>170</ele>
        <time>2012-04-07T16:16:28Z</time>
      </trkpt>
      <trkpt lat="45.77373" lon="4.81183">
        <ele>169</ele>
        <time>2012-04-07T16:16:31Z</time>
      </trkpt>
      <trkpt lat="45.77362" lon="4.81205">
        <ele>169</ele>
        <time>2012-04-07T16:16:34Z</time>
      </trkpt>
      <trkpt lat="45.77353" lon="4.81223">
        <ele>169</ele>
        <time>2012-04-07T16:16:37Z</time>
      </trkpt>
      <trkpt lat="45.77343" lon="4.81239">
        <ele>169</ele>
        <time>2012-04-07T16:16:40Z</time>
      </trkpt>
      <trkpt lat="45.77334" lon="4.81253">
        <ele>167</ele>
        <time>2012-04-07T16:16:43Z</time>
      </trkpt>
      <trkpt lat="45.77322" lon="4.81263">
        <ele>167</ele>
        <time>2012-04-07T16:16:46Z</time>
      </trkpt>
      <trkpt lat="45.77307" lon="4.8127">
        <ele>167</ele>
        <time>2012-04-07T16:16:50Z</time>
      </trkpt>
      <trkpt lat="45.773" lon="4.81281">
        <ele>167</ele>
        <time>2012-04-07T16:16:53Z</time>
      </trkpt>
      <trkpt lat="45.77291" lon="4.81291">
        <ele>167</ele>
        <time>2012-04-07T16:16:56Z</time>
      </trkpt>
      <trkpt lat="45.77278" lon="4.81301">
        <ele>167</ele>
        <time>2012-04-07T16:16:59Z</time>
      </trkpt>
      <trkpt lat="45.77267" lon="4.81315">
        <ele>167</ele>
        <time>2012-04-07T16:17:02Z</time>
      </trkpt>
      <trkpt lat="45.77254" lon="4.81326">
        <ele>167</ele>
        <time>2012-04-07T16:17:05Z</time>
      </trkpt>
      <trkpt lat="45.77241" lon="4.81337">
        <ele>169</ele>
        <time>2012-04-07T16:17:08Z</time>
      </trkpt>
      <trkpt lat="45.77225" lon="4.81346">
        <ele>170</ele>
        <time>2012-04-07T16:17:11Z</time>
      </trkpt>
      <trkpt lat="45.77211" lon="4.81354">
        <ele>170</ele>
        <time>2012-04-07T16:17:14Z</time>
      </trkpt>
      <trkpt lat="45.77201" lon="4.81362">
        <ele>170</ele>
        <time>2012-04-07T16:17:17Z</time>
      </trkpt>
      <trkpt lat="45.77185" lon="4.81368">
        <ele>170</ele>
        <time>2012-04-07T16:17:20Z</time>
      </trkpt>
      <trkpt lat="45.77169" lon="4.81375">
        <ele>170</ele>
        <time>2012-04-07T16:17:23Z</time>
      </trkpt>
      <trkpt lat="45.77147" lon="4.81386">
        <ele>169</ele>
        <time>2012-04-07T16:17:27Z</time>
      </trkpt>
      <trkpt lat="45.77132" lon="4.81393">
        <ele>166</ele>
        <time>2012-04-07T16:17:30Z</time>
      </trkpt>
      <trkpt lat="45.77118" lon="4.81398">
        <ele>163</ele>
        <time>2012-04-07T16:17:33Z</time>
      </trkpt>
      <trkpt lat="45.77103" lon="4.81399">
        <ele>162</ele>
        <time>2012-04-07T16:17:36Z</time>
      </trkpt>
      <trkpt lat="45.7709" lon="4.81401">
        <ele>162</ele>
        <time>2012-04-07T16:17:39Z</time>
      </trkpt>
      <trkpt lat="45.77079" lon="4.81404">
        <ele>162</ele>
        <time>2012-04-07T16:17:42Z</time>
      </trkpt>
      <trkpt lat="45.77068" lon="4.81407">
        <ele>162</ele>
        <time>2012-04-07T16:17:45Z</time>
      </trkpt>
      <trkpt lat="45.7706" lon="4.8141">
        <ele>162</ele>
        <time>2012-04-07T16:17:48Z</time>
      </trkpt>
      <trkpt lat="45.77056" lon="4.81411">
        <ele>162</ele>
        <time>2012-04-07T16:17:51Z</time>
      </trkpt>
      <trkpt lat="45.77058" lon="4.81412">
        <ele>162</ele>
        <time>2012-04-07T16:17:56Z</time>
      </trkpt>
      <trkpt lat="45.77055" lon="4.81411">
        <ele>162</ele>
        <time>2012-04-07T16:18:01Z</time>
      </trkpt>
      <trkpt lat="45.77049" lon="4.81414">
        <ele>162</ele>
        <time>2012-04-07T16:18:04Z</time>
      </trkpt>
      <trkpt lat="45.77039" lon="4.81416">
        <ele>162</ele>
        <time>2012-04-07T16:18:07Z</time>
      </trkpt>
      <trkpt lat="45.77028" lon="4.81419">
        <ele>162</ele>
        <time>2012-04-07T16:18:10Z</time>
      </trkpt>
      <trkpt lat="45.77017" lon="4.81419">
        <ele>162</ele>
        <time>2012-04-07T16:18:13Z</time>
      </trkpt>
      <trkpt lat="45.77006" lon="4.81423">
        <ele>162</ele>
        <time>2012-04-07T16:18:16Z</time>
      </trkpt>
      <trkpt lat="45.76994" lon="4.81429">
        <ele>163</ele>
        <time>2012-04-07T16:18:19Z</time>
      </trkpt>
      <trkpt lat="45.76981" lon="4.81437">
        <ele>164</ele>
        <time>2012-04-07T16:18:22Z</time>
      </trkpt>
      <trkpt lat="45.76966" lon="4.81447">
        <ele>165</ele>
        <time>2012-04-07T16:18:25Z</time>
      </trkpt>
      <trkpt lat="45.76949" lon="4.81457">
        <ele>165</ele>
        <time>2012-04-07T16:18:28Z</time>
      </trkpt>
      <trkpt lat="45.76931" lon="4.81466">
        <ele>165</ele>
        <time>2012-04-07T16:18:31Z</time>
      </trkpt>
      <trkpt lat="45.76915" lon="4.81476">
        <ele>165</ele>
        <time>2012-04-07T16:18:34Z</time>
      </trkpt>
      <trkpt lat="45.76896" lon="4.81486">
        <ele>165</ele>
        <time>2012-04-07T16:18:37Z</time>
      </trkpt>
      <trkpt lat="45.76879" lon="4.81497">
        <ele>165</ele>
        <time>2012-04-07T16:18:40Z</time>
      </trkpt>
      <trkpt lat="45.76862" lon="4.81511">
        <ele>165</ele>
        <time>2012-04-07T16:18:43Z</time>
      </trkpt>
      <trkpt lat="45.76847" lon="4.81528">
        <ele>165</ele>
        <time>2012-04-07T16:18:46Z</time>
      </trkpt>
      <trkpt lat="45.76834" lon="4.8155">
        <ele>165</ele>
        <time>2012-04-07T16:18:49Z</time>
      </trkpt>
      <trkpt lat="45.76821" lon="4.81573">
        <ele>165</ele>
        <time>2012-04-07T16:18:52Z</time>
      </trkpt>
      <trkpt lat="45.76809" lon="4.81596">
        <ele>165</ele>
        <time>2012-04-07T16:18:55Z</time>
      </trkpt>
      <trkpt lat="45.768" lon="4.81622">
        <ele>165</ele>
        <time>2012-04-07T16:18:58Z</time>
      </trkpt>
      <trkpt lat="45.76792" lon="4.81647">
        <ele>165</ele>
        <time>2012-04-07T16:19:01Z</time>
      </trkpt>
      <trkpt lat="45.76786" lon="4.81673">
        <ele>165</ele>
        <time>2012-04-07T16:19:04Z</time>
      </trkpt>
      <trkpt lat="45.76778" lon="4.81697">
        <ele>165</ele>
        <time>2012-04-07T16:19:07Z</time>
      </trkpt>
      <trkpt lat="45.76772" lon="4.81723">
        <ele>165</ele>
        <time>2012-04-07T16:19:10Z</time>
      </trkpt>
      <trkpt lat="45.76766" lon="4.81749">
        <ele>165</ele>
        <time>2012-04-07T16:19:13Z</time>
      </trkpt>
      <trkpt lat="45.76762" lon="4.81777">
        <ele>165</ele>
        <time>2012-04-07T16:19:16Z</time>
      </trkpt>
      <trkpt lat="45.76758" lon="4.81802">
        <ele>165</ele>
        <time>2012-04-07T16:19:19Z</time>
      </trkpt>
      <trkpt lat="45.76755" lon="4.81827">
        <ele>165</ele>
        <time>2012-04-07T16:19:22Z</time>
      </trkpt>
      <trkpt lat="45.76754" lon="4.81852">
        <ele>165</ele>
        <time>2012-04-07T16:19:25Z</time>
      </trkpt>
      <trkpt lat="45.76755" lon="4.81878">
        <ele>163</ele>
        <time>2012-04-07T16:19:28Z</time>
      </trkpt>
      <trkpt lat="45.76759" lon="4.81903">
        <ele>162</ele>
        <time>2012-04-07T16:19:31Z</time>
      </trkpt>
      <trkpt lat="45.76765" lon="4.81927">
        <ele>162</ele>
        <time>2012-04-07T16:19:34Z</time>
      </trkpt>
      <trkpt lat="45.7677" lon="4.81949">
        <ele>160</ele>
        <time>2012-04-07T16:19:37Z</time>
      </trkpt>
      <trkpt lat="45.76773" lon="4.81972">
        <ele>159</ele>
        <time>2012-04-07T16:19:40Z</time>
      </trkpt>
      <trkpt lat="45.76778" lon="4.81993">
        <ele>159</ele>
        <time>2012-04-07T16:19:43Z</time>
      </trkpt>
      <trkpt lat="45.7678" lon="4.82015">
        <ele>159</ele>
        <time>2012-04-07T16:19:46Z</time>
      </trkpt>
      <trkpt lat="45.76783" lon="4.82036">
        <ele>159</ele>
        <time>2012-04-07T16:19:49Z</time>
      </trkpt>
      <trkpt lat="45.76787" lon="4.82059">
        <ele>159</ele>
        <time>2012-04-07T16:19:52Z</time>
      </trkpt>
      <trkpt lat="45.76792" lon="4.82082">
        <ele>159</ele>
        <time>2012-04-07T16:19:55Z</time>
      </trkpt>
      <trkpt lat="45.76797" lon="4.82105">
        <ele>159</ele>
        <time>2012-04-07T16:19:58Z</time>
      </trkpt>
      <trkpt lat="45.76804" lon="4.82127">
        <ele>159</ele>
        <time>2012-04-07T16:20:01Z</time>
      </trkpt>
      <trkpt lat="45.7681" lon="4.82149">
        <ele>159</ele>
        <time>2012-04-07T16:20:04Z</time>
      </trkpt>
      <trkpt lat="45.76815" lon="4.82172">
        <ele>159</ele>
        <time>2012-04-07T16:20:07Z</time>
      </trkpt>
      <trkpt lat="45.7682" lon="4.82195">
        <ele>157</ele>
        <time>2012-04-07T16:20:10Z</time>
      </trkpt>
      <trkpt lat="45.76825" lon="4.82218">
        <ele>156</ele>
        <time>2012-04-07T16:20:13Z</time>
      </trkpt>
      <trkpt lat="45.76829" lon="4.82242">
        <ele>155</ele>
        <time>2012-04-07T16:20:16Z</time>
      </trkpt>
      <trkpt lat="45.76831" lon="4.82267">
        <ele>155</ele>
        <time>2012-04-07T16:20:19Z</time>
      </trkpt>
      <trkpt lat="45.76833" lon="4.82293">
        <ele>155</ele>
        <time>2012-04-07T16:20:22Z</time>
      </trkpt>
      <trkpt lat="45.76836" lon="4.82318">
        <ele>155</ele>
        <time>2012-04-07T16:20:25Z</time>
      </trkpt>
      <trkpt lat="45.76836" lon="4.82344">
        <ele>155</ele>
        <time>2012-04-07T16:20:28Z</time>
      </trkpt>
      <trkpt lat="45.76838" lon="4.82369">
        <ele>155</ele>
        <time>2012-04-07T16:20:31Z</time>
      </trkpt>
      <trkpt lat="45.76839" lon="4.82394">
        <ele>155</ele>
        <time>2012-04-07T16:20:34Z</time>
      </trkpt>
      <trkpt lat="45.76841" lon="4.82419">
        <ele>155</ele>
        <time>2012-04-07T16:20:37Z</time>
      </trkpt>
      <trkpt lat="45.76842" lon="4.82446">
        <ele>155</ele>
        <time>2012-04-07T16:20:40Z</time>
      </trkpt>
      <trkpt lat="45.76843" lon="4.82473">
        <ele>155</ele>
        <time>2012-04-07T16:20:43Z</time>
      </trkpt>
      <trkpt lat="45.76844" lon="4.82499">
        <ele>155</ele>
        <time>2012-04-07T16:20:46Z</time>
      </trkpt>
      <trkpt lat="45.76844" lon="4.82522">
        <ele>155</ele>
        <time>2012-04-07T16:20:49Z</time>
      </trkpt>
      <trkpt lat="45.76845" lon="4.82545">
        <ele>154</ele>
        <time>2012-04-07T16:20:52Z</time>
      </trkpt>
      <trkpt lat="45.76847" lon="4.82566">
        <ele>153</ele>
        <time>2012-04-07T16:20:55Z</time>
      </trkpt>
      <trkpt lat="45.76847" lon="4.82588">
        <ele>153</ele>
        <time>2012-04-07T16:20:58Z</time>
      </trkpt>
      <trkpt lat="45.76844" lon="4.82613">
        <ele>152</ele>
        <time>2012-04-07T16:21:01Z</time>
      </trkpt>
      <trkpt lat="45.7684" lon="4.82638">
        <ele>152</ele>
        <time>2012-04-07T16:21:04Z</time>
      </trkpt>
      <trkpt lat="45.76836" lon="4.82663">
        <ele>152</ele>
        <time>2012-04-07T16:21:07Z</time>
      </trkpt>
      <trkpt lat="45.76831" lon="4.82688">
        <ele>152</ele>
        <time>2012-04-07T16:21:10Z</time>
      </trkpt>
      <trkpt lat="45.76827" lon="4.82712">
        <ele>152</ele>
        <time>2012-04-07T16:21:13Z</time>
      </trkpt>
      <trkpt lat="45.76823" lon="4.82736">
        <ele>152</ele>
        <time>2012-04-07T16:21:16Z</time>
      </trkpt>
      <trkpt lat="45.76817" lon="4.82757">
        <ele>152</ele>
        <time>2012-04-07T16:21:19Z</time>
      </trkpt>
      <trkpt lat="45.7681" lon="4.82776">
        <ele>152</ele>
        <time>2012-04-07T16:21:22Z</time>
      </trkpt>
      <trkpt lat="45.76803" lon="4.82795">
        <ele>152</ele>
        <time>2012-04-07T16:21:25Z</time>
      </trkpt>
      <trkpt lat="45.76797" lon="4.82816">
        <ele>152</ele>
        <time>2012-04-07T16:21:28Z</time>
      </trkpt>
      <trkpt lat="45.76787" lon="4.82832">
        <ele>154</ele>
        <time>2012-04-07T16:21:31Z</time>
      </trkpt>
      <trkpt lat="45.76774" lon="4.82851">
        <ele>157</ele>
        <time>2012-04-07T16:21:34Z</time>
      </trkpt>
      <trkpt lat="45.76765" lon="4.82869">
        <ele>160</ele>
        <time>2012-04-07T16:21:37Z</time>
      </trkpt>
      <trkpt lat="45.76756" lon="4.82886">
        <ele>163</ele>
        <time>2012-04-07T16:21:40Z</time>
      </trkpt>
      <trkpt lat="45.76745" lon="4.829">
        <ele>165</ele>
        <time>2012-04-07T16:21:43Z</time>
      </trkpt>
      <trkpt lat="45.76735" lon="4.82914">
        <ele>168</ele>
        <time>2012-04-07T16:21:46Z</time>
      </trkpt>
      <trkpt lat="45.76725" lon="4.82929">
        <ele>171</ele>
        <time>2012-04-07T16:21:49Z</time>
      </trkpt>
      <trkpt lat="45.76713" lon="4.82941">
        <ele>174</ele>
        <time>2012-04-07T16:21:52Z</time>
      </trkpt>
      <trkpt lat="45.76701" lon="4.82952">
        <ele>177</ele>
        <time>2012-04-07T16:21:55Z</time>
      </trkpt>
      <trkpt lat="45.76691" lon="4.82964">
        <ele>180</ele>
        <time>2012-04-07T16:21:58Z</time>
      </trkpt>
      <trkpt lat="45.76687" lon="4.82982">
        <ele>181</ele>
        <time>2012-04-07T16:22:01Z</time>
      </trkpt>
      <trkpt lat="45.76681" lon="4.82998">
        <ele>180</ele>
        <time>2012-04-07T16:22:04Z</time>
      </trkpt>
      <trkpt lat="45.76674" lon="4.83005">
        <ele>177</ele>
        <time>2012-04-07T16:22:07Z</time>
      </trkpt>
      <trkpt lat="45.76673" lon="4.83009">
        <ele>173</ele>
        <time>2012-04-07T16:22:11Z</time>
      </trkpt>
      <trkpt lat="45.76672" lon="4.83011">
        <ele>170</ele>
        <time>2012-04-07T16:22:17Z</time>
      </trkpt>
      <trkpt lat="45.7667" lon="4.83015">
        <ele>170</ele>
        <time>2012-04-07T16:22:21Z</time>
      </trkpt>
      <trkpt lat="45.76669" lon="4.83017">
        <ele>169</ele>
        <time>2012-04-07T16:22:26Z</time>
      </trkpt>
      <trkpt lat="45.76669" lon="4.83022">
        <ele>169</ele>
        <time>2012-04-07T16:22:30Z</time>
      </trkpt>
      <trkpt lat="45.76667" lon="4.83025">
        <ele>169</ele>
        <time>2012-04-07T16:22:33Z</time>
      </trkpt>
      <trkpt lat="45.76662" lon="4.83028">
        <ele>169</ele>
        <time>2012-04-07T16:22:37Z</time>
      </trkpt>
      <trkpt lat="45.76661" lon="4.83028">
        <ele>169</ele>
        <time>2012-04-07T16:22:44Z</time>
      </trkpt>
      <trkpt lat="45.76662" lon="4.83027">
        <ele>169</ele>
        <time>2012-04-07T16:22:47Z</time>
      </trkpt>
      <trkpt lat="45.76663" lon="4.83028">
        <ele>169</ele>
        <time>2012-04-07T16:22:53Z</time>
      </trkpt>
      <trkpt lat="45.76664" lon="4.83027">
        <ele>168</ele>
        <time>2012-04-07T16:22:56Z</time>
      </trkpt>
      <trkpt lat="45.76665" lon="4.83025">
        <ele>167</ele>
        <time>2012-04-07T16:23:01Z</time>
      </trkpt>
      <trkpt lat="45.76665" lon="4.83024">
        <ele>166</ele>
        <time>2012-04-07T16:23:05Z</time>
      </trkpt>
      <trkpt lat="45.76664" lon="4.83023">
        <ele>166</ele>
        <time>2012-04-07T16:23:11Z</time>
      </trkpt>
      <trkpt lat="45.76662" lon="4.83021">
        <ele>166</ele>
        <time>2012-04-07T16:23:14Z</time>
      </trkpt>
      <trkpt lat="45.76661" lon="4.83024">
        <ele>166</ele>
        <time>2012-04-07T16:23:18Z</time>
      </trkpt>
      <trkpt lat="45.76663" lon="4.83031">
        <ele>166</ele>
        <time>2012-04-07T16:23:22Z</time>
      </trkpt>
      <trkpt lat="45.76667" lon="4.8304">
        <ele>166</ele>
        <time>2012-04-07T16:23:25Z</time>
      </trkpt>
      <trkpt lat="45.7667" lon="4.83052">
        <ele>166</ele>
        <time>2012-04-07T16:23:28Z</time>
      </trkpt>
      <trkpt lat="45.76672" lon="4.83066">
        <ele>166</ele>
        <time>2012-04-07T16:23:31Z</time>
      </trkpt>
      <trkpt lat="45.76675" lon="4.83082">
        <ele>166</ele>
        <time>2012-04-07T16:23:34Z</time>
      </trkpt>
      <trkpt lat="45.76682" lon="4.83098">
        <ele>166</ele>
        <time>2012-04-07T16:23:37Z</time>
      </trkpt>
      <trkpt lat="45.76682" lon="4.83109">
        <ele>166</ele>
        <time>2012-04-07T16:23:40Z</time>
      </trkpt>
      <trkpt lat="45.76688" lon="4.83123">
        <ele>168</ele>
        <time>2012-04-07T16:23:43Z</time>
      </trkpt>
      <trkpt lat="45.76688" lon="4.8314">
        <ele>171</ele>
        <time>2012-04-07T16:23:47Z</time>
      </trkpt>
      <trkpt lat="45.76693" lon="4.83153">
        <ele>174</ele>
        <time>2012-04-07T16:23:50Z</time>
      </trkpt>
      <trkpt lat="45.76693" lon="4.83163">
        <ele>177</ele>
        <time>2012-04-07T16:23:53Z</time>
      </trkpt>
      <trkpt lat="45.76694" lon="4.83167">
        <ele>183</ele>
        <time>2012-04-07T16:23:57Z</time>
      </trkpt>
      <trkpt lat="45.76695" lon="4.8317">
        <ele>188</ele>
        <time>2012-04-07T16:24:00Z</time>
      </trkpt>
      <trkpt lat="45.76697" lon="4.83171">
        <ele>191</ele>
        <time>2012-04-07T16:24:03Z</time>
      </trkpt>
      <trkpt lat="45.76698" lon="4.83176">
        <ele>195</ele>
        <time>2012-04-07T16:24:07Z</time>
      </trkpt>
      <trkpt lat="45.76699" lon="4.83181">
        <ele>198</ele>
        <time>2012-04-07T16:24:10Z</time>
      </trkpt>
      <trkpt lat="45.76699" lon="4.83183">
        <ele>201</ele>
        <time>2012-04-07T16:24:13Z</time>
      </trkpt>
      <trkpt lat="45.76701" lon="4.83184">
        <ele>205</ele>
        <time>2012-04-07T16:24:17Z</time>
      </trkpt>
      <trkpt lat="45.76702" lon="4.83185">
        <ele>208</ele>
        <time>2012-04-07T16:24:20Z</time>
      </trkpt>
      <trkpt lat="45.76704" lon="4.83186">
        <ele>208</ele>
        <time>2012-04-07T16:24:24Z</time>
      </trkpt>
      <trkpt lat="45.76705" lon="4.83188">
        <ele>208</ele>
        <time>2012-04-07T16:24:29Z</time>
      </trkpt>
      <trkpt lat="45.76706" lon="4.83187">
        <ele>208</ele>
        <time>2012-04-07T16:24:32Z</time>
      </trkpt>
      <trkpt lat="45.76702" lon="4.83185">
        <ele>208</ele>
        <time>2012-04-07T16:24:36Z</time>
      </trkpt>
      <trkpt lat="45.76701" lon="4.83188">
        <ele>208</ele>
        <time>2012-04-07T16:24:40Z</time>
      </trkpt>
      <trkpt lat="45.76699" lon="4.8319">
        <ele>207</ele>
        <time>2012-04-07T16:24:43Z</time>
      </trkpt>
      <trkpt lat="45.76702" lon="4.83195">
        <ele>206</ele>
        <time>2012-04-07T16:24:46Z</time>
      </trkpt>
      <trkpt lat="45.76702" lon="4.83201">
        <ele>202</ele>
        <time>2012-04-07T16:24:50Z</time>
      </trkpt>
      <trkpt lat="45.76704" lon="4.83206">
        <ele>198</ele>
        <time>2012-04-07T16:24:54Z</time>
      </trkpt>
      <trkpt lat="45.76705" lon="4.83212">
        <ele>195</ele>
        <time>2012-04-07T16:24:57Z</time>
      </trkpt>
      <trkpt lat="45.76707" lon="4.83219">
        <ele>192</ele>
        <time>2012-04-07T16:25:00Z</time>
      </trkpt>
      <trkpt lat="45.76707" lon="4.83223">
        <ele>188</ele>
        <time>2012-04-07T16:25:04Z</time>
      </trkpt>
      <trkpt lat="45.76707" lon="4.83229">
        <ele>181</ele>
        <time>2012-04-07T16:25:15Z</time>
      </trkpt>
      <trkpt lat="45.76706" lon="4.83238">
        <ele>181</ele>
        <time>2012-04-07T16:25:18Z</time>
      </trkpt>
      <trkpt lat="45.76708" lon="4.83253">
        <ele>181</ele>
        <time>2012-04-07T16:25:21Z</time>
      </trkpt>
      <trkpt lat="45.76711" lon="4.83267">
        <ele>181</ele>
        <time>2012-04-07T16:25:25Z</time>
      </trkpt>
      <trkpt lat="45.76713" lon="4.83282">
        <ele>183</ele>
        <time>2012-04-07T16:25:28Z</time>
      </trkpt>
      <trkpt lat="45.7672" lon="4.83287">
        <ele>185</ele>
        <time>2012-04-07T16:25:31Z</time>
      </trkpt>
      <trkpt lat="45.76728" lon="4.83292">
        <ele>186</ele>
        <time>2012-04-07T16:25:34Z</time>
      </trkpt>
      <trkpt lat="45.76734" lon="4.83295">
        <ele>186</ele>
        <time>2012-04-07T16:25:37Z</time>
      </trkpt>
      <trkpt lat="45.76738" lon="4.83302">
        <ele>186</ele>
        <time>2012-04-07T16:25:40Z</time>
      </trkpt>
      <trkpt lat="45.7674" lon="4.83316">
        <ele>186</ele>
        <time>2012-04-07T16:25:43Z</time>
      </trkpt>
      <trkpt lat="45.76741" lon="4.83331">
        <ele>185</ele>
        <time>2012-04-07T16:25:46Z</time>
      </trkpt>
      <trkpt lat="45.76745" lon="4.83346">
        <ele>182</ele>
        <time>2012-04-07T16:25:49Z</time>
      </trkpt>
      <trkpt lat="45.7675" lon="4.83358">
        <ele>179</ele>
        <time>2012-04-07T16:25:52Z</time>
      </trkpt>
      <trkpt lat="45.76756" lon="4.8337">
        <ele>176</ele>
        <time>2012-04-07T16:25:55Z</time>
      </trkpt>
      <trkpt lat="45.76759" lon="4.83387">
        <ele>173</ele>
        <time>2012-04-07T16:25:58Z</time>
      </trkpt>
      <trkpt lat="45.76761" lon="4.83401">
        <ele>170</ele>
        <time>2012-04-07T16:26:01Z</time>
      </trkpt>
      <trkpt lat="45.76762" lon="4.83407">
        <ele>169</ele>
        <time>2012-04-07T16:26:04Z</time>
      </trkpt>
      <trkpt lat="45.76767" lon="4.83412">
        <ele>169</ele>
        <time>2012-04-07T16:26:07Z</time>
      </trkpt>
      <trkpt lat="45.76775" lon="4.83413">
        <ele>169</ele>
        <time>2012-04-07T16:26:10Z</time>
      </trkpt>
      <trkpt lat="45.76778" lon="4.83421">
        <ele>171</ele>
        <time>2012-04-07T16:26:13Z</time>
      </trkpt>
      <trkpt lat="45.76782" lon="4.83436">
        <ele>171</ele>
        <time>2012-04-07T16:26:16Z</time>
      </trkpt>
      <trkpt lat="45.76782" lon="4.83454">
        <ele>170</ele>
        <time>2012-04-07T16:26:19Z</time>
      </trkpt>
      <trkpt lat="45.76783" lon="4.83475">
        <ele>167</ele>
        <time>2012-04-07T16:26:22Z</time>
      </trkpt>
      <trkpt lat="45.76783" lon="4.83497">
        <ele>164</ele>
        <time>2012-04-07T16:26:25Z</time>
      </trkpt>
      <trkpt lat="45.76786" lon="4.83517">
        <ele>161</ele>
        <time>2012-04-07T16:26:28Z</time>
      </trkpt>
      <trkpt lat="45.76788" lon="4.83535">
        <ele>158</ele>
        <time>2012-04-07T16:26:31Z</time>
      </trkpt>
      <trkpt lat="45.7679" lon="4.83552">
        <ele>155</ele>
        <time>2012-04-07T16:26:34Z</time>
      </trkpt>
      <trkpt lat="45.76795" lon="4.83567">
        <ele>152</ele>
        <time>2012-04-07T16:26:37Z</time>
      </trkpt>
      <trkpt lat="45.76799" lon="4.83578">
        <ele>150</ele>
        <time>2012-04-07T16:26:40Z</time>
      </trkpt>
      <trkpt lat="45.76805" lon="4.83586">
        <ele>150</ele>
        <time>2012-04-07T16:26:43Z</time>
      </trkpt>
      <trkpt lat="45.76812" lon="4.83597">
        <ele>150</ele>
        <time>2012-04-07T16:26:46Z</time>
      </trkpt>
      <trkpt lat="45.76818" lon="4.83609">
        <ele>150</ele>
        <time>2012-04-07T16:26:49Z</time>
      </trkpt>
      <trkpt lat="45.76826" lon="4.83618">
        <ele>150</ele>
        <time>2012-04-07T16:26:52Z</time>
      </trkpt>
      <trkpt lat="45.76834" lon="4.83629">
        <ele>150</ele>
        <time>2012-04-07T16:26:55Z</time>
      </trkpt>
      <trkpt lat="45.7684" lon="4.83643">
        <ele>152</ele>
        <time>2012-04-07T16:26:58Z</time>
      </trkpt>
      <trkpt lat="45.76845" lon="4.83658">
        <ele>154</ele>
        <time>2012-04-07T16:27:01Z</time>
      </trkpt>
      <trkpt lat="45.76847" lon="4.83675">
        <ele>155</ele>
        <time>2012-04-07T16:27:04Z</time>
      </trkpt>
      <trkpt lat="45.76849" lon="4.83693">
        <ele>156</ele>
        <time>2012-04-07T16:27:07Z</time>
      </trkpt>
      <trkpt lat="45.7685" lon="4.83711">
        <ele>156</ele>
        <time>2012-04-07T16:27:10Z</time>
      </trkpt>
      <trkpt lat="45.76852" lon="4.83726">
        <ele>158</ele>
        <time>2012-04-07T16:27:13Z</time>
      </trkpt>
      <trkpt lat="45.76857" lon="4.83739">
        <ele>161</ele>
        <time>2012-04-07T16:27:16Z</time>
      </trkpt>
      <trkpt lat="45.7686" lon="4.83752">
        <ele>162</ele>
        <time>2012-04-07T16:27:19Z</time>
      </trkpt>
      <trkpt lat="45.76863" lon="4.83761">
        <ele>162</ele>
        <time>2012-04-07T16:27:22Z</time>
      </trkpt>
      <trkpt lat="45.76864" lon="4.83767">
        <ele>159</ele>
        <time>2012-04-07T16:27:25Z</time>
      </trkpt>
      <trkpt lat="45.76867" lon="4.83769">
        <ele>157</ele>
        <time>2012-04-07T16:27:28Z</time>
      </trkpt>
      <trkpt lat="45.76868" lon="4.83769">
        <ele>157</ele>
        <time>2012-04-07T16:27:33Z</time>
      </trkpt>
      <trkpt lat="45.76869" lon="4.83771">
        <ele>157</ele>
        <time>2012-04-07T16:27:42Z</time>
      </trkpt>
      <trkpt lat="45.76868" lon="4.83769">
        <ele>160</ele>
        <time>2012-04-07T16:27:54Z</time>
      </trkpt>
      <trkpt lat="45.76867" lon="4.8377">
        <ele>164</ele>
        <time>2012-04-07T16:28:01Z</time>
      </trkpt>
      <trkpt lat="45.76865" lon="4.83769">
        <ele>166</ele>
        <time>2012-04-07T16:28:09Z</time>
      </trkpt>
      <trkpt lat="45.76865" lon="4.83771">
        <ele>168</ele>
        <time>2012-04-07T16:28:14Z</time>
      </trkpt>
      <trkpt lat="45.76866" lon="4.83772">
        <ele>170</ele>
        <time>2012-04-07T16:28:22Z</time>
      </trkpt>
      <trkpt lat="45.76868" lon="4.83775">
        <ele>171</ele>
        <time>2012-04-07T16:28:25Z</time>
      </trkpt>
      <trkpt lat="45.76868" lon="4.83783">
        <ele>171</ele>
        <time>2012-04-07T16:28:28Z</time>
      </trkpt>
      <trkpt lat="45.76866" lon="4.83794">
        <ele>171</ele>
        <time>2012-04-07T16:28:31Z</time>
      </trkpt>
      <trkpt lat="45.76863" lon="4.83804">
        <ele>171</ele>
        <time>2012-04-07T16:28:34Z</time>
      </trkpt>
      <trkpt lat="45.7686" lon="4.83811">
        <ele>171</ele>
        <time>2012-04-07T16:28:37Z</time>
      </trkpt>
      <trkpt lat="45.76857" lon="4.83814">
        <ele>171</ele>
        <time>2012-04-07T16:28:41Z</time>
      </trkpt>
      <trkpt lat="45.76856" lon="4.83814">
        <ele>170</ele>
        <time>2012-04-07T16:28:44Z</time>
      </trkpt>
      <trkpt lat="45.76855" lon="4.83814">
        <ele>170</ele>
        <time>2012-04-07T16:28:49Z</time>
      </trkpt>
      <trkpt lat="45.76854" lon="4.83814">
        <ele>170</ele>
        <time>2012-04-07T16:29:02Z</time>
      </trkpt>
      <trkpt lat="45.76852" lon="4.83814">
        <ele>172</ele>
        <time>2012-04-07T16:29:12Z</time>
      </trkpt>
      <trkpt lat="45.76852" lon="4.83819">
        <ele>173</ele>
        <time>2012-04-07T16:29:15Z</time>
      </trkpt>
      <trkpt lat="45.76852" lon="4.8383">
        <ele>175</ele>
        <time>2012-04-07T16:29:18Z</time>
      </trkpt>
      <trkpt lat="45.76853" lon="4.83843">
        <ele>176</ele>
        <time>2012-04-07T16:29:21Z</time>
      </trkpt>
      <trkpt lat="45.76855" lon="4.83857">
        <ele>176</ele>
        <time>2012-04-07T16:29:24Z</time>
      </trkpt>
      <trkpt lat="45.76856" lon="4.83873">
        <ele>176</ele>
        <time>2012-04-07T16:29:27Z</time>
      </trkpt>
      <trkpt lat="45.76857" lon="4.83892">
        <ele>176</ele>
        <time>2012-04-07T16:29:30Z</time>
      </trkpt>
      <trkpt lat="45.76858" lon="4.83913">
        <ele>175</ele>
        <time>2012-04-07T16:29:33Z</time>
      </trkpt>
      <trkpt lat="45.76858" lon="4.83936">
        <ele>174</ele>
        <time>2012-04-07T16:29:36Z</time>
      </trkpt>
      <trkpt lat="45.76858" lon="4.83959">
        <ele>172</ele>
        <time>2012-04-07T16:29:39Z</time>
      </trkpt>
      <trkpt lat="45.76859" lon="4.83981">
        <ele>171</ele>
        <time>2012-04-07T16:29:42Z</time>
      </trkpt>
      <trkpt lat="45.76859" lon="4.84001">
        <ele>170</ele>
        <time>2012-04-07T16:29:45Z</time>
      </trkpt>
      <trkpt lat="45.7686" lon="4.84022">
        <ele>170</ele>
        <time>2012-04-07T16:29:48Z</time>
      </trkpt>
      <trkpt lat="45.7686" lon="4.84042">
        <ele>170</ele>
        <time>2012-04-07T16:29:51Z</time>
      </trkpt>
      <trkpt lat="45.7686" lon="4.84063">
        <ele>170</ele>
        <time>2012-04-07T16:29:54Z</time>
      </trkpt>
      <trkpt lat="45.7686" lon="4.84082">
        <ele>170</ele>
        <time>2012-04-07T16:29:57Z</time>
      </trkpt>
      <trkpt lat="45.7686" lon="4.84095">
        <ele>169</ele>
        <time>2012-04-07T16:30:00Z</time>
      </trkpt>
      <trkpt lat="45.76857" lon="4.84102">
        <ele>168</ele>
        <time>2012-04-07T16:30:03Z</time>
      </trkpt>
      <trkpt lat="45.76856" lon="4.84102">
        <ele>168</ele>
        <time>2012-04-07T16:30:11Z</time>
      </trkpt>
      <trkpt lat="45.76855" lon="4.84103">
        <ele>172</ele>
        <time>2012-04-07T16:30:27Z</time>
      </trkpt>
      <trkpt lat="45.76856" lon="4.84101">
        <ele>173</ele>
        <time>2012-04-07T16:30:41Z</time>
      </trkpt>
      <trkpt lat="45.76857" lon="4.841">
        <ele>173</ele>
        <time>2012-04-07T16:30:49Z</time>
      </trkpt>
      <trkpt lat="45.76856" lon="4.84099">
        <ele>170</ele>
        <time>2012-04-07T16:31:15Z</time>
      </trkpt>
      <trkpt lat="45.76856" lon="4.84101">
        <ele>170</ele>
        <time>2012-04-07T16:31:44Z</time>
      </trkpt>
      <trkpt lat="45.76855" lon="4.84102">
        <ele>170</ele>
        <time>2012-04-07T16:31:49Z</time>
      </trkpt>
      <trkpt lat="45.76857" lon="4.84101">
        <ele>172</ele>
        <time>2012-04-07T16:31:58Z</time>
      </trkpt>
      <trkpt lat="45.7686" lon="4.841">
        <ele>175</ele>
        <time>2012-04-07T16:32:02Z</time>
      </trkpt>
      <trkpt lat="45.76862" lon="4.84101">
        <ele>177</ele>
        <time>2012-04-07T16:32:06Z</time>
      </trkpt>
      <trkpt lat="45.76863" lon="4.84102">
        <ele>179</ele>
        <time>2012-04-07T16:32:10Z</time>
      </trkpt>
      <trkpt lat="45.76864" lon="4.84103">
        <ele>181</ele>
        <time>2012-04-07T16:32:16Z</time>
      </trkpt>
      <trkpt lat="45.76863" lon="4.84102">
        <ele>182</ele>
        <time>2012-04-07T16:32:24Z</time>
      </trkpt>
      <trkpt lat="45.76862" lon="4.84101">
        <ele>182</ele>
        <time>2012-04-07T16:32:27Z</time>
      </trkpt>
      <trkpt lat="45.76861" lon="4.84102">
        <ele>182</ele>
        <time>2012-04-07T16:32:30Z</time>
      </trkpt>
      <trkpt lat="45.7686" lon="4.84104">
        <ele>182</ele>
        <time>2012-04-07T16:32:35Z</time>
      </trkpt>
      <trkpt lat="45.76859" lon="4.84105">
        <ele>182</ele>
        <time>2012-04-07T16:32:43Z</time>
      </trkpt>
      <trkpt lat="45.76857" lon="4.84106">
        <ele>182</ele>
        <time>2012-04-07T16:32:49Z</time>
      </trkpt>
      <trkpt lat="45.76856" lon="4.84107">
        <ele>182</ele>
        <time>2012-04-07T16:32:56Z</time>
      </trkpt>
      <trkpt lat="45.76855" lon="4.84108">
        <ele>182</ele>
        <time>2012-04-07T16:33:06Z</time>
      </trkpt>
      <trkpt lat="45.76854" lon="4.84107">
        <ele>182</ele>
        <time>2012-04-07T16:33:20Z</time>
      </trkpt>
      <trkpt lat="45.76857" lon="4.84107">
        <ele>182</ele>
        <time>2012-04-07T16:33:28Z</time>
      </trkpt>
      <trkpt lat="45.76858" lon="4.84106">
        <ele>182</ele>
        <time>2012-04-07T16:33:36Z</time>
      </trkpt>
      <trkpt lat="45.76857" lon="4.84105">
        <ele>182</ele>
        <time>2012-04-07T16:33:41Z</time>
      </trkpt>
      <trkpt lat="45.76857" lon="4.84104">
        <ele>182</ele>
        <time>2012-04-07T16:33:46Z</time>
      </trkpt>
      <trkpt lat="45.76858" lon="4.84106">
        <ele>182</ele>
        <time>2012-04-07T16:33:49Z</time>
      </trkpt>
      <trkpt lat="45.76859" lon="4.84108">
        <ele>182</ele>
        <time>2012-04-07T16:33:52Z</time>
      </trkpt>
      <trkpt lat="45.7686" lon="4.84108">
        <ele>186</ele>
        <time>2012-04-07T16:33:56Z</time>
      </trkpt>
      <trkpt lat="45.7686" lon="4.84105">
        <ele>188</ele>
        <time>2012-04-07T16:34:00Z</time>
      </trkpt>
      <trkpt lat="45.76858" lon="4.84103">
        <ele>188</ele>
        <time>2012-04-07T16:34:03Z</time>
      </trkpt>
      <trkpt lat="45.76857" lon="4.84103">
        <ele>187</ele>
        <time>2012-04-07T16:34:06Z</time>
      </trkpt>
      <trkpt lat="45.76856" lon="4.84101">
        <ele>182</ele>
        <time>2012-04-07T16:34:14Z</time>
      </trkpt>
      <trkpt lat="45.76857" lon="4.84099">
        <ele>181</ele>
        <time>2012-04-07T16:34:17Z</time>
      </trkpt>
      <trkpt lat="45.76858" lon="4.84098">
        <ele>179</ele>
        <time>2012-04-07T16:34:20Z</time>
      </trkpt>
      <trkpt lat="45.76859" lon="4.84096">
        <ele>178</ele>
        <time>2012-04-07T16:34:37Z</time>
      </trkpt>
      <trkpt lat="45.76858" lon="4.84096">
        <ele>178</ele>
        <time>2012-04-07T16:34:45Z</time>
      </trkpt>
      <trkpt lat="45.76857" lon="4.84096">
        <ele>175</ele>
        <time>2012-04-07T16:34:52Z</time>
      </trkpt>
      <trkpt lat="45.76858" lon="4.84096">
        <ele>174</ele>
        <time>2012-04-07T16:35:01Z</time>
      </trkpt>
      <trkpt lat="45.76857" lon="4.84098">
        <ele>174</ele>
        <time>2012-04-07T16:35:10Z</time>
      </trkpt>
      <trkpt lat="45.76857" lon="4.84101">
        <ele>174</ele>
        <time>2012-04-07T16:35:17Z</time>
      </trkpt>
      <trkpt lat="45.76855" lon="4.84102">
        <ele>175</ele>
        <time>2012-04-07T16:35:27Z</time>
      </trkpt>
      <trkpt lat="45.76854" lon="4.84101">
        <ele>175</ele>
        <time>2012-04-07T16:35:30Z</time>
      </trkpt>
      <trkpt lat="45.76851" lon="4.841">
        <ele>170</ele>
        <time>2012-04-07T16:35:36Z</time>
      </trkpt>
      <trkpt lat="45.7685" lon="4.84101">
        <ele>167</ele>
        <time>2012-04-07T16:35:43Z</time>
      </trkpt>
      <trkpt lat="45.76849" lon="4.84102">
        <ele>167</ele>
        <time>2012-04-07T16:35:51Z</time>
      </trkpt>
      <trkpt lat="45.76851" lon="4.84101">
        <ele>167</ele>
        <time>2012-04-07T16:35:56Z</time>
      </trkpt>
      <trkpt lat="45.7685" lon="4.84103">
        <ele>167</ele>
        <time>2012-04-07T16:36:09Z</time>
      </trkpt>
      <trkpt lat="45.76848" lon="4.84104">
        <ele>167</ele>
        <time>2012-04-07T16:36:12Z</time>
      </trkpt>
      <trkpt lat="45.76849" lon="4.84106">
        <ele>167</ele>
        <time>2012-04-07T16:36:22Z</time>
      </trkpt>
      <trkpt lat="45.7685" lon="4.84104">
        <ele>167</ele>
        <time>2012-04-07T16:36:33Z</time>
      </trkpt>
      <trkpt lat="45.7685" lon="4.84103">
        <ele>167</ele>
        <time>2012-04-07T16:36:40Z</time>
      </trkpt>
      <trkpt lat="45.7685" lon="4.84101">
        <ele>166</ele>
        <time>2012-04-07T16:36:53Z</time>
      </trkpt>
      <trkpt lat="45.7685" lon="4.84103">
        <ele>166</ele>
        <time>2012-04-07T16:37:05Z</time>
      </trkpt>
      <trkpt lat="45.76851" lon="4.84103">
        <ele>166</ele>
        <time>2012-04-07T16:37:28Z</time>
      </trkpt>
      <trkpt lat="45.76852" lon="4.84102">
        <ele>166</ele>
        <time>2012-04-07T16:37:33Z</time>
      </trkpt>
      <trkpt lat="45.76853" lon="4.841">
        <ele>166</ele>
        <time>2012-04-07T16:37:38Z</time>
      </trkpt>
      <trkpt lat="45.76853" lon="4.84098">
        <ele>166</ele>
        <time>2012-04-07T16:37:51Z</time>
      </trkpt>
      <trkpt lat="45.76852" lon="4.84099">
        <ele>166</ele>
        <time>2012-04-07T16:38:09Z</time>
      </trkpt>
      <trkpt lat="45.76851" lon="4.841">
        <ele>166</ele>
        <time>2012-04-07T16:38:18Z</time>
      </trkpt>
      <trkpt lat="45.76852" lon="4.84099">
        <ele>166</ele>
        <time>2012-04-07T16:38:28Z</time>
      </trkpt>
      <trkpt lat="45.76851" lon="4.841">
        <ele>166</ele>
        <time>2012-04-07T16:38:34Z</time>
      </trkpt>
      <trkpt lat="45.76851" lon="4.84101">
        <ele>166</ele>
        <time>2012-04-07T16:38:40Z</time>
      </trkpt>
      <trkpt lat="45.76849" lon="4.84101">
        <ele>166</ele>
        <time>2012-04-07T16:38:46Z</time>
      </trkpt>
      <trkpt lat="45.76848" lon="4.84103">
        <ele>167</ele>
        <time>2012-04-07T16:38:51Z</time>
      </trkpt>
      <trkpt lat="45.76848" lon="4.84105">
        <ele>167</ele>
        <time>2012-04-07T16:39:03Z</time>
      </trkpt>
      <trkpt lat="45.76849" lon="4.84104">
        <ele>166</ele>
        <time>2012-04-07T16:39:38Z</time>
      </trkpt>
      <trkpt lat="45.76849" lon="4.84102">
        <ele>166</ele>
        <time>2012-04-07T16:39:53Z</time>
      </trkpt>
      <trkpt lat="45.7685" lon="4.84099">
        <ele>166</ele>
        <time>2012-04-07T16:39:56Z</time>
      </trkpt>
      <trkpt lat="45.76851" lon="4.84096">
        <ele>167</ele>
        <time>2012-04-07T16:40:01Z</time>
      </trkpt>
      <trkpt lat="45.76854" lon="4.84093">
        <ele>168</ele>
        <time>2012-04-07T16:40:06Z</time>
      </trkpt>
      <trkpt lat="45.76855" lon="4.84091">
        <ele>168</ele>
        <time>2012-04-07T16:40:10Z</time>
      </trkpt>
      <trkpt lat="45.76856" lon="4.8409">
        <ele>168</ele>
        <time>2012-04-07T16:40:15Z</time>
      </trkpt>
      <trkpt lat="45.76855" lon="4.84091">
        <ele>172</ele>
        <time>2012-04-07T16:40:24Z</time>
      </trkpt>
      <trkpt lat="45.76856" lon="4.84091">
        <ele>174</ele>
        <time>2012-04-07T16:40:29Z</time>
      </trkpt>
      <trkpt lat="45.76857" lon="4.84091">
        <ele>175</ele>
        <time>2012-04-07T16:40:35Z</time>
      </trkpt>
      <trkpt lat="45.76857" lon="4.84093">
        <ele>175</ele>
        <time>2012-04-07T16:40:41Z</time>
      </trkpt>
      <trkpt lat="45.76855" lon="4.84093">
        <ele>175</ele>
        <time>2012-04-07T16:40:45Z</time>
      </trkpt>
      <trkpt lat="45.76854" lon="4.84095">
        <ele>176</ele>
        <time>2012-04-07T16:40:53Z</time>
      </trkpt>
      <trkpt lat="45.76853" lon="4.84098">
        <ele>178</ele>
        <time>2012-04-07T16:40:56Z</time>
      </trkpt>
      <trkpt lat="45.76852" lon="4.84101">
        <ele>181</ele>
        <time>2012-04-07T16:41:05Z</time>
      </trkpt>
      <trkpt lat="45.76853" lon="4.84101">
        <ele>181</ele>
        <time>2012-04-07T16:41:09Z</time>
      </trkpt>
      <trkpt lat="45.76854" lon="4.841">
        <ele>181</ele>
        <time>2012-04-07T16:41:29Z</time>
      </trkpt>
      <trkpt lat="45.76853" lon="4.841">
        <ele>179</ele>
        <time>2012-04-07T16:41:45Z</time>
      </trkpt>
      <trkpt lat="45.76852" lon="4.841">
        <ele>179</ele>
        <time>2012-04-07T16:41:53Z</time>
      </trkpt>
      <trkpt lat="45.76851" lon="4.84101">
        <ele>179</ele>
        <time>2012-04-07T16:42:02Z</time>
      </trkpt>
      <trkpt lat="45.76851" lon="4.84103">
        <ele>178</ele>
        <time>2012-04-07T16:43:17Z</time>
      </trkpt>
      <trkpt lat="45.7685" lon="4.84104">
        <ele>176</ele>
        <time>2012-04-07T16:43:51Z</time>
      </trkpt>
      <trkpt lat="45.76849" lon="4.84105">
        <ele>171</ele>
        <time>2012-04-07T16:44:03Z</time>
      </trkpt>
      <trkpt lat="45.76847" lon="4.84107">
        <ele>171</ele>
        <time>2012-04-07T16:44:12Z</time>
      </trkpt>
      <trkpt lat="45.76846" lon="4.84108">
        <ele>173</ele>
        <time>2012-04-07T16:44:17Z</time>
      </trkpt>
      <trkpt lat="45.76845" lon="4.84108">
        <ele>174</ele>
        <time>2012-04-07T16:44:21Z</time>
      </trkpt>
      <trkpt lat="45.76843" lon="4.84109">
        <ele>175</ele>
        <time>2012-04-07T16:44:26Z</time>
      </trkpt>
      <trkpt lat="45.76842" lon="4.8411">
        <ele>177</ele>
        <time>2012-04-07T16:44:33Z</time>
      </trkpt>
      <trkpt lat="45.76843" lon="4.8411">
        <ele>178</ele>
        <time>2012-04-07T16:44:40Z</time>
      </trkpt>
      <trkpt lat="45.76846" lon="4.8411">
        <ele>178</ele>
        <time>2012-04-07T16:44:46Z</time>
      </trkpt>
      <trkpt lat="45.76845" lon="4.84112">
        <ele>178</ele>
        <time>2012-04-07T16:45:04Z</time>
      </trkpt>
      <trkpt lat="45.76845" lon="4.8411">
        <ele>178</ele>
        <time>2012-04-07T16:45:13Z</time>
      </trkpt>
      <trkpt lat="45.76846" lon="4.84108">
        <ele>178</ele>
        <time>2012-04-07T16:45:17Z</time>
      </trkpt>
      <trkpt lat="45.76847" lon="4.84108">
        <ele>178</ele>
        <time>2012-04-07T16:45:26Z</time>
      </trkpt>
      <trkpt lat="45.76846" lon="4.8411">
        <ele>178</ele>
        <time>2012-04-07T16:45:32Z</time>
      </trkpt>
      <trkpt lat="45.76846" lon="4.84108">
        <ele>179</ele>
        <time>2012-04-07T16:45:41Z</time>
      </trkpt>
      <trkpt lat="45.76847" lon="4.84106">
        <ele>180</ele>
        <time>2012-04-07T16:45:46Z</time>
      </trkpt>
      <trkpt lat="45.76852" lon="4.84102">
        <ele>180</ele>
        <time>2012-04-07T16:45:50Z</time>
      </trkpt>
      <trkpt lat="45.76854" lon="4.841">
        <ele>180</ele>
        <time>2012-04-07T16:45:54Z</time>
      </trkpt>
      <trkpt lat="45.76856" lon="4.841">
        <ele>179</ele>
        <time>2012-04-07T16:45:57Z</time>
      </trkpt>
      <trkpt lat="45.76857" lon="4.84098">
        <ele>177</ele>
        <time>2012-04-07T16:46:05Z</time>
      </trkpt>
      <trkpt lat="45.76858" lon="4.84099">
        <ele>177</ele>
        <time>2012-04-07T16:46:12Z</time>
      </trkpt>
      <trkpt lat="45.76857" lon="4.84097">
        <ele>177</ele>
        <time>2012-04-07T16:46:18Z</time>
      </trkpt>
      <trkpt lat="45.76856" lon="4.84096">
        <ele>177</ele>
        <time>2012-04-07T16:46:26Z</time>
      </trkpt>
      <trkpt lat="45.76857" lon="4.84097">
        <ele>177</ele>
        <time>2012-04-07T16:46:39Z</time>
      </trkpt>
      <trkpt lat="45.76856" lon="4.84097">
        <ele>177</ele>
        <time>2012-04-07T16:46:55Z</time>
      </trkpt>
      <trkpt lat="45.76857" lon="4.84095">
        <ele>177</ele>
        <time>2012-04-07T16:47:08Z</time>
      </trkpt>
      <trkpt lat="45.76857" lon="4.84094">
        <ele>176</ele>
        <time>2012-04-07T16:47:12Z</time>
      </trkpt>
      <trkpt lat="45.76857" lon="4.84092">
        <ele>175</ele>
        <time>2012-04-07T16:47:21Z</time>
      </trkpt>
      <trkpt lat="45.76857" lon="4.84094">
        <ele>173</ele>
        <time>2012-04-07T16:47:28Z</time>
      </trkpt>
      <trkpt lat="45.76856" lon="4.84095">
        <ele>170</ele>
        <time>2012-04-07T16:47:33Z</time>
      </trkpt>
      <trkpt lat="45.76855" lon="4.84097">
        <ele>168</ele>
        <time>2012-04-07T16:47:39Z</time>
      </trkpt>
      <trkpt lat="45.76855" lon="4.84096">
        <ele>168</ele>
        <time>2012-04-07T16:47:54Z</time>
      </trkpt>
      <trkpt lat="45.76854" lon="4.84094">
        <ele>169</ele>
        <time>2012-04-07T16:47:59Z</time>
      </trkpt>
      <trkpt lat="45.76852" lon="4.84094">
        <ele>174</ele>
        <time>2012-04-07T16:48:04Z</time>
      </trkpt>
      <trkpt lat="45.76853" lon="4.84095">
        <ele>177</ele>
        <time>2012-04-07T16:48:07Z</time>
      </trkpt>
      <trkpt lat="45.76852" lon="4.84096">
        <ele>182</ele>
        <time>2012-04-07T16:48:21Z</time>
      </trkpt>
      <trkpt lat="45.76853" lon="4.84097">
        <ele>183</ele>
        <time>2012-04-07T16:48:28Z</time>
      </trkpt>
      <trkpt lat="45.76854" lon="4.84097">
        <ele>183</ele>
        <time>2012-04-07T16:48:39Z</time>
      </trkpt>
      <trkpt lat="45.76855" lon="4.84098">
        <ele>181</ele>
        <time>2012-04-07T16:48:50Z</time>
      </trkpt>
      <trkpt lat="45.76855" lon="4.84096">
        <ele>179</ele>
        <time>2012-04-07T16:49:04Z</time>
      </trkpt>
      <trkpt lat="45.76857" lon="4.84098">
        <ele>179</ele>
        <time>2012-04-07T16:49:16Z</time>
      </trkpt>
      <trkpt lat="45.76857" lon="4.84096">
        <ele>178</ele>
        <time>2012-04-07T16:49:33Z</time>
      </trkpt>
      <trkpt lat="45.76856" lon="4.84096">
        <ele>178</ele>
        <time>2012-04-07T16:49:47Z</time>
      </trkpt>
      <trkpt lat="45.76856" lon="4.84097">
        <ele>177</ele>
        <time>2012-04-07T16:50:16Z</time>
      </trkpt>
      <trkpt lat="45.76854" lon="4.84098">
        <ele>177</ele>
        <time>2012-04-07T16:50:30Z</time>
      </trkpt>
      <trkpt lat="45.76855" lon="4.841">
        <ele>177</ele>
        <time>2012-04-07T16:50:35Z</time>
      </trkpt>
      <trkpt lat="45.76855" lon="4.84101">
        <ele>177</ele>
        <time>2012-04-07T16:50:43Z</time>
      </trkpt>
      <trkpt lat="45.76854" lon="4.84103">
        <ele>177</ele>
        <time>2012-04-07T16:50:46Z</time>
      </trkpt>
      <trkpt lat="45.76856" lon="4.84101">
        <ele>173</ele>
        <time>2012-04-07T16:50:50Z</time>
      </trkpt>
      <trkpt lat="45.76854" lon="4.84101">
        <ele>163</ele>
        <time>2012-04-07T16:51:09Z</time>
      </trkpt>
      <trkpt lat="45.76852" lon="4.84097">
        <ele>163</ele>
        <time>2012-04-07T16:51:14Z</time>
      </trkpt>
      <trkpt lat="45.76854" lon="4.84097">
        <ele>163</ele>
        <time>2012-04-07T16:51:19Z</time>
      </trkpt>
      <trkpt lat="45.7686" lon="4.84098">
        <ele>163</ele>
        <time>2012-04-07T16:51:22Z</time>
      </trkpt>
      <trkpt lat="45.7687" lon="4.84097">
        <ele>163</ele>
        <time>2012-04-07T16:51:25Z</time>
      </trkpt>
      <trkpt lat="45.76883" lon="4.84096">
        <ele>163</ele>
        <time>2012-04-07T16:51:28Z</time>
      </trkpt>
      <trkpt lat="45.76898" lon="4.84094">
        <ele>163</ele>
        <time>2012-04-07T16:51:31Z</time>
      </trkpt>
      <trkpt lat="45.76912" lon="4.84092">
        <ele>163</ele>
        <time>2012-04-07T16:51:34Z</time>
      </trkpt>
      <trkpt lat="45.76922" lon="4.8409">
        <ele>163</ele>
        <time>2012-04-07T16:51:37Z</time>
      </trkpt>
      <trkpt lat="45.76928" lon="4.84088">
        <ele>163</ele>
        <time>2012-04-07T16:51:40Z</time>
      </trkpt>
      <trkpt lat="45.76936" lon="4.84085">
        <ele>165</ele>
        <time>2012-04-07T16:51:43Z</time>
      </trkpt>
      <trkpt lat="45.76946" lon="4.84084">
        <ele>167</ele>
        <time>2012-04-07T16:51:46Z</time>
      </trkpt>
      <trkpt lat="45.76957" lon="4.84082">
        <ele>169</ele>
        <time>2012-04-07T16:51:49Z</time>
      </trkpt>
      <trkpt lat="45.76968" lon="4.84079">
        <ele>169</ele>
        <time>2012-04-07T16:51:52Z</time>
      </trkpt>
      <trkpt lat="45.76979" lon="4.84077">
        <ele>169</ele>
        <time>2012-04-07T16:51:55Z</time>
      </trkpt>
      <trkpt lat="45.76991" lon="4.84074">
        <ele>169</ele>
        <time>2012-04-07T16:51:58Z</time>
      </trkpt>
      <trkpt lat="45.77004" lon="4.84073">
        <ele>169</ele>
        <time>2012-04-07T16:52:01Z</time>
      </trkpt>
      <trkpt lat="45.77015" lon="4.84072">
        <ele>169</ele>
        <time>2012-04-07T16:52:04Z</time>
      </trkpt>
      <trkpt lat="45.77027" lon="4.84072">
        <ele>169</ele>
        <time>2012-04-07T16:52:07Z</time>
      </trkpt>
      <trkpt lat="45.77039" lon="4.84074">
        <ele>170</ele>
        <time>2012-04-07T16:52:10Z</time>
      </trkpt>
      <trkpt lat="45.77051" lon="4.84073">
        <ele>171</ele>
        <time>2012-04-07T16:52:13Z</time>
      </trkpt>
      <trkpt lat="45.77063" lon="4.84073">
        <ele>172</ele>
        <time>2012-04-07T16:52:16Z</time>
      </trkpt>
      <trkpt lat="45.77075" lon="4.84075">
        <ele>172</ele>
        <time>2012-04-07T16:52:19Z</time>
      </trkpt>
      <trkpt lat="45.77088" lon="4.84073">
        <ele>172</ele>
        <time>2012-04-07T16:52:22Z</time>
      </trkpt>
      <trkpt lat="45.77102" lon="4.84072">
        <ele>172</ele>
        <time>2012-04-07T16:52:25Z</time>
      </trkpt>
      <trkpt lat="45.77118" lon="4.84076">
        <ele>172</ele>
        <time>2012-04-07T16:52:28Z</time>
      </trkpt>
      <trkpt lat="45.77134" lon="4.84076">
        <ele>172</ele>
        <time>2012-04-07T16:52:31Z</time>
      </trkpt>
      <trkpt lat="45.77146" lon="4.84075">
        <ele>172</ele>
        <time>2012-04-07T16:52:34Z</time>
      </trkpt>
      <trkpt lat="45.77159" lon="4.84076">
        <ele>172</ele>
        <time>2012-04-07T16:52:37Z</time>
      </trkpt>
      <trkpt lat="45.77176" lon="4.84073">
        <ele>169</ele>
        <time>2012-04-07T16:52:40Z</time>
      </trkpt>
      <trkpt lat="45.77197" lon="4.84069">
        <ele>166</ele>
        <time>2012-04-07T16:52:43Z</time>
      </trkpt>
      <trkpt lat="45.77218" lon="4.8407">
        <ele>166</ele>
        <time>2012-04-07T16:52:46Z</time>
      </trkpt>
      <trkpt lat="45.77257" lon="4.84083">
        <ele>166</ele>
        <time>2012-04-07T16:52:53Z</time>
      </trkpt>
      <trkpt lat="45.77272" lon="4.84087">
        <ele>166</ele>
        <time>2012-04-07T16:52:56Z</time>
      </trkpt>
      <trkpt lat="45.77285" lon="4.84091">
        <ele>166</ele>
        <time>2012-04-07T16:52:59Z</time>
      </trkpt>
      <trkpt lat="45.77296" lon="4.84099">
        <ele>166</ele>
        <time>2012-04-07T16:53:02Z</time>
      </trkpt>
      <trkpt lat="45.77308" lon="4.84107">
        <ele>166</ele>
        <time>2012-04-07T16:53:05Z</time>
      </trkpt>
      <trkpt lat="45.7732" lon="4.84115">
        <ele>166</ele>
        <time>2012-04-07T16:53:08Z</time>
      </trkpt>
      <trkpt lat="45.77331" lon="4.84123">
        <ele>167</ele>
        <time>2012-04-07T16:53:11Z</time>
      </trkpt>
      <trkpt lat="45.77342" lon="4.84133">
        <ele>168</ele>
        <time>2012-04-07T16:53:14Z</time>
      </trkpt>
      <trkpt lat="45.77353" lon="4.84144">
        <ele>168</ele>
        <time>2012-04-07T16:53:17Z</time>
      </trkpt>
      <trkpt lat="45.77365" lon="4.84155">
        <ele>169</ele>
        <time>2012-04-07T16:53:20Z</time>
      </trkpt>
      <trkpt lat="45.77377" lon="4.84165">
        <ele>169</ele>
        <time>2012-04-07T16:53:23Z</time>
      </trkpt>
      <trkpt lat="45.77397" lon="4.84179">
        <ele>169</ele>
        <time>2012-04-07T16:53:27Z</time>
      </trkpt>
      <trkpt lat="45.77411" lon="4.84189">
        <ele>169</ele>
        <time>2012-04-07T16:53:30Z</time>
      </trkpt>
      <trkpt lat="45.77427" lon="4.84198">
        <ele>169</ele>
        <time>2012-04-07T16:53:33Z</time>
      </trkpt>
      <trkpt lat="45.77443" lon="4.84206">
        <ele>169</ele>
        <time>2012-04-07T16:53:36Z</time>
      </trkpt>
      <trkpt lat="45.77455" lon="4.84216">
        <ele>169</ele>
        <time>2012-04-07T16:53:39Z</time>
      </trkpt>
      <trkpt lat="45.77467" lon="4.84226">
        <ele>169</ele>
        <time>2012-04-07T16:53:42Z</time>
      </trkpt>
      <trkpt lat="45.77478" lon="4.84234">
        <ele>169</ele>
        <time>2012-04-07T16:53:45Z</time>
      </trkpt>
      <trkpt lat="45.7749" lon="4.84243">
        <ele>169</ele>
        <time>2012-04-07T16:53:48Z</time>
      </trkpt>
      <trkpt lat="45.77504" lon="4.84253">
        <ele>169</ele>
        <time>2012-04-07T16:53:51Z</time>
      </trkpt>
      <trkpt lat="45.77515" lon="4.84263">
        <ele>169</ele>
        <time>2012-04-07T16:53:54Z</time>
      </trkpt>
      <trkpt lat="45.7753" lon="4.84272">
        <ele>169</ele>
        <time>2012-04-07T16:53:57Z</time>
      </trkpt>
      <trkpt lat="45.77539" lon="4.84283">
        <ele>169</ele>
        <time>2012-04-07T16:54:00Z</time>
      </trkpt>
      <trkpt lat="45.77553" lon="4.84291">
        <ele>169</ele>
        <time>2012-04-07T16:54:03Z</time>
      </trkpt>
      <trkpt lat="45.77566" lon="4.84301">
        <ele>169</ele>
        <time>2012-04-07T16:54:06Z</time>
      </trkpt>
      <trkpt lat="45.77578" lon="4.84311">
        <ele>169</ele>
        <time>2012-04-07T16:54:09Z</time>
      </trkpt>
      <trkpt lat="45.77584" lon="4.84319">
        <ele>169</ele>
        <time>2012-04-07T16:54:12Z</time>
      </trkpt>
      <trkpt lat="45.77593" lon="4.84325">
        <ele>171</ele>
        <time>2012-04-07T16:54:15Z</time>
      </trkpt>
      <trkpt lat="45.77604" lon="4.84332">
        <ele>172</ele>
        <time>2012-04-07T16:54:18Z</time>
      </trkpt>
      <trkpt lat="45.77616" lon="4.84339">
        <ele>173</ele>
        <time>2012-04-07T16:54:21Z</time>
      </trkpt>
      <trkpt lat="45.77628" lon="4.84347">
        <ele>173</ele>
        <time>2012-04-07T16:54:24Z</time>
      </trkpt>
      <trkpt lat="45.77636" lon="4.84354">
        <ele>173</ele>
        <time>2012-04-07T16:54:27Z</time>
      </trkpt>
      <trkpt lat="45.77643" lon="4.84361">
        <ele>175</ele>
        <time>2012-04-07T16:54:30Z</time>
      </trkpt>
      <trkpt lat="45.7765" lon="4.84366">
        <ele>176</ele>
        <time>2012-04-07T16:54:33Z</time>
      </trkpt>
      <trkpt lat="45.77658" lon="4.84372">
        <ele>176</ele>
        <time>2012-04-07T16:54:36Z</time>
      </trkpt>
      <trkpt lat="45.77664" lon="4.84383">
        <ele>176</ele>
        <time>2012-04-07T16:54:39Z</time>
      </trkpt>
      <trkpt lat="45.77662" lon="4.84395">
        <ele>176</ele>
        <time>2012-04-07T16:54:42Z</time>
      </trkpt>
      <trkpt lat="45.77659" lon="4.84402">
        <ele>174</ele>
        <time>2012-04-07T16:54:45Z</time>
      </trkpt>
      <trkpt lat="45.77657" lon="4.84411">
        <ele>172</ele>
        <time>2012-04-07T16:54:48Z</time>
      </trkpt>
      <trkpt lat="45.77665" lon="4.84416">
        <ele>170</ele>
        <time>2012-04-07T16:54:51Z</time>
      </trkpt>
      <trkpt lat="45.7767" lon="4.8442">
        <ele>168</ele>
        <time>2012-04-07T16:54:59Z</time>
      </trkpt>
      <trkpt lat="45.77672" lon="4.84421">
        <ele>167</ele>
        <time>2012-04-07T16:55:02Z</time>
      </trkpt>
      <trkpt lat="45.77677" lon="4.84425">
        <ele>167</ele>
        <time>2012-04-07T16:55:05Z</time>
      </trkpt>
      <trkpt lat="45.7768" lon="4.8443">
        <ele>167</ele>
        <time>2012-04-07T16:55:08Z</time>
      </trkpt>
      <trkpt lat="45.77686" lon="4.84435">
        <ele>167</ele>
        <time>2012-04-07T16:55:11Z</time>
      </trkpt>
      <trkpt lat="45.77695" lon="4.84445">
        <ele>167</ele>
        <time>2012-04-07T16:55:14Z</time>
      </trkpt>
      <trkpt lat="45.77702" lon="4.84457">
        <ele>167</ele>
        <time>2012-04-07T16:55:17Z</time>
      </trkpt>
      <trkpt lat="45.77706" lon="4.84471">
        <ele>167</ele>
        <time>2012-04-07T16:55:20Z</time>
      </trkpt>
      <trkpt lat="45.77711" lon="4.84485">
        <ele>167</ele>
        <time>2012-04-07T16:55:23Z</time>
      </trkpt>
      <trkpt lat="45.77718" lon="4.84498">
        <ele>167</ele>
        <time>2012-04-07T16:55:26Z</time>
      </trkpt>
      <trkpt lat="45.77717" lon="4.84509">
        <ele>167</ele>
        <time>2012-04-07T16:55:29Z</time>
      </trkpt>
      <trkpt lat="45.77715" lon="4.84518">
        <ele>167</ele>
        <time>2012-04-07T16:55:32Z</time>
      </trkpt>
      <trkpt lat="45.77714" lon="4.84528">
        <ele>166</ele>
        <time>2012-04-07T16:55:35Z</time>
      </trkpt>
      <trkpt lat="45.77714" lon="4.84543">
        <ele>163</ele>
        <time>2012-04-07T16:55:38Z</time>
      </trkpt>
      <trkpt lat="45.77718" lon="4.84559">
        <ele>163</ele>
        <time>2012-04-07T16:55:41Z</time>
      </trkpt>
      <trkpt lat="45.77721" lon="4.84579">
        <ele>163</ele>
        <time>2012-04-07T16:55:44Z</time>
      </trkpt>
      <trkpt lat="45.77723" lon="4.846">
        <ele>163</ele>
        <time>2012-04-07T16:55:47Z</time>
      </trkpt>
      <trkpt lat="45.77725" lon="4.84623">
        <ele>163</ele>
        <time>2012-04-07T16:55:50Z</time>
      </trkpt>
      <trkpt lat="45.77727" lon="4.84647">
        <ele>163</ele>
        <time>2012-04-07T16:55:53Z</time>
      </trkpt>
      <trkpt lat="45.77731" lon="4.84672">
        <ele>164</ele>
        <time>2012-04-07T16:55:56Z</time>
      </trkpt>
      <trkpt lat="45.77734" lon="4.84696">
        <ele>164</ele>
        <time>2012-04-07T16:55:59Z</time>
      </trkpt>
      <trkpt lat="45.77736" lon="4.84722">
        <ele>165</ele>
        <time>2012-04-07T16:56:02Z</time>
      </trkpt>
      <trkpt lat="45.77738" lon="4.84746">
        <ele>165</ele>
        <time>2012-04-07T16:56:05Z</time>
      </trkpt>
      <trkpt lat="45.77739" lon="4.8477">
        <ele>165</ele>
        <time>2012-04-07T16:56:08Z</time>
      </trkpt>
      <trkpt lat="45.77741" lon="4.84792">
        <ele>165</ele>
        <time>2012-04-07T16:56:11Z</time>
      </trkpt>
      <trkpt lat="45.77743" lon="4.84813">
        <ele>165</ele>
        <time>2012-04-07T16:56:14Z</time>
      </trkpt>
      <trkpt lat="45.77746" lon="4.84834">
        <ele>165</ele>
        <time>2012-04-07T16:56:17Z</time>
      </trkpt>
      <trkpt lat="45.77747" lon="4.84856">
        <ele>165</ele>
        <time>2012-04-07T16:56:20Z</time>
      </trkpt>
      <trkpt lat="45.7775" lon="4.84881">
        <ele>165</ele>
        <time>2012-04-07T16:56:23Z</time>
      </trkpt>
      <trkpt lat="45.77754" lon="4.84906">
        <ele>165</ele>
        <time>2012-04-07T16:56:26Z</time>
      </trkpt>
      <trkpt lat="45.77758" lon="4.8493">
        <ele>165</ele>
        <time>2012-04-07T16:56:29Z</time>
      </trkpt>
      <trkpt lat="45.77762" lon="4.84953">
        <ele>165</ele>
        <time>2012-04-07T16:56:32Z</time>
      </trkpt>
      <trkpt lat="45.77765" lon="4.84978">
        <ele>165</ele>
        <time>2012-04-07T16:56:35Z</time>
      </trkpt>
      <trkpt lat="45.77768" lon="4.85002">
        <ele>165</ele>
        <time>2012-04-07T16:56:38Z</time>
      </trkpt>
      <trkpt lat="45.77768" lon="4.85027">
        <ele>165</ele>
        <time>2012-04-07T16:56:41Z</time>
      </trkpt>
      <trkpt lat="45.77771" lon="4.8505">
        <ele>165</ele>
        <time>2012-04-07T16:56:44Z</time>
      </trkpt>
      <trkpt lat="45.77774" lon="4.8507">
        <ele>165</ele>
        <time>2012-04-07T16:56:47Z</time>
      </trkpt>
      <trkpt lat="45.77775" lon="4.85092">
        <ele>165</ele>
        <time>2012-04-07T16:56:50Z</time>
      </trkpt>
      <trkpt lat="45.77777" lon="4.85128">
        <ele>165</ele>
        <time>2012-04-07T16:56:55Z</time>
      </trkpt>
      <trkpt lat="45.77774" lon="4.85165">
        <ele>165</ele>
        <time>2012-04-07T16:56:59Z</time>
      </trkpt>
      <trkpt lat="45.77774" lon="4.85196">
        <ele>165</ele>
        <time>2012-04-07T16:57:02Z</time>
      </trkpt>
      <trkpt lat="45.77774" lon="4.85219">
        <ele>165</ele>
        <time>2012-04-07T16:57:05Z</time>
      </trkpt>
      <trkpt lat="45.77774" lon="4.85243">
        <ele>165</ele>
        <time>2012-04-07T16:57:08Z</time>
      </trkpt>
      <trkpt lat="45.77775" lon="4.85262">
        <ele>164</ele>
        <time>2012-04-07T16:57:11Z</time>
      </trkpt>
      <trkpt lat="45.77781" lon="4.85299">
        <ele>164</ele>
        <time>2012-04-07T16:57:17Z</time>
      </trkpt>
      <trkpt lat="45.77783" lon="4.85333">
        <ele>164</ele>
        <time>2012-04-07T16:57:20Z</time>
      </trkpt>
      <trkpt lat="45.77789" lon="4.85355">
        <ele>164</ele>
        <time>2012-04-07T16:57:23Z</time>
      </trkpt>
      <trkpt lat="45.77793" lon="4.85379">
        <ele>164</ele>
        <time>2012-04-07T16:57:26Z</time>
      </trkpt>
      <trkpt lat="45.77795" lon="4.854">
        <ele>163</ele>
        <time>2012-04-07T16:57:29Z</time>
      </trkpt>
      <trkpt lat="45.778" lon="4.85424">
        <ele>161</ele>
        <time>2012-04-07T16:57:32Z</time>
      </trkpt>
      <trkpt lat="45.77802" lon="4.85451">
        <ele>161</ele>
        <time>2012-04-07T16:57:35Z</time>
      </trkpt>
      <trkpt lat="45.77807" lon="4.85476">
        <ele>161</ele>
        <time>2012-04-07T16:57:38Z</time>
      </trkpt>
      <trkpt lat="45.77812" lon="4.855">
        <ele>160</ele>
        <time>2012-04-07T16:57:41Z</time>
      </trkpt>
      <trkpt lat="45.77817" lon="4.85524">
        <ele>160</ele>
        <time>2012-04-07T16:57:44Z</time>
      </trkpt>
      <trkpt lat="45.77822" lon="4.85547">
        <ele>160</ele>
        <time>2012-04-07T16:57:47Z</time>
      </trkpt>
      <trkpt lat="45.77826" lon="4.85571">
        <ele>161</ele>
        <time>2012-04-07T16:57:50Z</time>
      </trkpt>
      <trkpt lat="45.77833" lon="4.85594">
        <ele>161</ele>
        <time>2012-04-07T16:57:53Z</time>
      </trkpt>
      <trkpt lat="45.77838" lon="4.85619">
        <ele>163</ele>
        <time>2012-04-07T16:57:56Z</time>
      </trkpt>
      <trkpt lat="45.77844" lon="4.85643">
        <ele>164</ele>
        <time>2012-04-07T16:57:59Z</time>
      </trkpt>
      <trkpt lat="45.7785" lon="4.85664">
        <ele>165</ele>
        <time>2012-04-07T16:58:02Z</time>
      </trkpt>
      <trkpt lat="45.77857" lon="4.85683">
        <ele>165</ele>
        <time>2012-04-07T16:58:05Z</time>
      </trkpt>
      <trkpt lat="45.77863" lon="4.85706">
        <ele>166</ele>
        <time>2012-04-07T16:58:08Z</time>
      </trkpt>
      <trkpt lat="45.77867" lon="4.8573">
        <ele>168</ele>
        <time>2012-04-07T16:58:11Z</time>
      </trkpt>
      <trkpt lat="45.77874" lon="4.85751">
        <ele>170</ele>
        <time>2012-04-07T16:58:14Z</time>
      </trkpt>
      <trkpt lat="45.77882" lon="4.85772">
        <ele>171</ele>
        <time>2012-04-07T16:58:17Z</time>
      </trkpt>
      <trkpt lat="45.77891" lon="4.85791">
        <ele>171</ele>
        <time>2012-04-07T16:58:20Z</time>
      </trkpt>
      <trkpt lat="45.77899" lon="4.85809">
        <ele>171</ele>
        <time>2012-04-07T16:58:23Z</time>
      </trkpt>
      <trkpt lat="45.77905" lon="4.85827">
        <ele>171</ele>
        <time>2012-04-07T16:58:26Z</time>
      </trkpt>
      <trkpt lat="45.77908" lon="4.85847">
        <ele>171</ele>
        <time>2012-04-07T16:58:29Z</time>
      </trkpt>
      <trkpt lat="45.77917" lon="4.8586">
        <ele>171</ele>
        <time>2012-04-07T16:58:32Z</time>
      </trkpt>
      <trkpt lat="45.77929" lon="4.85867">
        <ele>170</ele>
        <time>2012-04-07T16:58:35Z</time>
      </trkpt>
      <trkpt lat="45.7794" lon="4.8587">
        <ele>169</ele>
        <time>2012-04-07T16:58:38Z</time>
      </trkpt>
      <trkpt lat="45.77949" lon="4.8587">
        <ele>168</ele>
        <time>2012-04-07T16:58:41Z</time>
      </trkpt>
      <trkpt lat="45.77959" lon="4.85874">
        <ele>166</ele>
        <time>2012-04-07T16:58:44Z</time>
      </trkpt>
      <trkpt lat="45.77966" lon="4.85883">
        <ele>166</ele>
        <time>2012-04-07T16:58:47Z</time>
      </trkpt>
      <trkpt lat="45.77967" lon="4.85901">
        <ele>166</ele>
        <time>2012-04-07T16:58:51Z</time>
      </trkpt>
      <trkpt lat="45.77967" lon="4.8592">
        <ele>166</ele>
        <time>2012-04-07T16:58:55Z</time>
      </trkpt>
      <trkpt lat="45.7796" lon="4.85936">
        <ele>165</ele>
        <time>2012-04-07T16:58:58Z</time>
      </trkpt>
      <trkpt lat="45.77954" lon="4.85944">
        <ele>161</ele>
        <time>2012-04-07T16:59:02Z</time>
      </trkpt>
      <trkpt lat="45.77956" lon="4.85943">
        <ele>161</ele>
        <time>2012-04-07T16:59:13Z</time>
      </trkpt>
      <trkpt lat="45.77956" lon="4.85945">
        <ele>161</ele>
        <time>2012-04-07T16:59:22Z</time>
      </trkpt>
      <trkpt lat="45.77955" lon="4.85946">
        <ele>162</ele>
        <time>2012-04-07T16:59:25Z</time>
      </trkpt>
      <trkpt lat="45.77954" lon="4.85948">
        <ele>163</ele>
        <time>2012-04-07T16:59:28Z</time>
      </trkpt>
      <trkpt lat="45.77954" lon="4.8595">
        <ele>164</ele>
        <time>2012-04-07T16:59:32Z</time>
      </trkpt>
      <trkpt lat="45.77953" lon="4.85953">
        <ele>164</ele>
        <time>2012-04-07T16:59:36Z</time>
      </trkpt>
      <trkpt lat="45.77951" lon="4.85961">
        <ele>164</ele>
        <time>2012-04-07T16:59:39Z</time>
      </trkpt>
      <trkpt lat="45.77946" lon="4.85969">
        <ele>164</ele>
        <time>2012-04-07T16:59:42Z</time>
      </trkpt>
      <trkpt lat="45.77941" lon="4.8598">
        <ele>164</ele>
        <time>2012-04-07T16:59:45Z</time>
      </trkpt>
      <trkpt lat="45.77944" lon="4.85984">
        <ele>164</ele>
        <time>2012-04-07T16:59:48Z</time>
      </trkpt>
      <trkpt lat="45.77949" lon="4.85993">
        <ele>164</ele>
        <time>2012-04-07T16:59:51Z</time>
      </trkpt>
      <trkpt lat="45.7795" lon="4.86009">
        <ele>164</ele>
        <time>2012-04-07T16:59:54Z</time>
      </trkpt>
      <trkpt lat="45.77947" lon="4.8603">
        <ele>164</ele>
        <time>2012-04-07T16:59:57Z</time>
      </trkpt>
      <trkpt lat="45.77946" lon="4.86053">
        <ele>164</ele>
        <time>2012-04-07T17:00:00Z</time>
      </trkpt>
      <trkpt lat="45.77944" lon="4.86079">
        <ele>164</ele>
        <time>2012-04-07T17:00:03Z</time>
      </trkpt>
      <trkpt lat="45.77942" lon="4.86105">
        <ele>164</ele>
        <time>2012-04-07T17:00:06Z</time>
      </trkpt>
      <trkpt lat="45.77939" lon="4.86131">
        <ele>164</ele>
        <time>2012-04-07T17:00:09Z</time>
      </trkpt>
      <trkpt lat="45.77937" lon="4.86157">
        <ele>164</ele>
        <time>2012-04-07T17:00:12Z</time>
      </trkpt>
      <trkpt lat="45.77934" lon="4.86183">
        <ele>164</ele>
        <time>2012-04-07T17:00:15Z</time>
      </trkpt>
      <trkpt lat="45.77935" lon="4.86207">
        <ele>164</ele>
        <time>2012-04-07T17:00:18Z</time>
      </trkpt>
      <trkpt lat="45.77934" lon="4.86226">
        <ele>164</ele>
        <time>2012-04-07T17:00:21Z</time>
      </trkpt>
      <trkpt lat="45.77932" lon="4.86236">
        <ele>164</ele>
        <time>2012-04-07T17:00:24Z</time>
      </trkpt>
      <trkpt lat="45.77931" lon="4.8624">
        <ele>164</ele>
        <time>2012-04-07T17:00:29Z</time>
      </trkpt>
      <trkpt lat="45.77929" lon="4.86242">
        <ele>164</ele>
        <time>2012-04-07T17:00:33Z</time>
      </trkpt>
      <trkpt lat="45.77927" lon="4.86244">
        <ele>164</ele>
        <time>2012-04-07T17:00:37Z</time>
      </trkpt>
      <trkpt lat="45.77928" lon="4.86248">
        <ele>165</ele>
        <time>2012-04-07T17:00:40Z</time>
      </trkpt>
      <trkpt lat="45.77926" lon="4.86259">
        <ele>166</ele>
        <time>2012-04-07T17:00:43Z</time>
      </trkpt>
      <trkpt lat="45.77924" lon="4.86276">
        <ele>166</ele>
        <time>2012-04-07T17:00:46Z</time>
      </trkpt>
      <trkpt lat="45.7792" lon="4.86293">
        <ele>166</ele>
        <time>2012-04-07T17:00:49Z</time>
      </trkpt>
      <trkpt lat="45.77917" lon="4.86311">
        <ele>166</ele>
        <time>2012-04-07T17:00:52Z</time>
      </trkpt>
      <trkpt lat="45.77916" lon="4.86334">
        <ele>166</ele>
        <time>2012-04-07T17:00:55Z</time>
      </trkpt>
      <trkpt lat="45.77916" lon="4.86353">
        <ele>166</ele>
        <time>2012-04-07T17:00:58Z</time>
      </trkpt>
      <trkpt lat="45.77915" lon="4.86373">
        <ele>166</ele>
        <time>2012-04-07T17:01:01Z</time>
      </trkpt>
      <trkpt lat="45.77912" lon="4.86395">
        <ele>166</ele>
        <time>2012-04-07T17:01:04Z</time>
      </trkpt>
      <trkpt lat="45.77908" lon="4.8642">
        <ele>166</ele>
        <time>2012-04-07T17:01:07Z</time>
      </trkpt>
      <trkpt lat="45.77909" lon="4.8644">
        <ele>166</ele>
        <time>2012-04-07T17:01:10Z</time>
      </trkpt>
      <trkpt lat="45.77907" lon="4.8646">
        <ele>166</ele>
        <time>2012-04-07T17:01:13Z</time>
      </trkpt>
      <trkpt lat="45.77908" lon="4.86483">
        <ele>168</ele>
        <time>2012-04-07T17:01:16Z</time>
      </trkpt>
      <trkpt lat="45.77906" lon="4.86511">
        <ele>171</ele>
        <time>2012-04-07T17:01:19Z</time>
      </trkpt>
      <trkpt lat="45.77901" lon="4.86536">
        <ele>174</ele>
        <time>2012-04-07T17:01:22Z</time>
      </trkpt>
      <trkpt lat="45.77899" lon="4.86561">
        <ele>175</ele>
        <time>2012-04-07T17:01:25Z</time>
      </trkpt>
      <trkpt lat="45.77898" lon="4.86585">
        <ele>175</ele>
        <time>2012-04-07T17:01:28Z</time>
      </trkpt>
      <trkpt lat="45.77891" lon="4.86609">
        <ele>175</ele>
        <time>2012-04-07T17:01:31Z</time>
      </trkpt>
      <trkpt lat="45.77885" lon="4.86631">
        <ele>175</ele>
        <time>2012-04-07T17:01:34Z</time>
      </trkpt>
      <trkpt lat="45.77881" lon="4.86649">
        <ele>175</ele>
        <time>2012-04-07T17:01:37Z</time>
      </trkpt>
      <trkpt lat="45.77876" lon="4.86663">
        <ele>174</ele>
        <time>2012-04-07T17:01:40Z</time>
      </trkpt>
      <trkpt lat="45.77866" lon="4.86673">
        <ele>171</ele>
        <time>2012-04-07T17:01:43Z</time>
      </trkpt>
      <trkpt lat="45.77854" lon="4.86673">
        <ele>168</ele>
        <time>2012-04-07T17:01:46Z</time>
      </trkpt>
      <trkpt lat="45.7784" lon="4.86673">
        <ele>165</ele>
        <time>2012-04-07T17:01:49Z</time>
      </trkpt>
      <trkpt lat="45.77823" lon="4.86676">
        <ele>162</ele>
        <time>2012-04-07T17:01:52Z</time>
      </trkpt>
      <trkpt lat="45.77808" lon="4.86678">
        <ele>159</ele>
        <time>2012-04-07T17:01:55Z</time>
      </trkpt>
      <trkpt lat="45.77793" lon="4.86682">
        <ele>156</ele>
        <time>2012-04-07T17:01:58Z</time>
      </trkpt>
      <trkpt lat="45.77776" lon="4.8669">
        <ele>153</ele>
        <time>2012-04-07T17:02:01Z</time>
      </trkpt>
      <trkpt lat="45.77762" lon="4.86692">
        <ele>153</ele>
        <time>2012-04-07T17:02:04Z</time>
      </trkpt>
      <trkpt lat="45.77747" lon="4.86694">
        <ele>150</ele>
        <time>2012-04-07T17:02:07Z</time>
      </trkpt>
      <trkpt lat="45.77735" lon="4.86699">
        <ele>150</ele>
        <time>2012-04-07T17:02:10Z</time>
      </trkpt>
      <trkpt lat="45.77726" lon="4.867">
        <ele>150</ele>
        <time>2012-04-07T17:02:13Z</time>
      </trkpt>
      <trkpt lat="45.77723" lon="4.86696">
        <ele>153</ele>
        <time>2012-04-07T17:02:16Z</time>
      </trkpt>
      <trkpt lat="45.77721" lon="4.86685">
        <ele>156</ele>
        <time>2012-04-07T17:02:19Z</time>
      </trkpt>
      <trkpt lat="45.77718" lon="4.86678">
        <ele>159</ele>
        <time>2012-04-07T17:02:22Z</time>
      </trkpt>
      <trkpt lat="45.77709" lon="4.86676">
        <ele>163</ele>
        <time>2012-04-07T17:02:25Z</time>
      </trkpt>
      <trkpt lat="45.77699" lon="4.86673">
        <ele>166</ele>
        <time>2012-04-07T17:02:28Z</time>
      </trkpt>
      <trkpt lat="45.7769" lon="4.86671">
        <ele>168</ele>
        <time>2012-04-07T17:02:31Z</time>
      </trkpt>
      <trkpt lat="45.77681" lon="4.86666">
        <ele>171</ele>
        <time>2012-04-07T17:02:34Z</time>
      </trkpt>
      <trkpt lat="45.77673" lon="4.86661">
        <ele>173</ele>
        <time>2012-04-07T17:02:37Z</time>
      </trkpt>
      <trkpt lat="45.77671" lon="4.86655">
        <ele>176</ele>
        <time>2012-04-07T17:02:40Z</time>
      </trkpt>
      <trkpt lat="45.77668" lon="4.86648">
        <ele>179</ele>
        <time>2012-04-07T17:02:43Z</time>
      </trkpt>
      <trkpt lat="45.77669" lon="4.86645">
        <ele>182</ele>
        <time>2012-04-07T17:02:46Z</time>
      </trkpt>
      <trkpt lat="45.77671" lon="4.86641">
        <ele>185</ele>
        <time>2012-04-07T17:02:49Z</time>
      </trkpt>
      <trkpt lat="45.7767" lon="4.86635">
        <ele>188</ele>
        <time>2012-04-07T17:02:52Z</time>
      </trkpt>
      <trkpt lat="45.77668" lon="4.86629">
        <ele>192</ele>
        <time>2012-04-07T17:02:56Z</time>
      </trkpt>
      <trkpt lat="45.77668" lon="4.86626">
        <ele>197</ele>
        <time>2012-04-07T17:03:00Z</time>
      </trkpt>
      <trkpt lat="45.77667" lon="4.86627">
        <ele>203</ele>
        <time>2012-04-07T17:03:06Z</time>
      </trkpt>
      <trkpt lat="45.77666" lon="4.86629">
        <ele>207</ele>
        <time>2012-04-07T17:03:10Z</time>
      </trkpt>
      <trkpt lat="45.77666" lon="4.86631">
        <ele>210</ele>
        <time>2012-04-07T17:03:14Z</time>
      </trkpt>
    </trkseg>
  </trk>
</gpx>